<?xml version="1.0" encoding="UTF-8" standalone="no" ?>
<gpx xmlns="http://www.topografix.com/GPX/1/1" xmlns:xsi="http://www.w3.org/2001/XMLSchema-instance" xsi:schemaLocation="http://www.topografix.com/GPX/1/1 http://www.topografix.com/GPX/1/1/gpx.xsd" version="1.1" creator="VisuGPX - https://www.visugpx.com">
  <metadata>
    <name>Circuit kayak vers sortie du Golfe du Morbihan</name>
    <desc><![CDATA[Circuit kayak de mer en club et en groupe.
Départ de la plage de Berchis vers la sortie du Golfe avec bac AR Port-Navalo-Kerpenhir, arrêt sur la plage de Port-Nav et retour autour des îls d'Er Lannic et de la Jument. 
Navigation à contre-courant près de la côte.]]></desc>
  </metadata>
  <trk>
    <name><![CDATA[Circuit kayak vers sortie du Golfe du Morbihan_1]]></name>
    <trkseg>
      <trkpt lat="47.58324" lon="-2.90549">
        <ele>10.7</ele>
        <time>2018-04-21T06:45:50Z</time>
      </trkpt>
      <trkpt lat="47.58324" lon="-2.90549">
        <ele>3</ele>
        <time>2018-04-21T06:46:02Z</time>
      </trkpt>
      <trkpt lat="47.58314" lon="-2.90535">
        <ele>12</ele>
        <time>2018-04-21T06:48:36Z</time>
      </trkpt>
      <trkpt lat="47.58309" lon="-2.90541">
        <ele>20</ele>
        <time>2018-04-21T06:48:50Z</time>
      </trkpt>
      <trkpt lat="47.58303" lon="-2.9054">
        <ele>24</ele>
        <time>2018-04-21T06:48:54Z</time>
      </trkpt>
      <trkpt lat="47.58298" lon="-2.90541">
        <ele>17</ele>
        <time>2018-04-21T06:48:57Z</time>
      </trkpt>
      <trkpt lat="47.58293" lon="-2.9054">
        <ele>25</ele>
        <time>2018-04-21T06:49:02Z</time>
      </trkpt>
      <trkpt lat="47.58289" lon="-2.9054">
        <ele>26</ele>
        <time>2018-04-21T06:49:05Z</time>
      </trkpt>
      <trkpt lat="47.58284" lon="-2.9054">
        <ele>28</ele>
        <time>2018-04-21T06:49:10Z</time>
      </trkpt>
      <trkpt lat="47.58279" lon="-2.90539">
        <ele>33</ele>
        <time>2018-04-21T06:49:16Z</time>
      </trkpt>
      <trkpt lat="47.58274" lon="-2.90541">
        <ele>35</ele>
        <time>2018-04-21T06:49:20Z</time>
      </trkpt>
      <trkpt lat="47.5827" lon="-2.90543">
        <ele>35</ele>
        <time>2018-04-21T06:49:24Z</time>
      </trkpt>
      <trkpt lat="47.58268" lon="-2.90545">
        <ele>36</ele>
        <time>2018-04-21T06:49:26Z</time>
      </trkpt>
      <trkpt lat="47.58264" lon="-2.90546">
        <ele>38</ele>
        <time>2018-04-21T06:49:29Z</time>
      </trkpt>
      <trkpt lat="47.58262" lon="-2.90547">
        <ele>39</ele>
        <time>2018-04-21T06:49:31Z</time>
      </trkpt>
      <trkpt lat="47.58257" lon="-2.90551">
        <ele>47</ele>
        <time>2018-04-21T06:49:36Z</time>
      </trkpt>
      <trkpt lat="47.58253" lon="-2.90555">
        <ele>46</ele>
        <time>2018-04-21T06:49:41Z</time>
      </trkpt>
      <trkpt lat="47.5825" lon="-2.90557">
        <ele>47</ele>
        <time>2018-04-21T06:49:44Z</time>
      </trkpt>
      <trkpt lat="47.58246" lon="-2.90563">
        <ele>48</ele>
        <time>2018-04-21T06:49:49Z</time>
      </trkpt>
      <trkpt lat="47.58243" lon="-2.90569">
        <ele>47</ele>
        <time>2018-04-21T06:49:55Z</time>
      </trkpt>
      <trkpt lat="47.58243" lon="-2.90569">
        <ele>47</ele>
        <time>2018-04-21T06:51:58Z</time>
      </trkpt>
      <trkpt lat="47.58242" lon="-2.9059">
        <ele>46</ele>
        <time>2018-04-21T06:52:34Z</time>
      </trkpt>
      <trkpt lat="47.58242" lon="-2.90595">
        <ele>44</ele>
        <time>2018-04-21T06:52:48Z</time>
      </trkpt>
      <trkpt lat="47.58243" lon="-2.90601">
        <ele>45</ele>
        <time>2018-04-21T06:52:53Z</time>
      </trkpt>
      <trkpt lat="47.58248" lon="-2.90603">
        <ele>45</ele>
        <time>2018-04-21T06:52:58Z</time>
      </trkpt>
      <trkpt lat="47.58248" lon="-2.90603">
        <ele>1</ele>
        <time>2018-04-21T06:53:05Z</time>
      </trkpt>
      <trkpt lat="47.58248" lon="-2.90603">
        <ele>1</ele>
        <time>2018-04-21T06:53:09Z</time>
      </trkpt>
      <trkpt lat="47.58254" lon="-2.90609">
        <ele>45</ele>
        <time>2018-04-21T06:53:09Z</time>
      </trkpt>
      <trkpt lat="47.58257" lon="-2.90613">
        <ele>46</ele>
        <time>2018-04-21T06:53:13Z</time>
      </trkpt>
      <trkpt lat="47.58262" lon="-2.90616">
        <ele>46</ele>
        <time>2018-04-21T06:53:17Z</time>
      </trkpt>
      <trkpt lat="47.58262" lon="-2.90616">
        <ele>1</ele>
        <time>2018-04-21T06:53:25Z</time>
      </trkpt>
      <trkpt lat="47.58262" lon="-2.90616">
        <ele>1</ele>
        <time>2018-04-21T06:53:33Z</time>
      </trkpt>
      <trkpt lat="47.5827" lon="-2.9061">
        <ele>44</ele>
        <time>2018-04-21T06:53:33Z</time>
      </trkpt>
      <trkpt lat="47.5827" lon="-2.9061">
        <ele>44</ele>
        <time>2018-04-21T06:55:56Z</time>
      </trkpt>
      <trkpt lat="47.58283" lon="-2.90633">
        <ele>47</ele>
        <time>2018-04-21T06:58:03Z</time>
      </trkpt>
      <trkpt lat="47.58285" lon="-2.90635">
        <ele>46</ele>
        <time>2018-04-21T06:58:12Z</time>
      </trkpt>
      <trkpt lat="47.58287" lon="-2.90638">
        <ele>45</ele>
        <time>2018-04-21T06:58:19Z</time>
      </trkpt>
      <trkpt lat="47.58287" lon="-2.90638">
        <ele>45</ele>
        <time>2018-04-21T07:01:45Z</time>
      </trkpt>
      <trkpt lat="47.58302" lon="-2.90668">
        <ele>44</ele>
        <time>2018-04-21T07:05:36Z</time>
      </trkpt>
      <trkpt lat="47.58304" lon="-2.90672">
        <ele>46</ele>
        <time>2018-04-21T07:05:42Z</time>
      </trkpt>
      <trkpt lat="47.58303" lon="-2.90678">
        <ele>47</ele>
        <time>2018-04-21T07:05:46Z</time>
      </trkpt>
      <trkpt lat="47.58299" lon="-2.90686">
        <ele>46</ele>
        <time>2018-04-21T07:05:50Z</time>
      </trkpt>
      <trkpt lat="47.58297" lon="-2.9069">
        <ele>46</ele>
        <time>2018-04-21T07:05:52Z</time>
      </trkpt>
      <trkpt lat="47.58296" lon="-2.90694">
        <ele>47</ele>
        <time>2018-04-21T07:05:54Z</time>
      </trkpt>
      <trkpt lat="47.58292" lon="-2.90699">
        <ele>49</ele>
        <time>2018-04-21T07:05:59Z</time>
      </trkpt>
      <trkpt lat="47.58288" lon="-2.90704">
        <ele>46</ele>
        <time>2018-04-21T07:06:06Z</time>
      </trkpt>
      <trkpt lat="47.58285" lon="-2.90707">
        <ele>47</ele>
        <time>2018-04-21T07:06:11Z</time>
      </trkpt>
      <trkpt lat="47.58283" lon="-2.90709">
        <ele>47</ele>
        <time>2018-04-21T07:06:16Z</time>
      </trkpt>
      <trkpt lat="47.58278" lon="-2.90712">
        <ele>47</ele>
        <time>2018-04-21T07:06:21Z</time>
      </trkpt>
      <trkpt lat="47.58275" lon="-2.90714">
        <ele>47</ele>
        <time>2018-04-21T07:06:23Z</time>
      </trkpt>
      <trkpt lat="47.58271" lon="-2.90718">
        <ele>48</ele>
        <time>2018-04-21T07:06:26Z</time>
      </trkpt>
      <trkpt lat="47.58264" lon="-2.90723">
        <ele>49</ele>
        <time>2018-04-21T07:06:29Z</time>
      </trkpt>
      <trkpt lat="47.58262" lon="-2.90724">
        <ele>49</ele>
        <time>2018-04-21T07:06:30Z</time>
      </trkpt>
      <trkpt lat="47.58256" lon="-2.90728">
        <ele>48</ele>
        <time>2018-04-21T07:06:34Z</time>
      </trkpt>
      <trkpt lat="47.58251" lon="-2.90733">
        <ele>48</ele>
        <time>2018-04-21T07:06:37Z</time>
      </trkpt>
      <trkpt lat="47.58248" lon="-2.90736">
        <ele>47</ele>
        <time>2018-04-21T07:06:39Z</time>
      </trkpt>
      <trkpt lat="47.58243" lon="-2.9074">
        <ele>48</ele>
        <time>2018-04-21T07:06:42Z</time>
      </trkpt>
      <trkpt lat="47.58238" lon="-2.90745">
        <ele>48</ele>
        <time>2018-04-21T07:06:45Z</time>
      </trkpt>
      <trkpt lat="47.58236" lon="-2.90747">
        <ele>48</ele>
        <time>2018-04-21T07:06:46Z</time>
      </trkpt>
      <trkpt lat="47.58231" lon="-2.90752">
        <ele>48</ele>
        <time>2018-04-21T07:06:48Z</time>
      </trkpt>
      <trkpt lat="47.58225" lon="-2.90756">
        <ele>48</ele>
        <time>2018-04-21T07:06:52Z</time>
      </trkpt>
      <trkpt lat="47.58223" lon="-2.90757">
        <ele>48</ele>
        <time>2018-04-21T07:06:53Z</time>
      </trkpt>
      <trkpt lat="47.58218" lon="-2.9076">
        <ele>46</ele>
        <time>2018-04-21T07:06:55Z</time>
      </trkpt>
      <trkpt lat="47.58214" lon="-2.90761">
        <ele>46</ele>
        <time>2018-04-21T07:06:57Z</time>
      </trkpt>
      <trkpt lat="47.58209" lon="-2.90764">
        <ele>47</ele>
        <time>2018-04-21T07:06:59Z</time>
      </trkpt>
      <trkpt lat="47.58205" lon="-2.90765">
        <ele>46</ele>
        <time>2018-04-21T07:07:01Z</time>
      </trkpt>
      <trkpt lat="47.58201" lon="-2.90767">
        <ele>46</ele>
        <time>2018-04-21T07:07:02Z</time>
      </trkpt>
      <trkpt lat="47.58195" lon="-2.90767">
        <ele>46</ele>
        <time>2018-04-21T07:07:06Z</time>
      </trkpt>
      <trkpt lat="47.58188" lon="-2.90766">
        <ele>45</ele>
        <time>2018-04-21T07:07:08Z</time>
      </trkpt>
      <trkpt lat="47.58183" lon="-2.90767">
        <ele>45</ele>
        <time>2018-04-21T07:07:10Z</time>
      </trkpt>
      <trkpt lat="47.58177" lon="-2.90767">
        <ele>46</ele>
        <time>2018-04-21T07:07:13Z</time>
      </trkpt>
      <trkpt lat="47.58172" lon="-2.90767">
        <ele>45</ele>
        <time>2018-04-21T07:07:15Z</time>
      </trkpt>
      <trkpt lat="47.58166" lon="-2.9077">
        <ele>45</ele>
        <time>2018-04-21T07:07:18Z</time>
      </trkpt>
      <trkpt lat="47.58162" lon="-2.90771">
        <ele>46</ele>
        <time>2018-04-21T07:07:20Z</time>
      </trkpt>
      <trkpt lat="47.58158" lon="-2.90772">
        <ele>44</ele>
        <time>2018-04-21T07:07:22Z</time>
      </trkpt>
      <trkpt lat="47.58155" lon="-2.90773">
        <ele>44</ele>
        <time>2018-04-21T07:07:24Z</time>
      </trkpt>
      <trkpt lat="47.58151" lon="-2.90774">
        <ele>44</ele>
        <time>2018-04-21T07:07:26Z</time>
      </trkpt>
      <trkpt lat="47.58146" lon="-2.90776">
        <ele>44</ele>
        <time>2018-04-21T07:07:28Z</time>
      </trkpt>
      <trkpt lat="47.58142" lon="-2.90777">
        <ele>44</ele>
        <time>2018-04-21T07:07:30Z</time>
      </trkpt>
      <trkpt lat="47.5814" lon="-2.90777">
        <ele>45</ele>
        <time>2018-04-21T07:07:31Z</time>
      </trkpt>
      <trkpt lat="47.58135" lon="-2.90778">
        <ele>46</ele>
        <time>2018-04-21T07:07:33Z</time>
      </trkpt>
      <trkpt lat="47.58131" lon="-2.90779">
        <ele>45</ele>
        <time>2018-04-21T07:07:35Z</time>
      </trkpt>
      <trkpt lat="47.58124" lon="-2.90783">
        <ele>45</ele>
        <time>2018-04-21T07:07:38Z</time>
      </trkpt>
      <trkpt lat="47.58122" lon="-2.90784">
        <ele>46</ele>
        <time>2018-04-21T07:07:39Z</time>
      </trkpt>
      <trkpt lat="47.58118" lon="-2.90786">
        <ele>46</ele>
        <time>2018-04-21T07:07:41Z</time>
      </trkpt>
      <trkpt lat="47.58113" lon="-2.90787">
        <ele>44</ele>
        <time>2018-04-21T07:07:43Z</time>
      </trkpt>
      <trkpt lat="47.58108" lon="-2.90788">
        <ele>45</ele>
        <time>2018-04-21T07:07:45Z</time>
      </trkpt>
      <trkpt lat="47.58101" lon="-2.90786">
        <ele>42</ele>
        <time>2018-04-21T07:07:48Z</time>
      </trkpt>
      <trkpt lat="47.58099" lon="-2.90786">
        <ele>42</ele>
        <time>2018-04-21T07:07:49Z</time>
      </trkpt>
      <trkpt lat="47.58093" lon="-2.90786">
        <ele>42</ele>
        <time>2018-04-21T07:07:52Z</time>
      </trkpt>
      <trkpt lat="47.5809" lon="-2.90786">
        <ele>43</ele>
        <time>2018-04-21T07:07:54Z</time>
      </trkpt>
      <trkpt lat="47.58085" lon="-2.90786">
        <ele>44</ele>
        <time>2018-04-21T07:07:56Z</time>
      </trkpt>
      <trkpt lat="47.58082" lon="-2.90786">
        <ele>44</ele>
        <time>2018-04-21T07:07:58Z</time>
      </trkpt>
      <trkpt lat="47.5808" lon="-2.90786">
        <ele>43</ele>
        <time>2018-04-21T07:07:59Z</time>
      </trkpt>
      <trkpt lat="47.58073" lon="-2.90787">
        <ele>43</ele>
        <time>2018-04-21T07:08:02Z</time>
      </trkpt>
      <trkpt lat="47.58067" lon="-2.90787">
        <ele>43</ele>
        <time>2018-04-21T07:08:05Z</time>
      </trkpt>
      <trkpt lat="47.58062" lon="-2.90786">
        <ele>43</ele>
        <time>2018-04-21T07:08:07Z</time>
      </trkpt>
      <trkpt lat="47.58058" lon="-2.90785">
        <ele>42</ele>
        <time>2018-04-21T07:08:09Z</time>
      </trkpt>
      <trkpt lat="47.58056" lon="-2.90784">
        <ele>43</ele>
        <time>2018-04-21T07:08:10Z</time>
      </trkpt>
      <trkpt lat="47.58052" lon="-2.90784">
        <ele>43</ele>
        <time>2018-04-21T07:08:12Z</time>
      </trkpt>
      <trkpt lat="47.58048" lon="-2.90784">
        <ele>43</ele>
        <time>2018-04-21T07:08:14Z</time>
      </trkpt>
      <trkpt lat="47.58044" lon="-2.90785">
        <ele>43</ele>
        <time>2018-04-21T07:08:16Z</time>
      </trkpt>
      <trkpt lat="47.58037" lon="-2.90784">
        <ele>42</ele>
        <time>2018-04-21T07:08:19Z</time>
      </trkpt>
      <trkpt lat="47.58033" lon="-2.90784">
        <ele>42</ele>
        <time>2018-04-21T07:08:21Z</time>
      </trkpt>
      <trkpt lat="47.58028" lon="-2.90785">
        <ele>43</ele>
        <time>2018-04-21T07:08:24Z</time>
      </trkpt>
      <trkpt lat="47.58022" lon="-2.90786">
        <ele>42</ele>
        <time>2018-04-21T07:08:27Z</time>
      </trkpt>
      <trkpt lat="47.58017" lon="-2.90787">
        <ele>42</ele>
        <time>2018-04-21T07:08:29Z</time>
      </trkpt>
      <trkpt lat="47.58011" lon="-2.90786">
        <ele>42</ele>
        <time>2018-04-21T07:08:32Z</time>
      </trkpt>
      <trkpt lat="47.58004" lon="-2.90788">
        <ele>43</ele>
        <time>2018-04-21T07:08:35Z</time>
      </trkpt>
      <trkpt lat="47.58002" lon="-2.90789">
        <ele>43</ele>
        <time>2018-04-21T07:08:36Z</time>
      </trkpt>
      <trkpt lat="47.57998" lon="-2.90791">
        <ele>43</ele>
        <time>2018-04-21T07:08:38Z</time>
      </trkpt>
      <trkpt lat="47.57994" lon="-2.90792">
        <ele>43</ele>
        <time>2018-04-21T07:08:40Z</time>
      </trkpt>
      <trkpt lat="47.5799" lon="-2.90793">
        <ele>43</ele>
        <time>2018-04-21T07:08:42Z</time>
      </trkpt>
      <trkpt lat="47.57984" lon="-2.90793">
        <ele>42</ele>
        <time>2018-04-21T07:08:45Z</time>
      </trkpt>
      <trkpt lat="47.57982" lon="-2.90794">
        <ele>42</ele>
        <time>2018-04-21T07:08:46Z</time>
      </trkpt>
      <trkpt lat="47.57978" lon="-2.90795">
        <ele>43</ele>
        <time>2018-04-21T07:08:48Z</time>
      </trkpt>
      <trkpt lat="47.57974" lon="-2.90796">
        <ele>44</ele>
        <time>2018-04-21T07:08:50Z</time>
      </trkpt>
      <trkpt lat="47.5797" lon="-2.90797">
        <ele>44</ele>
        <time>2018-04-21T07:08:52Z</time>
      </trkpt>
      <trkpt lat="47.57965" lon="-2.90801">
        <ele>42</ele>
        <time>2018-04-21T07:08:55Z</time>
      </trkpt>
      <trkpt lat="47.57962" lon="-2.90803">
        <ele>43</ele>
        <time>2018-04-21T07:08:57Z</time>
      </trkpt>
      <trkpt lat="47.57956" lon="-2.90805">
        <ele>44</ele>
        <time>2018-04-21T07:09:01Z</time>
      </trkpt>
      <trkpt lat="47.57953" lon="-2.90807">
        <ele>43</ele>
        <time>2018-04-21T07:09:03Z</time>
      </trkpt>
      <trkpt lat="47.57948" lon="-2.90807">
        <ele>44</ele>
        <time>2018-04-21T07:09:05Z</time>
      </trkpt>
      <trkpt lat="47.57942" lon="-2.90809">
        <ele>43</ele>
        <time>2018-04-21T07:09:08Z</time>
      </trkpt>
      <trkpt lat="47.57937" lon="-2.90809">
        <ele>43</ele>
        <time>2018-04-21T07:09:11Z</time>
      </trkpt>
      <trkpt lat="47.57932" lon="-2.90806">
        <ele>43</ele>
        <time>2018-04-21T07:09:14Z</time>
      </trkpt>
      <trkpt lat="47.57927" lon="-2.90804">
        <ele>43</ele>
        <time>2018-04-21T07:09:17Z</time>
      </trkpt>
      <trkpt lat="47.57924" lon="-2.90804">
        <ele>42</ele>
        <time>2018-04-21T07:09:18Z</time>
      </trkpt>
      <trkpt lat="47.57921" lon="-2.90804">
        <ele>43</ele>
        <time>2018-04-21T07:09:20Z</time>
      </trkpt>
      <trkpt lat="47.57918" lon="-2.90803">
        <ele>43</ele>
        <time>2018-04-21T07:09:22Z</time>
      </trkpt>
      <trkpt lat="47.57914" lon="-2.90804">
        <ele>43</ele>
        <time>2018-04-21T07:09:24Z</time>
      </trkpt>
      <trkpt lat="47.57909" lon="-2.90806">
        <ele>44</ele>
        <time>2018-04-21T07:09:27Z</time>
      </trkpt>
      <trkpt lat="47.57905" lon="-2.90807">
        <ele>43</ele>
        <time>2018-04-21T07:09:29Z</time>
      </trkpt>
      <trkpt lat="47.57901" lon="-2.90812">
        <ele>42</ele>
        <time>2018-04-21T07:09:32Z</time>
      </trkpt>
      <trkpt lat="47.57899" lon="-2.90815">
        <ele>41</ele>
        <time>2018-04-21T07:09:34Z</time>
      </trkpt>
      <trkpt lat="47.57893" lon="-2.90819">
        <ele>42</ele>
        <time>2018-04-21T07:09:37Z</time>
      </trkpt>
      <trkpt lat="47.5789" lon="-2.90821">
        <ele>42</ele>
        <time>2018-04-21T07:09:39Z</time>
      </trkpt>
      <trkpt lat="47.57884" lon="-2.90825">
        <ele>42</ele>
        <time>2018-04-21T07:09:42Z</time>
      </trkpt>
      <trkpt lat="47.5788" lon="-2.9083">
        <ele>42</ele>
        <time>2018-04-21T07:09:44Z</time>
      </trkpt>
      <trkpt lat="47.57876" lon="-2.90837">
        <ele>43</ele>
        <time>2018-04-21T07:09:47Z</time>
      </trkpt>
      <trkpt lat="47.57873" lon="-2.90844">
        <ele>45</ele>
        <time>2018-04-21T07:09:50Z</time>
      </trkpt>
      <trkpt lat="47.57871" lon="-2.90853">
        <ele>45</ele>
        <time>2018-04-21T07:09:54Z</time>
      </trkpt>
      <trkpt lat="47.57866" lon="-2.90858">
        <ele>43</ele>
        <time>2018-04-21T07:09:57Z</time>
      </trkpt>
      <trkpt lat="47.57862" lon="-2.90864">
        <ele>44</ele>
        <time>2018-04-21T07:10:00Z</time>
      </trkpt>
      <trkpt lat="47.57861" lon="-2.90867">
        <ele>43</ele>
        <time>2018-04-21T07:10:02Z</time>
      </trkpt>
      <trkpt lat="47.57859" lon="-2.90871">
        <ele>44</ele>
        <time>2018-04-21T07:10:04Z</time>
      </trkpt>
      <trkpt lat="47.57856" lon="-2.90875">
        <ele>44</ele>
        <time>2018-04-21T07:10:06Z</time>
      </trkpt>
      <trkpt lat="47.57851" lon="-2.90881">
        <ele>42</ele>
        <time>2018-04-21T07:10:09Z</time>
      </trkpt>
      <trkpt lat="47.57849" lon="-2.90885">
        <ele>42</ele>
        <time>2018-04-21T07:10:11Z</time>
      </trkpt>
      <trkpt lat="47.57844" lon="-2.90889">
        <ele>42</ele>
        <time>2018-04-21T07:10:14Z</time>
      </trkpt>
      <trkpt lat="47.57841" lon="-2.90892">
        <ele>41</ele>
        <time>2018-04-21T07:10:16Z</time>
      </trkpt>
      <trkpt lat="47.57838" lon="-2.90896">
        <ele>41</ele>
        <time>2018-04-21T07:10:19Z</time>
      </trkpt>
      <trkpt lat="47.57834" lon="-2.90902">
        <ele>40</ele>
        <time>2018-04-21T07:10:22Z</time>
      </trkpt>
      <trkpt lat="47.57833" lon="-2.90908">
        <ele>39</ele>
        <time>2018-04-21T07:10:25Z</time>
      </trkpt>
      <trkpt lat="47.57828" lon="-2.90914">
        <ele>40</ele>
        <time>2018-04-21T07:10:28Z</time>
      </trkpt>
      <trkpt lat="47.57825" lon="-2.90917">
        <ele>39</ele>
        <time>2018-04-21T07:10:30Z</time>
      </trkpt>
      <trkpt lat="47.57822" lon="-2.9092">
        <ele>40</ele>
        <time>2018-04-21T07:10:32Z</time>
      </trkpt>
      <trkpt lat="47.57819" lon="-2.90925">
        <ele>40</ele>
        <time>2018-04-21T07:10:35Z</time>
      </trkpt>
      <trkpt lat="47.57816" lon="-2.9093">
        <ele>39</ele>
        <time>2018-04-21T07:10:37Z</time>
      </trkpt>
      <trkpt lat="47.57813" lon="-2.90934">
        <ele>40</ele>
        <time>2018-04-21T07:10:39Z</time>
      </trkpt>
      <trkpt lat="47.57809" lon="-2.9094">
        <ele>41</ele>
        <time>2018-04-21T07:10:42Z</time>
      </trkpt>
      <trkpt lat="47.57807" lon="-2.90943">
        <ele>42</ele>
        <time>2018-04-21T07:10:44Z</time>
      </trkpt>
      <trkpt lat="47.57803" lon="-2.90949">
        <ele>42</ele>
        <time>2018-04-21T07:10:47Z</time>
      </trkpt>
      <trkpt lat="47.57799" lon="-2.90954">
        <ele>43</ele>
        <time>2018-04-21T07:10:50Z</time>
      </trkpt>
      <trkpt lat="47.57796" lon="-2.90957">
        <ele>43</ele>
        <time>2018-04-21T07:10:52Z</time>
      </trkpt>
      <trkpt lat="47.57792" lon="-2.90963">
        <ele>42</ele>
        <time>2018-04-21T07:10:55Z</time>
      </trkpt>
      <trkpt lat="47.5779" lon="-2.90967">
        <ele>42</ele>
        <time>2018-04-21T07:10:57Z</time>
      </trkpt>
      <trkpt lat="47.57787" lon="-2.90971">
        <ele>42</ele>
        <time>2018-04-21T07:10:59Z</time>
      </trkpt>
      <trkpt lat="47.57785" lon="-2.90975">
        <ele>43</ele>
        <time>2018-04-21T07:11:01Z</time>
      </trkpt>
      <trkpt lat="47.57782" lon="-2.90981">
        <ele>43</ele>
        <time>2018-04-21T07:11:04Z</time>
      </trkpt>
      <trkpt lat="47.57779" lon="-2.90986">
        <ele>44</ele>
        <time>2018-04-21T07:11:07Z</time>
      </trkpt>
      <trkpt lat="47.57775" lon="-2.90991">
        <ele>45</ele>
        <time>2018-04-21T07:11:10Z</time>
      </trkpt>
      <trkpt lat="47.5777" lon="-2.90996">
        <ele>44</ele>
        <time>2018-04-21T07:11:14Z</time>
      </trkpt>
      <trkpt lat="47.57765" lon="-2.91">
        <ele>46</ele>
        <time>2018-04-21T07:11:17Z</time>
      </trkpt>
      <trkpt lat="47.57761" lon="-2.91003">
        <ele>45</ele>
        <time>2018-04-21T07:11:23Z</time>
      </trkpt>
      <trkpt lat="47.57758" lon="-2.91004">
        <ele>45</ele>
        <time>2018-04-21T07:11:28Z</time>
      </trkpt>
      <trkpt lat="47.57754" lon="-2.91008">
        <ele>46</ele>
        <time>2018-04-21T07:11:36Z</time>
      </trkpt>
      <trkpt lat="47.57749" lon="-2.91011">
        <ele>44</ele>
        <time>2018-04-21T07:11:43Z</time>
      </trkpt>
      <trkpt lat="47.57747" lon="-2.91012">
        <ele>45</ele>
        <time>2018-04-21T07:11:47Z</time>
      </trkpt>
      <trkpt lat="47.57742" lon="-2.91015">
        <ele>45</ele>
        <time>2018-04-21T07:11:51Z</time>
      </trkpt>
      <trkpt lat="47.57739" lon="-2.91016">
        <ele>45</ele>
        <time>2018-04-21T07:11:53Z</time>
      </trkpt>
      <trkpt lat="47.57737" lon="-2.91018">
        <ele>44</ele>
        <time>2018-04-21T07:11:56Z</time>
      </trkpt>
      <trkpt lat="47.57734" lon="-2.91019">
        <ele>43</ele>
        <time>2018-04-21T07:11:58Z</time>
      </trkpt>
      <trkpt lat="47.5773" lon="-2.91022">
        <ele>43</ele>
        <time>2018-04-21T07:12:00Z</time>
      </trkpt>
      <trkpt lat="47.57727" lon="-2.91023">
        <ele>43</ele>
        <time>2018-04-21T07:12:02Z</time>
      </trkpt>
      <trkpt lat="47.57724" lon="-2.91025">
        <ele>42</ele>
        <time>2018-04-21T07:12:05Z</time>
      </trkpt>
      <trkpt lat="47.57719" lon="-2.91029">
        <ele>42</ele>
        <time>2018-04-21T07:12:08Z</time>
      </trkpt>
      <trkpt lat="47.57716" lon="-2.91032">
        <ele>43</ele>
        <time>2018-04-21T07:12:10Z</time>
      </trkpt>
      <trkpt lat="47.57713" lon="-2.91034">
        <ele>42</ele>
        <time>2018-04-21T07:12:12Z</time>
      </trkpt>
      <trkpt lat="47.57709" lon="-2.91036">
        <ele>42</ele>
        <time>2018-04-21T07:12:14Z</time>
      </trkpt>
      <trkpt lat="47.57706" lon="-2.91038">
        <ele>42</ele>
        <time>2018-04-21T07:12:16Z</time>
      </trkpt>
      <trkpt lat="47.57701" lon="-2.9104">
        <ele>42</ele>
        <time>2018-04-21T07:12:19Z</time>
      </trkpt>
      <trkpt lat="47.57699" lon="-2.91041">
        <ele>43</ele>
        <time>2018-04-21T07:12:21Z</time>
      </trkpt>
      <trkpt lat="47.57694" lon="-2.91044">
        <ele>44</ele>
        <time>2018-04-21T07:12:25Z</time>
      </trkpt>
      <trkpt lat="47.5769" lon="-2.91046">
        <ele>42</ele>
        <time>2018-04-21T07:12:28Z</time>
      </trkpt>
      <trkpt lat="47.57685" lon="-2.91048">
        <ele>43</ele>
        <time>2018-04-21T07:12:32Z</time>
      </trkpt>
      <trkpt lat="47.57681" lon="-2.91049">
        <ele>45</ele>
        <time>2018-04-21T07:12:35Z</time>
      </trkpt>
      <trkpt lat="47.57677" lon="-2.91051">
        <ele>45</ele>
        <time>2018-04-21T07:12:37Z</time>
      </trkpt>
      <trkpt lat="47.57674" lon="-2.91052">
        <ele>45</ele>
        <time>2018-04-21T07:12:39Z</time>
      </trkpt>
      <trkpt lat="47.57669" lon="-2.91054">
        <ele>45</ele>
        <time>2018-04-21T07:12:42Z</time>
      </trkpt>
      <trkpt lat="47.57666" lon="-2.91055">
        <ele>44</ele>
        <time>2018-04-21T07:12:44Z</time>
      </trkpt>
      <trkpt lat="47.5766" lon="-2.91056">
        <ele>44</ele>
        <time>2018-04-21T07:12:48Z</time>
      </trkpt>
      <trkpt lat="47.57655" lon="-2.91059">
        <ele>45</ele>
        <time>2018-04-21T07:12:51Z</time>
      </trkpt>
      <trkpt lat="47.57651" lon="-2.91062">
        <ele>44</ele>
        <time>2018-04-21T07:12:53Z</time>
      </trkpt>
      <trkpt lat="47.57648" lon="-2.91064">
        <ele>45</ele>
        <time>2018-04-21T07:12:55Z</time>
      </trkpt>
      <trkpt lat="47.57643" lon="-2.91068">
        <ele>47</ele>
        <time>2018-04-21T07:12:58Z</time>
      </trkpt>
      <trkpt lat="47.57639" lon="-2.91071">
        <ele>46</ele>
        <time>2018-04-21T07:13:00Z</time>
      </trkpt>
      <trkpt lat="47.57635" lon="-2.91073">
        <ele>46</ele>
        <time>2018-04-21T07:13:02Z</time>
      </trkpt>
      <trkpt lat="47.5763" lon="-2.91077">
        <ele>46</ele>
        <time>2018-04-21T07:13:05Z</time>
      </trkpt>
      <trkpt lat="47.57625" lon="-2.91082">
        <ele>46</ele>
        <time>2018-04-21T07:13:08Z</time>
      </trkpt>
      <trkpt lat="47.57622" lon="-2.91085">
        <ele>45</ele>
        <time>2018-04-21T07:13:10Z</time>
      </trkpt>
      <trkpt lat="47.57617" lon="-2.91089">
        <ele>46</ele>
        <time>2018-04-21T07:13:13Z</time>
      </trkpt>
      <trkpt lat="47.57613" lon="-2.91094">
        <ele>46</ele>
        <time>2018-04-21T07:13:16Z</time>
      </trkpt>
      <trkpt lat="47.57609" lon="-2.91098">
        <ele>46</ele>
        <time>2018-04-21T07:13:19Z</time>
      </trkpt>
      <trkpt lat="47.57607" lon="-2.911">
        <ele>46</ele>
        <time>2018-04-21T07:13:20Z</time>
      </trkpt>
      <trkpt lat="47.57602" lon="-2.91104">
        <ele>46</ele>
        <time>2018-04-21T07:13:23Z</time>
      </trkpt>
      <trkpt lat="47.57598" lon="-2.91109">
        <ele>45</ele>
        <time>2018-04-21T07:13:27Z</time>
      </trkpt>
      <trkpt lat="47.57596" lon="-2.91112">
        <ele>44</ele>
        <time>2018-04-21T07:13:29Z</time>
      </trkpt>
      <trkpt lat="47.57594" lon="-2.91114">
        <ele>45</ele>
        <time>2018-04-21T07:13:30Z</time>
      </trkpt>
      <trkpt lat="47.57592" lon="-2.91116">
        <ele>45</ele>
        <time>2018-04-21T07:13:31Z</time>
      </trkpt>
      <trkpt lat="47.57589" lon="-2.9112">
        <ele>46</ele>
        <time>2018-04-21T07:13:33Z</time>
      </trkpt>
      <trkpt lat="47.57584" lon="-2.91123">
        <ele>47</ele>
        <time>2018-04-21T07:13:36Z</time>
      </trkpt>
      <trkpt lat="47.57579" lon="-2.91128">
        <ele>48</ele>
        <time>2018-04-21T07:13:39Z</time>
      </trkpt>
      <trkpt lat="47.57575" lon="-2.91131">
        <ele>48</ele>
        <time>2018-04-21T07:13:41Z</time>
      </trkpt>
      <trkpt lat="47.57572" lon="-2.91134">
        <ele>46</ele>
        <time>2018-04-21T07:13:43Z</time>
      </trkpt>
      <trkpt lat="47.57568" lon="-2.91139">
        <ele>46</ele>
        <time>2018-04-21T07:13:46Z</time>
      </trkpt>
      <trkpt lat="47.57564" lon="-2.91143">
        <ele>46</ele>
        <time>2018-04-21T07:13:49Z</time>
      </trkpt>
      <trkpt lat="47.57562" lon="-2.91145">
        <ele>46</ele>
        <time>2018-04-21T07:13:51Z</time>
      </trkpt>
      <trkpt lat="47.5756" lon="-2.91148">
        <ele>48</ele>
        <time>2018-04-21T07:13:53Z</time>
      </trkpt>
      <trkpt lat="47.57556" lon="-2.91152">
        <ele>48</ele>
        <time>2018-04-21T07:13:56Z</time>
      </trkpt>
      <trkpt lat="47.57554" lon="-2.91154">
        <ele>48</ele>
        <time>2018-04-21T07:13:58Z</time>
      </trkpt>
      <trkpt lat="47.57549" lon="-2.91158">
        <ele>48</ele>
        <time>2018-04-21T07:14:02Z</time>
      </trkpt>
      <trkpt lat="47.57546" lon="-2.9116">
        <ele>47</ele>
        <time>2018-04-21T07:14:04Z</time>
      </trkpt>
      <trkpt lat="47.57542" lon="-2.91162">
        <ele>48</ele>
        <time>2018-04-21T07:14:07Z</time>
      </trkpt>
      <trkpt lat="47.57537" lon="-2.91161">
        <ele>47</ele>
        <time>2018-04-21T07:14:11Z</time>
      </trkpt>
      <trkpt lat="47.57532" lon="-2.91158">
        <ele>48</ele>
        <time>2018-04-21T07:14:15Z</time>
      </trkpt>
      <trkpt lat="47.57528" lon="-2.91157">
        <ele>48</ele>
        <time>2018-04-21T07:14:18Z</time>
      </trkpt>
      <trkpt lat="47.57525" lon="-2.91156">
        <ele>50</ele>
        <time>2018-04-21T07:14:20Z</time>
      </trkpt>
      <trkpt lat="47.57522" lon="-2.91155">
        <ele>51</ele>
        <time>2018-04-21T07:14:23Z</time>
      </trkpt>
      <trkpt lat="47.57517" lon="-2.91152">
        <ele>50</ele>
        <time>2018-04-21T07:14:26Z</time>
      </trkpt>
      <trkpt lat="47.57513" lon="-2.91147">
        <ele>49</ele>
        <time>2018-04-21T07:14:29Z</time>
      </trkpt>
      <trkpt lat="47.57508" lon="-2.91144">
        <ele>48</ele>
        <time>2018-04-21T07:14:32Z</time>
      </trkpt>
      <trkpt lat="47.57504" lon="-2.91142">
        <ele>48</ele>
        <time>2018-04-21T07:14:35Z</time>
      </trkpt>
      <trkpt lat="47.575" lon="-2.91138">
        <ele>47</ele>
        <time>2018-04-21T07:14:38Z</time>
      </trkpt>
      <trkpt lat="47.57495" lon="-2.91136">
        <ele>46</ele>
        <time>2018-04-21T07:14:41Z</time>
      </trkpt>
      <trkpt lat="47.57492" lon="-2.91134">
        <ele>45</ele>
        <time>2018-04-21T07:14:43Z</time>
      </trkpt>
      <trkpt lat="47.57487" lon="-2.91132">
        <ele>46</ele>
        <time>2018-04-21T07:14:46Z</time>
      </trkpt>
      <trkpt lat="47.57481" lon="-2.91129">
        <ele>47</ele>
        <time>2018-04-21T07:14:49Z</time>
      </trkpt>
      <trkpt lat="47.57476" lon="-2.91128">
        <ele>48</ele>
        <time>2018-04-21T07:14:52Z</time>
      </trkpt>
      <trkpt lat="47.5747" lon="-2.91126">
        <ele>48</ele>
        <time>2018-04-21T07:14:55Z</time>
      </trkpt>
      <trkpt lat="47.57464" lon="-2.91125">
        <ele>46</ele>
        <time>2018-04-21T07:14:58Z</time>
      </trkpt>
      <trkpt lat="47.5746" lon="-2.91124">
        <ele>46</ele>
        <time>2018-04-21T07:15:00Z</time>
      </trkpt>
      <trkpt lat="47.57454" lon="-2.91122">
        <ele>46</ele>
        <time>2018-04-21T07:15:03Z</time>
      </trkpt>
      <trkpt lat="47.5745" lon="-2.91121">
        <ele>46</ele>
        <time>2018-04-21T07:15:06Z</time>
      </trkpt>
      <trkpt lat="47.57446" lon="-2.9112">
        <ele>47</ele>
        <time>2018-04-21T07:15:09Z</time>
      </trkpt>
      <trkpt lat="47.57443" lon="-2.9112">
        <ele>47</ele>
        <time>2018-04-21T07:15:10Z</time>
      </trkpt>
      <trkpt lat="47.5744" lon="-2.9112">
        <ele>49</ele>
        <time>2018-04-21T07:15:12Z</time>
      </trkpt>
      <trkpt lat="47.57437" lon="-2.91119">
        <ele>49</ele>
        <time>2018-04-21T07:15:14Z</time>
      </trkpt>
      <trkpt lat="47.57434" lon="-2.91119">
        <ele>50</ele>
        <time>2018-04-21T07:15:16Z</time>
      </trkpt>
      <trkpt lat="47.5743" lon="-2.91118">
        <ele>49</ele>
        <time>2018-04-21T07:15:19Z</time>
      </trkpt>
      <trkpt lat="47.57425" lon="-2.91115">
        <ele>51</ele>
        <time>2018-04-21T07:15:22Z</time>
      </trkpt>
      <trkpt lat="47.57419" lon="-2.91113">
        <ele>50</ele>
        <time>2018-04-21T07:15:25Z</time>
      </trkpt>
      <trkpt lat="47.57414" lon="-2.91111">
        <ele>51</ele>
        <time>2018-04-21T07:15:29Z</time>
      </trkpt>
      <trkpt lat="47.5741" lon="-2.91109">
        <ele>50</ele>
        <time>2018-04-21T07:15:31Z</time>
      </trkpt>
      <trkpt lat="47.57404" lon="-2.91106">
        <ele>49</ele>
        <time>2018-04-21T07:15:34Z</time>
      </trkpt>
      <trkpt lat="47.57399" lon="-2.91105">
        <ele>49</ele>
        <time>2018-04-21T07:15:37Z</time>
      </trkpt>
      <trkpt lat="47.57393" lon="-2.91104">
        <ele>49</ele>
        <time>2018-04-21T07:15:40Z</time>
      </trkpt>
      <trkpt lat="47.5739" lon="-2.91102">
        <ele>48</ele>
        <time>2018-04-21T07:15:42Z</time>
      </trkpt>
      <trkpt lat="47.57386" lon="-2.91101">
        <ele>48</ele>
        <time>2018-04-21T07:15:44Z</time>
      </trkpt>
      <trkpt lat="47.57381" lon="-2.91099">
        <ele>48</ele>
        <time>2018-04-21T07:15:47Z</time>
      </trkpt>
      <trkpt lat="47.57377" lon="-2.91098">
        <ele>48</ele>
        <time>2018-04-21T07:15:49Z</time>
      </trkpt>
      <trkpt lat="47.57374" lon="-2.91098">
        <ele>48</ele>
        <time>2018-04-21T07:15:51Z</time>
      </trkpt>
      <trkpt lat="47.5737" lon="-2.91097">
        <ele>49</ele>
        <time>2018-04-21T07:15:53Z</time>
      </trkpt>
      <trkpt lat="47.57365" lon="-2.911">
        <ele>49</ele>
        <time>2018-04-21T07:15:57Z</time>
      </trkpt>
      <trkpt lat="47.57363" lon="-2.91101">
        <ele>49</ele>
        <time>2018-04-21T07:16:00Z</time>
      </trkpt>
      <trkpt lat="47.57359" lon="-2.91106">
        <ele>48</ele>
        <time>2018-04-21T07:16:07Z</time>
      </trkpt>
      <trkpt lat="47.57356" lon="-2.9111">
        <ele>48</ele>
        <time>2018-04-21T07:16:11Z</time>
      </trkpt>
      <trkpt lat="47.57351" lon="-2.91106">
        <ele>50</ele>
        <time>2018-04-21T07:16:16Z</time>
      </trkpt>
      <trkpt lat="47.57347" lon="-2.91104">
        <ele>50</ele>
        <time>2018-04-21T07:16:19Z</time>
      </trkpt>
      <trkpt lat="47.57343" lon="-2.911">
        <ele>48</ele>
        <time>2018-04-21T07:16:22Z</time>
      </trkpt>
      <trkpt lat="47.57338" lon="-2.91095">
        <ele>48</ele>
        <time>2018-04-21T07:16:26Z</time>
      </trkpt>
      <trkpt lat="47.57335" lon="-2.91093">
        <ele>48</ele>
        <time>2018-04-21T07:16:28Z</time>
      </trkpt>
      <trkpt lat="47.57332" lon="-2.9109">
        <ele>49</ele>
        <time>2018-04-21T07:16:31Z</time>
      </trkpt>
      <trkpt lat="47.57329" lon="-2.91087">
        <ele>49</ele>
        <time>2018-04-21T07:16:33Z</time>
      </trkpt>
      <trkpt lat="47.57324" lon="-2.91084">
        <ele>50</ele>
        <time>2018-04-21T07:16:36Z</time>
      </trkpt>
      <trkpt lat="47.57319" lon="-2.91081">
        <ele>50</ele>
        <time>2018-04-21T07:16:39Z</time>
      </trkpt>
      <trkpt lat="47.57315" lon="-2.91079">
        <ele>51</ele>
        <time>2018-04-21T07:16:42Z</time>
      </trkpt>
      <trkpt lat="47.57311" lon="-2.91076">
        <ele>51</ele>
        <time>2018-04-21T07:16:44Z</time>
      </trkpt>
      <trkpt lat="47.57308" lon="-2.91075">
        <ele>51</ele>
        <time>2018-04-21T07:16:46Z</time>
      </trkpt>
      <trkpt lat="47.57304" lon="-2.91072">
        <ele>50</ele>
        <time>2018-04-21T07:16:48Z</time>
      </trkpt>
      <trkpt lat="47.57302" lon="-2.91071">
        <ele>50</ele>
        <time>2018-04-21T07:16:50Z</time>
      </trkpt>
      <trkpt lat="47.57297" lon="-2.9107">
        <ele>50</ele>
        <time>2018-04-21T07:16:53Z</time>
      </trkpt>
      <trkpt lat="47.57292" lon="-2.91068">
        <ele>50</ele>
        <time>2018-04-21T07:16:56Z</time>
      </trkpt>
      <trkpt lat="47.57287" lon="-2.91068">
        <ele>50</ele>
        <time>2018-04-21T07:16:59Z</time>
      </trkpt>
      <trkpt lat="47.57283" lon="-2.91068">
        <ele>50</ele>
        <time>2018-04-21T07:17:01Z</time>
      </trkpt>
      <trkpt lat="47.57277" lon="-2.91066">
        <ele>48</ele>
        <time>2018-04-21T07:17:04Z</time>
      </trkpt>
      <trkpt lat="47.57271" lon="-2.91066">
        <ele>48</ele>
        <time>2018-04-21T07:17:07Z</time>
      </trkpt>
      <trkpt lat="47.57266" lon="-2.91062">
        <ele>49</ele>
        <time>2018-04-21T07:17:10Z</time>
      </trkpt>
      <trkpt lat="47.57261" lon="-2.9106">
        <ele>50</ele>
        <time>2018-04-21T07:17:13Z</time>
      </trkpt>
      <trkpt lat="47.57256" lon="-2.91057">
        <ele>50</ele>
        <time>2018-04-21T07:17:17Z</time>
      </trkpt>
      <trkpt lat="47.57253" lon="-2.91056">
        <ele>50</ele>
        <time>2018-04-21T07:17:18Z</time>
      </trkpt>
      <trkpt lat="47.5725" lon="-2.91054">
        <ele>50</ele>
        <time>2018-04-21T07:17:20Z</time>
      </trkpt>
      <trkpt lat="47.57247" lon="-2.91052">
        <ele>51</ele>
        <time>2018-04-21T07:17:23Z</time>
      </trkpt>
      <trkpt lat="47.57242" lon="-2.91049">
        <ele>50</ele>
        <time>2018-04-21T07:17:26Z</time>
      </trkpt>
      <trkpt lat="47.57238" lon="-2.91047">
        <ele>50</ele>
        <time>2018-04-21T07:17:28Z</time>
      </trkpt>
      <trkpt lat="47.57236" lon="-2.91046">
        <ele>51</ele>
        <time>2018-04-21T07:17:30Z</time>
      </trkpt>
      <trkpt lat="47.5723" lon="-2.91044">
        <ele>51</ele>
        <time>2018-04-21T07:17:33Z</time>
      </trkpt>
      <trkpt lat="47.57225" lon="-2.91042">
        <ele>50</ele>
        <time>2018-04-21T07:17:36Z</time>
      </trkpt>
      <trkpt lat="47.57219" lon="-2.91041">
        <ele>49</ele>
        <time>2018-04-21T07:17:40Z</time>
      </trkpt>
      <trkpt lat="47.57215" lon="-2.91043">
        <ele>51</ele>
        <time>2018-04-21T07:17:45Z</time>
      </trkpt>
      <trkpt lat="47.5721" lon="-2.91044">
        <ele>49</ele>
        <time>2018-04-21T07:17:48Z</time>
      </trkpt>
      <trkpt lat="47.57206" lon="-2.91044">
        <ele>49</ele>
        <time>2018-04-21T07:17:51Z</time>
      </trkpt>
      <trkpt lat="47.57201" lon="-2.91041">
        <ele>49</ele>
        <time>2018-04-21T07:17:54Z</time>
      </trkpt>
      <trkpt lat="47.57195" lon="-2.91038">
        <ele>50</ele>
        <time>2018-04-21T07:17:57Z</time>
      </trkpt>
      <trkpt lat="47.57191" lon="-2.91036">
        <ele>50</ele>
        <time>2018-04-21T07:17:59Z</time>
      </trkpt>
      <trkpt lat="47.57187" lon="-2.91034">
        <ele>49</ele>
        <time>2018-04-21T07:18:02Z</time>
      </trkpt>
      <trkpt lat="47.57183" lon="-2.91031">
        <ele>49</ele>
        <time>2018-04-21T07:18:04Z</time>
      </trkpt>
      <trkpt lat="47.57179" lon="-2.91029">
        <ele>49</ele>
        <time>2018-04-21T07:18:06Z</time>
      </trkpt>
      <trkpt lat="47.57174" lon="-2.91025">
        <ele>49</ele>
        <time>2018-04-21T07:18:09Z</time>
      </trkpt>
      <trkpt lat="47.57168" lon="-2.91024">
        <ele>48</ele>
        <time>2018-04-21T07:18:12Z</time>
      </trkpt>
      <trkpt lat="47.57164" lon="-2.91021">
        <ele>47</ele>
        <time>2018-04-21T07:18:15Z</time>
      </trkpt>
      <trkpt lat="47.57159" lon="-2.91018">
        <ele>48</ele>
        <time>2018-04-21T07:18:18Z</time>
      </trkpt>
      <trkpt lat="47.57155" lon="-2.91016">
        <ele>49</ele>
        <time>2018-04-21T07:18:20Z</time>
      </trkpt>
      <trkpt lat="47.5715" lon="-2.91016">
        <ele>49</ele>
        <time>2018-04-21T07:18:24Z</time>
      </trkpt>
      <trkpt lat="47.57147" lon="-2.91016">
        <ele>49</ele>
        <time>2018-04-21T07:18:27Z</time>
      </trkpt>
      <trkpt lat="47.57143" lon="-2.91017">
        <ele>48</ele>
        <time>2018-04-21T07:18:31Z</time>
      </trkpt>
      <trkpt lat="47.57138" lon="-2.91017">
        <ele>48</ele>
        <time>2018-04-21T07:18:35Z</time>
      </trkpt>
      <trkpt lat="47.57135" lon="-2.91016">
        <ele>49</ele>
        <time>2018-04-21T07:18:37Z</time>
      </trkpt>
      <trkpt lat="47.5713" lon="-2.91015">
        <ele>49</ele>
        <time>2018-04-21T07:18:40Z</time>
      </trkpt>
      <trkpt lat="47.57125" lon="-2.91015">
        <ele>49</ele>
        <time>2018-04-21T07:18:43Z</time>
      </trkpt>
      <trkpt lat="47.57123" lon="-2.91014">
        <ele>50</ele>
        <time>2018-04-21T07:18:45Z</time>
      </trkpt>
      <trkpt lat="47.57119" lon="-2.91014">
        <ele>50</ele>
        <time>2018-04-21T07:18:47Z</time>
      </trkpt>
      <trkpt lat="47.57116" lon="-2.91013">
        <ele>50</ele>
        <time>2018-04-21T07:18:49Z</time>
      </trkpt>
      <trkpt lat="47.57112" lon="-2.91013">
        <ele>51</ele>
        <time>2018-04-21T07:18:51Z</time>
      </trkpt>
      <trkpt lat="47.5711" lon="-2.91012">
        <ele>51</ele>
        <time>2018-04-21T07:18:52Z</time>
      </trkpt>
      <trkpt lat="47.57105" lon="-2.91012">
        <ele>51</ele>
        <time>2018-04-21T07:18:55Z</time>
      </trkpt>
      <trkpt lat="47.57101" lon="-2.91012">
        <ele>51</ele>
        <time>2018-04-21T07:18:57Z</time>
      </trkpt>
      <trkpt lat="47.57097" lon="-2.91012">
        <ele>51</ele>
        <time>2018-04-21T07:18:59Z</time>
      </trkpt>
      <trkpt lat="47.57093" lon="-2.91012">
        <ele>52</ele>
        <time>2018-04-21T07:19:01Z</time>
      </trkpt>
      <trkpt lat="47.57087" lon="-2.91011">
        <ele>51</ele>
        <time>2018-04-21T07:19:04Z</time>
      </trkpt>
      <trkpt lat="47.57082" lon="-2.9101">
        <ele>50</ele>
        <time>2018-04-21T07:19:06Z</time>
      </trkpt>
      <trkpt lat="47.57077" lon="-2.9101">
        <ele>50</ele>
        <time>2018-04-21T07:19:09Z</time>
      </trkpt>
      <trkpt lat="47.57073" lon="-2.91011">
        <ele>49</ele>
        <time>2018-04-21T07:19:11Z</time>
      </trkpt>
      <trkpt lat="47.57068" lon="-2.91013">
        <ele>50</ele>
        <time>2018-04-21T07:19:14Z</time>
      </trkpt>
      <trkpt lat="47.57063" lon="-2.91013">
        <ele>48</ele>
        <time>2018-04-21T07:19:17Z</time>
      </trkpt>
      <trkpt lat="47.57058" lon="-2.91015">
        <ele>47</ele>
        <time>2018-04-21T07:19:21Z</time>
      </trkpt>
      <trkpt lat="47.57054" lon="-2.91017">
        <ele>47</ele>
        <time>2018-04-21T07:19:25Z</time>
      </trkpt>
      <trkpt lat="47.57051" lon="-2.91023">
        <ele>46</ele>
        <time>2018-04-21T07:19:33Z</time>
      </trkpt>
      <trkpt lat="47.57049" lon="-2.91025">
        <ele>45</ele>
        <time>2018-04-21T07:19:38Z</time>
      </trkpt>
      <trkpt lat="47.57045" lon="-2.9103">
        <ele>45</ele>
        <time>2018-04-21T07:19:43Z</time>
      </trkpt>
      <trkpt lat="47.57039" lon="-2.91032">
        <ele>46</ele>
        <time>2018-04-21T07:19:47Z</time>
      </trkpt>
      <trkpt lat="47.57034" lon="-2.91031">
        <ele>47</ele>
        <time>2018-04-21T07:19:50Z</time>
      </trkpt>
      <trkpt lat="47.5703" lon="-2.91032">
        <ele>46</ele>
        <time>2018-04-21T07:19:52Z</time>
      </trkpt>
      <trkpt lat="47.57027" lon="-2.91032">
        <ele>46</ele>
        <time>2018-04-21T07:19:54Z</time>
      </trkpt>
      <trkpt lat="47.57021" lon="-2.91032">
        <ele>47</ele>
        <time>2018-04-21T07:19:57Z</time>
      </trkpt>
      <trkpt lat="47.57016" lon="-2.91033">
        <ele>46</ele>
        <time>2018-04-21T07:20:00Z</time>
      </trkpt>
      <trkpt lat="47.57013" lon="-2.91035">
        <ele>46</ele>
        <time>2018-04-21T07:20:02Z</time>
      </trkpt>
      <trkpt lat="47.57008" lon="-2.91036">
        <ele>46</ele>
        <time>2018-04-21T07:20:05Z</time>
      </trkpt>
      <trkpt lat="47.57006" lon="-2.91036">
        <ele>46</ele>
        <time>2018-04-21T07:20:07Z</time>
      </trkpt>
      <trkpt lat="47.57001" lon="-2.91039">
        <ele>46</ele>
        <time>2018-04-21T07:20:11Z</time>
      </trkpt>
      <trkpt lat="47.56999" lon="-2.9104">
        <ele>46</ele>
        <time>2018-04-21T07:20:14Z</time>
      </trkpt>
      <trkpt lat="47.56995" lon="-2.91044">
        <ele>46</ele>
        <time>2018-04-21T07:20:20Z</time>
      </trkpt>
      <trkpt lat="47.56989" lon="-2.91047">
        <ele>46</ele>
        <time>2018-04-21T07:20:24Z</time>
      </trkpt>
      <trkpt lat="47.56984" lon="-2.91047">
        <ele>45</ele>
        <time>2018-04-21T07:20:27Z</time>
      </trkpt>
      <trkpt lat="47.5698" lon="-2.91044">
        <ele>45</ele>
        <time>2018-04-21T07:20:30Z</time>
      </trkpt>
      <trkpt lat="47.56977" lon="-2.91042">
        <ele>45</ele>
        <time>2018-04-21T07:20:32Z</time>
      </trkpt>
      <trkpt lat="47.56974" lon="-2.91041">
        <ele>46</ele>
        <time>2018-04-21T07:20:35Z</time>
      </trkpt>
      <trkpt lat="47.56972" lon="-2.91039">
        <ele>46</ele>
        <time>2018-04-21T07:20:38Z</time>
      </trkpt>
      <trkpt lat="47.56968" lon="-2.91034">
        <ele>46</ele>
        <time>2018-04-21T07:20:45Z</time>
      </trkpt>
      <trkpt lat="47.56963" lon="-2.91035">
        <ele>47</ele>
        <time>2018-04-21T07:20:51Z</time>
      </trkpt>
      <trkpt lat="47.56958" lon="-2.91036">
        <ele>47</ele>
        <time>2018-04-21T07:20:54Z</time>
      </trkpt>
      <trkpt lat="47.56953" lon="-2.91036">
        <ele>47</ele>
        <time>2018-04-21T07:20:57Z</time>
      </trkpt>
      <trkpt lat="47.56948" lon="-2.91037">
        <ele>47</ele>
        <time>2018-04-21T07:21:00Z</time>
      </trkpt>
      <trkpt lat="47.56942" lon="-2.9104">
        <ele>47</ele>
        <time>2018-04-21T07:21:03Z</time>
      </trkpt>
      <trkpt lat="47.56937" lon="-2.91039">
        <ele>46</ele>
        <time>2018-04-21T07:21:06Z</time>
      </trkpt>
      <trkpt lat="47.5693" lon="-2.9104">
        <ele>47</ele>
        <time>2018-04-21T07:21:09Z</time>
      </trkpt>
      <trkpt lat="47.56927" lon="-2.91041">
        <ele>48</ele>
        <time>2018-04-21T07:21:11Z</time>
      </trkpt>
      <trkpt lat="47.56921" lon="-2.91041">
        <ele>49</ele>
        <time>2018-04-21T07:21:14Z</time>
      </trkpt>
      <trkpt lat="47.56916" lon="-2.91041">
        <ele>49</ele>
        <time>2018-04-21T07:21:16Z</time>
      </trkpt>
      <trkpt lat="47.56912" lon="-2.91041">
        <ele>49</ele>
        <time>2018-04-21T07:21:18Z</time>
      </trkpt>
      <trkpt lat="47.56908" lon="-2.91042">
        <ele>49</ele>
        <time>2018-04-21T07:21:20Z</time>
      </trkpt>
      <trkpt lat="47.56904" lon="-2.91043">
        <ele>49</ele>
        <time>2018-04-21T07:21:22Z</time>
      </trkpt>
      <trkpt lat="47.56898" lon="-2.91044">
        <ele>49</ele>
        <time>2018-04-21T07:21:25Z</time>
      </trkpt>
      <trkpt lat="47.56893" lon="-2.91045">
        <ele>49</ele>
        <time>2018-04-21T07:21:28Z</time>
      </trkpt>
      <trkpt lat="47.56887" lon="-2.91044">
        <ele>49</ele>
        <time>2018-04-21T07:21:31Z</time>
      </trkpt>
      <trkpt lat="47.56884" lon="-2.91044">
        <ele>48</ele>
        <time>2018-04-21T07:21:33Z</time>
      </trkpt>
      <trkpt lat="47.56881" lon="-2.91043">
        <ele>48</ele>
        <time>2018-04-21T07:21:35Z</time>
      </trkpt>
      <trkpt lat="47.56877" lon="-2.91043">
        <ele>48</ele>
        <time>2018-04-21T07:21:37Z</time>
      </trkpt>
      <trkpt lat="47.56874" lon="-2.91042">
        <ele>47</ele>
        <time>2018-04-21T07:21:39Z</time>
      </trkpt>
      <trkpt lat="47.56871" lon="-2.91041">
        <ele>46</ele>
        <time>2018-04-21T07:21:41Z</time>
      </trkpt>
      <trkpt lat="47.56867" lon="-2.9104">
        <ele>46</ele>
        <time>2018-04-21T07:21:44Z</time>
      </trkpt>
      <trkpt lat="47.56861" lon="-2.91039">
        <ele>47</ele>
        <time>2018-04-21T07:21:48Z</time>
      </trkpt>
      <trkpt lat="47.56856" lon="-2.91037">
        <ele>47</ele>
        <time>2018-04-21T07:21:52Z</time>
      </trkpt>
      <trkpt lat="47.56852" lon="-2.91034">
        <ele>46</ele>
        <time>2018-04-21T07:21:55Z</time>
      </trkpt>
      <trkpt lat="47.56847" lon="-2.91033">
        <ele>47</ele>
        <time>2018-04-21T07:21:59Z</time>
      </trkpt>
      <trkpt lat="47.56842" lon="-2.91031">
        <ele>46</ele>
        <time>2018-04-21T07:22:03Z</time>
      </trkpt>
      <trkpt lat="47.56839" lon="-2.9103">
        <ele>46</ele>
        <time>2018-04-21T07:22:05Z</time>
      </trkpt>
      <trkpt lat="47.56836" lon="-2.91029">
        <ele>46</ele>
        <time>2018-04-21T07:22:07Z</time>
      </trkpt>
      <trkpt lat="47.56833" lon="-2.91028">
        <ele>47</ele>
        <time>2018-04-21T07:22:09Z</time>
      </trkpt>
      <trkpt lat="47.56828" lon="-2.91027">
        <ele>48</ele>
        <time>2018-04-21T07:22:12Z</time>
      </trkpt>
      <trkpt lat="47.56823" lon="-2.91024">
        <ele>48</ele>
        <time>2018-04-21T07:22:16Z</time>
      </trkpt>
      <trkpt lat="47.56819" lon="-2.91022">
        <ele>48</ele>
        <time>2018-04-21T07:22:19Z</time>
      </trkpt>
      <trkpt lat="47.56816" lon="-2.91021">
        <ele>48</ele>
        <time>2018-04-21T07:22:21Z</time>
      </trkpt>
      <trkpt lat="47.56813" lon="-2.91019">
        <ele>48</ele>
        <time>2018-04-21T07:22:23Z</time>
      </trkpt>
      <trkpt lat="47.56811" lon="-2.91018">
        <ele>48</ele>
        <time>2018-04-21T07:22:25Z</time>
      </trkpt>
      <trkpt lat="47.56806" lon="-2.91014">
        <ele>47</ele>
        <time>2018-04-21T07:22:28Z</time>
      </trkpt>
      <trkpt lat="47.56802" lon="-2.91013">
        <ele>47</ele>
        <time>2018-04-21T07:22:31Z</time>
      </trkpt>
      <trkpt lat="47.56798" lon="-2.91012">
        <ele>47</ele>
        <time>2018-04-21T07:22:33Z</time>
      </trkpt>
      <trkpt lat="47.56794" lon="-2.91011">
        <ele>48</ele>
        <time>2018-04-21T07:22:36Z</time>
      </trkpt>
      <trkpt lat="47.5679" lon="-2.9101">
        <ele>48</ele>
        <time>2018-04-21T07:22:39Z</time>
      </trkpt>
      <trkpt lat="47.56785" lon="-2.9101">
        <ele>48</ele>
        <time>2018-04-21T07:22:42Z</time>
      </trkpt>
      <trkpt lat="47.5678" lon="-2.91007">
        <ele>47</ele>
        <time>2018-04-21T07:22:45Z</time>
      </trkpt>
      <trkpt lat="47.56777" lon="-2.91006">
        <ele>47</ele>
        <time>2018-04-21T07:22:47Z</time>
      </trkpt>
      <trkpt lat="47.56773" lon="-2.91005">
        <ele>47</ele>
        <time>2018-04-21T07:22:50Z</time>
      </trkpt>
      <trkpt lat="47.56768" lon="-2.91004">
        <ele>48</ele>
        <time>2018-04-21T07:22:53Z</time>
      </trkpt>
      <trkpt lat="47.56764" lon="-2.91002">
        <ele>47</ele>
        <time>2018-04-21T07:22:56Z</time>
      </trkpt>
      <trkpt lat="47.56759" lon="-2.90999">
        <ele>48</ele>
        <time>2018-04-21T07:22:59Z</time>
      </trkpt>
      <trkpt lat="47.56757" lon="-2.90997">
        <ele>48</ele>
        <time>2018-04-21T07:23:01Z</time>
      </trkpt>
      <trkpt lat="47.56752" lon="-2.90994">
        <ele>48</ele>
        <time>2018-04-21T07:23:04Z</time>
      </trkpt>
      <trkpt lat="47.56748" lon="-2.90992">
        <ele>49</ele>
        <time>2018-04-21T07:23:07Z</time>
      </trkpt>
      <trkpt lat="47.56743" lon="-2.9099">
        <ele>48</ele>
        <time>2018-04-21T07:23:10Z</time>
      </trkpt>
      <trkpt lat="47.5674" lon="-2.90988">
        <ele>47</ele>
        <time>2018-04-21T07:23:12Z</time>
      </trkpt>
      <trkpt lat="47.56736" lon="-2.90985">
        <ele>48</ele>
        <time>2018-04-21T07:23:15Z</time>
      </trkpt>
      <trkpt lat="47.56733" lon="-2.90982">
        <ele>47</ele>
        <time>2018-04-21T07:23:17Z</time>
      </trkpt>
      <trkpt lat="47.56731" lon="-2.90979">
        <ele>48</ele>
        <time>2018-04-21T07:23:19Z</time>
      </trkpt>
      <trkpt lat="47.56727" lon="-2.90976">
        <ele>49</ele>
        <time>2018-04-21T07:23:21Z</time>
      </trkpt>
      <trkpt lat="47.56724" lon="-2.90973">
        <ele>49</ele>
        <time>2018-04-21T07:23:23Z</time>
      </trkpt>
      <trkpt lat="47.56721" lon="-2.9097">
        <ele>47</ele>
        <time>2018-04-21T07:23:25Z</time>
      </trkpt>
      <trkpt lat="47.56719" lon="-2.90967">
        <ele>47</ele>
        <time>2018-04-21T07:23:27Z</time>
      </trkpt>
      <trkpt lat="47.56716" lon="-2.90963">
        <ele>47</ele>
        <time>2018-04-21T07:23:29Z</time>
      </trkpt>
      <trkpt lat="47.56713" lon="-2.90959">
        <ele>47</ele>
        <time>2018-04-21T07:23:31Z</time>
      </trkpt>
      <trkpt lat="47.5671" lon="-2.90956">
        <ele>48</ele>
        <time>2018-04-21T07:23:33Z</time>
      </trkpt>
      <trkpt lat="47.56706" lon="-2.90949">
        <ele>47</ele>
        <time>2018-04-21T07:23:36Z</time>
      </trkpt>
      <trkpt lat="47.56703" lon="-2.90941">
        <ele>47</ele>
        <time>2018-04-21T07:23:39Z</time>
      </trkpt>
      <trkpt lat="47.56699" lon="-2.90934">
        <ele>45</ele>
        <time>2018-04-21T07:23:42Z</time>
      </trkpt>
      <trkpt lat="47.56696" lon="-2.90926">
        <ele>44</ele>
        <time>2018-04-21T07:23:45Z</time>
      </trkpt>
      <trkpt lat="47.56693" lon="-2.90921">
        <ele>43</ele>
        <time>2018-04-21T07:23:47Z</time>
      </trkpt>
      <trkpt lat="47.56691" lon="-2.90916">
        <ele>42</ele>
        <time>2018-04-21T07:23:49Z</time>
      </trkpt>
      <trkpt lat="47.56689" lon="-2.90912">
        <ele>43</ele>
        <time>2018-04-21T07:23:51Z</time>
      </trkpt>
      <trkpt lat="47.56684" lon="-2.90907">
        <ele>42</ele>
        <time>2018-04-21T07:23:55Z</time>
      </trkpt>
      <trkpt lat="47.56681" lon="-2.90901">
        <ele>42</ele>
        <time>2018-04-21T07:23:58Z</time>
      </trkpt>
      <trkpt lat="47.56678" lon="-2.90893">
        <ele>42</ele>
        <time>2018-04-21T07:24:01Z</time>
      </trkpt>
      <trkpt lat="47.56677" lon="-2.90887">
        <ele>41</ele>
        <time>2018-04-21T07:24:03Z</time>
      </trkpt>
      <trkpt lat="47.56677" lon="-2.9088">
        <ele>43</ele>
        <time>2018-04-21T07:24:05Z</time>
      </trkpt>
      <trkpt lat="47.56677" lon="-2.90873">
        <ele>43</ele>
        <time>2018-04-21T07:24:07Z</time>
      </trkpt>
      <trkpt lat="47.56681" lon="-2.90869">
        <ele>46</ele>
        <time>2018-04-21T07:24:09Z</time>
      </trkpt>
      <trkpt lat="47.56683" lon="-2.90866">
        <ele>47</ele>
        <time>2018-04-21T07:24:11Z</time>
      </trkpt>
      <trkpt lat="47.56688" lon="-2.90867">
        <ele>47</ele>
        <time>2018-04-21T07:24:15Z</time>
      </trkpt>
      <trkpt lat="47.56688" lon="-2.90867">
        <ele>2</ele>
        <time>2018-04-21T07:24:20Z</time>
      </trkpt>
      <trkpt lat="47.56688" lon="-2.90867">
        <ele>2</ele>
        <time>2018-04-21T07:24:26Z</time>
      </trkpt>
      <trkpt lat="47.5669" lon="-2.90883">
        <ele>48</ele>
        <time>2018-04-21T07:24:26Z</time>
      </trkpt>
      <trkpt lat="47.56691" lon="-2.90889">
        <ele>48</ele>
        <time>2018-04-21T07:24:30Z</time>
      </trkpt>
      <trkpt lat="47.56693" lon="-2.90895">
        <ele>48</ele>
        <time>2018-04-21T07:24:33Z</time>
      </trkpt>
      <trkpt lat="47.56694" lon="-2.90899">
        <ele>48</ele>
        <time>2018-04-21T07:24:35Z</time>
      </trkpt>
      <trkpt lat="47.56695" lon="-2.90906">
        <ele>48</ele>
        <time>2018-04-21T07:24:39Z</time>
      </trkpt>
      <trkpt lat="47.56696" lon="-2.90913">
        <ele>48</ele>
        <time>2018-04-21T07:24:45Z</time>
      </trkpt>
      <trkpt lat="47.56692" lon="-2.90918">
        <ele>49</ele>
        <time>2018-04-21T07:24:50Z</time>
      </trkpt>
      <trkpt lat="47.56687" lon="-2.90915">
        <ele>47</ele>
        <time>2018-04-21T07:24:54Z</time>
      </trkpt>
      <trkpt lat="47.56683" lon="-2.9091">
        <ele>46</ele>
        <time>2018-04-21T07:24:57Z</time>
      </trkpt>
      <trkpt lat="47.56683" lon="-2.90903">
        <ele>47</ele>
        <time>2018-04-21T07:25:02Z</time>
      </trkpt>
      <trkpt lat="47.56685" lon="-2.90895">
        <ele>48</ele>
        <time>2018-04-21T07:25:06Z</time>
      </trkpt>
      <trkpt lat="47.5669" lon="-2.90893">
        <ele>49</ele>
        <time>2018-04-21T07:25:11Z</time>
      </trkpt>
      <trkpt lat="47.56695" lon="-2.90897">
        <ele>48</ele>
        <time>2018-04-21T07:25:17Z</time>
      </trkpt>
      <trkpt lat="47.56696" lon="-2.90904">
        <ele>50</ele>
        <time>2018-04-21T07:25:24Z</time>
      </trkpt>
      <trkpt lat="47.56696" lon="-2.9091">
        <ele>48</ele>
        <time>2018-04-21T07:25:28Z</time>
      </trkpt>
      <trkpt lat="47.56698" lon="-2.90918">
        <ele>47</ele>
        <time>2018-04-21T07:25:32Z</time>
      </trkpt>
      <trkpt lat="47.56701" lon="-2.90924">
        <ele>47</ele>
        <time>2018-04-21T07:25:39Z</time>
      </trkpt>
      <trkpt lat="47.56705" lon="-2.90929">
        <ele>48</ele>
        <time>2018-04-21T07:25:43Z</time>
      </trkpt>
      <trkpt lat="47.56707" lon="-2.90935">
        <ele>47</ele>
        <time>2018-04-21T07:25:47Z</time>
      </trkpt>
      <trkpt lat="47.56708" lon="-2.90939">
        <ele>47</ele>
        <time>2018-04-21T07:25:50Z</time>
      </trkpt>
      <trkpt lat="47.56712" lon="-2.90944">
        <ele>47</ele>
        <time>2018-04-21T07:25:55Z</time>
      </trkpt>
      <trkpt lat="47.56714" lon="-2.90947">
        <ele>47</ele>
        <time>2018-04-21T07:25:58Z</time>
      </trkpt>
      <trkpt lat="47.56716" lon="-2.90951">
        <ele>48</ele>
        <time>2018-04-21T07:26:02Z</time>
      </trkpt>
      <trkpt lat="47.56718" lon="-2.90954">
        <ele>48</ele>
        <time>2018-04-21T07:26:05Z</time>
      </trkpt>
      <trkpt lat="47.56718" lon="-2.90954">
        <ele>3</ele>
        <time>2018-04-21T07:26:14Z</time>
      </trkpt>
      <trkpt lat="47.56718" lon="-2.90954">
        <ele>3</ele>
        <time>2018-04-21T07:26:38Z</time>
      </trkpt>
      <trkpt lat="47.56699" lon="-2.90965">
        <ele>50</ele>
        <time>2018-04-21T07:26:38Z</time>
      </trkpt>
      <trkpt lat="47.56694" lon="-2.90963">
        <ele>50</ele>
        <time>2018-04-21T07:26:41Z</time>
      </trkpt>
      <trkpt lat="47.5669" lon="-2.90961">
        <ele>50</ele>
        <time>2018-04-21T07:26:43Z</time>
      </trkpt>
      <trkpt lat="47.56685" lon="-2.90957">
        <ele>50</ele>
        <time>2018-04-21T07:26:46Z</time>
      </trkpt>
      <trkpt lat="47.56682" lon="-2.90955">
        <ele>50</ele>
        <time>2018-04-21T07:26:48Z</time>
      </trkpt>
      <trkpt lat="47.56678" lon="-2.90952">
        <ele>50</ele>
        <time>2018-04-21T07:26:50Z</time>
      </trkpt>
      <trkpt lat="47.56673" lon="-2.9095">
        <ele>51</ele>
        <time>2018-04-21T07:26:53Z</time>
      </trkpt>
      <trkpt lat="47.56668" lon="-2.90944">
        <ele>51</ele>
        <time>2018-04-21T07:26:55Z</time>
      </trkpt>
      <trkpt lat="47.56665" lon="-2.90943">
        <ele>51</ele>
        <time>2018-04-21T07:26:56Z</time>
      </trkpt>
      <trkpt lat="47.56661" lon="-2.90938">
        <ele>51</ele>
        <time>2018-04-21T07:26:58Z</time>
      </trkpt>
      <trkpt lat="47.56659" lon="-2.90936">
        <ele>51</ele>
        <time>2018-04-21T07:26:59Z</time>
      </trkpt>
      <trkpt lat="47.56652" lon="-2.90931">
        <ele>51</ele>
        <time>2018-04-21T07:27:02Z</time>
      </trkpt>
      <trkpt lat="47.5665" lon="-2.90929">
        <ele>51</ele>
        <time>2018-04-21T07:27:03Z</time>
      </trkpt>
      <trkpt lat="47.56647" lon="-2.90926">
        <ele>51</ele>
        <time>2018-04-21T07:27:06Z</time>
      </trkpt>
      <trkpt lat="47.56643" lon="-2.90922">
        <ele>51</ele>
        <time>2018-04-21T07:27:08Z</time>
      </trkpt>
      <trkpt lat="47.56638" lon="-2.90919">
        <ele>50</ele>
        <time>2018-04-21T07:27:10Z</time>
      </trkpt>
      <trkpt lat="47.56635" lon="-2.90915">
        <ele>51</ele>
        <time>2018-04-21T07:27:12Z</time>
      </trkpt>
      <trkpt lat="47.5663" lon="-2.90909">
        <ele>51</ele>
        <time>2018-04-21T07:27:15Z</time>
      </trkpt>
      <trkpt lat="47.56628" lon="-2.90907">
        <ele>51</ele>
        <time>2018-04-21T07:27:16Z</time>
      </trkpt>
      <trkpt lat="47.56623" lon="-2.90904">
        <ele>50</ele>
        <time>2018-04-21T07:27:19Z</time>
      </trkpt>
      <trkpt lat="47.56619" lon="-2.90901">
        <ele>50</ele>
        <time>2018-04-21T07:27:21Z</time>
      </trkpt>
      <trkpt lat="47.56614" lon="-2.90897">
        <ele>50</ele>
        <time>2018-04-21T07:27:24Z</time>
      </trkpt>
      <trkpt lat="47.5661" lon="-2.90892">
        <ele>50</ele>
        <time>2018-04-21T07:27:26Z</time>
      </trkpt>
      <trkpt lat="47.56607" lon="-2.90888">
        <ele>50</ele>
        <time>2018-04-21T07:27:28Z</time>
      </trkpt>
      <trkpt lat="47.56604" lon="-2.90882">
        <ele>49</ele>
        <time>2018-04-21T07:27:30Z</time>
      </trkpt>
      <trkpt lat="47.56598" lon="-2.90875">
        <ele>49</ele>
        <time>2018-04-21T07:27:32Z</time>
      </trkpt>
      <trkpt lat="47.56595" lon="-2.9087">
        <ele>50</ele>
        <time>2018-04-21T07:27:35Z</time>
      </trkpt>
      <trkpt lat="47.56593" lon="-2.90868">
        <ele>50</ele>
        <time>2018-04-21T07:27:36Z</time>
      </trkpt>
      <trkpt lat="47.56588" lon="-2.9086">
        <ele>50</ele>
        <time>2018-04-21T07:27:39Z</time>
      </trkpt>
      <trkpt lat="47.56585" lon="-2.90855">
        <ele>50</ele>
        <time>2018-04-21T07:27:41Z</time>
      </trkpt>
      <trkpt lat="47.56583" lon="-2.90852">
        <ele>50</ele>
        <time>2018-04-21T07:27:42Z</time>
      </trkpt>
      <trkpt lat="47.56578" lon="-2.90847">
        <ele>49</ele>
        <time>2018-04-21T07:27:45Z</time>
      </trkpt>
      <trkpt lat="47.56574" lon="-2.90843">
        <ele>48</ele>
        <time>2018-04-21T07:27:47Z</time>
      </trkpt>
      <trkpt lat="47.56569" lon="-2.90839">
        <ele>48</ele>
        <time>2018-04-21T07:27:50Z</time>
      </trkpt>
      <trkpt lat="47.56566" lon="-2.90837">
        <ele>48</ele>
        <time>2018-04-21T07:27:51Z</time>
      </trkpt>
      <trkpt lat="47.56563" lon="-2.90835">
        <ele>49</ele>
        <time>2018-04-21T07:27:53Z</time>
      </trkpt>
      <trkpt lat="47.56558" lon="-2.90831">
        <ele>48</ele>
        <time>2018-04-21T07:27:56Z</time>
      </trkpt>
      <trkpt lat="47.56556" lon="-2.90828">
        <ele>48</ele>
        <time>2018-04-21T07:27:58Z</time>
      </trkpt>
      <trkpt lat="47.56551" lon="-2.90824">
        <ele>47</ele>
        <time>2018-04-21T07:28:01Z</time>
      </trkpt>
      <trkpt lat="47.56547" lon="-2.9082">
        <ele>48</ele>
        <time>2018-04-21T07:28:05Z</time>
      </trkpt>
      <trkpt lat="47.56543" lon="-2.90817">
        <ele>48</ele>
        <time>2018-04-21T07:28:08Z</time>
      </trkpt>
      <trkpt lat="47.56541" lon="-2.90815">
        <ele>49</ele>
        <time>2018-04-21T07:28:10Z</time>
      </trkpt>
      <trkpt lat="47.56538" lon="-2.9081">
        <ele>49</ele>
        <time>2018-04-21T07:28:13Z</time>
      </trkpt>
      <trkpt lat="47.56535" lon="-2.90803">
        <ele>49</ele>
        <time>2018-04-21T07:28:17Z</time>
      </trkpt>
      <trkpt lat="47.56533" lon="-2.90799">
        <ele>50</ele>
        <time>2018-04-21T07:28:19Z</time>
      </trkpt>
      <trkpt lat="47.5653" lon="-2.90794">
        <ele>50</ele>
        <time>2018-04-21T07:28:22Z</time>
      </trkpt>
      <trkpt lat="47.56528" lon="-2.9079">
        <ele>50</ele>
        <time>2018-04-21T07:28:25Z</time>
      </trkpt>
      <trkpt lat="47.56526" lon="-2.90787">
        <ele>50</ele>
        <time>2018-04-21T07:28:28Z</time>
      </trkpt>
      <trkpt lat="47.56525" lon="-2.90779">
        <ele>50</ele>
        <time>2018-04-21T07:28:32Z</time>
      </trkpt>
      <trkpt lat="47.56523" lon="-2.90773">
        <ele>50</ele>
        <time>2018-04-21T07:28:36Z</time>
      </trkpt>
      <trkpt lat="47.56522" lon="-2.90768">
        <ele>50</ele>
        <time>2018-04-21T07:28:39Z</time>
      </trkpt>
      <trkpt lat="47.56519" lon="-2.9076">
        <ele>51</ele>
        <time>2018-04-21T07:28:43Z</time>
      </trkpt>
      <trkpt lat="47.56517" lon="-2.90753">
        <ele>50</ele>
        <time>2018-04-21T07:28:47Z</time>
      </trkpt>
      <trkpt lat="47.56514" lon="-2.90748">
        <ele>51</ele>
        <time>2018-04-21T07:28:51Z</time>
      </trkpt>
      <trkpt lat="47.56511" lon="-2.90744">
        <ele>50</ele>
        <time>2018-04-21T07:28:54Z</time>
      </trkpt>
      <trkpt lat="47.56506" lon="-2.90738">
        <ele>50</ele>
        <time>2018-04-21T07:28:59Z</time>
      </trkpt>
      <trkpt lat="47.56502" lon="-2.90733">
        <ele>50</ele>
        <time>2018-04-21T07:29:04Z</time>
      </trkpt>
      <trkpt lat="47.56498" lon="-2.90731">
        <ele>50</ele>
        <time>2018-04-21T07:29:09Z</time>
      </trkpt>
      <trkpt lat="47.56495" lon="-2.90729">
        <ele>49</ele>
        <time>2018-04-21T07:29:12Z</time>
      </trkpt>
      <trkpt lat="47.5649" lon="-2.90725">
        <ele>49</ele>
        <time>2018-04-21T07:29:16Z</time>
      </trkpt>
      <trkpt lat="47.56483" lon="-2.90722">
        <ele>49</ele>
        <time>2018-04-21T07:29:20Z</time>
      </trkpt>
      <trkpt lat="47.56479" lon="-2.90719">
        <ele>47</ele>
        <time>2018-04-21T07:29:24Z</time>
      </trkpt>
      <trkpt lat="47.56475" lon="-2.90714">
        <ele>48</ele>
        <time>2018-04-21T07:29:28Z</time>
      </trkpt>
      <trkpt lat="47.56472" lon="-2.90711">
        <ele>48</ele>
        <time>2018-04-21T07:29:29Z</time>
      </trkpt>
      <trkpt lat="47.5647" lon="-2.90708">
        <ele>48</ele>
        <time>2018-04-21T07:29:31Z</time>
      </trkpt>
      <trkpt lat="47.56466" lon="-2.90704">
        <ele>48</ele>
        <time>2018-04-21T07:29:34Z</time>
      </trkpt>
      <trkpt lat="47.56463" lon="-2.90698">
        <ele>50</ele>
        <time>2018-04-21T07:29:38Z</time>
      </trkpt>
      <trkpt lat="47.56458" lon="-2.90694">
        <ele>50</ele>
        <time>2018-04-21T07:29:42Z</time>
      </trkpt>
      <trkpt lat="47.56455" lon="-2.90692">
        <ele>48</ele>
        <time>2018-04-21T07:29:45Z</time>
      </trkpt>
      <trkpt lat="47.56451" lon="-2.90687">
        <ele>49</ele>
        <time>2018-04-21T07:29:50Z</time>
      </trkpt>
      <trkpt lat="47.56447" lon="-2.90682">
        <ele>49</ele>
        <time>2018-04-21T07:29:53Z</time>
      </trkpt>
      <trkpt lat="47.56443" lon="-2.9068">
        <ele>48</ele>
        <time>2018-04-21T07:29:57Z</time>
      </trkpt>
      <trkpt lat="47.56439" lon="-2.90675">
        <ele>50</ele>
        <time>2018-04-21T07:30:01Z</time>
      </trkpt>
      <trkpt lat="47.56435" lon="-2.90673">
        <ele>50</ele>
        <time>2018-04-21T07:30:07Z</time>
      </trkpt>
      <trkpt lat="47.5643" lon="-2.90669">
        <ele>50</ele>
        <time>2018-04-21T07:30:10Z</time>
      </trkpt>
      <trkpt lat="47.56424" lon="-2.90664">
        <ele>50</ele>
        <time>2018-04-21T07:30:16Z</time>
      </trkpt>
      <trkpt lat="47.56422" lon="-2.90662">
        <ele>51</ele>
        <time>2018-04-21T07:30:18Z</time>
      </trkpt>
      <trkpt lat="47.56417" lon="-2.90661">
        <ele>50</ele>
        <time>2018-04-21T07:30:23Z</time>
      </trkpt>
      <trkpt lat="47.56412" lon="-2.90663">
        <ele>48</ele>
        <time>2018-04-21T07:30:26Z</time>
      </trkpt>
      <trkpt lat="47.56408" lon="-2.90667">
        <ele>49</ele>
        <time>2018-04-21T07:30:31Z</time>
      </trkpt>
      <trkpt lat="47.56405" lon="-2.90668">
        <ele>48</ele>
        <time>2018-04-21T07:30:33Z</time>
      </trkpt>
      <trkpt lat="47.56403" lon="-2.9067">
        <ele>48</ele>
        <time>2018-04-21T07:30:35Z</time>
      </trkpt>
      <trkpt lat="47.56399" lon="-2.90673">
        <ele>48</ele>
        <time>2018-04-21T07:30:38Z</time>
      </trkpt>
      <trkpt lat="47.56397" lon="-2.90675">
        <ele>49</ele>
        <time>2018-04-21T07:30:40Z</time>
      </trkpt>
      <trkpt lat="47.56394" lon="-2.90678">
        <ele>49</ele>
        <time>2018-04-21T07:30:42Z</time>
      </trkpt>
      <trkpt lat="47.56391" lon="-2.90681">
        <ele>49</ele>
        <time>2018-04-21T07:30:44Z</time>
      </trkpt>
      <trkpt lat="47.56389" lon="-2.90683">
        <ele>49</ele>
        <time>2018-04-21T07:30:46Z</time>
      </trkpt>
      <trkpt lat="47.56384" lon="-2.9069">
        <ele>49</ele>
        <time>2018-04-21T07:30:49Z</time>
      </trkpt>
      <trkpt lat="47.5638" lon="-2.90693">
        <ele>49</ele>
        <time>2018-04-21T07:30:51Z</time>
      </trkpt>
      <trkpt lat="47.56376" lon="-2.90699">
        <ele>49</ele>
        <time>2018-04-21T07:30:54Z</time>
      </trkpt>
      <trkpt lat="47.56373" lon="-2.90702">
        <ele>49</ele>
        <time>2018-04-21T07:30:56Z</time>
      </trkpt>
      <trkpt lat="47.56371" lon="-2.90705">
        <ele>49</ele>
        <time>2018-04-21T07:30:58Z</time>
      </trkpt>
      <trkpt lat="47.56369" lon="-2.9071">
        <ele>49</ele>
        <time>2018-04-21T07:31:00Z</time>
      </trkpt>
      <trkpt lat="47.56363" lon="-2.90716">
        <ele>50</ele>
        <time>2018-04-21T07:31:03Z</time>
      </trkpt>
      <trkpt lat="47.56358" lon="-2.9072">
        <ele>49</ele>
        <time>2018-04-21T07:31:06Z</time>
      </trkpt>
      <trkpt lat="47.56354" lon="-2.90725">
        <ele>49</ele>
        <time>2018-04-21T07:31:09Z</time>
      </trkpt>
      <trkpt lat="47.56351" lon="-2.90727">
        <ele>49</ele>
        <time>2018-04-21T07:31:12Z</time>
      </trkpt>
      <trkpt lat="47.56349" lon="-2.9073">
        <ele>49</ele>
        <time>2018-04-21T07:31:13Z</time>
      </trkpt>
      <trkpt lat="47.56344" lon="-2.90733">
        <ele>49</ele>
        <time>2018-04-21T07:31:17Z</time>
      </trkpt>
      <trkpt lat="47.56341" lon="-2.90738">
        <ele>50</ele>
        <time>2018-04-21T07:31:22Z</time>
      </trkpt>
      <trkpt lat="47.56338" lon="-2.90742">
        <ele>51</ele>
        <time>2018-04-21T07:31:26Z</time>
      </trkpt>
      <trkpt lat="47.56335" lon="-2.90749">
        <ele>50</ele>
        <time>2018-04-21T07:31:32Z</time>
      </trkpt>
      <trkpt lat="47.56334" lon="-2.90756">
        <ele>52</ele>
        <time>2018-04-21T07:31:40Z</time>
      </trkpt>
      <trkpt lat="47.5633" lon="-2.90761">
        <ele>51</ele>
        <time>2018-04-21T07:31:46Z</time>
      </trkpt>
      <trkpt lat="47.56329" lon="-2.90769">
        <ele>52</ele>
        <time>2018-04-21T07:32:30Z</time>
      </trkpt>
      <trkpt lat="47.56328" lon="-2.90775">
        <ele>51</ele>
        <time>2018-04-21T07:32:38Z</time>
      </trkpt>
      <trkpt lat="47.56326" lon="-2.9078">
        <ele>51</ele>
        <time>2018-04-21T07:32:43Z</time>
      </trkpt>
      <trkpt lat="47.56324" lon="-2.90787">
        <ele>51</ele>
        <time>2018-04-21T07:32:49Z</time>
      </trkpt>
      <trkpt lat="47.5632" lon="-2.90792">
        <ele>50</ele>
        <time>2018-04-21T07:32:56Z</time>
      </trkpt>
      <trkpt lat="47.56316" lon="-2.90798">
        <ele>50</ele>
        <time>2018-04-21T07:33:02Z</time>
      </trkpt>
      <trkpt lat="47.56312" lon="-2.90802">
        <ele>50</ele>
        <time>2018-04-21T07:33:07Z</time>
      </trkpt>
      <trkpt lat="47.56309" lon="-2.90805">
        <ele>50</ele>
        <time>2018-04-21T07:33:16Z</time>
      </trkpt>
      <trkpt lat="47.56304" lon="-2.90804">
        <ele>51</ele>
        <time>2018-04-21T07:33:25Z</time>
      </trkpt>
      <trkpt lat="47.56299" lon="-2.90807">
        <ele>52</ele>
        <time>2018-04-21T07:33:31Z</time>
      </trkpt>
      <trkpt lat="47.56296" lon="-2.90809">
        <ele>52</ele>
        <time>2018-04-21T07:33:33Z</time>
      </trkpt>
      <trkpt lat="47.5629" lon="-2.90811">
        <ele>50</ele>
        <time>2018-04-21T07:33:37Z</time>
      </trkpt>
      <trkpt lat="47.56284" lon="-2.90811">
        <ele>49</ele>
        <time>2018-04-21T07:33:42Z</time>
      </trkpt>
      <trkpt lat="47.56281" lon="-2.90811">
        <ele>49</ele>
        <time>2018-04-21T07:33:44Z</time>
      </trkpt>
      <trkpt lat="47.56276" lon="-2.9081">
        <ele>49</ele>
        <time>2018-04-21T07:33:47Z</time>
      </trkpt>
      <trkpt lat="47.56274" lon="-2.90809">
        <ele>49</ele>
        <time>2018-04-21T07:33:49Z</time>
      </trkpt>
      <trkpt lat="47.56268" lon="-2.90809">
        <ele>50</ele>
        <time>2018-04-21T07:33:54Z</time>
      </trkpt>
      <trkpt lat="47.56265" lon="-2.90809">
        <ele>49</ele>
        <time>2018-04-21T07:33:57Z</time>
      </trkpt>
      <trkpt lat="47.5626" lon="-2.9081">
        <ele>49</ele>
        <time>2018-04-21T07:34:02Z</time>
      </trkpt>
      <trkpt lat="47.56257" lon="-2.9081">
        <ele>48</ele>
        <time>2018-04-21T07:34:06Z</time>
      </trkpt>
      <trkpt lat="47.56254" lon="-2.90811">
        <ele>49</ele>
        <time>2018-04-21T07:34:09Z</time>
      </trkpt>
      <trkpt lat="47.5625" lon="-2.90812">
        <ele>49</ele>
        <time>2018-04-21T07:34:16Z</time>
      </trkpt>
      <trkpt lat="47.56246" lon="-2.90815">
        <ele>49</ele>
        <time>2018-04-21T07:34:20Z</time>
      </trkpt>
      <trkpt lat="47.56241" lon="-2.90817">
        <ele>49</ele>
        <time>2018-04-21T07:34:24Z</time>
      </trkpt>
      <trkpt lat="47.56237" lon="-2.90819">
        <ele>49</ele>
        <time>2018-04-21T07:34:27Z</time>
      </trkpt>
      <trkpt lat="47.56235" lon="-2.90819">
        <ele>49</ele>
        <time>2018-04-21T07:34:28Z</time>
      </trkpt>
      <trkpt lat="47.56232" lon="-2.90821">
        <ele>50</ele>
        <time>2018-04-21T07:34:31Z</time>
      </trkpt>
      <trkpt lat="47.56228" lon="-2.90822">
        <ele>49</ele>
        <time>2018-04-21T07:34:34Z</time>
      </trkpt>
      <trkpt lat="47.56224" lon="-2.90825">
        <ele>50</ele>
        <time>2018-04-21T07:34:39Z</time>
      </trkpt>
      <trkpt lat="47.56219" lon="-2.90826">
        <ele>49</ele>
        <time>2018-04-21T07:34:43Z</time>
      </trkpt>
      <trkpt lat="47.56217" lon="-2.90827">
        <ele>50</ele>
        <time>2018-04-21T07:34:47Z</time>
      </trkpt>
      <trkpt lat="47.56217" lon="-2.90827">
        <ele>2.1</ele>
        <time>2018-04-21T07:34:55Z</time>
      </trkpt>
      <trkpt lat="47.56217" lon="-2.90827">
        <ele>2.1</ele>
        <time>2018-04-21T07:35:02Z</time>
      </trkpt>
      <trkpt lat="47.56209" lon="-2.90827">
        <ele>51</ele>
        <time>2018-04-21T07:35:02Z</time>
      </trkpt>
      <trkpt lat="47.56204" lon="-2.9083">
        <ele>51</ele>
        <time>2018-04-21T07:35:07Z</time>
      </trkpt>
      <trkpt lat="47.56201" lon="-2.90832">
        <ele>51</ele>
        <time>2018-04-21T07:35:09Z</time>
      </trkpt>
      <trkpt lat="47.56196" lon="-2.90836">
        <ele>51</ele>
        <time>2018-04-21T07:35:13Z</time>
      </trkpt>
      <trkpt lat="47.56193" lon="-2.90838">
        <ele>51</ele>
        <time>2018-04-21T07:35:15Z</time>
      </trkpt>
      <trkpt lat="47.56191" lon="-2.90841">
        <ele>51</ele>
        <time>2018-04-21T07:35:17Z</time>
      </trkpt>
      <trkpt lat="47.56186" lon="-2.90844">
        <ele>50</ele>
        <time>2018-04-21T07:35:20Z</time>
      </trkpt>
      <trkpt lat="47.56182" lon="-2.90847">
        <ele>50</ele>
        <time>2018-04-21T07:35:23Z</time>
      </trkpt>
      <trkpt lat="47.56179" lon="-2.90849">
        <ele>51</ele>
        <time>2018-04-21T07:35:25Z</time>
      </trkpt>
      <trkpt lat="47.56173" lon="-2.90852">
        <ele>51</ele>
        <time>2018-04-21T07:35:28Z</time>
      </trkpt>
      <trkpt lat="47.56171" lon="-2.90853">
        <ele>51</ele>
        <time>2018-04-21T07:35:29Z</time>
      </trkpt>
      <trkpt lat="47.56163" lon="-2.90855">
        <ele>52</ele>
        <time>2018-04-21T07:35:33Z</time>
      </trkpt>
      <trkpt lat="47.56159" lon="-2.90856">
        <ele>51</ele>
        <time>2018-04-21T07:35:35Z</time>
      </trkpt>
      <trkpt lat="47.56156" lon="-2.90857">
        <ele>51</ele>
        <time>2018-04-21T07:35:37Z</time>
      </trkpt>
      <trkpt lat="47.56152" lon="-2.90859">
        <ele>51</ele>
        <time>2018-04-21T07:35:39Z</time>
      </trkpt>
      <trkpt lat="47.56148" lon="-2.9086">
        <ele>51</ele>
        <time>2018-04-21T07:35:42Z</time>
      </trkpt>
      <trkpt lat="47.56144" lon="-2.90862">
        <ele>50</ele>
        <time>2018-04-21T07:35:44Z</time>
      </trkpt>
      <trkpt lat="47.56139" lon="-2.90865">
        <ele>50</ele>
        <time>2018-04-21T07:35:47Z</time>
      </trkpt>
      <trkpt lat="47.56134" lon="-2.90866">
        <ele>49</ele>
        <time>2018-04-21T07:35:49Z</time>
      </trkpt>
      <trkpt lat="47.56128" lon="-2.90868">
        <ele>48</ele>
        <time>2018-04-21T07:35:51Z</time>
      </trkpt>
      <trkpt lat="47.56123" lon="-2.90872">
        <ele>51</ele>
        <time>2018-04-21T07:35:55Z</time>
      </trkpt>
      <trkpt lat="47.56118" lon="-2.90874">
        <ele>50</ele>
        <time>2018-04-21T07:35:57Z</time>
      </trkpt>
      <trkpt lat="47.56113" lon="-2.90877">
        <ele>53</ele>
        <time>2018-04-21T07:35:59Z</time>
      </trkpt>
      <trkpt lat="47.56104" lon="-2.9088">
        <ele>52</ele>
        <time>2018-04-21T07:36:04Z</time>
      </trkpt>
      <trkpt lat="47.56098" lon="-2.90884">
        <ele>52</ele>
        <time>2018-04-21T07:36:07Z</time>
      </trkpt>
      <trkpt lat="47.56091" lon="-2.90888">
        <ele>51</ele>
        <time>2018-04-21T07:36:09Z</time>
      </trkpt>
      <trkpt lat="47.56086" lon="-2.90892">
        <ele>51</ele>
        <time>2018-04-21T07:36:13Z</time>
      </trkpt>
      <trkpt lat="47.5608" lon="-2.90899">
        <ele>52</ele>
        <time>2018-04-21T07:36:16Z</time>
      </trkpt>
      <trkpt lat="47.56078" lon="-2.90902">
        <ele>52</ele>
        <time>2018-04-21T07:36:18Z</time>
      </trkpt>
      <trkpt lat="47.56073" lon="-2.90909">
        <ele>53</ele>
        <time>2018-04-21T07:36:21Z</time>
      </trkpt>
      <trkpt lat="47.56068" lon="-2.90915">
        <ele>53</ele>
        <time>2018-04-21T07:36:24Z</time>
      </trkpt>
      <trkpt lat="47.56063" lon="-2.90919">
        <ele>53</ele>
        <time>2018-04-21T07:36:27Z</time>
      </trkpt>
      <trkpt lat="47.56059" lon="-2.90922">
        <ele>53</ele>
        <time>2018-04-21T07:36:29Z</time>
      </trkpt>
      <trkpt lat="47.56057" lon="-2.90924">
        <ele>53</ele>
        <time>2018-04-21T07:36:30Z</time>
      </trkpt>
      <trkpt lat="47.56053" lon="-2.90927">
        <ele>53</ele>
        <time>2018-04-21T07:36:32Z</time>
      </trkpt>
      <trkpt lat="47.56049" lon="-2.90931">
        <ele>53</ele>
        <time>2018-04-21T07:36:35Z</time>
      </trkpt>
      <trkpt lat="47.56047" lon="-2.90934">
        <ele>52</ele>
        <time>2018-04-21T07:36:36Z</time>
      </trkpt>
      <trkpt lat="47.56043" lon="-2.9094">
        <ele>52</ele>
        <time>2018-04-21T07:36:39Z</time>
      </trkpt>
      <trkpt lat="47.56041" lon="-2.90947">
        <ele>52</ele>
        <time>2018-04-21T07:36:43Z</time>
      </trkpt>
      <trkpt lat="47.56036" lon="-2.90949">
        <ele>51</ele>
        <time>2018-04-21T07:36:48Z</time>
      </trkpt>
      <trkpt lat="47.56032" lon="-2.90954">
        <ele>50</ele>
        <time>2018-04-21T07:36:52Z</time>
      </trkpt>
      <trkpt lat="47.56026" lon="-2.9096">
        <ele>50</ele>
        <time>2018-04-21T07:36:55Z</time>
      </trkpt>
      <trkpt lat="47.56024" lon="-2.90962">
        <ele>50</ele>
        <time>2018-04-21T07:36:57Z</time>
      </trkpt>
      <trkpt lat="47.56021" lon="-2.90966">
        <ele>50</ele>
        <time>2018-04-21T07:37:00Z</time>
      </trkpt>
      <trkpt lat="47.56019" lon="-2.90969">
        <ele>50</ele>
        <time>2018-04-21T07:37:02Z</time>
      </trkpt>
      <trkpt lat="47.56015" lon="-2.90975">
        <ele>51</ele>
        <time>2018-04-21T07:37:08Z</time>
      </trkpt>
      <trkpt lat="47.56011" lon="-2.90979">
        <ele>51</ele>
        <time>2018-04-21T07:37:11Z</time>
      </trkpt>
      <trkpt lat="47.56007" lon="-2.90984">
        <ele>51</ele>
        <time>2018-04-21T07:37:16Z</time>
      </trkpt>
      <trkpt lat="47.56005" lon="-2.9099">
        <ele>52</ele>
        <time>2018-04-21T07:37:22Z</time>
      </trkpt>
      <trkpt lat="47.56002" lon="-2.90996">
        <ele>53</ele>
        <time>2018-04-21T07:37:26Z</time>
      </trkpt>
      <trkpt lat="47.56" lon="-2.91">
        <ele>53</ele>
        <time>2018-04-21T07:37:29Z</time>
      </trkpt>
      <trkpt lat="47.55999" lon="-2.91007">
        <ele>53</ele>
        <time>2018-04-21T07:37:36Z</time>
      </trkpt>
      <trkpt lat="47.55996" lon="-2.91013">
        <ele>55</ele>
        <time>2018-04-21T07:37:42Z</time>
      </trkpt>
      <trkpt lat="47.55992" lon="-2.91019">
        <ele>55</ele>
        <time>2018-04-21T07:37:46Z</time>
      </trkpt>
      <trkpt lat="47.5599" lon="-2.91026">
        <ele>56</ele>
        <time>2018-04-21T07:37:53Z</time>
      </trkpt>
      <trkpt lat="47.55988" lon="-2.91032">
        <ele>56</ele>
        <time>2018-04-21T07:37:58Z</time>
      </trkpt>
      <trkpt lat="47.55986" lon="-2.91035">
        <ele>56</ele>
        <time>2018-04-21T07:38:00Z</time>
      </trkpt>
      <trkpt lat="47.55983" lon="-2.91041">
        <ele>54</ele>
        <time>2018-04-21T07:38:03Z</time>
      </trkpt>
      <trkpt lat="47.55981" lon="-2.91044">
        <ele>54</ele>
        <time>2018-04-21T07:38:05Z</time>
      </trkpt>
      <trkpt lat="47.55977" lon="-2.91049">
        <ele>53</ele>
        <time>2018-04-21T07:38:08Z</time>
      </trkpt>
      <trkpt lat="47.55975" lon="-2.91052">
        <ele>52</ele>
        <time>2018-04-21T07:38:10Z</time>
      </trkpt>
      <trkpt lat="47.55971" lon="-2.91059">
        <ele>53</ele>
        <time>2018-04-21T07:38:14Z</time>
      </trkpt>
      <trkpt lat="47.55968" lon="-2.91067">
        <ele>54</ele>
        <time>2018-04-21T07:38:18Z</time>
      </trkpt>
      <trkpt lat="47.55964" lon="-2.91073">
        <ele>55</ele>
        <time>2018-04-21T07:38:21Z</time>
      </trkpt>
      <trkpt lat="47.5596" lon="-2.91081">
        <ele>54</ele>
        <time>2018-04-21T07:38:25Z</time>
      </trkpt>
      <trkpt lat="47.55958" lon="-2.91085">
        <ele>54</ele>
        <time>2018-04-21T07:38:27Z</time>
      </trkpt>
      <trkpt lat="47.55955" lon="-2.9109">
        <ele>54</ele>
        <time>2018-04-21T07:38:30Z</time>
      </trkpt>
      <trkpt lat="47.55952" lon="-2.91095">
        <ele>54</ele>
        <time>2018-04-21T07:38:32Z</time>
      </trkpt>
      <trkpt lat="47.5595" lon="-2.91098">
        <ele>53</ele>
        <time>2018-04-21T07:38:34Z</time>
      </trkpt>
      <trkpt lat="47.55946" lon="-2.91104">
        <ele>53</ele>
        <time>2018-04-21T07:38:37Z</time>
      </trkpt>
      <trkpt lat="47.55944" lon="-2.91106">
        <ele>53</ele>
        <time>2018-04-21T07:38:38Z</time>
      </trkpt>
      <trkpt lat="47.55942" lon="-2.91109">
        <ele>53</ele>
        <time>2018-04-21T07:38:40Z</time>
      </trkpt>
      <trkpt lat="47.5594" lon="-2.91112">
        <ele>54</ele>
        <time>2018-04-21T07:38:42Z</time>
      </trkpt>
      <trkpt lat="47.55938" lon="-2.91114">
        <ele>54</ele>
        <time>2018-04-21T07:38:44Z</time>
      </trkpt>
      <trkpt lat="47.55936" lon="-2.91118">
        <ele>54</ele>
        <time>2018-04-21T07:38:46Z</time>
      </trkpt>
      <trkpt lat="47.55934" lon="-2.91122">
        <ele>55</ele>
        <time>2018-04-21T07:38:48Z</time>
      </trkpt>
      <trkpt lat="47.55931" lon="-2.91127">
        <ele>54</ele>
        <time>2018-04-21T07:38:50Z</time>
      </trkpt>
      <trkpt lat="47.55929" lon="-2.91133">
        <ele>54</ele>
        <time>2018-04-21T07:38:53Z</time>
      </trkpt>
      <trkpt lat="47.55925" lon="-2.9114">
        <ele>54</ele>
        <time>2018-04-21T07:38:56Z</time>
      </trkpt>
      <trkpt lat="47.55923" lon="-2.91144">
        <ele>54</ele>
        <time>2018-04-21T07:38:58Z</time>
      </trkpt>
      <trkpt lat="47.55921" lon="-2.91149">
        <ele>54</ele>
        <time>2018-04-21T07:39:00Z</time>
      </trkpt>
      <trkpt lat="47.55917" lon="-2.91154">
        <ele>54</ele>
        <time>2018-04-21T07:39:03Z</time>
      </trkpt>
      <trkpt lat="47.55914" lon="-2.91162">
        <ele>54</ele>
        <time>2018-04-21T07:39:07Z</time>
      </trkpt>
      <trkpt lat="47.55911" lon="-2.91167">
        <ele>53</ele>
        <time>2018-04-21T07:39:10Z</time>
      </trkpt>
      <trkpt lat="47.55909" lon="-2.91171">
        <ele>53</ele>
        <time>2018-04-21T07:39:12Z</time>
      </trkpt>
      <trkpt lat="47.55907" lon="-2.91175">
        <ele>53</ele>
        <time>2018-04-21T07:39:14Z</time>
      </trkpt>
      <trkpt lat="47.55904" lon="-2.91179">
        <ele>53</ele>
        <time>2018-04-21T07:39:16Z</time>
      </trkpt>
      <trkpt lat="47.55903" lon="-2.91182">
        <ele>53</ele>
        <time>2018-04-21T07:39:18Z</time>
      </trkpt>
      <trkpt lat="47.55901" lon="-2.91186">
        <ele>53</ele>
        <time>2018-04-21T07:39:20Z</time>
      </trkpt>
      <trkpt lat="47.55898" lon="-2.91192">
        <ele>53</ele>
        <time>2018-04-21T07:39:23Z</time>
      </trkpt>
      <trkpt lat="47.55895" lon="-2.91195">
        <ele>53</ele>
        <time>2018-04-21T07:39:25Z</time>
      </trkpt>
      <trkpt lat="47.55893" lon="-2.91201">
        <ele>53</ele>
        <time>2018-04-21T07:39:28Z</time>
      </trkpt>
      <trkpt lat="47.55889" lon="-2.91207">
        <ele>52</ele>
        <time>2018-04-21T07:39:31Z</time>
      </trkpt>
      <trkpt lat="47.55886" lon="-2.91211">
        <ele>52</ele>
        <time>2018-04-21T07:39:33Z</time>
      </trkpt>
      <trkpt lat="47.55884" lon="-2.91215">
        <ele>52</ele>
        <time>2018-04-21T07:39:35Z</time>
      </trkpt>
      <trkpt lat="47.55881" lon="-2.9122">
        <ele>52</ele>
        <time>2018-04-21T07:39:38Z</time>
      </trkpt>
      <trkpt lat="47.55878" lon="-2.91226">
        <ele>52</ele>
        <time>2018-04-21T07:39:41Z</time>
      </trkpt>
      <trkpt lat="47.55874" lon="-2.91232">
        <ele>52</ele>
        <time>2018-04-21T07:39:44Z</time>
      </trkpt>
      <trkpt lat="47.55871" lon="-2.91236">
        <ele>52</ele>
        <time>2018-04-21T07:39:46Z</time>
      </trkpt>
      <trkpt lat="47.55868" lon="-2.9124">
        <ele>52</ele>
        <time>2018-04-21T07:39:48Z</time>
      </trkpt>
      <trkpt lat="47.55865" lon="-2.91246">
        <ele>52</ele>
        <time>2018-04-21T07:39:51Z</time>
      </trkpt>
      <trkpt lat="47.55861" lon="-2.91253">
        <ele>52</ele>
        <time>2018-04-21T07:39:54Z</time>
      </trkpt>
      <trkpt lat="47.55859" lon="-2.91257">
        <ele>52</ele>
        <time>2018-04-21T07:39:56Z</time>
      </trkpt>
      <trkpt lat="47.55855" lon="-2.91262">
        <ele>52</ele>
        <time>2018-04-21T07:39:59Z</time>
      </trkpt>
      <trkpt lat="47.55852" lon="-2.91266">
        <ele>51</ele>
        <time>2018-04-21T07:40:01Z</time>
      </trkpt>
      <trkpt lat="47.55848" lon="-2.91273">
        <ele>50</ele>
        <time>2018-04-21T07:40:05Z</time>
      </trkpt>
      <trkpt lat="47.55845" lon="-2.91278">
        <ele>50</ele>
        <time>2018-04-21T07:40:07Z</time>
      </trkpt>
      <trkpt lat="47.55843" lon="-2.91282">
        <ele>50</ele>
        <time>2018-04-21T07:40:09Z</time>
      </trkpt>
      <trkpt lat="47.55841" lon="-2.91285">
        <ele>50</ele>
        <time>2018-04-21T07:40:11Z</time>
      </trkpt>
      <trkpt lat="47.55838" lon="-2.9129">
        <ele>51</ele>
        <time>2018-04-21T07:40:14Z</time>
      </trkpt>
      <trkpt lat="47.55834" lon="-2.91296">
        <ele>51</ele>
        <time>2018-04-21T07:40:17Z</time>
      </trkpt>
      <trkpt lat="47.55831" lon="-2.91299">
        <ele>52</ele>
        <time>2018-04-21T07:40:19Z</time>
      </trkpt>
      <trkpt lat="47.55829" lon="-2.91302">
        <ele>53</ele>
        <time>2018-04-21T07:40:21Z</time>
      </trkpt>
      <trkpt lat="47.55826" lon="-2.91307">
        <ele>52</ele>
        <time>2018-04-21T07:40:24Z</time>
      </trkpt>
      <trkpt lat="47.55823" lon="-2.91311">
        <ele>52</ele>
        <time>2018-04-21T07:40:26Z</time>
      </trkpt>
      <trkpt lat="47.55821" lon="-2.91315">
        <ele>51</ele>
        <time>2018-04-21T07:40:28Z</time>
      </trkpt>
      <trkpt lat="47.55818" lon="-2.9132">
        <ele>52</ele>
        <time>2018-04-21T07:40:31Z</time>
      </trkpt>
      <trkpt lat="47.55817" lon="-2.91323">
        <ele>53</ele>
        <time>2018-04-21T07:40:33Z</time>
      </trkpt>
      <trkpt lat="47.55813" lon="-2.91328">
        <ele>53</ele>
        <time>2018-04-21T07:40:36Z</time>
      </trkpt>
      <trkpt lat="47.55808" lon="-2.91331">
        <ele>53</ele>
        <time>2018-04-21T07:40:38Z</time>
      </trkpt>
      <trkpt lat="47.55803" lon="-2.91336">
        <ele>51</ele>
        <time>2018-04-21T07:40:41Z</time>
      </trkpt>
      <trkpt lat="47.558" lon="-2.91341">
        <ele>52</ele>
        <time>2018-04-21T07:40:44Z</time>
      </trkpt>
      <trkpt lat="47.55797" lon="-2.91345">
        <ele>52</ele>
        <time>2018-04-21T07:40:46Z</time>
      </trkpt>
      <trkpt lat="47.55793" lon="-2.91351">
        <ele>51</ele>
        <time>2018-04-21T07:40:49Z</time>
      </trkpt>
      <trkpt lat="47.55791" lon="-2.91355">
        <ele>51</ele>
        <time>2018-04-21T07:40:51Z</time>
      </trkpt>
      <trkpt lat="47.55789" lon="-2.91359">
        <ele>51</ele>
        <time>2018-04-21T07:40:53Z</time>
      </trkpt>
      <trkpt lat="47.55784" lon="-2.91364">
        <ele>51</ele>
        <time>2018-04-21T07:40:57Z</time>
      </trkpt>
      <trkpt lat="47.55778" lon="-2.91367">
        <ele>50</ele>
        <time>2018-04-21T07:41:00Z</time>
      </trkpt>
      <trkpt lat="47.55772" lon="-2.91366">
        <ele>51</ele>
        <time>2018-04-21T07:41:04Z</time>
      </trkpt>
      <trkpt lat="47.55768" lon="-2.91368">
        <ele>50</ele>
        <time>2018-04-21T07:41:09Z</time>
      </trkpt>
      <trkpt lat="47.55765" lon="-2.91374">
        <ele>50</ele>
        <time>2018-04-21T07:41:14Z</time>
      </trkpt>
      <trkpt lat="47.55761" lon="-2.91381">
        <ele>50</ele>
        <time>2018-04-21T07:41:19Z</time>
      </trkpt>
      <trkpt lat="47.55757" lon="-2.91385">
        <ele>51</ele>
        <time>2018-04-21T07:41:26Z</time>
      </trkpt>
      <trkpt lat="47.55756" lon="-2.91392">
        <ele>51</ele>
        <time>2018-04-21T07:41:36Z</time>
      </trkpt>
      <trkpt lat="47.55756" lon="-2.91397">
        <ele>51</ele>
        <time>2018-04-21T07:41:42Z</time>
      </trkpt>
      <trkpt lat="47.55756" lon="-2.914">
        <ele>52</ele>
        <time>2018-04-21T07:41:46Z</time>
      </trkpt>
      <trkpt lat="47.55754" lon="-2.91408">
        <ele>51</ele>
        <time>2018-04-21T07:41:52Z</time>
      </trkpt>
      <trkpt lat="47.55754" lon="-2.91412">
        <ele>52</ele>
        <time>2018-04-21T07:41:57Z</time>
      </trkpt>
      <trkpt lat="47.55753" lon="-2.91419">
        <ele>50</ele>
        <time>2018-04-21T07:42:03Z</time>
      </trkpt>
      <trkpt lat="47.55753" lon="-2.91423">
        <ele>50</ele>
        <time>2018-04-21T07:42:06Z</time>
      </trkpt>
      <trkpt lat="47.55753" lon="-2.91429">
        <ele>50</ele>
        <time>2018-04-21T07:42:11Z</time>
      </trkpt>
      <trkpt lat="47.55749" lon="-2.91433">
        <ele>50</ele>
        <time>2018-04-21T07:42:18Z</time>
      </trkpt>
      <trkpt lat="47.55747" lon="-2.91436">
        <ele>51</ele>
        <time>2018-04-21T07:42:24Z</time>
      </trkpt>
      <trkpt lat="47.55745" lon="-2.91438">
        <ele>51</ele>
        <time>2018-04-21T07:42:26Z</time>
      </trkpt>
      <trkpt lat="47.5574" lon="-2.91442">
        <ele>52</ele>
        <time>2018-04-21T07:42:30Z</time>
      </trkpt>
      <trkpt lat="47.55736" lon="-2.91447">
        <ele>51</ele>
        <time>2018-04-21T07:42:34Z</time>
      </trkpt>
      <trkpt lat="47.55732" lon="-2.9145">
        <ele>52</ele>
        <time>2018-04-21T07:42:37Z</time>
      </trkpt>
      <trkpt lat="47.55728" lon="-2.91453">
        <ele>52</ele>
        <time>2018-04-21T07:42:39Z</time>
      </trkpt>
      <trkpt lat="47.55724" lon="-2.91456">
        <ele>52</ele>
        <time>2018-04-21T07:42:42Z</time>
      </trkpt>
      <trkpt lat="47.55719" lon="-2.91459">
        <ele>52</ele>
        <time>2018-04-21T07:42:45Z</time>
      </trkpt>
      <trkpt lat="47.55716" lon="-2.9146">
        <ele>53</ele>
        <time>2018-04-21T07:42:47Z</time>
      </trkpt>
      <trkpt lat="47.55714" lon="-2.91461">
        <ele>53</ele>
        <time>2018-04-21T07:42:49Z</time>
      </trkpt>
      <trkpt lat="47.55708" lon="-2.91463">
        <ele>52</ele>
        <time>2018-04-21T07:42:53Z</time>
      </trkpt>
      <trkpt lat="47.55703" lon="-2.91466">
        <ele>50</ele>
        <time>2018-04-21T07:42:57Z</time>
      </trkpt>
      <trkpt lat="47.557" lon="-2.91468">
        <ele>50</ele>
        <time>2018-04-21T07:42:59Z</time>
      </trkpt>
      <trkpt lat="47.55695" lon="-2.91471">
        <ele>49</ele>
        <time>2018-04-21T07:43:04Z</time>
      </trkpt>
      <trkpt lat="47.55693" lon="-2.91472">
        <ele>48</ele>
        <time>2018-04-21T07:43:07Z</time>
      </trkpt>
      <trkpt lat="47.5569" lon="-2.91473">
        <ele>48</ele>
        <time>2018-04-21T07:43:09Z</time>
      </trkpt>
      <trkpt lat="47.55685" lon="-2.91475">
        <ele>47</ele>
        <time>2018-04-21T07:43:13Z</time>
      </trkpt>
      <trkpt lat="47.55682" lon="-2.91475">
        <ele>47</ele>
        <time>2018-04-21T07:43:15Z</time>
      </trkpt>
      <trkpt lat="47.55679" lon="-2.91476">
        <ele>47</ele>
        <time>2018-04-21T07:43:17Z</time>
      </trkpt>
      <trkpt lat="47.55676" lon="-2.91477">
        <ele>48</ele>
        <time>2018-04-21T07:43:19Z</time>
      </trkpt>
      <trkpt lat="47.55672" lon="-2.91478">
        <ele>48</ele>
        <time>2018-04-21T07:43:21Z</time>
      </trkpt>
      <trkpt lat="47.55667" lon="-2.91478">
        <ele>49</ele>
        <time>2018-04-21T07:43:24Z</time>
      </trkpt>
      <trkpt lat="47.55662" lon="-2.91477">
        <ele>50</ele>
        <time>2018-04-21T07:43:27Z</time>
      </trkpt>
      <trkpt lat="47.55659" lon="-2.91477">
        <ele>50</ele>
        <time>2018-04-21T07:43:29Z</time>
      </trkpt>
      <trkpt lat="47.55654" lon="-2.91478">
        <ele>50</ele>
        <time>2018-04-21T07:43:32Z</time>
      </trkpt>
      <trkpt lat="47.55649" lon="-2.91478">
        <ele>49</ele>
        <time>2018-04-21T07:43:35Z</time>
      </trkpt>
      <trkpt lat="47.55644" lon="-2.91476">
        <ele>50</ele>
        <time>2018-04-21T07:43:39Z</time>
      </trkpt>
      <trkpt lat="47.55641" lon="-2.91474">
        <ele>49</ele>
        <time>2018-04-21T07:43:41Z</time>
      </trkpt>
      <trkpt lat="47.55638" lon="-2.91473">
        <ele>48</ele>
        <time>2018-04-21T07:43:44Z</time>
      </trkpt>
      <trkpt lat="47.55634" lon="-2.91475">
        <ele>46</ele>
        <time>2018-04-21T07:43:50Z</time>
      </trkpt>
      <trkpt lat="47.5563" lon="-2.91477">
        <ele>46</ele>
        <time>2018-04-21T07:43:53Z</time>
      </trkpt>
      <trkpt lat="47.55626" lon="-2.91481">
        <ele>46</ele>
        <time>2018-04-21T07:43:56Z</time>
      </trkpt>
      <trkpt lat="47.55621" lon="-2.91484">
        <ele>45</ele>
        <time>2018-04-21T07:43:59Z</time>
      </trkpt>
      <trkpt lat="47.55616" lon="-2.91487">
        <ele>45</ele>
        <time>2018-04-21T07:44:02Z</time>
      </trkpt>
      <trkpt lat="47.5561" lon="-2.91488">
        <ele>45</ele>
        <time>2018-04-21T07:44:06Z</time>
      </trkpt>
      <trkpt lat="47.55606" lon="-2.9149">
        <ele>46</ele>
        <time>2018-04-21T07:44:09Z</time>
      </trkpt>
      <trkpt lat="47.55603" lon="-2.91491">
        <ele>47</ele>
        <time>2018-04-21T07:44:11Z</time>
      </trkpt>
      <trkpt lat="47.55599" lon="-2.91493">
        <ele>47</ele>
        <time>2018-04-21T07:44:14Z</time>
      </trkpt>
      <trkpt lat="47.55594" lon="-2.91497">
        <ele>47</ele>
        <time>2018-04-21T07:44:18Z</time>
      </trkpt>
      <trkpt lat="47.55589" lon="-2.915">
        <ele>48</ele>
        <time>2018-04-21T07:44:21Z</time>
      </trkpt>
      <trkpt lat="47.55585" lon="-2.91505">
        <ele>49</ele>
        <time>2018-04-21T07:44:25Z</time>
      </trkpt>
      <trkpt lat="47.5558" lon="-2.91507">
        <ele>49</ele>
        <time>2018-04-21T07:44:28Z</time>
      </trkpt>
      <trkpt lat="47.55578" lon="-2.91509">
        <ele>49</ele>
        <time>2018-04-21T07:44:30Z</time>
      </trkpt>
      <trkpt lat="47.55573" lon="-2.91512">
        <ele>48</ele>
        <time>2018-04-21T07:44:33Z</time>
      </trkpt>
      <trkpt lat="47.55568" lon="-2.91512">
        <ele>49</ele>
        <time>2018-04-21T07:44:36Z</time>
      </trkpt>
      <trkpt lat="47.55564" lon="-2.91513">
        <ele>49</ele>
        <time>2018-04-21T07:44:40Z</time>
      </trkpt>
      <trkpt lat="47.55558" lon="-2.91513">
        <ele>50</ele>
        <time>2018-04-21T07:44:43Z</time>
      </trkpt>
      <trkpt lat="47.55553" lon="-2.91512">
        <ele>51</ele>
        <time>2018-04-21T07:44:46Z</time>
      </trkpt>
      <trkpt lat="47.55548" lon="-2.91512">
        <ele>51</ele>
        <time>2018-04-21T07:44:49Z</time>
      </trkpt>
      <trkpt lat="47.55544" lon="-2.91512">
        <ele>51</ele>
        <time>2018-04-21T07:44:51Z</time>
      </trkpt>
      <trkpt lat="47.55539" lon="-2.91512">
        <ele>52</ele>
        <time>2018-04-21T07:44:54Z</time>
      </trkpt>
      <trkpt lat="47.55534" lon="-2.91512">
        <ele>52</ele>
        <time>2018-04-21T07:44:57Z</time>
      </trkpt>
      <trkpt lat="47.55528" lon="-2.91512">
        <ele>52</ele>
        <time>2018-04-21T07:45:00Z</time>
      </trkpt>
      <trkpt lat="47.55525" lon="-2.91513">
        <ele>51</ele>
        <time>2018-04-21T07:45:02Z</time>
      </trkpt>
      <trkpt lat="47.55521" lon="-2.91514">
        <ele>51</ele>
        <time>2018-04-21T07:45:04Z</time>
      </trkpt>
      <trkpt lat="47.55517" lon="-2.91515">
        <ele>52</ele>
        <time>2018-04-21T07:45:06Z</time>
      </trkpt>
      <trkpt lat="47.55512" lon="-2.91516">
        <ele>52</ele>
        <time>2018-04-21T07:45:09Z</time>
      </trkpt>
      <trkpt lat="47.55509" lon="-2.91517">
        <ele>52</ele>
        <time>2018-04-21T07:45:11Z</time>
      </trkpt>
      <trkpt lat="47.55504" lon="-2.91518">
        <ele>51</ele>
        <time>2018-04-21T07:45:14Z</time>
      </trkpt>
      <trkpt lat="47.55501" lon="-2.91519">
        <ele>51</ele>
        <time>2018-04-21T07:45:16Z</time>
      </trkpt>
      <trkpt lat="47.55495" lon="-2.91518">
        <ele>50</ele>
        <time>2018-04-21T07:45:19Z</time>
      </trkpt>
      <trkpt lat="47.55489" lon="-2.91522">
        <ele>49</ele>
        <time>2018-04-21T07:45:22Z</time>
      </trkpt>
      <trkpt lat="47.55486" lon="-2.91525">
        <ele>49</ele>
        <time>2018-04-21T07:45:25Z</time>
      </trkpt>
      <trkpt lat="47.55481" lon="-2.91527">
        <ele>48</ele>
        <time>2018-04-21T07:45:28Z</time>
      </trkpt>
      <trkpt lat="47.55475" lon="-2.91529">
        <ele>49</ele>
        <time>2018-04-21T07:45:31Z</time>
      </trkpt>
      <trkpt lat="47.55471" lon="-2.9153">
        <ele>49</ele>
        <time>2018-04-21T07:45:33Z</time>
      </trkpt>
      <trkpt lat="47.55467" lon="-2.91531">
        <ele>49</ele>
        <time>2018-04-21T07:45:35Z</time>
      </trkpt>
      <trkpt lat="47.55462" lon="-2.91535">
        <ele>47</ele>
        <time>2018-04-21T07:45:39Z</time>
      </trkpt>
      <trkpt lat="47.55458" lon="-2.91537">
        <ele>48</ele>
        <time>2018-04-21T07:45:42Z</time>
      </trkpt>
      <trkpt lat="47.55455" lon="-2.91538">
        <ele>46</ele>
        <time>2018-04-21T07:45:44Z</time>
      </trkpt>
      <trkpt lat="47.55452" lon="-2.9154">
        <ele>45</ele>
        <time>2018-04-21T07:45:46Z</time>
      </trkpt>
      <trkpt lat="47.55447" lon="-2.91541">
        <ele>45</ele>
        <time>2018-04-21T07:45:49Z</time>
      </trkpt>
      <trkpt lat="47.55442" lon="-2.91542">
        <ele>46</ele>
        <time>2018-04-21T07:45:51Z</time>
      </trkpt>
      <trkpt lat="47.55438" lon="-2.91546">
        <ele>46</ele>
        <time>2018-04-21T07:45:54Z</time>
      </trkpt>
      <trkpt lat="47.55432" lon="-2.91549">
        <ele>48</ele>
        <time>2018-04-21T07:45:57Z</time>
      </trkpt>
      <trkpt lat="47.55427" lon="-2.91549">
        <ele>48</ele>
        <time>2018-04-21T07:45:59Z</time>
      </trkpt>
      <trkpt lat="47.55424" lon="-2.9155">
        <ele>48</ele>
        <time>2018-04-21T07:46:01Z</time>
      </trkpt>
      <trkpt lat="47.55421" lon="-2.9155">
        <ele>48</ele>
        <time>2018-04-21T07:46:03Z</time>
      </trkpt>
      <trkpt lat="47.55414" lon="-2.91551">
        <ele>47</ele>
        <time>2018-04-21T07:46:07Z</time>
      </trkpt>
      <trkpt lat="47.55408" lon="-2.91551">
        <ele>46</ele>
        <time>2018-04-21T07:46:10Z</time>
      </trkpt>
      <trkpt lat="47.55406" lon="-2.91551">
        <ele>47</ele>
        <time>2018-04-21T07:46:11Z</time>
      </trkpt>
      <trkpt lat="47.554" lon="-2.91552">
        <ele>47</ele>
        <time>2018-04-21T07:46:14Z</time>
      </trkpt>
      <trkpt lat="47.55396" lon="-2.91555">
        <ele>46</ele>
        <time>2018-04-21T07:46:17Z</time>
      </trkpt>
      <trkpt lat="47.5539" lon="-2.91556">
        <ele>47</ele>
        <time>2018-04-21T07:46:20Z</time>
      </trkpt>
      <trkpt lat="47.55387" lon="-2.91557">
        <ele>47</ele>
        <time>2018-04-21T07:46:22Z</time>
      </trkpt>
      <trkpt lat="47.55382" lon="-2.91557">
        <ele>48</ele>
        <time>2018-04-21T07:46:25Z</time>
      </trkpt>
      <trkpt lat="47.55377" lon="-2.9156">
        <ele>47</ele>
        <time>2018-04-21T07:46:28Z</time>
      </trkpt>
      <trkpt lat="47.55374" lon="-2.91561">
        <ele>49</ele>
        <time>2018-04-21T07:46:30Z</time>
      </trkpt>
      <trkpt lat="47.55374" lon="-2.91561">
        <time>2018-04-21T07:46:35Z</time>
      </trkpt>
      <trkpt lat="47.55374" lon="-2.91561">
        <time>2018-04-21T07:46:49Z</time>
      </trkpt>
      <trkpt lat="47.5536" lon="-2.91573">
        <ele>51</ele>
        <time>2018-04-21T07:46:49Z</time>
      </trkpt>
      <trkpt lat="47.55355" lon="-2.91574">
        <ele>50</ele>
        <time>2018-04-21T07:46:52Z</time>
      </trkpt>
      <trkpt lat="47.5535" lon="-2.91576">
        <ele>51</ele>
        <time>2018-04-21T07:46:55Z</time>
      </trkpt>
      <trkpt lat="47.55347" lon="-2.91578">
        <ele>51</ele>
        <time>2018-04-21T07:46:57Z</time>
      </trkpt>
      <trkpt lat="47.55342" lon="-2.91582">
        <ele>51</ele>
        <time>2018-04-21T07:47:01Z</time>
      </trkpt>
      <trkpt lat="47.55339" lon="-2.91583">
        <ele>51</ele>
        <time>2018-04-21T07:47:03Z</time>
      </trkpt>
      <trkpt lat="47.55336" lon="-2.91586">
        <ele>50</ele>
        <time>2018-04-21T07:47:05Z</time>
      </trkpt>
      <trkpt lat="47.55332" lon="-2.91589">
        <ele>51</ele>
        <time>2018-04-21T07:47:09Z</time>
      </trkpt>
      <trkpt lat="47.55327" lon="-2.91593">
        <ele>51</ele>
        <time>2018-04-21T07:47:13Z</time>
      </trkpt>
      <trkpt lat="47.55324" lon="-2.91596">
        <ele>51</ele>
        <time>2018-04-21T07:47:17Z</time>
      </trkpt>
      <trkpt lat="47.55321" lon="-2.91599">
        <ele>50</ele>
        <time>2018-04-21T07:47:19Z</time>
      </trkpt>
      <trkpt lat="47.55316" lon="-2.91601">
        <ele>51</ele>
        <time>2018-04-21T07:47:23Z</time>
      </trkpt>
      <trkpt lat="47.55312" lon="-2.91601">
        <ele>52</ele>
        <time>2018-04-21T07:47:27Z</time>
      </trkpt>
      <trkpt lat="47.55307" lon="-2.91603">
        <ele>51</ele>
        <time>2018-04-21T07:47:30Z</time>
      </trkpt>
      <trkpt lat="47.55303" lon="-2.91606">
        <ele>51</ele>
        <time>2018-04-21T07:47:33Z</time>
      </trkpt>
      <trkpt lat="47.55299" lon="-2.91607">
        <ele>52</ele>
        <time>2018-04-21T07:47:35Z</time>
      </trkpt>
      <trkpt lat="47.55295" lon="-2.91609">
        <ele>51</ele>
        <time>2018-04-21T07:47:38Z</time>
      </trkpt>
      <trkpt lat="47.55291" lon="-2.9161">
        <ele>51</ele>
        <time>2018-04-21T07:47:40Z</time>
      </trkpt>
      <trkpt lat="47.55286" lon="-2.91612">
        <ele>51</ele>
        <time>2018-04-21T07:47:43Z</time>
      </trkpt>
      <trkpt lat="47.5528" lon="-2.91614">
        <ele>50</ele>
        <time>2018-04-21T07:47:46Z</time>
      </trkpt>
      <trkpt lat="47.55277" lon="-2.91616">
        <ele>51</ele>
        <time>2018-04-21T07:47:48Z</time>
      </trkpt>
      <trkpt lat="47.55272" lon="-2.91619">
        <ele>51</ele>
        <time>2018-04-21T07:47:51Z</time>
      </trkpt>
      <trkpt lat="47.55267" lon="-2.91623">
        <ele>52</ele>
        <time>2018-04-21T07:47:54Z</time>
      </trkpt>
      <trkpt lat="47.55263" lon="-2.91625">
        <ele>53</ele>
        <time>2018-04-21T07:47:55Z</time>
      </trkpt>
      <trkpt lat="47.55261" lon="-2.91627">
        <ele>51</ele>
        <time>2018-04-21T07:47:56Z</time>
      </trkpt>
      <trkpt lat="47.55258" lon="-2.9163">
        <ele>51</ele>
        <time>2018-04-21T07:47:58Z</time>
      </trkpt>
      <trkpt lat="47.5525" lon="-2.91631">
        <ele>52</ele>
        <time>2018-04-21T07:48:02Z</time>
      </trkpt>
      <trkpt lat="47.55246" lon="-2.91632">
        <ele>53</ele>
        <time>2018-04-21T07:48:04Z</time>
      </trkpt>
      <trkpt lat="47.55243" lon="-2.91633">
        <ele>53</ele>
        <time>2018-04-21T07:48:06Z</time>
      </trkpt>
      <trkpt lat="47.55239" lon="-2.91633">
        <ele>54</ele>
        <time>2018-04-21T07:48:08Z</time>
      </trkpt>
      <trkpt lat="47.55234" lon="-2.91635">
        <ele>53</ele>
        <time>2018-04-21T07:48:12Z</time>
      </trkpt>
      <trkpt lat="47.55228" lon="-2.91638">
        <ele>51</ele>
        <time>2018-04-21T07:48:15Z</time>
      </trkpt>
      <trkpt lat="47.55223" lon="-2.91639">
        <ele>51</ele>
        <time>2018-04-21T07:48:17Z</time>
      </trkpt>
      <trkpt lat="47.55218" lon="-2.91641">
        <ele>51</ele>
        <time>2018-04-21T07:48:21Z</time>
      </trkpt>
      <trkpt lat="47.55213" lon="-2.91644">
        <ele>50</ele>
        <time>2018-04-21T07:48:24Z</time>
      </trkpt>
      <trkpt lat="47.55209" lon="-2.91646">
        <ele>50</ele>
        <time>2018-04-21T07:48:26Z</time>
      </trkpt>
      <trkpt lat="47.55202" lon="-2.9165">
        <ele>50</ele>
        <time>2018-04-21T07:48:29Z</time>
      </trkpt>
      <trkpt lat="47.55198" lon="-2.91653">
        <ele>51</ele>
        <time>2018-04-21T07:48:33Z</time>
      </trkpt>
      <trkpt lat="47.55193" lon="-2.91655">
        <ele>52</ele>
        <time>2018-04-21T07:48:35Z</time>
      </trkpt>
      <trkpt lat="47.55187" lon="-2.91658">
        <ele>52</ele>
        <time>2018-04-21T07:48:39Z</time>
      </trkpt>
      <trkpt lat="47.55182" lon="-2.9166">
        <ele>53</ele>
        <time>2018-04-21T07:48:41Z</time>
      </trkpt>
      <trkpt lat="47.55176" lon="-2.91662">
        <ele>53</ele>
        <time>2018-04-21T07:48:45Z</time>
      </trkpt>
      <trkpt lat="47.55173" lon="-2.91663">
        <ele>54</ele>
        <time>2018-04-21T07:48:47Z</time>
      </trkpt>
      <trkpt lat="47.55168" lon="-2.91666">
        <ele>53</ele>
        <time>2018-04-21T07:48:50Z</time>
      </trkpt>
      <trkpt lat="47.55163" lon="-2.91669">
        <ele>53</ele>
        <time>2018-04-21T07:48:53Z</time>
      </trkpt>
      <trkpt lat="47.5516" lon="-2.9167">
        <ele>53</ele>
        <time>2018-04-21T07:48:55Z</time>
      </trkpt>
      <trkpt lat="47.55156" lon="-2.91672">
        <ele>53</ele>
        <time>2018-04-21T07:48:57Z</time>
      </trkpt>
      <trkpt lat="47.55152" lon="-2.91673">
        <ele>52</ele>
        <time>2018-04-21T07:48:59Z</time>
      </trkpt>
      <trkpt lat="47.55149" lon="-2.91675">
        <ele>52</ele>
        <time>2018-04-21T07:49:01Z</time>
      </trkpt>
      <trkpt lat="47.55146" lon="-2.91677">
        <ele>52</ele>
        <time>2018-04-21T07:49:03Z</time>
      </trkpt>
      <trkpt lat="47.55143" lon="-2.91679">
        <ele>52</ele>
        <time>2018-04-21T07:49:05Z</time>
      </trkpt>
      <trkpt lat="47.55139" lon="-2.91682">
        <ele>52</ele>
        <time>2018-04-21T07:49:08Z</time>
      </trkpt>
      <trkpt lat="47.55135" lon="-2.91685">
        <ele>52</ele>
        <time>2018-04-21T07:49:11Z</time>
      </trkpt>
      <trkpt lat="47.5513" lon="-2.91688">
        <ele>52</ele>
        <time>2018-04-21T07:49:14Z</time>
      </trkpt>
      <trkpt lat="47.55125" lon="-2.91691">
        <ele>52</ele>
        <time>2018-04-21T07:49:17Z</time>
      </trkpt>
      <trkpt lat="47.55121" lon="-2.91694">
        <ele>51</ele>
        <time>2018-04-21T07:49:20Z</time>
      </trkpt>
      <trkpt lat="47.55118" lon="-2.91696">
        <ele>52</ele>
        <time>2018-04-21T07:49:22Z</time>
      </trkpt>
      <trkpt lat="47.55115" lon="-2.91698">
        <ele>51</ele>
        <time>2018-04-21T07:49:23Z</time>
      </trkpt>
      <trkpt lat="47.55112" lon="-2.91702">
        <ele>51</ele>
        <time>2018-04-21T07:49:26Z</time>
      </trkpt>
      <trkpt lat="47.55107" lon="-2.91707">
        <ele>51</ele>
        <time>2018-04-21T07:49:29Z</time>
      </trkpt>
      <trkpt lat="47.55102" lon="-2.91711">
        <ele>52</ele>
        <time>2018-04-21T07:49:33Z</time>
      </trkpt>
      <trkpt lat="47.55099" lon="-2.91713">
        <ele>52</ele>
        <time>2018-04-21T07:49:35Z</time>
      </trkpt>
      <trkpt lat="47.55096" lon="-2.91716">
        <ele>52</ele>
        <time>2018-04-21T07:49:37Z</time>
      </trkpt>
      <trkpt lat="47.55091" lon="-2.91719">
        <ele>53</ele>
        <time>2018-04-21T07:49:40Z</time>
      </trkpt>
      <trkpt lat="47.55086" lon="-2.91722">
        <ele>53</ele>
        <time>2018-04-21T07:49:43Z</time>
      </trkpt>
      <trkpt lat="47.55082" lon="-2.91726">
        <ele>53</ele>
        <time>2018-04-21T07:49:46Z</time>
      </trkpt>
      <trkpt lat="47.55077" lon="-2.91729">
        <ele>54</ele>
        <time>2018-04-21T07:49:49Z</time>
      </trkpt>
      <trkpt lat="47.55072" lon="-2.91732">
        <ele>52</ele>
        <time>2018-04-21T07:49:52Z</time>
      </trkpt>
      <trkpt lat="47.55069" lon="-2.91734">
        <ele>52</ele>
        <time>2018-04-21T07:49:54Z</time>
      </trkpt>
      <trkpt lat="47.55067" lon="-2.91736">
        <ele>52</ele>
        <time>2018-04-21T07:49:56Z</time>
      </trkpt>
      <trkpt lat="47.55062" lon="-2.91737">
        <ele>52</ele>
        <time>2018-04-21T07:49:59Z</time>
      </trkpt>
      <trkpt lat="47.55057" lon="-2.91741">
        <ele>52</ele>
        <time>2018-04-21T07:50:03Z</time>
      </trkpt>
      <trkpt lat="47.55054" lon="-2.91743">
        <ele>52</ele>
        <time>2018-04-21T07:50:06Z</time>
      </trkpt>
      <trkpt lat="47.55048" lon="-2.91746">
        <ele>52</ele>
        <time>2018-04-21T07:50:12Z</time>
      </trkpt>
      <trkpt lat="47.55045" lon="-2.91747">
        <ele>52</ele>
        <time>2018-04-21T07:50:19Z</time>
      </trkpt>
      <trkpt lat="47.5504" lon="-2.91747">
        <ele>53</ele>
        <time>2018-04-21T07:50:26Z</time>
      </trkpt>
      <trkpt lat="47.55036" lon="-2.9175">
        <ele>53</ele>
        <time>2018-04-21T07:50:31Z</time>
      </trkpt>
      <trkpt lat="47.55032" lon="-2.91752">
        <ele>53</ele>
        <time>2018-04-21T07:50:35Z</time>
      </trkpt>
      <trkpt lat="47.55029" lon="-2.91754">
        <ele>52</ele>
        <time>2018-04-21T07:50:37Z</time>
      </trkpt>
      <trkpt lat="47.55023" lon="-2.91755">
        <ele>53</ele>
        <time>2018-04-21T07:50:41Z</time>
      </trkpt>
      <trkpt lat="47.55021" lon="-2.91756">
        <ele>53</ele>
        <time>2018-04-21T07:50:43Z</time>
      </trkpt>
      <trkpt lat="47.55016" lon="-2.91758">
        <ele>53</ele>
        <time>2018-04-21T07:50:47Z</time>
      </trkpt>
      <trkpt lat="47.5501" lon="-2.91761">
        <ele>54</ele>
        <time>2018-04-21T07:50:51Z</time>
      </trkpt>
      <trkpt lat="47.55006" lon="-2.91763">
        <ele>54</ele>
        <time>2018-04-21T07:50:54Z</time>
      </trkpt>
      <trkpt lat="47.55002" lon="-2.91765">
        <ele>54</ele>
        <time>2018-04-21T07:50:56Z</time>
      </trkpt>
      <trkpt lat="47.54998" lon="-2.91768">
        <ele>53</ele>
        <time>2018-04-21T07:50:59Z</time>
      </trkpt>
      <trkpt lat="47.54995" lon="-2.9177">
        <ele>52</ele>
        <time>2018-04-21T07:51:01Z</time>
      </trkpt>
      <trkpt lat="47.54992" lon="-2.91772">
        <ele>52</ele>
        <time>2018-04-21T07:51:03Z</time>
      </trkpt>
      <trkpt lat="47.54989" lon="-2.91774">
        <ele>52</ele>
        <time>2018-04-21T07:51:05Z</time>
      </trkpt>
      <trkpt lat="47.54987" lon="-2.91777">
        <ele>52</ele>
        <time>2018-04-21T07:51:08Z</time>
      </trkpt>
      <trkpt lat="47.54983" lon="-2.9178">
        <ele>51</ele>
        <time>2018-04-21T07:51:10Z</time>
      </trkpt>
      <trkpt lat="47.5498" lon="-2.91782">
        <ele>52</ele>
        <time>2018-04-21T07:51:12Z</time>
      </trkpt>
      <trkpt lat="47.54977" lon="-2.91785">
        <ele>52</ele>
        <time>2018-04-21T07:51:14Z</time>
      </trkpt>
      <trkpt lat="47.54975" lon="-2.91787">
        <ele>52</ele>
        <time>2018-04-21T07:51:16Z</time>
      </trkpt>
      <trkpt lat="47.54972" lon="-2.91791">
        <ele>52</ele>
        <time>2018-04-21T07:51:18Z</time>
      </trkpt>
      <trkpt lat="47.54967" lon="-2.91794">
        <ele>52</ele>
        <time>2018-04-21T07:51:21Z</time>
      </trkpt>
      <trkpt lat="47.54963" lon="-2.91796">
        <ele>52</ele>
        <time>2018-04-21T07:51:23Z</time>
      </trkpt>
      <trkpt lat="47.54959" lon="-2.91799">
        <ele>53</ele>
        <time>2018-04-21T07:51:26Z</time>
      </trkpt>
      <trkpt lat="47.54954" lon="-2.91802">
        <ele>52</ele>
        <time>2018-04-21T07:51:29Z</time>
      </trkpt>
      <trkpt lat="47.54949" lon="-2.91806">
        <ele>52</ele>
        <time>2018-04-21T07:51:32Z</time>
      </trkpt>
      <trkpt lat="47.54946" lon="-2.91809">
        <ele>51</ele>
        <time>2018-04-21T07:51:34Z</time>
      </trkpt>
      <trkpt lat="47.54942" lon="-2.9181">
        <ele>51</ele>
        <time>2018-04-21T07:51:36Z</time>
      </trkpt>
      <trkpt lat="47.54938" lon="-2.91814">
        <ele>51</ele>
        <time>2018-04-21T07:51:40Z</time>
      </trkpt>
      <trkpt lat="47.54932" lon="-2.91815">
        <ele>51</ele>
        <time>2018-04-21T07:51:43Z</time>
      </trkpt>
      <trkpt lat="47.54929" lon="-2.91815">
        <ele>50</ele>
        <time>2018-04-21T07:51:45Z</time>
      </trkpt>
      <trkpt lat="47.54925" lon="-2.91817">
        <ele>50</ele>
        <time>2018-04-21T07:51:48Z</time>
      </trkpt>
      <trkpt lat="47.54922" lon="-2.91819">
        <ele>50</ele>
        <time>2018-04-21T07:51:50Z</time>
      </trkpt>
      <trkpt lat="47.54917" lon="-2.91823">
        <ele>51</ele>
        <time>2018-04-21T07:51:54Z</time>
      </trkpt>
      <trkpt lat="47.54912" lon="-2.91826">
        <ele>51</ele>
        <time>2018-04-21T07:51:58Z</time>
      </trkpt>
      <trkpt lat="47.54908" lon="-2.9183">
        <ele>50</ele>
        <time>2018-04-21T07:52:02Z</time>
      </trkpt>
      <trkpt lat="47.54904" lon="-2.91835">
        <ele>50</ele>
        <time>2018-04-21T07:52:07Z</time>
      </trkpt>
      <trkpt lat="47.54901" lon="-2.91839">
        <ele>49</ele>
        <time>2018-04-21T07:52:12Z</time>
      </trkpt>
      <trkpt lat="47.54899" lon="-2.91843">
        <ele>48</ele>
        <time>2018-04-21T07:52:17Z</time>
      </trkpt>
      <trkpt lat="47.54896" lon="-2.91846">
        <ele>49</ele>
        <time>2018-04-21T07:52:22Z</time>
      </trkpt>
      <trkpt lat="47.54892" lon="-2.91849">
        <ele>50</ele>
        <time>2018-04-21T07:52:27Z</time>
      </trkpt>
      <trkpt lat="47.54889" lon="-2.91853">
        <ele>48</ele>
        <time>2018-04-21T07:52:31Z</time>
      </trkpt>
      <trkpt lat="47.54885" lon="-2.91859">
        <ele>51</ele>
        <time>2018-04-21T07:52:36Z</time>
      </trkpt>
      <trkpt lat="47.54881" lon="-2.91864">
        <ele>49</ele>
        <time>2018-04-21T07:52:42Z</time>
      </trkpt>
      <trkpt lat="47.54879" lon="-2.91871">
        <ele>49</ele>
        <time>2018-04-21T07:52:49Z</time>
      </trkpt>
      <trkpt lat="47.54879" lon="-2.91871">
        <time>2018-04-21T07:52:56Z</time>
      </trkpt>
      <trkpt lat="47.54879" lon="-2.91871">
        <time>2018-04-21T07:53:05Z</time>
      </trkpt>
      <trkpt lat="47.54875" lon="-2.91879">
        <ele>51</ele>
        <time>2018-04-21T07:53:05Z</time>
      </trkpt>
      <trkpt lat="47.54872" lon="-2.91884">
        <ele>51</ele>
        <time>2018-04-21T07:53:19Z</time>
      </trkpt>
      <trkpt lat="47.54869" lon="-2.91888">
        <ele>52</ele>
        <time>2018-04-21T07:53:25Z</time>
      </trkpt>
      <trkpt lat="47.54868" lon="-2.91894">
        <ele>51</ele>
        <time>2018-04-21T07:53:32Z</time>
      </trkpt>
      <trkpt lat="47.54866" lon="-2.91901">
        <ele>51</ele>
        <time>2018-04-21T07:53:37Z</time>
      </trkpt>
      <trkpt lat="47.54867" lon="-2.91908">
        <ele>50</ele>
        <time>2018-04-21T07:53:42Z</time>
      </trkpt>
      <trkpt lat="47.54868" lon="-2.91912">
        <ele>48</ele>
        <time>2018-04-21T07:53:52Z</time>
      </trkpt>
      <trkpt lat="47.54869" lon="-2.91915">
        <ele>49</ele>
        <time>2018-04-21T07:54:02Z</time>
      </trkpt>
      <trkpt lat="47.5487" lon="-2.91918">
        <ele>49</ele>
        <time>2018-04-21T07:54:10Z</time>
      </trkpt>
      <trkpt lat="47.54869" lon="-2.91926">
        <ele>49</ele>
        <time>2018-04-21T07:54:19Z</time>
      </trkpt>
      <trkpt lat="47.54868" lon="-2.91929">
        <ele>49</ele>
        <time>2018-04-21T07:54:22Z</time>
      </trkpt>
      <trkpt lat="47.54869" lon="-2.91936">
        <ele>49</ele>
        <time>2018-04-21T07:54:26Z</time>
      </trkpt>
      <trkpt lat="47.54872" lon="-2.91942">
        <ele>48</ele>
        <time>2018-04-21T07:54:32Z</time>
      </trkpt>
      <trkpt lat="47.54874" lon="-2.91948">
        <ele>50</ele>
        <time>2018-04-21T07:54:37Z</time>
      </trkpt>
      <trkpt lat="47.54877" lon="-2.91953">
        <ele>50</ele>
        <time>2018-04-21T07:54:41Z</time>
      </trkpt>
      <trkpt lat="47.54879" lon="-2.9196">
        <ele>50</ele>
        <time>2018-04-21T07:54:45Z</time>
      </trkpt>
      <trkpt lat="47.54879" lon="-2.91964">
        <ele>50</ele>
        <time>2018-04-21T07:54:47Z</time>
      </trkpt>
      <trkpt lat="47.54882" lon="-2.91971">
        <ele>50</ele>
        <time>2018-04-21T07:54:51Z</time>
      </trkpt>
      <trkpt lat="47.54883" lon="-2.91976">
        <ele>49</ele>
        <time>2018-04-21T07:54:53Z</time>
      </trkpt>
      <trkpt lat="47.54884" lon="-2.91981">
        <ele>49</ele>
        <time>2018-04-21T07:54:55Z</time>
      </trkpt>
      <trkpt lat="47.54886" lon="-2.91986">
        <ele>50</ele>
        <time>2018-04-21T07:54:57Z</time>
      </trkpt>
      <trkpt lat="47.54887" lon="-2.9199">
        <ele>50</ele>
        <time>2018-04-21T07:54:59Z</time>
      </trkpt>
      <trkpt lat="47.5489" lon="-2.91997">
        <ele>49</ele>
        <time>2018-04-21T07:55:02Z</time>
      </trkpt>
      <trkpt lat="47.54895" lon="-2.92004">
        <ele>50</ele>
        <time>2018-04-21T07:55:05Z</time>
      </trkpt>
      <trkpt lat="47.54897" lon="-2.92008">
        <ele>50</ele>
        <time>2018-04-21T07:55:07Z</time>
      </trkpt>
      <trkpt lat="47.54901" lon="-2.92015">
        <ele>50</ele>
        <time>2018-04-21T07:55:10Z</time>
      </trkpt>
      <trkpt lat="47.54903" lon="-2.92017">
        <ele>49</ele>
        <time>2018-04-21T07:55:11Z</time>
      </trkpt>
      <trkpt lat="47.54904" lon="-2.9202">
        <ele>49</ele>
        <time>2018-04-21T07:55:12Z</time>
      </trkpt>
      <trkpt lat="47.54908" lon="-2.92024">
        <ele>49</ele>
        <time>2018-04-21T07:55:14Z</time>
      </trkpt>
      <trkpt lat="47.54911" lon="-2.92028">
        <ele>50</ele>
        <time>2018-04-21T07:55:16Z</time>
      </trkpt>
      <trkpt lat="47.54916" lon="-2.92034">
        <ele>49</ele>
        <time>2018-04-21T07:55:19Z</time>
      </trkpt>
      <trkpt lat="47.54918" lon="-2.92036">
        <ele>49</ele>
        <time>2018-04-21T07:55:20Z</time>
      </trkpt>
      <trkpt lat="47.54921" lon="-2.92039">
        <ele>48</ele>
        <time>2018-04-21T07:55:21Z</time>
      </trkpt>
      <trkpt lat="47.54925" lon="-2.92042">
        <ele>49</ele>
        <time>2018-04-21T07:55:23Z</time>
      </trkpt>
      <trkpt lat="47.54928" lon="-2.92046">
        <ele>49</ele>
        <time>2018-04-21T07:55:25Z</time>
      </trkpt>
      <trkpt lat="47.54931" lon="-2.92049">
        <ele>50</ele>
        <time>2018-04-21T07:55:26Z</time>
      </trkpt>
      <trkpt lat="47.54933" lon="-2.92051">
        <ele>49</ele>
        <time>2018-04-21T07:55:27Z</time>
      </trkpt>
      <trkpt lat="47.54936" lon="-2.92056">
        <ele>49</ele>
        <time>2018-04-21T07:55:29Z</time>
      </trkpt>
      <trkpt lat="47.54942" lon="-2.92061">
        <ele>48</ele>
        <time>2018-04-21T07:55:32Z</time>
      </trkpt>
      <trkpt lat="47.54945" lon="-2.92065">
        <ele>49</ele>
        <time>2018-04-21T07:55:34Z</time>
      </trkpt>
      <trkpt lat="47.54949" lon="-2.92068">
        <ele>49</ele>
        <time>2018-04-21T07:55:36Z</time>
      </trkpt>
      <trkpt lat="47.54953" lon="-2.92074">
        <ele>49</ele>
        <time>2018-04-21T07:55:39Z</time>
      </trkpt>
      <trkpt lat="47.54957" lon="-2.92079">
        <ele>50</ele>
        <time>2018-04-21T07:55:41Z</time>
      </trkpt>
      <trkpt lat="47.54961" lon="-2.92086">
        <ele>49</ele>
        <time>2018-04-21T07:55:44Z</time>
      </trkpt>
      <trkpt lat="47.54964" lon="-2.92091">
        <ele>49</ele>
        <time>2018-04-21T07:55:46Z</time>
      </trkpt>
      <trkpt lat="47.54967" lon="-2.92096">
        <ele>49</ele>
        <time>2018-04-21T07:55:48Z</time>
      </trkpt>
      <trkpt lat="47.54971" lon="-2.92103">
        <ele>49</ele>
        <time>2018-04-21T07:55:51Z</time>
      </trkpt>
      <trkpt lat="47.54975" lon="-2.92108">
        <ele>49</ele>
        <time>2018-04-21T07:55:53Z</time>
      </trkpt>
      <trkpt lat="47.54978" lon="-2.92113">
        <ele>48</ele>
        <time>2018-04-21T07:55:55Z</time>
      </trkpt>
      <trkpt lat="47.54982" lon="-2.92118">
        <ele>48</ele>
        <time>2018-04-21T07:55:57Z</time>
      </trkpt>
      <trkpt lat="47.54986" lon="-2.92123">
        <ele>49</ele>
        <time>2018-04-21T07:55:59Z</time>
      </trkpt>
      <trkpt lat="47.54989" lon="-2.92128">
        <ele>50</ele>
        <time>2018-04-21T07:56:01Z</time>
      </trkpt>
      <trkpt lat="47.54993" lon="-2.92134">
        <ele>50</ele>
        <time>2018-04-21T07:56:04Z</time>
      </trkpt>
      <trkpt lat="47.54995" lon="-2.92137">
        <ele>50</ele>
        <time>2018-04-21T07:56:05Z</time>
      </trkpt>
      <trkpt lat="47.54998" lon="-2.92143">
        <ele>50</ele>
        <time>2018-04-21T07:56:07Z</time>
      </trkpt>
      <trkpt lat="47.55" lon="-2.92146">
        <ele>51</ele>
        <time>2018-04-21T07:56:08Z</time>
      </trkpt>
      <trkpt lat="47.55003" lon="-2.92151">
        <ele>51</ele>
        <time>2018-04-21T07:56:10Z</time>
      </trkpt>
      <trkpt lat="47.55006" lon="-2.92157">
        <ele>50</ele>
        <time>2018-04-21T07:56:12Z</time>
      </trkpt>
      <trkpt lat="47.55007" lon="-2.9216">
        <ele>51</ele>
        <time>2018-04-21T07:56:13Z</time>
      </trkpt>
      <trkpt lat="47.55009" lon="-2.92163">
        <ele>51</ele>
        <time>2018-04-21T07:56:14Z</time>
      </trkpt>
      <trkpt lat="47.55011" lon="-2.92166">
        <ele>52</ele>
        <time>2018-04-21T07:56:15Z</time>
      </trkpt>
      <trkpt lat="47.55013" lon="-2.92171">
        <ele>51</ele>
        <time>2018-04-21T07:56:18Z</time>
      </trkpt>
      <trkpt lat="47.55016" lon="-2.92176">
        <ele>51</ele>
        <time>2018-04-21T07:56:20Z</time>
      </trkpt>
      <trkpt lat="47.55018" lon="-2.92181">
        <ele>52</ele>
        <time>2018-04-21T07:56:21Z</time>
      </trkpt>
      <trkpt lat="47.55022" lon="-2.92186">
        <ele>52</ele>
        <time>2018-04-21T07:56:23Z</time>
      </trkpt>
      <trkpt lat="47.55025" lon="-2.92191">
        <ele>53</ele>
        <time>2018-04-21T07:56:26Z</time>
      </trkpt>
      <trkpt lat="47.55028" lon="-2.92196">
        <ele>53</ele>
        <time>2018-04-21T07:56:28Z</time>
      </trkpt>
      <trkpt lat="47.55029" lon="-2.92199">
        <ele>53</ele>
        <time>2018-04-21T07:56:29Z</time>
      </trkpt>
      <trkpt lat="47.55032" lon="-2.92205">
        <ele>52</ele>
        <time>2018-04-21T07:56:31Z</time>
      </trkpt>
      <trkpt lat="47.55036" lon="-2.92212">
        <ele>51</ele>
        <time>2018-04-21T07:56:34Z</time>
      </trkpt>
      <trkpt lat="47.55041" lon="-2.92218">
        <ele>51</ele>
        <time>2018-04-21T07:56:37Z</time>
      </trkpt>
      <trkpt lat="47.55046" lon="-2.92223">
        <ele>50</ele>
        <time>2018-04-21T07:56:40Z</time>
      </trkpt>
      <trkpt lat="47.55051" lon="-2.92229">
        <ele>50</ele>
        <time>2018-04-21T07:56:43Z</time>
      </trkpt>
      <trkpt lat="47.55055" lon="-2.92236">
        <ele>49</ele>
        <time>2018-04-21T07:56:46Z</time>
      </trkpt>
      <trkpt lat="47.55058" lon="-2.9224">
        <ele>50</ele>
        <time>2018-04-21T07:56:48Z</time>
      </trkpt>
      <trkpt lat="47.55061" lon="-2.92245">
        <ele>50</ele>
        <time>2018-04-21T07:56:50Z</time>
      </trkpt>
      <trkpt lat="47.55064" lon="-2.92251">
        <ele>49</ele>
        <time>2018-04-21T07:56:53Z</time>
      </trkpt>
      <trkpt lat="47.55068" lon="-2.92258">
        <ele>49</ele>
        <time>2018-04-21T07:56:56Z</time>
      </trkpt>
      <trkpt lat="47.55072" lon="-2.92264">
        <ele>49</ele>
        <time>2018-04-21T07:56:59Z</time>
      </trkpt>
      <trkpt lat="47.55074" lon="-2.92267">
        <ele>50</ele>
        <time>2018-04-21T07:57:00Z</time>
      </trkpt>
      <trkpt lat="47.55077" lon="-2.92271">
        <ele>50</ele>
        <time>2018-04-21T07:57:02Z</time>
      </trkpt>
      <trkpt lat="47.5508" lon="-2.92275">
        <ele>50</ele>
        <time>2018-04-21T07:57:04Z</time>
      </trkpt>
      <trkpt lat="47.55082" lon="-2.9228">
        <ele>51</ele>
        <time>2018-04-21T07:57:06Z</time>
      </trkpt>
      <trkpt lat="47.55085" lon="-2.92284">
        <ele>51</ele>
        <time>2018-04-21T07:57:08Z</time>
      </trkpt>
      <trkpt lat="47.5509" lon="-2.92291">
        <ele>51</ele>
        <time>2018-04-21T07:57:12Z</time>
      </trkpt>
      <trkpt lat="47.55093" lon="-2.92296">
        <ele>50</ele>
        <time>2018-04-21T07:57:14Z</time>
      </trkpt>
      <trkpt lat="47.55096" lon="-2.92303">
        <ele>49</ele>
        <time>2018-04-21T07:57:17Z</time>
      </trkpt>
      <trkpt lat="47.551" lon="-2.92308">
        <ele>50</ele>
        <time>2018-04-21T07:57:20Z</time>
      </trkpt>
      <trkpt lat="47.55103" lon="-2.92315">
        <ele>50</ele>
        <time>2018-04-21T07:57:24Z</time>
      </trkpt>
      <trkpt lat="47.55106" lon="-2.9232">
        <ele>49</ele>
        <time>2018-04-21T07:57:27Z</time>
      </trkpt>
      <trkpt lat="47.55108" lon="-2.92328">
        <ele>49</ele>
        <time>2018-04-21T07:57:30Z</time>
      </trkpt>
      <trkpt lat="47.55112" lon="-2.92334">
        <ele>50</ele>
        <time>2018-04-21T07:57:33Z</time>
      </trkpt>
      <trkpt lat="47.55115" lon="-2.92338">
        <ele>51</ele>
        <time>2018-04-21T07:57:35Z</time>
      </trkpt>
      <trkpt lat="47.55117" lon="-2.92342">
        <ele>51</ele>
        <time>2018-04-21T07:57:37Z</time>
      </trkpt>
      <trkpt lat="47.55119" lon="-2.92346">
        <ele>51</ele>
        <time>2018-04-21T07:57:39Z</time>
      </trkpt>
      <trkpt lat="47.55122" lon="-2.92349">
        <ele>51</ele>
        <time>2018-04-21T07:57:41Z</time>
      </trkpt>
      <trkpt lat="47.55125" lon="-2.92355">
        <ele>50</ele>
        <time>2018-04-21T07:57:44Z</time>
      </trkpt>
      <trkpt lat="47.55127" lon="-2.92359">
        <ele>50</ele>
        <time>2018-04-21T07:57:46Z</time>
      </trkpt>
      <trkpt lat="47.55131" lon="-2.92365">
        <ele>49</ele>
        <time>2018-04-21T07:57:49Z</time>
      </trkpt>
      <trkpt lat="47.55135" lon="-2.92371">
        <ele>48</ele>
        <time>2018-04-21T07:57:52Z</time>
      </trkpt>
      <trkpt lat="47.55137" lon="-2.92374">
        <ele>47</ele>
        <time>2018-04-21T07:57:54Z</time>
      </trkpt>
      <trkpt lat="47.5514" lon="-2.92379">
        <ele>48</ele>
        <time>2018-04-21T07:57:57Z</time>
      </trkpt>
      <trkpt lat="47.55142" lon="-2.92384">
        <ele>48</ele>
        <time>2018-04-21T07:57:59Z</time>
      </trkpt>
      <trkpt lat="47.55145" lon="-2.9239">
        <ele>49</ele>
        <time>2018-04-21T07:58:02Z</time>
      </trkpt>
      <trkpt lat="47.55147" lon="-2.92394">
        <ele>49</ele>
        <time>2018-04-21T07:58:04Z</time>
      </trkpt>
      <trkpt lat="47.55149" lon="-2.92398">
        <ele>48</ele>
        <time>2018-04-21T07:58:06Z</time>
      </trkpt>
      <trkpt lat="47.55151" lon="-2.92402">
        <ele>48</ele>
        <time>2018-04-21T07:58:08Z</time>
      </trkpt>
      <trkpt lat="47.55155" lon="-2.92408">
        <ele>49</ele>
        <time>2018-04-21T07:58:11Z</time>
      </trkpt>
      <trkpt lat="47.55158" lon="-2.92415">
        <ele>48</ele>
        <time>2018-04-21T07:58:15Z</time>
      </trkpt>
      <trkpt lat="47.55159" lon="-2.92419">
        <ele>48</ele>
        <time>2018-04-21T07:58:17Z</time>
      </trkpt>
      <trkpt lat="47.55162" lon="-2.92424">
        <ele>48</ele>
        <time>2018-04-21T07:58:20Z</time>
      </trkpt>
      <trkpt lat="47.55164" lon="-2.92431">
        <ele>49</ele>
        <time>2018-04-21T07:58:24Z</time>
      </trkpt>
      <trkpt lat="47.55166" lon="-2.92437">
        <ele>49</ele>
        <time>2018-04-21T07:58:27Z</time>
      </trkpt>
      <trkpt lat="47.55167" lon="-2.92441">
        <ele>49</ele>
        <time>2018-04-21T07:58:29Z</time>
      </trkpt>
      <trkpt lat="47.55169" lon="-2.92449">
        <ele>49</ele>
        <time>2018-04-21T07:58:33Z</time>
      </trkpt>
      <trkpt lat="47.55171" lon="-2.92455">
        <ele>49</ele>
        <time>2018-04-21T07:58:36Z</time>
      </trkpt>
      <trkpt lat="47.55173" lon="-2.92459">
        <ele>50</ele>
        <time>2018-04-21T07:58:38Z</time>
      </trkpt>
      <trkpt lat="47.55174" lon="-2.92463">
        <ele>50</ele>
        <time>2018-04-21T07:58:40Z</time>
      </trkpt>
      <trkpt lat="47.55176" lon="-2.92471">
        <ele>51</ele>
        <time>2018-04-21T07:58:44Z</time>
      </trkpt>
      <trkpt lat="47.55177" lon="-2.92478">
        <ele>50</ele>
        <time>2018-04-21T07:58:47Z</time>
      </trkpt>
      <trkpt lat="47.55177" lon="-2.92483">
        <ele>49</ele>
        <time>2018-04-21T07:58:49Z</time>
      </trkpt>
      <trkpt lat="47.55179" lon="-2.92491">
        <ele>48</ele>
        <time>2018-04-21T07:58:53Z</time>
      </trkpt>
      <trkpt lat="47.5518" lon="-2.92494">
        <ele>47</ele>
        <time>2018-04-21T07:58:55Z</time>
      </trkpt>
      <trkpt lat="47.55182" lon="-2.92503">
        <ele>48</ele>
        <time>2018-04-21T07:59:00Z</time>
      </trkpt>
      <trkpt lat="47.55185" lon="-2.92511">
        <ele>47</ele>
        <time>2018-04-21T07:59:04Z</time>
      </trkpt>
      <trkpt lat="47.55184" lon="-2.92519">
        <ele>46</ele>
        <time>2018-04-21T07:59:08Z</time>
      </trkpt>
      <trkpt lat="47.55184" lon="-2.92522">
        <ele>47</ele>
        <time>2018-04-21T07:59:10Z</time>
      </trkpt>
      <trkpt lat="47.55184" lon="-2.92528">
        <ele>47</ele>
        <time>2018-04-21T07:59:14Z</time>
      </trkpt>
      <trkpt lat="47.55185" lon="-2.92535">
        <ele>47</ele>
        <time>2018-04-21T07:59:18Z</time>
      </trkpt>
      <trkpt lat="47.55185" lon="-2.92543">
        <ele>47</ele>
        <time>2018-04-21T07:59:22Z</time>
      </trkpt>
      <trkpt lat="47.55185" lon="-2.9255">
        <ele>48</ele>
        <time>2018-04-21T07:59:27Z</time>
      </trkpt>
      <trkpt lat="47.55184" lon="-2.92558">
        <ele>47</ele>
        <time>2018-04-21T07:59:32Z</time>
      </trkpt>
      <trkpt lat="47.55184" lon="-2.92565">
        <ele>47</ele>
        <time>2018-04-21T07:59:36Z</time>
      </trkpt>
      <trkpt lat="47.55184" lon="-2.92571">
        <ele>47</ele>
        <time>2018-04-21T07:59:39Z</time>
      </trkpt>
      <trkpt lat="47.55185" lon="-2.92579">
        <ele>46</ele>
        <time>2018-04-21T07:59:43Z</time>
      </trkpt>
      <trkpt lat="47.55183" lon="-2.92586">
        <ele>45</ele>
        <time>2018-04-21T07:59:47Z</time>
      </trkpt>
      <trkpt lat="47.55181" lon="-2.92592">
        <ele>45</ele>
        <time>2018-04-21T07:59:50Z</time>
      </trkpt>
      <trkpt lat="47.5518" lon="-2.92599">
        <ele>47</ele>
        <time>2018-04-21T07:59:55Z</time>
      </trkpt>
      <trkpt lat="47.55179" lon="-2.92606">
        <ele>48</ele>
        <time>2018-04-21T07:59:59Z</time>
      </trkpt>
      <trkpt lat="47.55179" lon="-2.9261">
        <ele>48</ele>
        <time>2018-04-21T08:00:01Z</time>
      </trkpt>
      <trkpt lat="47.55179" lon="-2.92616">
        <ele>48</ele>
        <time>2018-04-21T08:00:05Z</time>
      </trkpt>
      <trkpt lat="47.55179" lon="-2.92623">
        <ele>48</ele>
        <time>2018-04-21T08:00:09Z</time>
      </trkpt>
      <trkpt lat="47.55178" lon="-2.92629">
        <ele>48</ele>
        <time>2018-04-21T08:00:14Z</time>
      </trkpt>
      <trkpt lat="47.55177" lon="-2.92635">
        <ele>48</ele>
        <time>2018-04-21T08:00:17Z</time>
      </trkpt>
      <trkpt lat="47.55175" lon="-2.92641">
        <ele>49</ele>
        <time>2018-04-21T08:00:21Z</time>
      </trkpt>
      <trkpt lat="47.55173" lon="-2.92647">
        <ele>49</ele>
        <time>2018-04-21T08:00:25Z</time>
      </trkpt>
      <trkpt lat="47.55171" lon="-2.92655">
        <ele>50</ele>
        <time>2018-04-21T08:00:29Z</time>
      </trkpt>
      <trkpt lat="47.55171" lon="-2.92661">
        <ele>50</ele>
        <time>2018-04-21T08:00:32Z</time>
      </trkpt>
      <trkpt lat="47.5517" lon="-2.92666">
        <ele>48</ele>
        <time>2018-04-21T08:00:35Z</time>
      </trkpt>
      <trkpt lat="47.55169" lon="-2.9267">
        <ele>48</ele>
        <time>2018-04-21T08:00:37Z</time>
      </trkpt>
      <trkpt lat="47.55167" lon="-2.92677">
        <ele>49</ele>
        <time>2018-04-21T08:00:41Z</time>
      </trkpt>
      <trkpt lat="47.55164" lon="-2.92684">
        <ele>49</ele>
        <time>2018-04-21T08:00:45Z</time>
      </trkpt>
      <trkpt lat="47.55162" lon="-2.92691">
        <ele>48</ele>
        <time>2018-04-21T08:00:50Z</time>
      </trkpt>
      <trkpt lat="47.55159" lon="-2.92696">
        <ele>49</ele>
        <time>2018-04-21T08:00:54Z</time>
      </trkpt>
      <trkpt lat="47.55157" lon="-2.92704">
        <ele>47</ele>
        <time>2018-04-21T08:00:58Z</time>
      </trkpt>
      <trkpt lat="47.55153" lon="-2.92709">
        <ele>48</ele>
        <time>2018-04-21T08:01:02Z</time>
      </trkpt>
      <trkpt lat="47.55151" lon="-2.92712">
        <ele>48</ele>
        <time>2018-04-21T08:01:10Z</time>
      </trkpt>
      <trkpt lat="47.55151" lon="-2.92726">
        <ele>46</ele>
        <time>2018-04-21T08:01:31Z</time>
      </trkpt>
      <trkpt lat="47.55156" lon="-2.92728">
        <ele>46</ele>
        <time>2018-04-21T08:01:35Z</time>
      </trkpt>
      <trkpt lat="47.55161" lon="-2.92726">
        <ele>46</ele>
        <time>2018-04-21T08:01:38Z</time>
      </trkpt>
      <trkpt lat="47.55164" lon="-2.92725">
        <ele>47</ele>
        <time>2018-04-21T08:01:40Z</time>
      </trkpt>
      <trkpt lat="47.55167" lon="-2.92724">
        <ele>47</ele>
        <time>2018-04-21T08:01:42Z</time>
      </trkpt>
      <trkpt lat="47.5517" lon="-2.92723">
        <ele>48</ele>
        <time>2018-04-21T08:01:44Z</time>
      </trkpt>
      <trkpt lat="47.55175" lon="-2.92723">
        <ele>49</ele>
        <time>2018-04-21T08:01:47Z</time>
      </trkpt>
      <trkpt lat="47.5518" lon="-2.92723">
        <ele>49</ele>
        <time>2018-04-21T08:01:50Z</time>
      </trkpt>
      <trkpt lat="47.55185" lon="-2.92723">
        <ele>50</ele>
        <time>2018-04-21T08:01:53Z</time>
      </trkpt>
      <trkpt lat="47.55188" lon="-2.92723">
        <ele>51</ele>
        <time>2018-04-21T08:01:55Z</time>
      </trkpt>
      <trkpt lat="47.55194" lon="-2.92722">
        <ele>52</ele>
        <time>2018-04-21T08:01:58Z</time>
      </trkpt>
      <trkpt lat="47.55199" lon="-2.9272">
        <ele>53</ele>
        <time>2018-04-21T08:02:01Z</time>
      </trkpt>
      <trkpt lat="47.55205" lon="-2.92719">
        <ele>52</ele>
        <time>2018-04-21T08:02:04Z</time>
      </trkpt>
      <trkpt lat="47.55208" lon="-2.92718">
        <ele>52</ele>
        <time>2018-04-21T08:02:06Z</time>
      </trkpt>
      <trkpt lat="47.55214" lon="-2.9272">
        <ele>53</ele>
        <time>2018-04-21T08:02:09Z</time>
      </trkpt>
      <trkpt lat="47.5522" lon="-2.9272">
        <ele>54</ele>
        <time>2018-04-21T08:02:12Z</time>
      </trkpt>
      <trkpt lat="47.55223" lon="-2.9272">
        <ele>53</ele>
        <time>2018-04-21T08:02:14Z</time>
      </trkpt>
      <trkpt lat="47.55227" lon="-2.92721">
        <ele>54</ele>
        <time>2018-04-21T08:02:16Z</time>
      </trkpt>
      <trkpt lat="47.5523" lon="-2.92721">
        <ele>53</ele>
        <time>2018-04-21T08:02:18Z</time>
      </trkpt>
      <trkpt lat="47.55234" lon="-2.92723">
        <ele>53</ele>
        <time>2018-04-21T08:02:21Z</time>
      </trkpt>
      <trkpt lat="47.55239" lon="-2.92723">
        <ele>52</ele>
        <time>2018-04-21T08:02:24Z</time>
      </trkpt>
      <trkpt lat="47.55245" lon="-2.92724">
        <ele>53</ele>
        <time>2018-04-21T08:02:27Z</time>
      </trkpt>
      <trkpt lat="47.55248" lon="-2.92724">
        <ele>53</ele>
        <time>2018-04-21T08:02:29Z</time>
      </trkpt>
      <trkpt lat="47.55252" lon="-2.92725">
        <ele>52</ele>
        <time>2018-04-21T08:02:31Z</time>
      </trkpt>
      <trkpt lat="47.55255" lon="-2.92725">
        <ele>51</ele>
        <time>2018-04-21T08:02:33Z</time>
      </trkpt>
      <trkpt lat="47.55261" lon="-2.92724">
        <ele>51</ele>
        <time>2018-04-21T08:02:36Z</time>
      </trkpt>
      <trkpt lat="47.55266" lon="-2.92726">
        <ele>52</ele>
        <time>2018-04-21T08:02:39Z</time>
      </trkpt>
      <trkpt lat="47.55272" lon="-2.92726">
        <ele>51</ele>
        <time>2018-04-21T08:02:43Z</time>
      </trkpt>
      <trkpt lat="47.55277" lon="-2.92727">
        <ele>51</ele>
        <time>2018-04-21T08:02:46Z</time>
      </trkpt>
      <trkpt lat="47.55282" lon="-2.92727">
        <ele>50</ele>
        <time>2018-04-21T08:02:49Z</time>
      </trkpt>
      <trkpt lat="47.55287" lon="-2.92728">
        <ele>48</ele>
        <time>2018-04-21T08:02:52Z</time>
      </trkpt>
      <trkpt lat="47.55289" lon="-2.92729">
        <ele>48</ele>
        <time>2018-04-21T08:02:54Z</time>
      </trkpt>
      <trkpt lat="47.55294" lon="-2.92729">
        <ele>49</ele>
        <time>2018-04-21T08:02:57Z</time>
      </trkpt>
      <trkpt lat="47.55299" lon="-2.92731">
        <ele>49</ele>
        <time>2018-04-21T08:03:01Z</time>
      </trkpt>
      <trkpt lat="47.55304" lon="-2.92732">
        <ele>51</ele>
        <time>2018-04-21T08:03:04Z</time>
      </trkpt>
      <trkpt lat="47.55309" lon="-2.92732">
        <ele>53</ele>
        <time>2018-04-21T08:03:07Z</time>
      </trkpt>
      <trkpt lat="47.55312" lon="-2.92733">
        <ele>53</ele>
        <time>2018-04-21T08:03:10Z</time>
      </trkpt>
      <trkpt lat="47.55317" lon="-2.92735">
        <ele>53</ele>
        <time>2018-04-21T08:03:13Z</time>
      </trkpt>
      <trkpt lat="47.55322" lon="-2.92739">
        <ele>52</ele>
        <time>2018-04-21T08:03:17Z</time>
      </trkpt>
      <trkpt lat="47.55326" lon="-2.92742">
        <ele>51</ele>
        <time>2018-04-21T08:03:20Z</time>
      </trkpt>
      <trkpt lat="47.55329" lon="-2.92748">
        <ele>51</ele>
        <time>2018-04-21T08:03:23Z</time>
      </trkpt>
      <trkpt lat="47.55332" lon="-2.92755">
        <ele>51</ele>
        <time>2018-04-21T08:03:27Z</time>
      </trkpt>
      <trkpt lat="47.55334" lon="-2.92759">
        <ele>51</ele>
        <time>2018-04-21T08:03:29Z</time>
      </trkpt>
      <trkpt lat="47.55337" lon="-2.92765">
        <ele>51</ele>
        <time>2018-04-21T08:03:32Z</time>
      </trkpt>
      <trkpt lat="47.55339" lon="-2.92769">
        <ele>51</ele>
        <time>2018-04-21T08:03:35Z</time>
      </trkpt>
      <trkpt lat="47.55342" lon="-2.92774">
        <ele>50</ele>
        <time>2018-04-21T08:03:38Z</time>
      </trkpt>
      <trkpt lat="47.55346" lon="-2.92779">
        <ele>52</ele>
        <time>2018-04-21T08:03:41Z</time>
      </trkpt>
      <trkpt lat="47.55349" lon="-2.92785">
        <ele>51</ele>
        <time>2018-04-21T08:03:45Z</time>
      </trkpt>
      <trkpt lat="47.55353" lon="-2.92789">
        <ele>50</ele>
        <time>2018-04-21T08:03:52Z</time>
      </trkpt>
      <trkpt lat="47.5535" lon="-2.92787">
        <ele>47</ele>
        <time>2018-04-21T08:05:09Z</time>
      </trkpt>
      <trkpt lat="47.55346" lon="-2.92784">
        <ele>48</ele>
        <time>2018-04-21T08:05:18Z</time>
      </trkpt>
      <trkpt lat="47.55343" lon="-2.92783">
        <ele>47</ele>
        <time>2018-04-21T08:05:27Z</time>
      </trkpt>
      <trkpt lat="47.55338" lon="-2.92781">
        <ele>47</ele>
        <time>2018-04-21T08:05:35Z</time>
      </trkpt>
      <trkpt lat="47.55335" lon="-2.92779">
        <ele>47</ele>
        <time>2018-04-21T08:05:40Z</time>
      </trkpt>
      <trkpt lat="47.5533" lon="-2.92774">
        <ele>47</ele>
        <time>2018-04-21T08:05:44Z</time>
      </trkpt>
      <trkpt lat="47.55326" lon="-2.92771">
        <ele>48</ele>
        <time>2018-04-21T08:05:48Z</time>
      </trkpt>
      <trkpt lat="47.55323" lon="-2.92767">
        <ele>49</ele>
        <time>2018-04-21T08:05:52Z</time>
      </trkpt>
      <trkpt lat="47.55319" lon="-2.9276">
        <ele>49</ele>
        <time>2018-04-21T08:05:54Z</time>
      </trkpt>
      <trkpt lat="47.55315" lon="-2.92756">
        <ele>50</ele>
        <time>2018-04-21T08:05:57Z</time>
      </trkpt>
      <trkpt lat="47.55312" lon="-2.92749">
        <ele>51</ele>
        <time>2018-04-21T08:06:00Z</time>
      </trkpt>
      <trkpt lat="47.5531" lon="-2.92744">
        <ele>52</ele>
        <time>2018-04-21T08:06:02Z</time>
      </trkpt>
      <trkpt lat="47.55308" lon="-2.92739">
        <ele>50</ele>
        <time>2018-04-21T08:06:04Z</time>
      </trkpt>
      <trkpt lat="47.55306" lon="-2.92735">
        <ele>50</ele>
        <time>2018-04-21T08:06:06Z</time>
      </trkpt>
      <trkpt lat="47.55303" lon="-2.92727">
        <ele>48</ele>
        <time>2018-04-21T08:06:09Z</time>
      </trkpt>
      <trkpt lat="47.55301" lon="-2.92722">
        <ele>48</ele>
        <time>2018-04-21T08:06:11Z</time>
      </trkpt>
      <trkpt lat="47.55298" lon="-2.92716">
        <ele>49</ele>
        <time>2018-04-21T08:06:14Z</time>
      </trkpt>
      <trkpt lat="47.55295" lon="-2.92708">
        <ele>49</ele>
        <time>2018-04-21T08:06:17Z</time>
      </trkpt>
      <trkpt lat="47.55291" lon="-2.92699">
        <ele>50</ele>
        <time>2018-04-21T08:06:20Z</time>
      </trkpt>
      <trkpt lat="47.55288" lon="-2.92693">
        <ele>51</ele>
        <time>2018-04-21T08:06:23Z</time>
      </trkpt>
      <trkpt lat="47.55284" lon="-2.92686">
        <ele>51</ele>
        <time>2018-04-21T08:06:26Z</time>
      </trkpt>
      <trkpt lat="47.55282" lon="-2.92682">
        <ele>51</ele>
        <time>2018-04-21T08:06:28Z</time>
      </trkpt>
      <trkpt lat="47.55279" lon="-2.92678">
        <ele>51</ele>
        <time>2018-04-21T08:06:30Z</time>
      </trkpt>
      <trkpt lat="47.55276" lon="-2.92673">
        <ele>52</ele>
        <time>2018-04-21T08:06:32Z</time>
      </trkpt>
      <trkpt lat="47.55273" lon="-2.92668">
        <ele>52</ele>
        <time>2018-04-21T08:06:34Z</time>
      </trkpt>
      <trkpt lat="47.5527" lon="-2.92661">
        <ele>52</ele>
        <time>2018-04-21T08:06:37Z</time>
      </trkpt>
      <trkpt lat="47.55267" lon="-2.92656">
        <ele>53</ele>
        <time>2018-04-21T08:06:39Z</time>
      </trkpt>
      <trkpt lat="47.55266" lon="-2.92654">
        <ele>52</ele>
        <time>2018-04-21T08:06:40Z</time>
      </trkpt>
      <trkpt lat="47.55263" lon="-2.92645">
        <ele>52</ele>
        <time>2018-04-21T08:06:44Z</time>
      </trkpt>
      <trkpt lat="47.55259" lon="-2.92638">
        <ele>53</ele>
        <time>2018-04-21T08:06:47Z</time>
      </trkpt>
      <trkpt lat="47.55257" lon="-2.92631">
        <ele>50</ele>
        <time>2018-04-21T08:06:50Z</time>
      </trkpt>
      <trkpt lat="47.55257" lon="-2.92624">
        <ele>50</ele>
        <time>2018-04-21T08:06:53Z</time>
      </trkpt>
      <trkpt lat="47.55257" lon="-2.92619">
        <ele>51</ele>
        <time>2018-04-21T08:06:55Z</time>
      </trkpt>
      <trkpt lat="47.55256" lon="-2.92612">
        <ele>50</ele>
        <time>2018-04-21T08:06:58Z</time>
      </trkpt>
      <trkpt lat="47.55256" lon="-2.92607">
        <ele>51</ele>
        <time>2018-04-21T08:07:00Z</time>
      </trkpt>
      <trkpt lat="47.55255" lon="-2.92603">
        <ele>50</ele>
        <time>2018-04-21T08:07:01Z</time>
      </trkpt>
      <trkpt lat="47.55253" lon="-2.92596">
        <ele>47</ele>
        <time>2018-04-21T08:07:05Z</time>
      </trkpt>
      <trkpt lat="47.55253" lon="-2.92593">
        <ele>47</ele>
        <time>2018-04-21T08:07:06Z</time>
      </trkpt>
      <trkpt lat="47.55251" lon="-2.92587">
        <ele>47</ele>
        <time>2018-04-21T08:07:08Z</time>
      </trkpt>
      <trkpt lat="47.55249" lon="-2.92578">
        <ele>46</ele>
        <time>2018-04-21T08:07:11Z</time>
      </trkpt>
      <trkpt lat="47.55246" lon="-2.9257">
        <ele>46</ele>
        <time>2018-04-21T08:07:14Z</time>
      </trkpt>
      <trkpt lat="47.55245" lon="-2.92564">
        <ele>46</ele>
        <time>2018-04-21T08:07:16Z</time>
      </trkpt>
      <trkpt lat="47.5524" lon="-2.92553">
        <ele>48</ele>
        <time>2018-04-21T08:07:19Z</time>
      </trkpt>
      <trkpt lat="47.55236" lon="-2.92548">
        <ele>48</ele>
        <time>2018-04-21T08:07:22Z</time>
      </trkpt>
      <trkpt lat="47.55233" lon="-2.92541">
        <ele>48</ele>
        <time>2018-04-21T08:07:26Z</time>
      </trkpt>
      <trkpt lat="47.55229" lon="-2.92536">
        <ele>48</ele>
        <time>2018-04-21T08:07:29Z</time>
      </trkpt>
      <trkpt lat="47.55227" lon="-2.92529">
        <ele>49</ele>
        <time>2018-04-21T08:07:32Z</time>
      </trkpt>
      <trkpt lat="47.55225" lon="-2.92521">
        <ele>49</ele>
        <time>2018-04-21T08:07:35Z</time>
      </trkpt>
      <trkpt lat="47.55222" lon="-2.92514">
        <ele>49</ele>
        <time>2018-04-21T08:07:38Z</time>
      </trkpt>
      <trkpt lat="47.5522" lon="-2.92505">
        <ele>51</ele>
        <time>2018-04-21T08:07:40Z</time>
      </trkpt>
      <trkpt lat="47.55218" lon="-2.92497">
        <ele>51</ele>
        <time>2018-04-21T08:07:43Z</time>
      </trkpt>
      <trkpt lat="47.55214" lon="-2.9249">
        <ele>51</ele>
        <time>2018-04-21T08:07:46Z</time>
      </trkpt>
      <trkpt lat="47.55212" lon="-2.92483">
        <ele>50</ele>
        <time>2018-04-21T08:07:49Z</time>
      </trkpt>
      <trkpt lat="47.5521" lon="-2.92475">
        <ele>50</ele>
        <time>2018-04-21T08:07:53Z</time>
      </trkpt>
      <trkpt lat="47.55207" lon="-2.92465">
        <ele>51</ele>
        <time>2018-04-21T08:07:56Z</time>
      </trkpt>
      <trkpt lat="47.55205" lon="-2.92457">
        <ele>50</ele>
        <time>2018-04-21T08:07:59Z</time>
      </trkpt>
      <trkpt lat="47.55203" lon="-2.92453">
        <ele>49</ele>
        <time>2018-04-21T08:08:02Z</time>
      </trkpt>
      <trkpt lat="47.552" lon="-2.92446">
        <ele>48</ele>
        <time>2018-04-21T08:08:04Z</time>
      </trkpt>
      <trkpt lat="47.55199" lon="-2.92441">
        <ele>49</ele>
        <time>2018-04-21T08:08:06Z</time>
      </trkpt>
      <trkpt lat="47.55197" lon="-2.92437">
        <ele>49</ele>
        <time>2018-04-21T08:08:08Z</time>
      </trkpt>
      <trkpt lat="47.55196" lon="-2.92433">
        <ele>48</ele>
        <time>2018-04-21T08:08:11Z</time>
      </trkpt>
      <trkpt lat="47.55194" lon="-2.9243">
        <ele>48</ele>
        <time>2018-04-21T08:08:12Z</time>
      </trkpt>
      <trkpt lat="47.55192" lon="-2.92422">
        <ele>47</ele>
        <time>2018-04-21T08:08:14Z</time>
      </trkpt>
      <trkpt lat="47.5519" lon="-2.92417">
        <ele>48</ele>
        <time>2018-04-21T08:08:16Z</time>
      </trkpt>
      <trkpt lat="47.55188" lon="-2.92412">
        <ele>49</ele>
        <time>2018-04-21T08:08:19Z</time>
      </trkpt>
      <trkpt lat="47.55187" lon="-2.92408">
        <ele>50</ele>
        <time>2018-04-21T08:08:21Z</time>
      </trkpt>
      <trkpt lat="47.55185" lon="-2.92399">
        <ele>51</ele>
        <time>2018-04-21T08:08:24Z</time>
      </trkpt>
      <trkpt lat="47.55182" lon="-2.92393">
        <ele>50</ele>
        <time>2018-04-21T08:08:27Z</time>
      </trkpt>
      <trkpt lat="47.5518" lon="-2.92385">
        <ele>50</ele>
        <time>2018-04-21T08:08:30Z</time>
      </trkpt>
      <trkpt lat="47.55177" lon="-2.92379">
        <ele>48</ele>
        <time>2018-04-21T08:08:32Z</time>
      </trkpt>
      <trkpt lat="47.55175" lon="-2.9237">
        <ele>49</ele>
        <time>2018-04-21T08:08:36Z</time>
      </trkpt>
      <trkpt lat="47.55171" lon="-2.92363">
        <ele>49</ele>
        <time>2018-04-21T08:08:39Z</time>
      </trkpt>
      <trkpt lat="47.55169" lon="-2.92356">
        <ele>49</ele>
        <time>2018-04-21T08:08:42Z</time>
      </trkpt>
      <trkpt lat="47.55167" lon="-2.92351">
        <ele>49</ele>
        <time>2018-04-21T08:08:44Z</time>
      </trkpt>
      <trkpt lat="47.55166" lon="-2.92346">
        <ele>50</ele>
        <time>2018-04-21T08:08:46Z</time>
      </trkpt>
      <trkpt lat="47.55165" lon="-2.92337">
        <ele>50</ele>
        <time>2018-04-21T08:08:48Z</time>
      </trkpt>
      <trkpt lat="47.55162" lon="-2.92329">
        <ele>51</ele>
        <time>2018-04-21T08:08:51Z</time>
      </trkpt>
      <trkpt lat="47.5516" lon="-2.92322">
        <ele>49</ele>
        <time>2018-04-21T08:08:54Z</time>
      </trkpt>
      <trkpt lat="47.55157" lon="-2.92314">
        <ele>50</ele>
        <time>2018-04-21T08:08:57Z</time>
      </trkpt>
      <trkpt lat="47.55155" lon="-2.92309">
        <ele>49</ele>
        <time>2018-04-21T08:08:59Z</time>
      </trkpt>
      <trkpt lat="47.55152" lon="-2.92302">
        <ele>49</ele>
        <time>2018-04-21T08:09:02Z</time>
      </trkpt>
      <trkpt lat="47.55151" lon="-2.92298">
        <ele>50</ele>
        <time>2018-04-21T08:09:04Z</time>
      </trkpt>
      <trkpt lat="47.55149" lon="-2.92291">
        <ele>51</ele>
        <time>2018-04-21T08:09:07Z</time>
      </trkpt>
      <trkpt lat="47.55148" lon="-2.92287">
        <ele>51</ele>
        <time>2018-04-21T08:09:09Z</time>
      </trkpt>
      <trkpt lat="47.55147" lon="-2.92282">
        <ele>52</ele>
        <time>2018-04-21T08:09:11Z</time>
      </trkpt>
      <trkpt lat="47.55145" lon="-2.92277">
        <ele>51</ele>
        <time>2018-04-21T08:09:13Z</time>
      </trkpt>
      <trkpt lat="47.55144" lon="-2.9227">
        <ele>51</ele>
        <time>2018-04-21T08:09:16Z</time>
      </trkpt>
      <trkpt lat="47.55142" lon="-2.92262">
        <ele>51</ele>
        <time>2018-04-21T08:09:19Z</time>
      </trkpt>
      <trkpt lat="47.55141" lon="-2.92257">
        <ele>51</ele>
        <time>2018-04-21T08:09:21Z</time>
      </trkpt>
      <trkpt lat="47.5514" lon="-2.92253">
        <ele>50</ele>
        <time>2018-04-21T08:09:23Z</time>
      </trkpt>
      <trkpt lat="47.55138" lon="-2.92248">
        <ele>49</ele>
        <time>2018-04-21T08:09:25Z</time>
      </trkpt>
      <trkpt lat="47.55137" lon="-2.92245">
        <ele>50</ele>
        <time>2018-04-21T08:09:27Z</time>
      </trkpt>
      <trkpt lat="47.55134" lon="-2.92239">
        <ele>50</ele>
        <time>2018-04-21T08:09:30Z</time>
      </trkpt>
      <trkpt lat="47.55132" lon="-2.92232">
        <ele>49</ele>
        <time>2018-04-21T08:09:33Z</time>
      </trkpt>
      <trkpt lat="47.55131" lon="-2.92225">
        <ele>49</ele>
        <time>2018-04-21T08:09:36Z</time>
      </trkpt>
      <trkpt lat="47.55129" lon="-2.92217">
        <ele>50</ele>
        <time>2018-04-21T08:09:39Z</time>
      </trkpt>
      <trkpt lat="47.55126" lon="-2.92211">
        <ele>49</ele>
        <time>2018-04-21T08:09:42Z</time>
      </trkpt>
      <trkpt lat="47.55124" lon="-2.92205">
        <ele>49</ele>
        <time>2018-04-21T08:09:45Z</time>
      </trkpt>
      <trkpt lat="47.55123" lon="-2.92201">
        <ele>50</ele>
        <time>2018-04-21T08:09:47Z</time>
      </trkpt>
      <trkpt lat="47.5512" lon="-2.92196">
        <ele>50</ele>
        <time>2018-04-21T08:09:50Z</time>
      </trkpt>
      <trkpt lat="47.55119" lon="-2.92191">
        <ele>50</ele>
        <time>2018-04-21T08:09:52Z</time>
      </trkpt>
      <trkpt lat="47.55116" lon="-2.92184">
        <ele>50</ele>
        <time>2018-04-21T08:09:56Z</time>
      </trkpt>
      <trkpt lat="47.55114" lon="-2.92176">
        <ele>49</ele>
        <time>2018-04-21T08:10:00Z</time>
      </trkpt>
      <trkpt lat="47.55112" lon="-2.9217">
        <ele>50</ele>
        <time>2018-04-21T08:10:03Z</time>
      </trkpt>
      <trkpt lat="47.5511" lon="-2.92163">
        <ele>49</ele>
        <time>2018-04-21T08:10:07Z</time>
      </trkpt>
      <trkpt lat="47.55108" lon="-2.92157">
        <ele>48</ele>
        <time>2018-04-21T08:10:11Z</time>
      </trkpt>
      <trkpt lat="47.55106" lon="-2.9215">
        <ele>47</ele>
        <time>2018-04-21T08:10:16Z</time>
      </trkpt>
      <trkpt lat="47.55104" lon="-2.92145">
        <ele>48</ele>
        <time>2018-04-21T08:10:19Z</time>
      </trkpt>
      <trkpt lat="47.55101" lon="-2.92139">
        <ele>49</ele>
        <time>2018-04-21T08:10:23Z</time>
      </trkpt>
      <trkpt lat="47.551" lon="-2.92135">
        <ele>49</ele>
        <time>2018-04-21T08:10:26Z</time>
      </trkpt>
      <trkpt lat="47.55098" lon="-2.92128">
        <ele>49</ele>
        <time>2018-04-21T08:10:30Z</time>
      </trkpt>
      <trkpt lat="47.55096" lon="-2.92119">
        <ele>50</ele>
        <time>2018-04-21T08:10:34Z</time>
      </trkpt>
      <trkpt lat="47.55095" lon="-2.92114">
        <ele>48</ele>
        <time>2018-04-21T08:10:37Z</time>
      </trkpt>
      <trkpt lat="47.55094" lon="-2.92111">
        <ele>49</ele>
        <time>2018-04-21T08:10:39Z</time>
      </trkpt>
      <trkpt lat="47.55092" lon="-2.92104">
        <ele>50</ele>
        <time>2018-04-21T08:10:44Z</time>
      </trkpt>
      <trkpt lat="47.5509" lon="-2.921">
        <ele>51</ele>
        <time>2018-04-21T08:10:46Z</time>
      </trkpt>
      <trkpt lat="47.55089" lon="-2.92096">
        <ele>51</ele>
        <time>2018-04-21T08:10:48Z</time>
      </trkpt>
      <trkpt lat="47.55087" lon="-2.92092">
        <ele>49</ele>
        <time>2018-04-21T08:10:51Z</time>
      </trkpt>
      <trkpt lat="47.55086" lon="-2.92088">
        <ele>49</ele>
        <time>2018-04-21T08:10:53Z</time>
      </trkpt>
      <trkpt lat="47.55083" lon="-2.92081">
        <ele>49</ele>
        <time>2018-04-21T08:10:56Z</time>
      </trkpt>
      <trkpt lat="47.55082" lon="-2.92073">
        <ele>51</ele>
        <time>2018-04-21T08:11:01Z</time>
      </trkpt>
      <trkpt lat="47.55081" lon="-2.9207">
        <ele>50</ele>
        <time>2018-04-21T08:11:03Z</time>
      </trkpt>
      <trkpt lat="47.5508" lon="-2.92065">
        <ele>50</ele>
        <time>2018-04-21T08:11:06Z</time>
      </trkpt>
      <trkpt lat="47.55079" lon="-2.92062">
        <ele>50</ele>
        <time>2018-04-21T08:11:08Z</time>
      </trkpt>
      <trkpt lat="47.55076" lon="-2.92057">
        <ele>49</ele>
        <time>2018-04-21T08:11:13Z</time>
      </trkpt>
      <trkpt lat="47.55073" lon="-2.9205">
        <ele>50</ele>
        <time>2018-04-21T08:11:17Z</time>
      </trkpt>
      <trkpt lat="47.5507" lon="-2.92045">
        <ele>50</ele>
        <time>2018-04-21T08:11:21Z</time>
      </trkpt>
      <trkpt lat="47.55067" lon="-2.9204">
        <ele>51</ele>
        <time>2018-04-21T08:11:25Z</time>
      </trkpt>
      <trkpt lat="47.55064" lon="-2.92036">
        <ele>51</ele>
        <time>2018-04-21T08:11:28Z</time>
      </trkpt>
      <trkpt lat="47.55062" lon="-2.9203">
        <ele>50</ele>
        <time>2018-04-21T08:11:32Z</time>
      </trkpt>
      <trkpt lat="47.55058" lon="-2.92022">
        <ele>50</ele>
        <time>2018-04-21T08:11:38Z</time>
      </trkpt>
      <trkpt lat="47.55055" lon="-2.92019">
        <ele>51</ele>
        <time>2018-04-21T08:11:41Z</time>
      </trkpt>
      <trkpt lat="47.55053" lon="-2.92012">
        <ele>52</ele>
        <time>2018-04-21T08:11:45Z</time>
      </trkpt>
      <trkpt lat="47.5505" lon="-2.92007">
        <ele>53</ele>
        <time>2018-04-21T08:11:50Z</time>
      </trkpt>
      <trkpt lat="47.55047" lon="-2.92002">
        <ele>52</ele>
        <time>2018-04-21T08:11:54Z</time>
      </trkpt>
      <trkpt lat="47.55044" lon="-2.91996">
        <ele>51</ele>
        <time>2018-04-21T08:11:59Z</time>
      </trkpt>
      <trkpt lat="47.55042" lon="-2.91991">
        <ele>53</ele>
        <time>2018-04-21T08:12:04Z</time>
      </trkpt>
      <trkpt lat="47.55038" lon="-2.91987">
        <ele>52</ele>
        <time>2018-04-21T08:12:09Z</time>
      </trkpt>
      <trkpt lat="47.55034" lon="-2.91981">
        <ele>51</ele>
        <time>2018-04-21T08:12:16Z</time>
      </trkpt>
      <trkpt lat="47.5503" lon="-2.91975">
        <ele>51</ele>
        <time>2018-04-21T08:12:20Z</time>
      </trkpt>
      <trkpt lat="47.55028" lon="-2.91971">
        <ele>49</ele>
        <time>2018-04-21T08:12:26Z</time>
      </trkpt>
      <trkpt lat="47.55024" lon="-2.91966">
        <ele>51</ele>
        <time>2018-04-21T08:12:33Z</time>
      </trkpt>
      <trkpt lat="47.5502" lon="-2.9196">
        <ele>51</ele>
        <time>2018-04-21T08:12:38Z</time>
      </trkpt>
      <trkpt lat="47.55016" lon="-2.91956">
        <ele>51</ele>
        <time>2018-04-21T08:12:43Z</time>
      </trkpt>
      <trkpt lat="47.55011" lon="-2.91952">
        <ele>51</ele>
        <time>2018-04-21T08:12:48Z</time>
      </trkpt>
      <trkpt lat="47.55007" lon="-2.91948">
        <ele>51</ele>
        <time>2018-04-21T08:12:53Z</time>
      </trkpt>
      <trkpt lat="47.55002" lon="-2.91947">
        <ele>51</ele>
        <time>2018-04-21T08:12:59Z</time>
      </trkpt>
      <trkpt lat="47.55" lon="-2.91946">
        <ele>52</ele>
        <time>2018-04-21T08:13:02Z</time>
      </trkpt>
      <trkpt lat="47.54996" lon="-2.91943">
        <ele>53</ele>
        <time>2018-04-21T08:13:06Z</time>
      </trkpt>
      <trkpt lat="47.54991" lon="-2.91942">
        <ele>51</ele>
        <time>2018-04-21T08:13:11Z</time>
      </trkpt>
      <trkpt lat="47.54988" lon="-2.91942">
        <ele>51</ele>
        <time>2018-04-21T08:13:14Z</time>
      </trkpt>
      <trkpt lat="47.54983" lon="-2.9194">
        <ele>48</ele>
        <time>2018-04-21T08:13:21Z</time>
      </trkpt>
      <trkpt lat="47.5498" lon="-2.91938">
        <ele>48</ele>
        <time>2018-04-21T08:13:25Z</time>
      </trkpt>
      <trkpt lat="47.54975" lon="-2.9194">
        <ele>49</ele>
        <time>2018-04-21T08:13:32Z</time>
      </trkpt>
      <trkpt lat="47.54971" lon="-2.91937">
        <ele>51</ele>
        <time>2018-04-21T08:13:37Z</time>
      </trkpt>
      <trkpt lat="47.54968" lon="-2.91937">
        <ele>52</ele>
        <time>2018-04-21T08:13:40Z</time>
      </trkpt>
      <trkpt lat="47.54965" lon="-2.91936">
        <ele>53</ele>
        <time>2018-04-21T08:13:43Z</time>
      </trkpt>
      <trkpt lat="47.5496" lon="-2.91936">
        <ele>51</ele>
        <time>2018-04-21T08:13:49Z</time>
      </trkpt>
      <trkpt lat="47.54955" lon="-2.91937">
        <ele>52</ele>
        <time>2018-04-21T08:13:55Z</time>
      </trkpt>
      <trkpt lat="47.54951" lon="-2.9194">
        <ele>52</ele>
        <time>2018-04-21T08:14:01Z</time>
      </trkpt>
      <trkpt lat="47.54946" lon="-2.91941">
        <ele>54</ele>
        <time>2018-04-21T08:14:08Z</time>
      </trkpt>
      <trkpt lat="47.54941" lon="-2.91943">
        <ele>54</ele>
        <time>2018-04-21T08:14:14Z</time>
      </trkpt>
      <trkpt lat="47.54937" lon="-2.91943">
        <ele>56</ele>
        <time>2018-04-21T08:14:19Z</time>
      </trkpt>
      <trkpt lat="47.54932" lon="-2.91942">
        <ele>57</ele>
        <time>2018-04-21T08:14:23Z</time>
      </trkpt>
      <trkpt lat="47.54928" lon="-2.91941">
        <ele>55</ele>
        <time>2018-04-21T08:14:28Z</time>
      </trkpt>
      <trkpt lat="47.54923" lon="-2.91941">
        <ele>56</ele>
        <time>2018-04-21T08:14:34Z</time>
      </trkpt>
      <trkpt lat="47.54919" lon="-2.91943">
        <ele>54</ele>
        <time>2018-04-21T08:14:39Z</time>
      </trkpt>
      <trkpt lat="47.54914" lon="-2.91945">
        <ele>53</ele>
        <time>2018-04-21T08:14:44Z</time>
      </trkpt>
      <trkpt lat="47.54909" lon="-2.91945">
        <ele>52</ele>
        <time>2018-04-21T08:14:49Z</time>
      </trkpt>
      <trkpt lat="47.54907" lon="-2.91946">
        <ele>51</ele>
        <time>2018-04-21T08:14:53Z</time>
      </trkpt>
      <trkpt lat="47.54907" lon="-2.91946">
        <time>2018-04-21T08:15:01Z</time>
      </trkpt>
      <trkpt lat="47.54907" lon="-2.91946">
        <time>2018-04-21T08:15:06Z</time>
      </trkpt>
      <trkpt lat="47.549" lon="-2.91942">
        <ele>51</ele>
        <time>2018-04-21T08:15:06Z</time>
      </trkpt>
      <trkpt lat="47.54895" lon="-2.91943">
        <ele>51</ele>
        <time>2018-04-21T08:15:12Z</time>
      </trkpt>
      <trkpt lat="47.54892" lon="-2.91944">
        <ele>51</ele>
        <time>2018-04-21T08:15:16Z</time>
      </trkpt>
      <trkpt lat="47.54887" lon="-2.91947">
        <ele>51</ele>
        <time>2018-04-21T08:15:21Z</time>
      </trkpt>
      <trkpt lat="47.54884" lon="-2.91948">
        <ele>51</ele>
        <time>2018-04-21T08:15:24Z</time>
      </trkpt>
      <trkpt lat="47.54881" lon="-2.91949">
        <ele>51</ele>
        <time>2018-04-21T08:15:28Z</time>
      </trkpt>
      <trkpt lat="47.54876" lon="-2.91951">
        <ele>51</ele>
        <time>2018-04-21T08:15:33Z</time>
      </trkpt>
      <trkpt lat="47.54873" lon="-2.91952">
        <ele>51</ele>
        <time>2018-04-21T08:15:36Z</time>
      </trkpt>
      <trkpt lat="47.54869" lon="-2.91954">
        <ele>51</ele>
        <time>2018-04-21T08:15:40Z</time>
      </trkpt>
      <trkpt lat="47.54867" lon="-2.91955">
        <ele>51</ele>
        <time>2018-04-21T08:15:43Z</time>
      </trkpt>
      <trkpt lat="47.54864" lon="-2.91956">
        <ele>51</ele>
        <time>2018-04-21T08:15:46Z</time>
      </trkpt>
      <trkpt lat="47.54859" lon="-2.91957">
        <ele>51</ele>
        <time>2018-04-21T08:15:52Z</time>
      </trkpt>
      <trkpt lat="47.54855" lon="-2.91957">
        <ele>51</ele>
        <time>2018-04-21T08:15:55Z</time>
      </trkpt>
      <trkpt lat="47.54851" lon="-2.91957">
        <ele>51</ele>
        <time>2018-04-21T08:15:59Z</time>
      </trkpt>
      <trkpt lat="47.54846" lon="-2.91959">
        <ele>50</ele>
        <time>2018-04-21T08:16:04Z</time>
      </trkpt>
      <trkpt lat="47.54843" lon="-2.9196">
        <ele>50</ele>
        <time>2018-04-21T08:16:07Z</time>
      </trkpt>
      <trkpt lat="47.54841" lon="-2.9196">
        <ele>49</ele>
        <time>2018-04-21T08:16:09Z</time>
      </trkpt>
      <trkpt lat="47.54836" lon="-2.9196">
        <ele>49</ele>
        <time>2018-04-21T08:16:14Z</time>
      </trkpt>
      <trkpt lat="47.5483" lon="-2.91962">
        <ele>50</ele>
        <time>2018-04-21T08:16:19Z</time>
      </trkpt>
      <trkpt lat="47.54828" lon="-2.91962">
        <ele>50</ele>
        <time>2018-04-21T08:16:22Z</time>
      </trkpt>
      <trkpt lat="47.54825" lon="-2.91963">
        <ele>50</ele>
        <time>2018-04-21T08:16:25Z</time>
      </trkpt>
      <trkpt lat="47.54822" lon="-2.91964">
        <ele>50</ele>
        <time>2018-04-21T08:16:27Z</time>
      </trkpt>
      <trkpt lat="47.54818" lon="-2.91965">
        <ele>49</ele>
        <time>2018-04-21T08:16:32Z</time>
      </trkpt>
      <trkpt lat="47.54813" lon="-2.91964">
        <ele>49</ele>
        <time>2018-04-21T08:16:37Z</time>
      </trkpt>
      <trkpt lat="47.5481" lon="-2.91964">
        <ele>50</ele>
        <time>2018-04-21T08:16:40Z</time>
      </trkpt>
      <trkpt lat="47.54807" lon="-2.91964">
        <ele>51</ele>
        <time>2018-04-21T08:16:42Z</time>
      </trkpt>
      <trkpt lat="47.54804" lon="-2.91964">
        <ele>51</ele>
        <time>2018-04-21T08:16:44Z</time>
      </trkpt>
      <trkpt lat="47.548" lon="-2.91964">
        <ele>51</ele>
        <time>2018-04-21T08:16:47Z</time>
      </trkpt>
      <trkpt lat="47.54795" lon="-2.91963">
        <ele>51</ele>
        <time>2018-04-21T08:16:52Z</time>
      </trkpt>
      <trkpt lat="47.54791" lon="-2.91961">
        <ele>51</ele>
        <time>2018-04-21T08:16:56Z</time>
      </trkpt>
      <trkpt lat="47.54788" lon="-2.9196">
        <ele>52</ele>
        <time>2018-04-21T08:16:59Z</time>
      </trkpt>
      <trkpt lat="47.54784" lon="-2.91961">
        <ele>52</ele>
        <time>2018-04-21T08:17:04Z</time>
      </trkpt>
      <trkpt lat="47.54781" lon="-2.9196">
        <ele>51</ele>
        <time>2018-04-21T08:17:07Z</time>
      </trkpt>
      <trkpt lat="47.54779" lon="-2.91961">
        <ele>51</ele>
        <time>2018-04-21T08:17:09Z</time>
      </trkpt>
      <trkpt lat="47.54774" lon="-2.91959">
        <ele>52</ele>
        <time>2018-04-21T08:17:14Z</time>
      </trkpt>
      <trkpt lat="47.54772" lon="-2.91959">
        <ele>52</ele>
        <time>2018-04-21T08:17:16Z</time>
      </trkpt>
      <trkpt lat="47.54766" lon="-2.91957">
        <ele>50</ele>
        <time>2018-04-21T08:17:22Z</time>
      </trkpt>
      <trkpt lat="47.54761" lon="-2.91953">
        <ele>50</ele>
        <time>2018-04-21T08:17:26Z</time>
      </trkpt>
      <trkpt lat="47.54755" lon="-2.91953">
        <ele>49</ele>
        <time>2018-04-21T08:17:30Z</time>
      </trkpt>
      <trkpt lat="47.54751" lon="-2.91953">
        <ele>49</ele>
        <time>2018-04-21T08:17:33Z</time>
      </trkpt>
      <trkpt lat="47.54748" lon="-2.91952">
        <ele>49</ele>
        <time>2018-04-21T08:17:36Z</time>
      </trkpt>
      <trkpt lat="47.54743" lon="-2.91951">
        <ele>47</ele>
        <time>2018-04-21T08:17:40Z</time>
      </trkpt>
      <trkpt lat="47.5474" lon="-2.91949">
        <ele>47</ele>
        <time>2018-04-21T08:17:42Z</time>
      </trkpt>
      <trkpt lat="47.54736" lon="-2.91947">
        <ele>46</ele>
        <time>2018-04-21T08:17:46Z</time>
      </trkpt>
      <trkpt lat="47.54733" lon="-2.91945">
        <ele>47</ele>
        <time>2018-04-21T08:17:48Z</time>
      </trkpt>
      <trkpt lat="47.54729" lon="-2.91943">
        <ele>49</ele>
        <time>2018-04-21T08:17:51Z</time>
      </trkpt>
      <trkpt lat="47.54726" lon="-2.91942">
        <ele>50</ele>
        <time>2018-04-21T08:17:54Z</time>
      </trkpt>
      <trkpt lat="47.54722" lon="-2.91942">
        <ele>50</ele>
        <time>2018-04-21T08:17:57Z</time>
      </trkpt>
      <trkpt lat="47.54717" lon="-2.91941">
        <ele>49</ele>
        <time>2018-04-21T08:18:03Z</time>
      </trkpt>
      <trkpt lat="47.54713" lon="-2.9194">
        <ele>48</ele>
        <time>2018-04-21T08:18:07Z</time>
      </trkpt>
      <trkpt lat="47.54708" lon="-2.91936">
        <ele>48</ele>
        <time>2018-04-21T08:18:12Z</time>
      </trkpt>
      <trkpt lat="47.54705" lon="-2.91934">
        <ele>48</ele>
        <time>2018-04-21T08:18:15Z</time>
      </trkpt>
      <trkpt lat="47.54703" lon="-2.91932">
        <ele>49</ele>
        <time>2018-04-21T08:18:17Z</time>
      </trkpt>
      <trkpt lat="47.54701" lon="-2.9193">
        <ele>49</ele>
        <time>2018-04-21T08:18:21Z</time>
      </trkpt>
      <trkpt lat="47.54698" lon="-2.91927">
        <ele>48</ele>
        <time>2018-04-21T08:18:25Z</time>
      </trkpt>
      <trkpt lat="47.54696" lon="-2.91924">
        <ele>48</ele>
        <time>2018-04-21T08:18:27Z</time>
      </trkpt>
      <trkpt lat="47.54693" lon="-2.91922">
        <ele>48</ele>
        <time>2018-04-21T08:18:30Z</time>
      </trkpt>
      <trkpt lat="47.54689" lon="-2.91917">
        <ele>47</ele>
        <time>2018-04-21T08:18:34Z</time>
      </trkpt>
      <trkpt lat="47.54687" lon="-2.91914">
        <ele>47</ele>
        <time>2018-04-21T08:18:37Z</time>
      </trkpt>
      <trkpt lat="47.54684" lon="-2.91911">
        <ele>47</ele>
        <time>2018-04-21T08:18:40Z</time>
      </trkpt>
      <trkpt lat="47.5468" lon="-2.91906">
        <ele>47</ele>
        <time>2018-04-21T08:18:44Z</time>
      </trkpt>
      <trkpt lat="47.54676" lon="-2.91902">
        <ele>48</ele>
        <time>2018-04-21T08:18:48Z</time>
      </trkpt>
      <trkpt lat="47.54672" lon="-2.91898">
        <ele>50</ele>
        <time>2018-04-21T08:18:52Z</time>
      </trkpt>
      <trkpt lat="47.54668" lon="-2.91896">
        <ele>50</ele>
        <time>2018-04-21T08:18:55Z</time>
      </trkpt>
      <trkpt lat="47.54664" lon="-2.91892">
        <ele>50</ele>
        <time>2018-04-21T08:18:59Z</time>
      </trkpt>
      <trkpt lat="47.5466" lon="-2.91889">
        <ele>50</ele>
        <time>2018-04-21T08:19:03Z</time>
      </trkpt>
      <trkpt lat="47.54657" lon="-2.91887">
        <ele>49</ele>
        <time>2018-04-21T08:19:06Z</time>
      </trkpt>
      <trkpt lat="47.54654" lon="-2.91885">
        <ele>49</ele>
        <time>2018-04-21T08:19:09Z</time>
      </trkpt>
      <trkpt lat="47.5465" lon="-2.91883">
        <ele>49</ele>
        <time>2018-04-21T08:19:12Z</time>
      </trkpt>
      <trkpt lat="47.54645" lon="-2.91881">
        <ele>50</ele>
        <time>2018-04-21T08:19:16Z</time>
      </trkpt>
      <trkpt lat="47.54643" lon="-2.9188">
        <ele>49</ele>
        <time>2018-04-21T08:19:17Z</time>
      </trkpt>
      <trkpt lat="47.54638" lon="-2.91875">
        <ele>49</ele>
        <time>2018-04-21T08:19:21Z</time>
      </trkpt>
      <trkpt lat="47.54633" lon="-2.91872">
        <ele>50</ele>
        <time>2018-04-21T08:19:25Z</time>
      </trkpt>
      <trkpt lat="47.54628" lon="-2.91868">
        <ele>50</ele>
        <time>2018-04-21T08:19:29Z</time>
      </trkpt>
      <trkpt lat="47.54623" lon="-2.91868">
        <ele>50</ele>
        <time>2018-04-21T08:19:34Z</time>
      </trkpt>
      <trkpt lat="47.54619" lon="-2.91864">
        <ele>50</ele>
        <time>2018-04-21T08:19:38Z</time>
      </trkpt>
      <trkpt lat="47.54619" lon="-2.91864">
        <time>2018-04-21T08:19:45Z</time>
      </trkpt>
      <trkpt lat="47.54619" lon="-2.91864">
        <time>2018-04-21T08:19:53Z</time>
      </trkpt>
      <trkpt lat="47.54613" lon="-2.91852">
        <ele>49</ele>
        <time>2018-04-21T08:19:53Z</time>
      </trkpt>
      <trkpt lat="47.54611" lon="-2.91849">
        <ele>49</ele>
        <time>2018-04-21T08:19:56Z</time>
      </trkpt>
      <trkpt lat="47.54607" lon="-2.91846">
        <ele>49</ele>
        <time>2018-04-21T08:20:00Z</time>
      </trkpt>
      <trkpt lat="47.54604" lon="-2.91841">
        <ele>49</ele>
        <time>2018-04-21T08:20:05Z</time>
      </trkpt>
      <trkpt lat="47.54601" lon="-2.91837">
        <ele>49</ele>
        <time>2018-04-21T08:20:08Z</time>
      </trkpt>
      <trkpt lat="47.54597" lon="-2.91833">
        <ele>49</ele>
        <time>2018-04-21T08:20:12Z</time>
      </trkpt>
      <trkpt lat="47.54593" lon="-2.91828">
        <ele>50</ele>
        <time>2018-04-21T08:20:16Z</time>
      </trkpt>
      <trkpt lat="47.5459" lon="-2.91823">
        <ele>51</ele>
        <time>2018-04-21T08:20:20Z</time>
      </trkpt>
      <trkpt lat="47.54586" lon="-2.91819">
        <ele>51</ele>
        <time>2018-04-21T08:20:24Z</time>
      </trkpt>
      <trkpt lat="47.54583" lon="-2.91817">
        <ele>52</ele>
        <time>2018-04-21T08:20:28Z</time>
      </trkpt>
      <trkpt lat="47.54579" lon="-2.91812">
        <ele>50</ele>
        <time>2018-04-21T08:20:33Z</time>
      </trkpt>
      <trkpt lat="47.54577" lon="-2.91809">
        <ele>50</ele>
        <time>2018-04-21T08:20:36Z</time>
      </trkpt>
      <trkpt lat="47.54574" lon="-2.91806">
        <ele>50</ele>
        <time>2018-04-21T08:20:39Z</time>
      </trkpt>
      <trkpt lat="47.54573" lon="-2.91804">
        <ele>50</ele>
        <time>2018-04-21T08:20:41Z</time>
      </trkpt>
      <trkpt lat="47.54569" lon="-2.91799">
        <ele>50</ele>
        <time>2018-04-21T08:20:45Z</time>
      </trkpt>
      <trkpt lat="47.54567" lon="-2.91796">
        <ele>49</ele>
        <time>2018-04-21T08:20:47Z</time>
      </trkpt>
      <trkpt lat="47.54565" lon="-2.91793">
        <ele>50</ele>
        <time>2018-04-21T08:20:49Z</time>
      </trkpt>
      <trkpt lat="47.54563" lon="-2.9179">
        <ele>50</ele>
        <time>2018-04-21T08:20:50Z</time>
      </trkpt>
      <trkpt lat="47.5456" lon="-2.91787">
        <ele>49</ele>
        <time>2018-04-21T08:20:53Z</time>
      </trkpt>
      <trkpt lat="47.54554" lon="-2.91782">
        <ele>49</ele>
        <time>2018-04-21T08:20:58Z</time>
      </trkpt>
      <trkpt lat="47.54552" lon="-2.91779">
        <ele>49</ele>
        <time>2018-04-21T08:21:00Z</time>
      </trkpt>
      <trkpt lat="47.54548" lon="-2.91774">
        <ele>49</ele>
        <time>2018-04-21T08:21:04Z</time>
      </trkpt>
      <trkpt lat="47.54544" lon="-2.9177">
        <ele>49</ele>
        <time>2018-04-21T08:21:08Z</time>
      </trkpt>
      <trkpt lat="47.54541" lon="-2.91768">
        <ele>49</ele>
        <time>2018-04-21T08:21:10Z</time>
      </trkpt>
      <trkpt lat="47.54538" lon="-2.91762">
        <ele>49</ele>
        <time>2018-04-21T08:21:15Z</time>
      </trkpt>
      <trkpt lat="47.54536" lon="-2.91758">
        <ele>50</ele>
        <time>2018-04-21T08:21:18Z</time>
      </trkpt>
      <trkpt lat="47.54534" lon="-2.91751">
        <ele>50</ele>
        <time>2018-04-21T08:21:22Z</time>
      </trkpt>
      <trkpt lat="47.54532" lon="-2.91746">
        <ele>50</ele>
        <time>2018-04-21T08:21:26Z</time>
      </trkpt>
      <trkpt lat="47.5453" lon="-2.91739">
        <ele>50</ele>
        <time>2018-04-21T08:21:31Z</time>
      </trkpt>
      <trkpt lat="47.54528" lon="-2.91732">
        <ele>50</ele>
        <time>2018-04-21T08:21:36Z</time>
      </trkpt>
      <trkpt lat="47.54526" lon="-2.91724">
        <ele>50</ele>
        <time>2018-04-21T08:21:41Z</time>
      </trkpt>
      <trkpt lat="47.54524" lon="-2.91718">
        <ele>51</ele>
        <time>2018-04-21T08:21:45Z</time>
      </trkpt>
      <trkpt lat="47.54523" lon="-2.9171">
        <ele>49</ele>
        <time>2018-04-21T08:21:49Z</time>
      </trkpt>
      <trkpt lat="47.54522" lon="-2.91706">
        <ele>50</ele>
        <time>2018-04-21T08:21:51Z</time>
      </trkpt>
      <trkpt lat="47.5452" lon="-2.91699">
        <ele>50</ele>
        <time>2018-04-21T08:21:56Z</time>
      </trkpt>
      <trkpt lat="47.54519" lon="-2.91691">
        <ele>49</ele>
        <time>2018-04-21T08:22:01Z</time>
      </trkpt>
      <trkpt lat="47.54516" lon="-2.91685">
        <ele>49</ele>
        <time>2018-04-21T08:22:04Z</time>
      </trkpt>
      <trkpt lat="47.54514" lon="-2.91678">
        <ele>50</ele>
        <time>2018-04-21T08:22:08Z</time>
      </trkpt>
      <trkpt lat="47.54512" lon="-2.9167">
        <ele>52</ele>
        <time>2018-04-21T08:22:12Z</time>
      </trkpt>
      <trkpt lat="47.5451" lon="-2.91667">
        <ele>53</ele>
        <time>2018-04-21T08:22:14Z</time>
      </trkpt>
      <trkpt lat="47.54508" lon="-2.91662">
        <ele>54</ele>
        <time>2018-04-21T08:22:17Z</time>
      </trkpt>
      <trkpt lat="47.54507" lon="-2.91659">
        <ele>55</ele>
        <time>2018-04-21T08:22:19Z</time>
      </trkpt>
      <trkpt lat="47.54504" lon="-2.91654">
        <ele>55</ele>
        <time>2018-04-21T08:22:22Z</time>
      </trkpt>
      <trkpt lat="47.54502" lon="-2.91651">
        <ele>55</ele>
        <time>2018-04-21T08:22:24Z</time>
      </trkpt>
      <trkpt lat="47.54498" lon="-2.91647">
        <ele>58</ele>
        <time>2018-04-21T08:22:32Z</time>
      </trkpt>
      <trkpt lat="47.54495" lon="-2.91642">
        <ele>59</ele>
        <time>2018-04-21T08:22:39Z</time>
      </trkpt>
      <trkpt lat="47.54493" lon="-2.91639">
        <ele>58</ele>
        <time>2018-04-21T08:22:43Z</time>
      </trkpt>
      <trkpt lat="47.54491" lon="-2.91632">
        <ele>57</ele>
        <time>2018-04-21T08:22:50Z</time>
      </trkpt>
      <trkpt lat="47.5449" lon="-2.91625">
        <ele>56</ele>
        <time>2018-04-21T08:22:54Z</time>
      </trkpt>
      <trkpt lat="47.5449" lon="-2.91622">
        <ele>55</ele>
        <time>2018-04-21T08:22:57Z</time>
      </trkpt>
      <trkpt lat="47.54489" lon="-2.91618">
        <ele>54</ele>
        <time>2018-04-21T08:22:59Z</time>
      </trkpt>
      <trkpt lat="47.54489" lon="-2.91614">
        <ele>54</ele>
        <time>2018-04-21T08:23:01Z</time>
      </trkpt>
      <trkpt lat="47.54489" lon="-2.91609">
        <ele>54</ele>
        <time>2018-04-21T08:23:04Z</time>
      </trkpt>
      <trkpt lat="47.5449" lon="-2.91601">
        <ele>54</ele>
        <time>2018-04-21T08:23:08Z</time>
      </trkpt>
      <trkpt lat="47.54491" lon="-2.91592">
        <ele>54</ele>
        <time>2018-04-21T08:23:12Z</time>
      </trkpt>
      <trkpt lat="47.54494" lon="-2.91585">
        <ele>55</ele>
        <time>2018-04-21T08:23:15Z</time>
      </trkpt>
      <trkpt lat="47.54496" lon="-2.91579">
        <ele>55</ele>
        <time>2018-04-21T08:23:18Z</time>
      </trkpt>
      <trkpt lat="47.54497" lon="-2.91572">
        <ele>56</ele>
        <time>2018-04-21T08:23:22Z</time>
      </trkpt>
      <trkpt lat="47.54498" lon="-2.91566">
        <ele>55</ele>
        <time>2018-04-21T08:23:26Z</time>
      </trkpt>
      <trkpt lat="47.54502" lon="-2.91561">
        <ele>54</ele>
        <time>2018-04-21T08:23:32Z</time>
      </trkpt>
      <trkpt lat="47.54506" lon="-2.91557">
        <ele>54</ele>
        <time>2018-04-21T08:23:38Z</time>
      </trkpt>
      <trkpt lat="47.54508" lon="-2.91556">
        <ele>54</ele>
        <time>2018-04-21T08:23:40Z</time>
      </trkpt>
      <trkpt lat="47.5451" lon="-2.91548">
        <ele>53</ele>
        <time>2018-04-21T08:23:44Z</time>
      </trkpt>
      <trkpt lat="47.54513" lon="-2.91541">
        <ele>51</ele>
        <time>2018-04-21T08:23:48Z</time>
      </trkpt>
      <trkpt lat="47.54516" lon="-2.91534">
        <ele>52</ele>
        <time>2018-04-21T08:23:51Z</time>
      </trkpt>
      <trkpt lat="47.54519" lon="-2.91528">
        <ele>51</ele>
        <time>2018-04-21T08:23:54Z</time>
      </trkpt>
      <trkpt lat="47.54523" lon="-2.91523">
        <ele>52</ele>
        <time>2018-04-21T08:23:57Z</time>
      </trkpt>
      <trkpt lat="47.54527" lon="-2.91516">
        <ele>50</ele>
        <time>2018-04-21T08:24:01Z</time>
      </trkpt>
      <trkpt lat="47.54531" lon="-2.91509">
        <ele>50</ele>
        <time>2018-04-21T08:24:06Z</time>
      </trkpt>
      <trkpt lat="47.54533" lon="-2.91506">
        <ele>50</ele>
        <time>2018-04-21T08:24:08Z</time>
      </trkpt>
      <trkpt lat="47.54536" lon="-2.91499">
        <ele>50</ele>
        <time>2018-04-21T08:24:12Z</time>
      </trkpt>
      <trkpt lat="47.54538" lon="-2.91495">
        <ele>51</ele>
        <time>2018-04-21T08:24:14Z</time>
      </trkpt>
      <trkpt lat="47.54541" lon="-2.91488">
        <ele>51</ele>
        <time>2018-04-21T08:24:18Z</time>
      </trkpt>
      <trkpt lat="47.54542" lon="-2.91484">
        <ele>51</ele>
        <time>2018-04-21T08:24:20Z</time>
      </trkpt>
      <trkpt lat="47.54544" lon="-2.91481">
        <ele>51</ele>
        <time>2018-04-21T08:24:23Z</time>
      </trkpt>
      <trkpt lat="47.54546" lon="-2.91477">
        <ele>51</ele>
        <time>2018-04-21T08:24:26Z</time>
      </trkpt>
      <trkpt lat="47.54548" lon="-2.91472">
        <ele>50</ele>
        <time>2018-04-21T08:24:30Z</time>
      </trkpt>
      <trkpt lat="47.54552" lon="-2.91468">
        <ele>50</ele>
        <time>2018-04-21T08:24:35Z</time>
      </trkpt>
      <trkpt lat="47.54556" lon="-2.91465">
        <ele>49</ele>
        <time>2018-04-21T08:24:40Z</time>
      </trkpt>
      <trkpt lat="47.54561" lon="-2.91463">
        <ele>49</ele>
        <time>2018-04-21T08:24:45Z</time>
      </trkpt>
      <trkpt lat="47.54565" lon="-2.91458">
        <ele>52</ele>
        <time>2018-04-21T08:24:51Z</time>
      </trkpt>
      <trkpt lat="47.54565" lon="-2.91458">
        <ele>1.9</ele>
        <time>2018-04-21T08:25:00Z</time>
      </trkpt>
      <trkpt lat="47.54565" lon="-2.91458">
        <ele>1.9</ele>
        <time>2018-04-21T08:28:11Z</time>
      </trkpt>
      <trkpt lat="47.5459" lon="-2.91462">
        <ele>40</ele>
        <time>2018-04-21T08:28:11Z</time>
      </trkpt>
      <trkpt lat="47.5459" lon="-2.91462">
        <ele>40</ele>
        <time>2018-04-21T08:28:16Z</time>
      </trkpt>
      <trkpt lat="47.5459" lon="-2.91462">
        <ele>4.5</ele>
        <time>2018-04-21T08:28:17Z</time>
      </trkpt>
      <trkpt lat="47.5459" lon="-2.91462">
        <ele>4.5</ele>
        <time>2018-04-21T08:37:31Z</time>
      </trkpt>
      <trkpt lat="47.54564" lon="-2.91466">
        <ele>49</ele>
        <time>2018-04-21T08:37:31Z</time>
      </trkpt>
      <trkpt lat="47.54564" lon="-2.91466">
        <ele>49</ele>
        <time>2018-04-21T08:39:33Z</time>
      </trkpt>
      <trkpt lat="47.5454" lon="-2.91492">
        <ele>52</ele>
        <time>2018-04-21T08:39:37Z</time>
      </trkpt>
      <trkpt lat="47.54539" lon="-2.91499">
        <ele>52</ele>
        <time>2018-04-21T08:39:40Z</time>
      </trkpt>
      <trkpt lat="47.54535" lon="-2.91505">
        <ele>52</ele>
        <time>2018-04-21T08:39:44Z</time>
      </trkpt>
      <trkpt lat="47.54534" lon="-2.91508">
        <ele>52</ele>
        <time>2018-04-21T08:39:46Z</time>
      </trkpt>
      <trkpt lat="47.54532" lon="-2.91513">
        <ele>50</ele>
        <time>2018-04-21T08:39:49Z</time>
      </trkpt>
      <trkpt lat="47.5453" lon="-2.91516">
        <ele>51</ele>
        <time>2018-04-21T08:39:51Z</time>
      </trkpt>
      <trkpt lat="47.54528" lon="-2.9152">
        <ele>51</ele>
        <time>2018-04-21T08:39:53Z</time>
      </trkpt>
      <trkpt lat="47.54523" lon="-2.91525">
        <ele>51</ele>
        <time>2018-04-21T08:39:57Z</time>
      </trkpt>
      <trkpt lat="47.5452" lon="-2.91528">
        <ele>51</ele>
        <time>2018-04-21T08:40:00Z</time>
      </trkpt>
      <trkpt lat="47.54516" lon="-2.91533">
        <ele>50</ele>
        <time>2018-04-21T08:40:04Z</time>
      </trkpt>
      <trkpt lat="47.54514" lon="-2.91535">
        <ele>50</ele>
        <time>2018-04-21T08:40:06Z</time>
      </trkpt>
      <trkpt lat="47.54513" lon="-2.91543">
        <ele>51</ele>
        <time>2018-04-21T08:40:12Z</time>
      </trkpt>
      <trkpt lat="47.54512" lon="-2.91546">
        <ele>52</ele>
        <time>2018-04-21T08:40:15Z</time>
      </trkpt>
      <trkpt lat="47.54511" lon="-2.91549">
        <ele>55</ele>
        <time>2018-04-21T08:40:19Z</time>
      </trkpt>
      <trkpt lat="47.54505" lon="-2.9155">
        <ele>55</ele>
        <time>2018-04-21T08:40:23Z</time>
      </trkpt>
      <trkpt lat="47.54501" lon="-2.91557">
        <ele>53</ele>
        <time>2018-04-21T08:40:27Z</time>
      </trkpt>
      <trkpt lat="47.54497" lon="-2.91561">
        <ele>53</ele>
        <time>2018-04-21T08:40:31Z</time>
      </trkpt>
      <trkpt lat="47.54497" lon="-2.91568">
        <ele>54</ele>
        <time>2018-04-21T08:40:36Z</time>
      </trkpt>
      <trkpt lat="47.54495" lon="-2.91575">
        <ele>54</ele>
        <time>2018-04-21T08:40:41Z</time>
      </trkpt>
      <trkpt lat="47.54494" lon="-2.91578">
        <ele>54</ele>
        <time>2018-04-21T08:40:43Z</time>
      </trkpt>
      <trkpt lat="47.54489" lon="-2.91583">
        <ele>53</ele>
        <time>2018-04-21T08:40:47Z</time>
      </trkpt>
      <trkpt lat="47.54487" lon="-2.91589">
        <ele>53</ele>
        <time>2018-04-21T08:40:51Z</time>
      </trkpt>
      <trkpt lat="47.54484" lon="-2.91594">
        <ele>53</ele>
        <time>2018-04-21T08:40:55Z</time>
      </trkpt>
      <trkpt lat="47.54482" lon="-2.91602">
        <ele>53</ele>
        <time>2018-04-21T08:40:59Z</time>
      </trkpt>
      <trkpt lat="47.54481" lon="-2.91607">
        <ele>51</ele>
        <time>2018-04-21T08:41:03Z</time>
      </trkpt>
      <trkpt lat="47.54482" lon="-2.91613">
        <ele>52</ele>
        <time>2018-04-21T08:41:07Z</time>
      </trkpt>
      <trkpt lat="47.54483" lon="-2.91617">
        <ele>51</ele>
        <time>2018-04-21T08:41:09Z</time>
      </trkpt>
      <trkpt lat="47.54486" lon="-2.91624">
        <ele>51</ele>
        <time>2018-04-21T08:41:14Z</time>
      </trkpt>
      <trkpt lat="47.54488" lon="-2.9163">
        <ele>52</ele>
        <time>2018-04-21T08:41:17Z</time>
      </trkpt>
      <trkpt lat="47.5449" lon="-2.91636">
        <ele>49</ele>
        <time>2018-04-21T08:41:22Z</time>
      </trkpt>
      <trkpt lat="47.54492" lon="-2.91643">
        <ele>48</ele>
        <time>2018-04-21T08:41:27Z</time>
      </trkpt>
      <trkpt lat="47.54493" lon="-2.91647">
        <ele>49</ele>
        <time>2018-04-21T08:41:30Z</time>
      </trkpt>
      <trkpt lat="47.54494" lon="-2.91653">
        <ele>48</ele>
        <time>2018-04-21T08:41:35Z</time>
      </trkpt>
      <trkpt lat="47.54492" lon="-2.91659">
        <ele>49</ele>
        <time>2018-04-21T08:41:41Z</time>
      </trkpt>
      <trkpt lat="47.54495" lon="-2.91665">
        <ele>48</ele>
        <time>2018-04-21T08:41:47Z</time>
      </trkpt>
      <trkpt lat="47.54497" lon="-2.91671">
        <ele>50</ele>
        <time>2018-04-21T08:41:52Z</time>
      </trkpt>
      <trkpt lat="47.54496" lon="-2.91677">
        <ele>50</ele>
        <time>2018-04-21T08:41:59Z</time>
      </trkpt>
      <trkpt lat="47.54498" lon="-2.91684">
        <ele>49</ele>
        <time>2018-04-21T08:42:05Z</time>
      </trkpt>
      <trkpt lat="47.545" lon="-2.91688">
        <ele>50</ele>
        <time>2018-04-21T08:42:09Z</time>
      </trkpt>
      <trkpt lat="47.54503" lon="-2.91694">
        <ele>50</ele>
        <time>2018-04-21T08:42:15Z</time>
      </trkpt>
      <trkpt lat="47.54506" lon="-2.91699">
        <ele>49</ele>
        <time>2018-04-21T08:42:18Z</time>
      </trkpt>
      <trkpt lat="47.54506" lon="-2.91699">
        <ele>49</ele>
        <time>2018-04-21T08:42:23Z</time>
      </trkpt>
      <trkpt lat="47.54506" lon="-2.91699">
        <time>2018-04-21T08:42:23Z</time>
      </trkpt>
      <trkpt lat="47.54506" lon="-2.91699">
        <time>2018-04-21T08:43:00Z</time>
      </trkpt>
      <trkpt lat="47.54521" lon="-2.91736">
        <ele>54</ele>
        <time>2018-04-21T08:43:00Z</time>
      </trkpt>
      <trkpt lat="47.54524" lon="-2.91742">
        <ele>53</ele>
        <time>2018-04-21T08:43:04Z</time>
      </trkpt>
      <trkpt lat="47.54525" lon="-2.91746">
        <ele>53</ele>
        <time>2018-04-21T08:43:07Z</time>
      </trkpt>
      <trkpt lat="47.54528" lon="-2.91752">
        <ele>53</ele>
        <time>2018-04-21T08:43:12Z</time>
      </trkpt>
      <trkpt lat="47.54532" lon="-2.91757">
        <ele>53</ele>
        <time>2018-04-21T08:43:16Z</time>
      </trkpt>
      <trkpt lat="47.54536" lon="-2.91763">
        <ele>52</ele>
        <time>2018-04-21T08:43:19Z</time>
      </trkpt>
      <trkpt lat="47.54541" lon="-2.91768">
        <ele>52</ele>
        <time>2018-04-21T08:43:22Z</time>
      </trkpt>
      <trkpt lat="47.54544" lon="-2.91772">
        <ele>52</ele>
        <time>2018-04-21T08:43:24Z</time>
      </trkpt>
      <trkpt lat="47.54547" lon="-2.91776">
        <ele>53</ele>
        <time>2018-04-21T08:43:26Z</time>
      </trkpt>
      <trkpt lat="47.54551" lon="-2.91783">
        <ele>52</ele>
        <time>2018-04-21T08:43:29Z</time>
      </trkpt>
      <trkpt lat="47.54555" lon="-2.91788">
        <ele>51</ele>
        <time>2018-04-21T08:43:32Z</time>
      </trkpt>
      <trkpt lat="47.54558" lon="-2.91791">
        <ele>52</ele>
        <time>2018-04-21T08:43:34Z</time>
      </trkpt>
      <trkpt lat="47.5456" lon="-2.91794">
        <ele>51</ele>
        <time>2018-04-21T08:43:35Z</time>
      </trkpt>
      <trkpt lat="47.54564" lon="-2.91801">
        <ele>51</ele>
        <time>2018-04-21T08:43:38Z</time>
      </trkpt>
      <trkpt lat="47.54565" lon="-2.91804">
        <ele>51</ele>
        <time>2018-04-21T08:43:39Z</time>
      </trkpt>
      <trkpt lat="47.54567" lon="-2.91807">
        <ele>51</ele>
        <time>2018-04-21T08:43:40Z</time>
      </trkpt>
      <trkpt lat="47.54571" lon="-2.91812">
        <ele>50</ele>
        <time>2018-04-21T08:43:43Z</time>
      </trkpt>
      <trkpt lat="47.54574" lon="-2.91816">
        <ele>49</ele>
        <time>2018-04-21T08:43:45Z</time>
      </trkpt>
      <trkpt lat="47.5458" lon="-2.9182">
        <ele>49</ele>
        <time>2018-04-21T08:43:48Z</time>
      </trkpt>
      <trkpt lat="47.54584" lon="-2.91825">
        <ele>47</ele>
        <time>2018-04-21T08:43:51Z</time>
      </trkpt>
      <trkpt lat="47.54588" lon="-2.91831">
        <ele>47</ele>
        <time>2018-04-21T08:43:55Z</time>
      </trkpt>
      <trkpt lat="47.54588" lon="-2.91831">
        <ele>47</ele>
        <time>2018-04-21T08:44:03Z</time>
      </trkpt>
      <trkpt lat="47.54588" lon="-2.91831">
        <ele>1</ele>
        <time>2018-04-21T08:44:04Z</time>
      </trkpt>
      <trkpt lat="47.54588" lon="-2.91831">
        <ele>1</ele>
        <time>2018-04-21T08:44:36Z</time>
      </trkpt>
      <trkpt lat="47.54612" lon="-2.91852">
        <ele>51</ele>
        <time>2018-04-21T08:44:36Z</time>
      </trkpt>
      <trkpt lat="47.54616" lon="-2.91858">
        <ele>52</ele>
        <time>2018-04-21T08:44:40Z</time>
      </trkpt>
      <trkpt lat="47.54621" lon="-2.91862">
        <ele>53</ele>
        <time>2018-04-21T08:44:43Z</time>
      </trkpt>
      <trkpt lat="47.54624" lon="-2.91864">
        <ele>52</ele>
        <time>2018-04-21T08:44:45Z</time>
      </trkpt>
      <trkpt lat="47.54627" lon="-2.91867">
        <ele>52</ele>
        <time>2018-04-21T08:44:47Z</time>
      </trkpt>
      <trkpt lat="47.54631" lon="-2.9187">
        <ele>52</ele>
        <time>2018-04-21T08:44:49Z</time>
      </trkpt>
      <trkpt lat="47.54634" lon="-2.91873">
        <ele>52</ele>
        <time>2018-04-21T08:44:51Z</time>
      </trkpt>
      <trkpt lat="47.54637" lon="-2.91876">
        <ele>52</ele>
        <time>2018-04-21T08:44:53Z</time>
      </trkpt>
      <trkpt lat="47.5464" lon="-2.91879">
        <ele>52</ele>
        <time>2018-04-21T08:44:55Z</time>
      </trkpt>
      <trkpt lat="47.54643" lon="-2.91881">
        <ele>50</ele>
        <time>2018-04-21T08:44:56Z</time>
      </trkpt>
      <trkpt lat="47.54646" lon="-2.91885">
        <ele>50</ele>
        <time>2018-04-21T08:44:58Z</time>
      </trkpt>
      <trkpt lat="47.54652" lon="-2.9189">
        <ele>51</ele>
        <time>2018-04-21T08:45:00Z</time>
      </trkpt>
      <trkpt lat="47.54655" lon="-2.91892">
        <ele>51</ele>
        <time>2018-04-21T08:45:02Z</time>
      </trkpt>
      <trkpt lat="47.54661" lon="-2.91898">
        <ele>51</ele>
        <time>2018-04-21T08:45:05Z</time>
      </trkpt>
      <trkpt lat="47.54664" lon="-2.91903">
        <ele>49</ele>
        <time>2018-04-21T08:45:08Z</time>
      </trkpt>
      <trkpt lat="47.54671" lon="-2.91907">
        <ele>47</ele>
        <time>2018-04-21T08:45:11Z</time>
      </trkpt>
      <trkpt lat="47.54674" lon="-2.91911">
        <ele>47</ele>
        <time>2018-04-21T08:45:14Z</time>
      </trkpt>
      <trkpt lat="47.54679" lon="-2.91914">
        <ele>48</ele>
        <time>2018-04-21T08:45:16Z</time>
      </trkpt>
      <trkpt lat="47.54682" lon="-2.91916">
        <ele>49</ele>
        <time>2018-04-21T08:45:17Z</time>
      </trkpt>
      <trkpt lat="47.54687" lon="-2.91918">
        <ele>50</ele>
        <time>2018-04-21T08:45:19Z</time>
      </trkpt>
      <trkpt lat="47.54689" lon="-2.91919">
        <ele>49</ele>
        <time>2018-04-21T08:45:20Z</time>
      </trkpt>
      <trkpt lat="47.54693" lon="-2.91923">
        <ele>50</ele>
        <time>2018-04-21T08:45:24Z</time>
      </trkpt>
      <trkpt lat="47.54697" lon="-2.91926">
        <ele>51</ele>
        <time>2018-04-21T08:45:26Z</time>
      </trkpt>
      <trkpt lat="47.54701" lon="-2.91928">
        <ele>51</ele>
        <time>2018-04-21T08:45:28Z</time>
      </trkpt>
      <trkpt lat="47.54705" lon="-2.91933">
        <ele>53</ele>
        <time>2018-04-21T08:45:32Z</time>
      </trkpt>
      <trkpt lat="47.54711" lon="-2.91937">
        <ele>49</ele>
        <time>2018-04-21T08:45:34Z</time>
      </trkpt>
      <trkpt lat="47.54715" lon="-2.91939">
        <ele>49</ele>
        <time>2018-04-21T08:45:36Z</time>
      </trkpt>
      <trkpt lat="47.54719" lon="-2.91941">
        <ele>49</ele>
        <time>2018-04-21T08:45:39Z</time>
      </trkpt>
      <trkpt lat="47.54724" lon="-2.91944">
        <ele>50</ele>
        <time>2018-04-21T08:45:42Z</time>
      </trkpt>
      <trkpt lat="47.54726" lon="-2.91945">
        <ele>50</ele>
        <time>2018-04-21T08:45:43Z</time>
      </trkpt>
      <trkpt lat="47.54729" lon="-2.91947">
        <ele>51</ele>
        <time>2018-04-21T08:45:44Z</time>
      </trkpt>
      <trkpt lat="47.54733" lon="-2.9195">
        <ele>50</ele>
        <time>2018-04-21T08:45:46Z</time>
      </trkpt>
      <trkpt lat="47.54736" lon="-2.91952">
        <ele>50</ele>
        <time>2018-04-21T08:45:49Z</time>
      </trkpt>
      <trkpt lat="47.54739" lon="-2.91954">
        <ele>49</ele>
        <time>2018-04-21T08:45:51Z</time>
      </trkpt>
      <trkpt lat="47.54743" lon="-2.91957">
        <ele>49</ele>
        <time>2018-04-21T08:45:52Z</time>
      </trkpt>
      <trkpt lat="47.54747" lon="-2.91959">
        <ele>49</ele>
        <time>2018-04-21T08:45:54Z</time>
      </trkpt>
      <trkpt lat="47.54751" lon="-2.91961">
        <ele>50</ele>
        <time>2018-04-21T08:45:58Z</time>
      </trkpt>
      <trkpt lat="47.54756" lon="-2.91963">
        <ele>48</ele>
        <time>2018-04-21T08:46:00Z</time>
      </trkpt>
      <trkpt lat="47.5476" lon="-2.91964">
        <ele>49</ele>
        <time>2018-04-21T08:46:02Z</time>
      </trkpt>
      <trkpt lat="47.54766" lon="-2.91966">
        <ele>47</ele>
        <time>2018-04-21T08:46:05Z</time>
      </trkpt>
      <trkpt lat="47.54768" lon="-2.91967">
        <ele>47</ele>
        <time>2018-04-21T08:46:08Z</time>
      </trkpt>
      <trkpt lat="47.54774" lon="-2.91968">
        <ele>49</ele>
        <time>2018-04-21T08:46:10Z</time>
      </trkpt>
      <trkpt lat="47.54778" lon="-2.91969">
        <ele>49</ele>
        <time>2018-04-21T08:46:12Z</time>
      </trkpt>
      <trkpt lat="47.54783" lon="-2.9197">
        <ele>50</ele>
        <time>2018-04-21T08:46:14Z</time>
      </trkpt>
      <trkpt lat="47.54788" lon="-2.91971">
        <ele>51</ele>
        <time>2018-04-21T08:46:16Z</time>
      </trkpt>
      <trkpt lat="47.54791" lon="-2.91972">
        <ele>50</ele>
        <time>2018-04-21T08:46:18Z</time>
      </trkpt>
      <trkpt lat="47.54795" lon="-2.91972">
        <ele>50</ele>
        <time>2018-04-21T08:46:20Z</time>
      </trkpt>
      <trkpt lat="47.54801" lon="-2.91974">
        <ele>47</ele>
        <time>2018-04-21T08:46:24Z</time>
      </trkpt>
      <trkpt lat="47.54806" lon="-2.91976">
        <ele>47</ele>
        <time>2018-04-21T08:46:27Z</time>
      </trkpt>
      <trkpt lat="47.54813" lon="-2.91975">
        <ele>50</ele>
        <time>2018-04-21T08:46:30Z</time>
      </trkpt>
      <trkpt lat="47.54819" lon="-2.91975">
        <ele>53</ele>
        <time>2018-04-21T08:46:32Z</time>
      </trkpt>
      <trkpt lat="47.54824" lon="-2.91974">
        <ele>51</ele>
        <time>2018-04-21T08:46:36Z</time>
      </trkpt>
      <trkpt lat="47.5483" lon="-2.91975">
        <ele>53</ele>
        <time>2018-04-21T08:46:39Z</time>
      </trkpt>
      <trkpt lat="47.54833" lon="-2.91975">
        <ele>53</ele>
        <time>2018-04-21T08:46:40Z</time>
      </trkpt>
      <trkpt lat="47.5484" lon="-2.91973">
        <ele>53</ele>
        <time>2018-04-21T08:46:43Z</time>
      </trkpt>
      <trkpt lat="47.54846" lon="-2.91972">
        <ele>54</ele>
        <time>2018-04-21T08:46:45Z</time>
      </trkpt>
      <trkpt lat="47.5485" lon="-2.91971">
        <ele>54</ele>
        <time>2018-04-21T08:46:47Z</time>
      </trkpt>
      <trkpt lat="47.54852" lon="-2.9197">
        <ele>53</ele>
        <time>2018-04-21T08:46:48Z</time>
      </trkpt>
      <trkpt lat="47.54857" lon="-2.9197">
        <ele>54</ele>
        <time>2018-04-21T08:46:50Z</time>
      </trkpt>
      <trkpt lat="47.54863" lon="-2.91969">
        <ele>49</ele>
        <time>2018-04-21T08:46:53Z</time>
      </trkpt>
      <trkpt lat="47.54869" lon="-2.91969">
        <ele>48</ele>
        <time>2018-04-21T08:46:56Z</time>
      </trkpt>
      <trkpt lat="47.54876" lon="-2.91968">
        <ele>52</ele>
        <time>2018-04-21T08:46:59Z</time>
      </trkpt>
      <trkpt lat="47.54882" lon="-2.91967">
        <ele>52</ele>
        <time>2018-04-21T08:47:02Z</time>
      </trkpt>
      <trkpt lat="47.54885" lon="-2.91966">
        <ele>53</ele>
        <time>2018-04-21T08:47:03Z</time>
      </trkpt>
      <trkpt lat="47.54889" lon="-2.91963">
        <ele>52</ele>
        <time>2018-04-21T08:47:06Z</time>
      </trkpt>
      <trkpt lat="47.54894" lon="-2.91963">
        <ele>52</ele>
        <time>2018-04-21T08:47:08Z</time>
      </trkpt>
      <trkpt lat="47.54899" lon="-2.91962">
        <ele>52</ele>
        <time>2018-04-21T08:47:10Z</time>
      </trkpt>
      <trkpt lat="47.54905" lon="-2.9196">
        <ele>51</ele>
        <time>2018-04-21T08:47:13Z</time>
      </trkpt>
      <trkpt lat="47.5491" lon="-2.91959">
        <ele>51</ele>
        <time>2018-04-21T08:47:15Z</time>
      </trkpt>
      <trkpt lat="47.54915" lon="-2.91958">
        <ele>51</ele>
        <time>2018-04-21T08:47:18Z</time>
      </trkpt>
      <trkpt lat="47.54919" lon="-2.91958">
        <ele>51</ele>
        <time>2018-04-21T08:47:20Z</time>
      </trkpt>
      <trkpt lat="47.54923" lon="-2.91956">
        <ele>52</ele>
        <time>2018-04-21T08:47:22Z</time>
      </trkpt>
      <trkpt lat="47.54926" lon="-2.91955">
        <ele>51</ele>
        <time>2018-04-21T08:47:23Z</time>
      </trkpt>
      <trkpt lat="47.54931" lon="-2.91955">
        <ele>51</ele>
        <time>2018-04-21T08:47:25Z</time>
      </trkpt>
      <trkpt lat="47.54935" lon="-2.91954">
        <ele>51</ele>
        <time>2018-04-21T08:47:27Z</time>
      </trkpt>
      <trkpt lat="47.54938" lon="-2.91953">
        <ele>51</ele>
        <time>2018-04-21T08:47:28Z</time>
      </trkpt>
      <trkpt lat="47.54943" lon="-2.91952">
        <ele>50</ele>
        <time>2018-04-21T08:47:31Z</time>
      </trkpt>
      <trkpt lat="47.54945" lon="-2.91951">
        <ele>49</ele>
        <time>2018-04-21T08:47:32Z</time>
      </trkpt>
      <trkpt lat="47.54951" lon="-2.9195">
        <ele>49</ele>
        <time>2018-04-21T08:47:35Z</time>
      </trkpt>
      <trkpt lat="47.54957" lon="-2.91949">
        <ele>49</ele>
        <time>2018-04-21T08:47:37Z</time>
      </trkpt>
      <trkpt lat="47.54961" lon="-2.91948">
        <ele>49</ele>
        <time>2018-04-21T08:47:39Z</time>
      </trkpt>
      <trkpt lat="47.54967" lon="-2.91949">
        <ele>51</ele>
        <time>2018-04-21T08:47:41Z</time>
      </trkpt>
      <trkpt lat="47.54972" lon="-2.9195">
        <ele>51</ele>
        <time>2018-04-21T08:47:43Z</time>
      </trkpt>
      <trkpt lat="47.54979" lon="-2.91948">
        <ele>53</ele>
        <time>2018-04-21T08:47:46Z</time>
      </trkpt>
      <trkpt lat="47.54983" lon="-2.91947">
        <ele>53</ele>
        <time>2018-04-21T08:47:48Z</time>
      </trkpt>
      <trkpt lat="47.54985" lon="-2.91947">
        <ele>53</ele>
        <time>2018-04-21T08:47:49Z</time>
      </trkpt>
      <trkpt lat="47.54991" lon="-2.91947">
        <ele>53</ele>
        <time>2018-04-21T08:47:51Z</time>
      </trkpt>
      <trkpt lat="47.54996" lon="-2.91945">
        <ele>53</ele>
        <time>2018-04-21T08:47:53Z</time>
      </trkpt>
      <trkpt lat="47.55" lon="-2.91942">
        <ele>53</ele>
        <time>2018-04-21T08:47:55Z</time>
      </trkpt>
      <trkpt lat="47.55005" lon="-2.91941">
        <ele>51</ele>
        <time>2018-04-21T08:47:58Z</time>
      </trkpt>
      <trkpt lat="47.55012" lon="-2.9194">
        <ele>52</ele>
        <time>2018-04-21T08:48:01Z</time>
      </trkpt>
      <trkpt lat="47.55015" lon="-2.9194">
        <ele>53</ele>
        <time>2018-04-21T08:48:02Z</time>
      </trkpt>
      <trkpt lat="47.55019" lon="-2.91939">
        <ele>53</ele>
        <time>2018-04-21T08:48:03Z</time>
      </trkpt>
      <trkpt lat="47.55024" lon="-2.91937">
        <ele>52</ele>
        <time>2018-04-21T08:48:06Z</time>
      </trkpt>
      <trkpt lat="47.55026" lon="-2.91936">
        <ele>53</ele>
        <time>2018-04-21T08:48:07Z</time>
      </trkpt>
      <trkpt lat="47.55029" lon="-2.91936">
        <ele>54</ele>
        <time>2018-04-21T08:48:08Z</time>
      </trkpt>
      <trkpt lat="47.55033" lon="-2.91934">
        <ele>54</ele>
        <time>2018-04-21T08:48:10Z</time>
      </trkpt>
      <trkpt lat="47.55037" lon="-2.91933">
        <ele>54</ele>
        <time>2018-04-21T08:48:12Z</time>
      </trkpt>
      <trkpt lat="47.55039" lon="-2.91932">
        <ele>55</ele>
        <time>2018-04-21T08:48:13Z</time>
      </trkpt>
      <trkpt lat="47.55043" lon="-2.9193">
        <ele>55</ele>
        <time>2018-04-21T08:48:15Z</time>
      </trkpt>
      <trkpt lat="47.55048" lon="-2.91928">
        <ele>55</ele>
        <time>2018-04-21T08:48:17Z</time>
      </trkpt>
      <trkpt lat="47.55054" lon="-2.91925">
        <ele>55</ele>
        <time>2018-04-21T08:48:20Z</time>
      </trkpt>
      <trkpt lat="47.55059" lon="-2.91924">
        <ele>55</ele>
        <time>2018-04-21T08:48:22Z</time>
      </trkpt>
      <trkpt lat="47.55061" lon="-2.91924">
        <ele>55</ele>
        <time>2018-04-21T08:48:23Z</time>
      </trkpt>
      <trkpt lat="47.55067" lon="-2.91921">
        <ele>55</ele>
        <time>2018-04-21T08:48:26Z</time>
      </trkpt>
      <trkpt lat="47.55073" lon="-2.91919">
        <ele>55</ele>
        <time>2018-04-21T08:48:29Z</time>
      </trkpt>
      <trkpt lat="47.55078" lon="-2.91917">
        <ele>56</ele>
        <time>2018-04-21T08:48:31Z</time>
      </trkpt>
      <trkpt lat="47.55082" lon="-2.91915">
        <ele>55</ele>
        <time>2018-04-21T08:48:33Z</time>
      </trkpt>
      <trkpt lat="47.55087" lon="-2.91913">
        <ele>55</ele>
        <time>2018-04-21T08:48:35Z</time>
      </trkpt>
      <trkpt lat="47.55091" lon="-2.91912">
        <ele>55</ele>
        <time>2018-04-21T08:48:37Z</time>
      </trkpt>
      <trkpt lat="47.55095" lon="-2.9191">
        <ele>55</ele>
        <time>2018-04-21T08:48:39Z</time>
      </trkpt>
      <trkpt lat="47.55097" lon="-2.91909">
        <ele>55</ele>
        <time>2018-04-21T08:48:40Z</time>
      </trkpt>
      <trkpt lat="47.55103" lon="-2.91907">
        <ele>53</ele>
        <time>2018-04-21T08:48:42Z</time>
      </trkpt>
      <trkpt lat="47.55107" lon="-2.91905">
        <ele>54</ele>
        <time>2018-04-21T08:48:44Z</time>
      </trkpt>
      <trkpt lat="47.55111" lon="-2.91904">
        <ele>54</ele>
        <time>2018-04-21T08:48:46Z</time>
      </trkpt>
      <trkpt lat="47.55116" lon="-2.91903">
        <ele>56</ele>
        <time>2018-04-21T08:48:48Z</time>
      </trkpt>
      <trkpt lat="47.5512" lon="-2.91902">
        <ele>56</ele>
        <time>2018-04-21T08:48:50Z</time>
      </trkpt>
      <trkpt lat="47.55127" lon="-2.919">
        <ele>56</ele>
        <time>2018-04-21T08:48:53Z</time>
      </trkpt>
      <trkpt lat="47.55132" lon="-2.91898">
        <ele>56</ele>
        <time>2018-04-21T08:48:55Z</time>
      </trkpt>
      <trkpt lat="47.55135" lon="-2.91897">
        <ele>56</ele>
        <time>2018-04-21T08:48:57Z</time>
      </trkpt>
      <trkpt lat="47.55142" lon="-2.91896">
        <ele>55</ele>
        <time>2018-04-21T08:49:00Z</time>
      </trkpt>
      <trkpt lat="47.55147" lon="-2.91897">
        <ele>54</ele>
        <time>2018-04-21T08:49:02Z</time>
      </trkpt>
      <trkpt lat="47.55152" lon="-2.91894">
        <ele>53</ele>
        <time>2018-04-21T08:49:05Z</time>
      </trkpt>
      <trkpt lat="47.55159" lon="-2.91892">
        <ele>53</ele>
        <time>2018-04-21T08:49:08Z</time>
      </trkpt>
      <trkpt lat="47.55164" lon="-2.91891">
        <ele>53</ele>
        <time>2018-04-21T08:49:10Z</time>
      </trkpt>
      <trkpt lat="47.55169" lon="-2.91889">
        <ele>53</ele>
        <time>2018-04-21T08:49:12Z</time>
      </trkpt>
      <trkpt lat="47.55171" lon="-2.91888">
        <ele>53</ele>
        <time>2018-04-21T08:49:13Z</time>
      </trkpt>
      <trkpt lat="47.55176" lon="-2.91887">
        <ele>54</ele>
        <time>2018-04-21T08:49:15Z</time>
      </trkpt>
      <trkpt lat="47.55181" lon="-2.91885">
        <ele>53</ele>
        <time>2018-04-21T08:49:17Z</time>
      </trkpt>
      <trkpt lat="47.55185" lon="-2.91883">
        <ele>53</ele>
        <time>2018-04-21T08:49:19Z</time>
      </trkpt>
      <trkpt lat="47.5519" lon="-2.91881">
        <ele>53</ele>
        <time>2018-04-21T08:49:21Z</time>
      </trkpt>
      <trkpt lat="47.55194" lon="-2.91879">
        <ele>53</ele>
        <time>2018-04-21T08:49:23Z</time>
      </trkpt>
      <trkpt lat="47.55197" lon="-2.91877">
        <ele>53</ele>
        <time>2018-04-21T08:49:24Z</time>
      </trkpt>
      <trkpt lat="47.55201" lon="-2.91875">
        <ele>52</ele>
        <time>2018-04-21T08:49:26Z</time>
      </trkpt>
      <trkpt lat="47.55206" lon="-2.91872">
        <ele>52</ele>
        <time>2018-04-21T08:49:28Z</time>
      </trkpt>
      <trkpt lat="47.55211" lon="-2.9187">
        <ele>52</ele>
        <time>2018-04-21T08:49:30Z</time>
      </trkpt>
      <trkpt lat="47.55216" lon="-2.91868">
        <ele>51</ele>
        <time>2018-04-21T08:49:32Z</time>
      </trkpt>
      <trkpt lat="47.55218" lon="-2.91867">
        <ele>51</ele>
        <time>2018-04-21T08:49:33Z</time>
      </trkpt>
      <trkpt lat="47.55225" lon="-2.91863">
        <ele>51</ele>
        <time>2018-04-21T08:49:36Z</time>
      </trkpt>
      <trkpt lat="47.55232" lon="-2.9186">
        <ele>52</ele>
        <time>2018-04-21T08:49:39Z</time>
      </trkpt>
      <trkpt lat="47.55237" lon="-2.91855">
        <ele>51</ele>
        <time>2018-04-21T08:49:42Z</time>
      </trkpt>
      <trkpt lat="47.55242" lon="-2.91853">
        <ele>51</ele>
        <time>2018-04-21T08:49:44Z</time>
      </trkpt>
      <trkpt lat="47.55248" lon="-2.91849">
        <ele>51</ele>
        <time>2018-04-21T08:49:47Z</time>
      </trkpt>
      <trkpt lat="47.55252" lon="-2.91847">
        <ele>51</ele>
        <time>2018-04-21T08:49:49Z</time>
      </trkpt>
      <trkpt lat="47.55257" lon="-2.91845">
        <ele>51</ele>
        <time>2018-04-21T08:49:51Z</time>
      </trkpt>
      <trkpt lat="47.55259" lon="-2.91844">
        <ele>51</ele>
        <time>2018-04-21T08:49:52Z</time>
      </trkpt>
      <trkpt lat="47.55261" lon="-2.91842">
        <ele>52</ele>
        <time>2018-04-21T08:49:53Z</time>
      </trkpt>
      <trkpt lat="47.55266" lon="-2.9184">
        <ele>52</ele>
        <time>2018-04-21T08:49:55Z</time>
      </trkpt>
      <trkpt lat="47.5527" lon="-2.91837">
        <ele>52</ele>
        <time>2018-04-21T08:49:57Z</time>
      </trkpt>
      <trkpt lat="47.55274" lon="-2.91835">
        <ele>52</ele>
        <time>2018-04-21T08:49:59Z</time>
      </trkpt>
      <trkpt lat="47.55279" lon="-2.91833">
        <ele>52</ele>
        <time>2018-04-21T08:50:01Z</time>
      </trkpt>
      <trkpt lat="47.55283" lon="-2.91831">
        <ele>52</ele>
        <time>2018-04-21T08:50:03Z</time>
      </trkpt>
      <trkpt lat="47.55288" lon="-2.91831">
        <ele>52</ele>
        <time>2018-04-21T08:50:05Z</time>
      </trkpt>
      <trkpt lat="47.55292" lon="-2.91828">
        <ele>52</ele>
        <time>2018-04-21T08:50:07Z</time>
      </trkpt>
      <trkpt lat="47.55298" lon="-2.91826">
        <ele>51</ele>
        <time>2018-04-21T08:50:10Z</time>
      </trkpt>
      <trkpt lat="47.55302" lon="-2.91824">
        <ele>51</ele>
        <time>2018-04-21T08:50:12Z</time>
      </trkpt>
      <trkpt lat="47.55308" lon="-2.91819">
        <ele>51</ele>
        <time>2018-04-21T08:50:15Z</time>
      </trkpt>
      <trkpt lat="47.5531" lon="-2.91818">
        <ele>51</ele>
        <time>2018-04-21T08:50:16Z</time>
      </trkpt>
      <trkpt lat="47.55317" lon="-2.91816">
        <ele>52</ele>
        <time>2018-04-21T08:50:19Z</time>
      </trkpt>
      <trkpt lat="47.55322" lon="-2.91814">
        <ele>52</ele>
        <time>2018-04-21T08:50:21Z</time>
      </trkpt>
      <trkpt lat="47.55328" lon="-2.91812">
        <ele>51</ele>
        <time>2018-04-21T08:50:24Z</time>
      </trkpt>
      <trkpt lat="47.55332" lon="-2.9181">
        <ele>51</ele>
        <time>2018-04-21T08:50:26Z</time>
      </trkpt>
      <trkpt lat="47.55336" lon="-2.91807">
        <ele>51</ele>
        <time>2018-04-21T08:50:28Z</time>
      </trkpt>
      <trkpt lat="47.55341" lon="-2.91803">
        <ele>51</ele>
        <time>2018-04-21T08:50:31Z</time>
      </trkpt>
      <trkpt lat="47.55346" lon="-2.91802">
        <ele>50</ele>
        <time>2018-04-21T08:50:33Z</time>
      </trkpt>
      <trkpt lat="47.5535" lon="-2.91801">
        <ele>51</ele>
        <time>2018-04-21T08:50:35Z</time>
      </trkpt>
      <trkpt lat="47.55356" lon="-2.91798">
        <ele>51</ele>
        <time>2018-04-21T08:50:38Z</time>
      </trkpt>
      <trkpt lat="47.55361" lon="-2.91795">
        <ele>51</ele>
        <time>2018-04-21T08:50:40Z</time>
      </trkpt>
      <trkpt lat="47.55365" lon="-2.91793">
        <ele>51</ele>
        <time>2018-04-21T08:50:42Z</time>
      </trkpt>
      <trkpt lat="47.55368" lon="-2.91792">
        <ele>51</ele>
        <time>2018-04-21T08:50:43Z</time>
      </trkpt>
      <trkpt lat="47.55371" lon="-2.91788">
        <ele>51</ele>
        <time>2018-04-21T08:50:45Z</time>
      </trkpt>
      <trkpt lat="47.55376" lon="-2.91785">
        <ele>52</ele>
        <time>2018-04-21T08:50:47Z</time>
      </trkpt>
      <trkpt lat="47.55379" lon="-2.91784">
        <ele>52</ele>
        <time>2018-04-21T08:50:48Z</time>
      </trkpt>
      <trkpt lat="47.55383" lon="-2.91782">
        <ele>52</ele>
        <time>2018-04-21T08:50:50Z</time>
      </trkpt>
      <trkpt lat="47.55385" lon="-2.91781">
        <ele>51</ele>
        <time>2018-04-21T08:50:51Z</time>
      </trkpt>
      <trkpt lat="47.55389" lon="-2.91779">
        <ele>50</ele>
        <time>2018-04-21T08:50:53Z</time>
      </trkpt>
      <trkpt lat="47.55394" lon="-2.91775">
        <ele>50</ele>
        <time>2018-04-21T08:50:56Z</time>
      </trkpt>
      <trkpt lat="47.55399" lon="-2.91773">
        <ele>50</ele>
        <time>2018-04-21T08:50:58Z</time>
      </trkpt>
      <trkpt lat="47.55404" lon="-2.91771">
        <ele>50</ele>
        <time>2018-04-21T08:51:00Z</time>
      </trkpt>
      <trkpt lat="47.5541" lon="-2.91767">
        <ele>51</ele>
        <time>2018-04-21T08:51:03Z</time>
      </trkpt>
      <trkpt lat="47.55414" lon="-2.91765">
        <ele>50</ele>
        <time>2018-04-21T08:51:05Z</time>
      </trkpt>
      <trkpt lat="47.55417" lon="-2.91764">
        <ele>51</ele>
        <time>2018-04-21T08:51:06Z</time>
      </trkpt>
      <trkpt lat="47.55421" lon="-2.91762">
        <ele>50</ele>
        <time>2018-04-21T08:51:08Z</time>
      </trkpt>
      <trkpt lat="47.55425" lon="-2.9176">
        <ele>51</ele>
        <time>2018-04-21T08:51:10Z</time>
      </trkpt>
      <trkpt lat="47.55431" lon="-2.91757">
        <ele>51</ele>
        <time>2018-04-21T08:51:13Z</time>
      </trkpt>
      <trkpt lat="47.55434" lon="-2.91755">
        <ele>51</ele>
        <time>2018-04-21T08:51:14Z</time>
      </trkpt>
      <trkpt lat="47.55436" lon="-2.91754">
        <ele>51</ele>
        <time>2018-04-21T08:51:15Z</time>
      </trkpt>
      <trkpt lat="47.55441" lon="-2.91751">
        <ele>52</ele>
        <time>2018-04-21T08:51:17Z</time>
      </trkpt>
      <trkpt lat="47.55444" lon="-2.91749">
        <ele>52</ele>
        <time>2018-04-21T08:51:19Z</time>
      </trkpt>
      <trkpt lat="47.55451" lon="-2.91746">
        <ele>53</ele>
        <time>2018-04-21T08:51:22Z</time>
      </trkpt>
      <trkpt lat="47.55455" lon="-2.91744">
        <ele>52</ele>
        <time>2018-04-21T08:51:24Z</time>
      </trkpt>
      <trkpt lat="47.55459" lon="-2.91742">
        <ele>52</ele>
        <time>2018-04-21T08:51:26Z</time>
      </trkpt>
      <trkpt lat="47.55464" lon="-2.9174">
        <ele>52</ele>
        <time>2018-04-21T08:51:28Z</time>
      </trkpt>
      <trkpt lat="47.55467" lon="-2.91739">
        <ele>51</ele>
        <time>2018-04-21T08:51:30Z</time>
      </trkpt>
      <trkpt lat="47.55472" lon="-2.91736">
        <ele>52</ele>
        <time>2018-04-21T08:51:32Z</time>
      </trkpt>
      <trkpt lat="47.55475" lon="-2.91733">
        <ele>53</ele>
        <time>2018-04-21T08:51:34Z</time>
      </trkpt>
      <trkpt lat="47.55479" lon="-2.91727">
        <ele>52</ele>
        <time>2018-04-21T08:51:37Z</time>
      </trkpt>
      <trkpt lat="47.55484" lon="-2.91723">
        <ele>51</ele>
        <time>2018-04-21T08:51:39Z</time>
      </trkpt>
      <trkpt lat="47.55487" lon="-2.91721">
        <ele>52</ele>
        <time>2018-04-21T08:51:40Z</time>
      </trkpt>
      <trkpt lat="47.5549" lon="-2.91718">
        <ele>52</ele>
        <time>2018-04-21T08:51:42Z</time>
      </trkpt>
      <trkpt lat="47.55496" lon="-2.91715">
        <ele>52</ele>
        <time>2018-04-21T08:51:45Z</time>
      </trkpt>
      <trkpt lat="47.555" lon="-2.91713">
        <ele>53</ele>
        <time>2018-04-21T08:51:47Z</time>
      </trkpt>
      <trkpt lat="47.55503" lon="-2.91711">
        <ele>53</ele>
        <time>2018-04-21T08:51:49Z</time>
      </trkpt>
      <trkpt lat="47.55509" lon="-2.9171">
        <ele>53</ele>
        <time>2018-04-21T08:51:52Z</time>
      </trkpt>
      <trkpt lat="47.55514" lon="-2.91709">
        <ele>52</ele>
        <time>2018-04-21T08:51:54Z</time>
      </trkpt>
      <trkpt lat="47.55518" lon="-2.91709">
        <ele>52</ele>
        <time>2018-04-21T08:51:56Z</time>
      </trkpt>
      <trkpt lat="47.55523" lon="-2.9171">
        <ele>53</ele>
        <time>2018-04-21T08:51:58Z</time>
      </trkpt>
      <trkpt lat="47.55525" lon="-2.9171">
        <ele>53</ele>
        <time>2018-04-21T08:51:59Z</time>
      </trkpt>
      <trkpt lat="47.5553" lon="-2.9171">
        <ele>53</ele>
        <time>2018-04-21T08:52:01Z</time>
      </trkpt>
      <trkpt lat="47.55532" lon="-2.9171">
        <ele>53</ele>
        <time>2018-04-21T08:52:02Z</time>
      </trkpt>
      <trkpt lat="47.55536" lon="-2.91709">
        <ele>53</ele>
        <time>2018-04-21T08:52:04Z</time>
      </trkpt>
      <trkpt lat="47.55539" lon="-2.91708">
        <ele>53</ele>
        <time>2018-04-21T08:52:05Z</time>
      </trkpt>
      <trkpt lat="47.55543" lon="-2.91707">
        <ele>54</ele>
        <time>2018-04-21T08:52:07Z</time>
      </trkpt>
      <trkpt lat="47.55546" lon="-2.91707">
        <ele>53</ele>
        <time>2018-04-21T08:52:08Z</time>
      </trkpt>
      <trkpt lat="47.55548" lon="-2.91707">
        <ele>54</ele>
        <time>2018-04-21T08:52:09Z</time>
      </trkpt>
      <trkpt lat="47.55555" lon="-2.91704">
        <ele>54</ele>
        <time>2018-04-21T08:52:12Z</time>
      </trkpt>
      <trkpt lat="47.55559" lon="-2.91703">
        <ele>54</ele>
        <time>2018-04-21T08:52:14Z</time>
      </trkpt>
      <trkpt lat="47.55565" lon="-2.91704">
        <ele>54</ele>
        <time>2018-04-21T08:52:17Z</time>
      </trkpt>
      <trkpt lat="47.55568" lon="-2.91704">
        <ele>55</ele>
        <time>2018-04-21T08:52:18Z</time>
      </trkpt>
      <trkpt lat="47.55574" lon="-2.91707">
        <ele>54</ele>
        <time>2018-04-21T08:52:21Z</time>
      </trkpt>
      <trkpt lat="47.55579" lon="-2.91708">
        <ele>54</ele>
        <time>2018-04-21T08:52:23Z</time>
      </trkpt>
      <trkpt lat="47.55583" lon="-2.9171">
        <ele>54</ele>
        <time>2018-04-21T08:52:25Z</time>
      </trkpt>
      <trkpt lat="47.55586" lon="-2.91712">
        <ele>54</ele>
        <time>2018-04-21T08:52:27Z</time>
      </trkpt>
      <trkpt lat="47.55591" lon="-2.91713">
        <ele>54</ele>
        <time>2018-04-21T08:52:29Z</time>
      </trkpt>
      <trkpt lat="47.55597" lon="-2.91712">
        <ele>54</ele>
        <time>2018-04-21T08:52:32Z</time>
      </trkpt>
      <trkpt lat="47.55601" lon="-2.91709">
        <ele>55</ele>
        <time>2018-04-21T08:52:34Z</time>
      </trkpt>
      <trkpt lat="47.55608" lon="-2.91706">
        <ele>54</ele>
        <time>2018-04-21T08:52:37Z</time>
      </trkpt>
      <trkpt lat="47.55613" lon="-2.917">
        <ele>54</ele>
        <time>2018-04-21T08:52:40Z</time>
      </trkpt>
      <trkpt lat="47.55617" lon="-2.91694">
        <ele>54</ele>
        <time>2018-04-21T08:52:43Z</time>
      </trkpt>
      <trkpt lat="47.5562" lon="-2.9169">
        <ele>54</ele>
        <time>2018-04-21T08:52:45Z</time>
      </trkpt>
      <trkpt lat="47.55623" lon="-2.91685">
        <ele>54</ele>
        <time>2018-04-21T08:52:47Z</time>
      </trkpt>
      <trkpt lat="47.55627" lon="-2.91681">
        <ele>54</ele>
        <time>2018-04-21T08:52:49Z</time>
      </trkpt>
      <trkpt lat="47.55629" lon="-2.91679">
        <ele>54</ele>
        <time>2018-04-21T08:52:50Z</time>
      </trkpt>
      <trkpt lat="47.55632" lon="-2.91676">
        <ele>53</ele>
        <time>2018-04-21T08:52:52Z</time>
      </trkpt>
      <trkpt lat="47.55637" lon="-2.91672">
        <ele>53</ele>
        <time>2018-04-21T08:52:55Z</time>
      </trkpt>
      <trkpt lat="47.55641" lon="-2.9167">
        <ele>53</ele>
        <time>2018-04-21T08:52:59Z</time>
      </trkpt>
      <trkpt lat="47.55644" lon="-2.91669">
        <ele>53</ele>
        <time>2018-04-21T08:53:01Z</time>
      </trkpt>
      <trkpt lat="47.55651" lon="-2.91667">
        <ele>55</ele>
        <time>2018-04-21T08:53:05Z</time>
      </trkpt>
      <trkpt lat="47.55654" lon="-2.91665">
        <ele>54</ele>
        <time>2018-04-21T08:53:08Z</time>
      </trkpt>
      <trkpt lat="47.55656" lon="-2.91664">
        <ele>55</ele>
        <time>2018-04-21T08:53:10Z</time>
      </trkpt>
      <trkpt lat="47.55659" lon="-2.91664">
        <ele>55</ele>
        <time>2018-04-21T08:53:13Z</time>
      </trkpt>
      <trkpt lat="47.55662" lon="-2.91663">
        <ele>54</ele>
        <time>2018-04-21T08:53:15Z</time>
      </trkpt>
      <trkpt lat="47.55666" lon="-2.91659">
        <ele>54</ele>
        <time>2018-04-21T08:53:18Z</time>
      </trkpt>
      <trkpt lat="47.55672" lon="-2.91655">
        <ele>53</ele>
        <time>2018-04-21T08:53:20Z</time>
      </trkpt>
      <trkpt lat="47.55675" lon="-2.91654">
        <ele>53</ele>
        <time>2018-04-21T08:53:22Z</time>
      </trkpt>
      <trkpt lat="47.55679" lon="-2.91648">
        <ele>52</ele>
        <time>2018-04-21T08:53:25Z</time>
      </trkpt>
      <trkpt lat="47.55683" lon="-2.91645">
        <ele>52</ele>
        <time>2018-04-21T08:53:27Z</time>
      </trkpt>
      <trkpt lat="47.55688" lon="-2.9164">
        <ele>52</ele>
        <time>2018-04-21T08:53:30Z</time>
      </trkpt>
      <trkpt lat="47.55695" lon="-2.91636">
        <ele>53</ele>
        <time>2018-04-21T08:53:32Z</time>
      </trkpt>
      <trkpt lat="47.557" lon="-2.91633">
        <ele>54</ele>
        <time>2018-04-21T08:53:34Z</time>
      </trkpt>
      <trkpt lat="47.55703" lon="-2.91629">
        <ele>53</ele>
        <time>2018-04-21T08:53:37Z</time>
      </trkpt>
      <trkpt lat="47.55705" lon="-2.91627">
        <ele>53</ele>
        <time>2018-04-21T08:53:38Z</time>
      </trkpt>
      <trkpt lat="47.5571" lon="-2.91623">
        <ele>54</ele>
        <time>2018-04-21T08:53:39Z</time>
      </trkpt>
      <trkpt lat="47.55714" lon="-2.91618">
        <ele>53</ele>
        <time>2018-04-21T08:53:42Z</time>
      </trkpt>
      <trkpt lat="47.55716" lon="-2.91616">
        <ele>53</ele>
        <time>2018-04-21T08:53:43Z</time>
      </trkpt>
      <trkpt lat="47.55718" lon="-2.91614">
        <ele>53</ele>
        <time>2018-04-21T08:53:45Z</time>
      </trkpt>
      <trkpt lat="47.55722" lon="-2.91609">
        <ele>53</ele>
        <time>2018-04-21T08:53:47Z</time>
      </trkpt>
      <trkpt lat="47.55728" lon="-2.91604">
        <ele>53</ele>
        <time>2018-04-21T08:53:49Z</time>
      </trkpt>
      <trkpt lat="47.5573" lon="-2.91602">
        <ele>53</ele>
        <time>2018-04-21T08:53:50Z</time>
      </trkpt>
      <trkpt lat="47.55734" lon="-2.91598">
        <ele>53</ele>
        <time>2018-04-21T08:53:52Z</time>
      </trkpt>
      <trkpt lat="47.55738" lon="-2.91592">
        <ele>53</ele>
        <time>2018-04-21T08:53:55Z</time>
      </trkpt>
      <trkpt lat="47.5574" lon="-2.91588">
        <ele>52</ele>
        <time>2018-04-21T08:53:57Z</time>
      </trkpt>
      <trkpt lat="47.55744" lon="-2.91582">
        <ele>52</ele>
        <time>2018-04-21T08:54:00Z</time>
      </trkpt>
      <trkpt lat="47.55746" lon="-2.91578">
        <ele>52</ele>
        <time>2018-04-21T08:54:02Z</time>
      </trkpt>
      <trkpt lat="47.55749" lon="-2.91575">
        <ele>51</ele>
        <time>2018-04-21T08:54:05Z</time>
      </trkpt>
      <trkpt lat="47.55752" lon="-2.91572">
        <ele>50</ele>
        <time>2018-04-21T08:54:07Z</time>
      </trkpt>
      <trkpt lat="47.55756" lon="-2.91566">
        <ele>51</ele>
        <time>2018-04-21T08:54:10Z</time>
      </trkpt>
      <trkpt lat="47.55758" lon="-2.91561">
        <ele>51</ele>
        <time>2018-04-21T08:54:12Z</time>
      </trkpt>
      <trkpt lat="47.55761" lon="-2.91557">
        <ele>50</ele>
        <time>2018-04-21T08:54:14Z</time>
      </trkpt>
      <trkpt lat="47.55766" lon="-2.91552">
        <ele>50</ele>
        <time>2018-04-21T08:54:17Z</time>
      </trkpt>
      <trkpt lat="47.55768" lon="-2.9155">
        <ele>51</ele>
        <time>2018-04-21T08:54:18Z</time>
      </trkpt>
      <trkpt lat="47.55772" lon="-2.91547">
        <ele>50</ele>
        <time>2018-04-21T08:54:20Z</time>
      </trkpt>
      <trkpt lat="47.55775" lon="-2.91543">
        <ele>51</ele>
        <time>2018-04-21T08:54:22Z</time>
      </trkpt>
      <trkpt lat="47.55779" lon="-2.91539">
        <ele>51</ele>
        <time>2018-04-21T08:54:24Z</time>
      </trkpt>
      <trkpt lat="47.55783" lon="-2.91536">
        <ele>50</ele>
        <time>2018-04-21T08:54:26Z</time>
      </trkpt>
      <trkpt lat="47.55788" lon="-2.91531">
        <ele>50</ele>
        <time>2018-04-21T08:54:29Z</time>
      </trkpt>
      <trkpt lat="47.55791" lon="-2.91528">
        <ele>49</ele>
        <time>2018-04-21T08:54:31Z</time>
      </trkpt>
      <trkpt lat="47.55793" lon="-2.91526">
        <ele>50</ele>
        <time>2018-04-21T08:54:32Z</time>
      </trkpt>
      <trkpt lat="47.55798" lon="-2.91521">
        <ele>50</ele>
        <time>2018-04-21T08:54:35Z</time>
      </trkpt>
      <trkpt lat="47.55801" lon="-2.91516">
        <ele>50</ele>
        <time>2018-04-21T08:54:38Z</time>
      </trkpt>
      <trkpt lat="47.55806" lon="-2.91512">
        <ele>50</ele>
        <time>2018-04-21T08:54:42Z</time>
      </trkpt>
      <trkpt lat="47.55811" lon="-2.9151">
        <ele>51</ele>
        <time>2018-04-21T08:54:46Z</time>
      </trkpt>
      <trkpt lat="47.55818" lon="-2.91506">
        <ele>51</ele>
        <time>2018-04-21T08:54:50Z</time>
      </trkpt>
      <trkpt lat="47.55821" lon="-2.91501">
        <ele>51</ele>
        <time>2018-04-21T08:54:53Z</time>
      </trkpt>
      <trkpt lat="47.55823" lon="-2.91499">
        <ele>50</ele>
        <time>2018-04-21T08:54:54Z</time>
      </trkpt>
      <trkpt lat="47.55828" lon="-2.91493">
        <ele>50</ele>
        <time>2018-04-21T08:54:57Z</time>
      </trkpt>
      <trkpt lat="47.55833" lon="-2.91487">
        <ele>51</ele>
        <time>2018-04-21T08:55:00Z</time>
      </trkpt>
      <trkpt lat="47.55837" lon="-2.91483">
        <ele>50</ele>
        <time>2018-04-21T08:55:01Z</time>
      </trkpt>
      <trkpt lat="47.55839" lon="-2.91482">
        <ele>51</ele>
        <time>2018-04-21T08:55:02Z</time>
      </trkpt>
      <trkpt lat="47.55843" lon="-2.91479">
        <ele>51</ele>
        <time>2018-04-21T08:55:04Z</time>
      </trkpt>
      <trkpt lat="47.55846" lon="-2.91475">
        <ele>52</ele>
        <time>2018-04-21T08:55:06Z</time>
      </trkpt>
      <trkpt lat="47.55851" lon="-2.9147">
        <ele>53</ele>
        <time>2018-04-21T08:55:09Z</time>
      </trkpt>
      <trkpt lat="47.55855" lon="-2.91467">
        <ele>54</ele>
        <time>2018-04-21T08:55:11Z</time>
      </trkpt>
      <trkpt lat="47.55859" lon="-2.91464">
        <ele>53</ele>
        <time>2018-04-21T08:55:13Z</time>
      </trkpt>
      <trkpt lat="47.55862" lon="-2.91461">
        <ele>53</ele>
        <time>2018-04-21T08:55:15Z</time>
      </trkpt>
      <trkpt lat="47.55866" lon="-2.91457">
        <ele>52</ele>
        <time>2018-04-21T08:55:17Z</time>
      </trkpt>
      <trkpt lat="47.55871" lon="-2.91451">
        <ele>52</ele>
        <time>2018-04-21T08:55:20Z</time>
      </trkpt>
      <trkpt lat="47.55877" lon="-2.91445">
        <ele>52</ele>
        <time>2018-04-21T08:55:23Z</time>
      </trkpt>
      <trkpt lat="47.55882" lon="-2.91441">
        <ele>53</ele>
        <time>2018-04-21T08:55:26Z</time>
      </trkpt>
      <trkpt lat="47.55887" lon="-2.91439">
        <ele>52</ele>
        <time>2018-04-21T08:55:28Z</time>
      </trkpt>
      <trkpt lat="47.55892" lon="-2.91434">
        <ele>52</ele>
        <time>2018-04-21T08:55:31Z</time>
      </trkpt>
      <trkpt lat="47.55896" lon="-2.9143">
        <ele>51</ele>
        <time>2018-04-21T08:55:33Z</time>
      </trkpt>
      <trkpt lat="47.55899" lon="-2.91426">
        <ele>50</ele>
        <time>2018-04-21T08:55:35Z</time>
      </trkpt>
      <trkpt lat="47.55904" lon="-2.91421">
        <ele>50</ele>
        <time>2018-04-21T08:55:38Z</time>
      </trkpt>
      <trkpt lat="47.55907" lon="-2.91418">
        <ele>50</ele>
        <time>2018-04-21T08:55:40Z</time>
      </trkpt>
      <trkpt lat="47.55912" lon="-2.91415">
        <ele>50</ele>
        <time>2018-04-21T08:55:43Z</time>
      </trkpt>
      <trkpt lat="47.55917" lon="-2.91411">
        <ele>50</ele>
        <time>2018-04-21T08:55:46Z</time>
      </trkpt>
      <trkpt lat="47.55921" lon="-2.91407">
        <ele>50</ele>
        <time>2018-04-21T08:55:49Z</time>
      </trkpt>
      <trkpt lat="47.55923" lon="-2.91405">
        <ele>49</ele>
        <time>2018-04-21T08:55:51Z</time>
      </trkpt>
      <trkpt lat="47.55927" lon="-2.91399">
        <ele>49</ele>
        <time>2018-04-21T08:55:55Z</time>
      </trkpt>
      <trkpt lat="47.55932" lon="-2.91395">
        <ele>49</ele>
        <time>2018-04-21T08:55:58Z</time>
      </trkpt>
      <trkpt lat="47.55937" lon="-2.9139">
        <ele>48</ele>
        <time>2018-04-21T08:56:01Z</time>
      </trkpt>
      <trkpt lat="47.5594" lon="-2.91386">
        <ele>49</ele>
        <time>2018-04-21T08:56:03Z</time>
      </trkpt>
      <trkpt lat="47.55943" lon="-2.91383">
        <ele>50</ele>
        <time>2018-04-21T08:56:05Z</time>
      </trkpt>
      <trkpt lat="47.55946" lon="-2.9138">
        <ele>50</ele>
        <time>2018-04-21T08:56:07Z</time>
      </trkpt>
      <trkpt lat="47.5595" lon="-2.91377">
        <ele>50</ele>
        <time>2018-04-21T08:56:09Z</time>
      </trkpt>
      <trkpt lat="47.55952" lon="-2.91375">
        <ele>50</ele>
        <time>2018-04-21T08:56:11Z</time>
      </trkpt>
      <trkpt lat="47.55958" lon="-2.91371">
        <ele>51</ele>
        <time>2018-04-21T08:56:15Z</time>
      </trkpt>
      <trkpt lat="47.55962" lon="-2.91367">
        <ele>52</ele>
        <time>2018-04-21T08:56:18Z</time>
      </trkpt>
      <trkpt lat="47.55964" lon="-2.91364">
        <ele>52</ele>
        <time>2018-04-21T08:56:20Z</time>
      </trkpt>
      <trkpt lat="47.55966" lon="-2.91362">
        <ele>51</ele>
        <time>2018-04-21T08:56:22Z</time>
      </trkpt>
      <trkpt lat="47.5597" lon="-2.91357">
        <ele>51</ele>
        <time>2018-04-21T08:56:25Z</time>
      </trkpt>
      <trkpt lat="47.55974" lon="-2.91351">
        <ele>51</ele>
        <time>2018-04-21T08:56:28Z</time>
      </trkpt>
      <trkpt lat="47.55976" lon="-2.91348">
        <ele>51</ele>
        <time>2018-04-21T08:56:30Z</time>
      </trkpt>
      <trkpt lat="47.5598" lon="-2.91343">
        <ele>51</ele>
        <time>2018-04-21T08:56:33Z</time>
      </trkpt>
      <trkpt lat="47.55985" lon="-2.91336">
        <ele>50</ele>
        <time>2018-04-21T08:56:36Z</time>
      </trkpt>
      <trkpt lat="47.55988" lon="-2.91332">
        <ele>50</ele>
        <time>2018-04-21T08:56:38Z</time>
      </trkpt>
      <trkpt lat="47.55992" lon="-2.91327">
        <ele>49</ele>
        <time>2018-04-21T08:56:40Z</time>
      </trkpt>
      <trkpt lat="47.55996" lon="-2.91321">
        <ele>49</ele>
        <time>2018-04-21T08:56:43Z</time>
      </trkpt>
      <trkpt lat="47.55999" lon="-2.91317">
        <ele>50</ele>
        <time>2018-04-21T08:56:45Z</time>
      </trkpt>
      <trkpt lat="47.56004" lon="-2.91311">
        <ele>50</ele>
        <time>2018-04-21T08:56:48Z</time>
      </trkpt>
      <trkpt lat="47.56007" lon="-2.91307">
        <ele>50</ele>
        <time>2018-04-21T08:56:50Z</time>
      </trkpt>
      <trkpt lat="47.56012" lon="-2.91302">
        <ele>50</ele>
        <time>2018-04-21T08:56:52Z</time>
      </trkpt>
      <trkpt lat="47.56016" lon="-2.91296">
        <ele>51</ele>
        <time>2018-04-21T08:56:56Z</time>
      </trkpt>
      <trkpt lat="47.56019" lon="-2.91292">
        <ele>51</ele>
        <time>2018-04-21T08:56:57Z</time>
      </trkpt>
      <trkpt lat="47.56023" lon="-2.91289">
        <ele>51</ele>
        <time>2018-04-21T08:56:59Z</time>
      </trkpt>
      <trkpt lat="47.56026" lon="-2.91286">
        <ele>51</ele>
        <time>2018-04-21T08:57:01Z</time>
      </trkpt>
      <trkpt lat="47.56029" lon="-2.91283">
        <ele>51</ele>
        <time>2018-04-21T08:57:04Z</time>
      </trkpt>
      <trkpt lat="47.56034" lon="-2.91279">
        <ele>51</ele>
        <time>2018-04-21T08:57:07Z</time>
      </trkpt>
      <trkpt lat="47.56037" lon="-2.91276">
        <ele>51</ele>
        <time>2018-04-21T08:57:09Z</time>
      </trkpt>
      <trkpt lat="47.56042" lon="-2.91271">
        <ele>51</ele>
        <time>2018-04-21T08:57:11Z</time>
      </trkpt>
      <trkpt lat="47.56046" lon="-2.91268">
        <ele>52</ele>
        <time>2018-04-21T08:57:13Z</time>
      </trkpt>
      <trkpt lat="47.56049" lon="-2.91262">
        <ele>52</ele>
        <time>2018-04-21T08:57:16Z</time>
      </trkpt>
      <trkpt lat="47.56053" lon="-2.91256">
        <ele>51</ele>
        <time>2018-04-21T08:57:19Z</time>
      </trkpt>
      <trkpt lat="47.56057" lon="-2.91251">
        <ele>50</ele>
        <time>2018-04-21T08:57:22Z</time>
      </trkpt>
      <trkpt lat="47.56059" lon="-2.91249">
        <ele>50</ele>
        <time>2018-04-21T08:57:23Z</time>
      </trkpt>
      <trkpt lat="47.56062" lon="-2.91245">
        <ele>52</ele>
        <time>2018-04-21T08:57:25Z</time>
      </trkpt>
      <trkpt lat="47.56064" lon="-2.91243">
        <ele>52</ele>
        <time>2018-04-21T08:57:26Z</time>
      </trkpt>
      <trkpt lat="47.56067" lon="-2.9124">
        <ele>51</ele>
        <time>2018-04-21T08:57:28Z</time>
      </trkpt>
      <trkpt lat="47.56073" lon="-2.91236">
        <ele>52</ele>
        <time>2018-04-21T08:57:31Z</time>
      </trkpt>
      <trkpt lat="47.56078" lon="-2.9123">
        <ele>53</ele>
        <time>2018-04-21T08:57:34Z</time>
      </trkpt>
      <trkpt lat="47.56081" lon="-2.91228">
        <ele>53</ele>
        <time>2018-04-21T08:57:36Z</time>
      </trkpt>
      <trkpt lat="47.56086" lon="-2.91223">
        <ele>52</ele>
        <time>2018-04-21T08:57:39Z</time>
      </trkpt>
      <trkpt lat="47.56091" lon="-2.91218">
        <ele>52</ele>
        <time>2018-04-21T08:57:42Z</time>
      </trkpt>
      <trkpt lat="47.56096" lon="-2.91214">
        <ele>53</ele>
        <time>2018-04-21T08:57:45Z</time>
      </trkpt>
      <trkpt lat="47.56099" lon="-2.91213">
        <ele>52</ele>
        <time>2018-04-21T08:57:47Z</time>
      </trkpt>
      <trkpt lat="47.56102" lon="-2.9121">
        <ele>51</ele>
        <time>2018-04-21T08:57:49Z</time>
      </trkpt>
      <trkpt lat="47.56107" lon="-2.91208">
        <ele>51</ele>
        <time>2018-04-21T08:57:53Z</time>
      </trkpt>
      <trkpt lat="47.56111" lon="-2.91204">
        <ele>51</ele>
        <time>2018-04-21T08:57:56Z</time>
      </trkpt>
      <trkpt lat="47.56114" lon="-2.91201">
        <ele>51</ele>
        <time>2018-04-21T08:57:58Z</time>
      </trkpt>
      <trkpt lat="47.56116" lon="-2.91199">
        <ele>51</ele>
        <time>2018-04-21T08:58:00Z</time>
      </trkpt>
      <trkpt lat="47.56119" lon="-2.91196">
        <ele>51</ele>
        <time>2018-04-21T08:58:02Z</time>
      </trkpt>
      <trkpt lat="47.56124" lon="-2.91193">
        <ele>52</ele>
        <time>2018-04-21T08:58:05Z</time>
      </trkpt>
      <trkpt lat="47.56128" lon="-2.91191">
        <ele>52</ele>
        <time>2018-04-21T08:58:07Z</time>
      </trkpt>
      <trkpt lat="47.56132" lon="-2.91187">
        <ele>52</ele>
        <time>2018-04-21T08:58:10Z</time>
      </trkpt>
      <trkpt lat="47.56136" lon="-2.91183">
        <ele>51</ele>
        <time>2018-04-21T08:58:13Z</time>
      </trkpt>
      <trkpt lat="47.56141" lon="-2.91178">
        <ele>51</ele>
        <time>2018-04-21T08:58:16Z</time>
      </trkpt>
      <trkpt lat="47.56144" lon="-2.91176">
        <ele>52</ele>
        <time>2018-04-21T08:58:18Z</time>
      </trkpt>
      <trkpt lat="47.56147" lon="-2.91173">
        <ele>53</ele>
        <time>2018-04-21T08:58:20Z</time>
      </trkpt>
      <trkpt lat="47.56149" lon="-2.91172">
        <ele>52</ele>
        <time>2018-04-21T08:58:21Z</time>
      </trkpt>
      <trkpt lat="47.56153" lon="-2.91167">
        <ele>52</ele>
        <time>2018-04-21T08:58:24Z</time>
      </trkpt>
      <trkpt lat="47.56158" lon="-2.91164">
        <ele>53</ele>
        <time>2018-04-21T08:58:28Z</time>
      </trkpt>
      <trkpt lat="47.56162" lon="-2.91159">
        <ele>52</ele>
        <time>2018-04-21T08:58:31Z</time>
      </trkpt>
      <trkpt lat="47.56166" lon="-2.91156">
        <ele>52</ele>
        <time>2018-04-21T08:58:33Z</time>
      </trkpt>
      <trkpt lat="47.56169" lon="-2.91152">
        <ele>51</ele>
        <time>2018-04-21T08:58:35Z</time>
      </trkpt>
      <trkpt lat="47.56175" lon="-2.91148">
        <ele>50</ele>
        <time>2018-04-21T08:58:38Z</time>
      </trkpt>
      <trkpt lat="47.56179" lon="-2.91144">
        <ele>50</ele>
        <time>2018-04-21T08:58:41Z</time>
      </trkpt>
      <trkpt lat="47.56182" lon="-2.91141">
        <ele>51</ele>
        <time>2018-04-21T08:58:43Z</time>
      </trkpt>
      <trkpt lat="47.56185" lon="-2.91136">
        <ele>51</ele>
        <time>2018-04-21T08:58:46Z</time>
      </trkpt>
      <trkpt lat="47.56189" lon="-2.91132">
        <ele>52</ele>
        <time>2018-04-21T08:58:49Z</time>
      </trkpt>
      <trkpt lat="47.56191" lon="-2.9113">
        <ele>52</ele>
        <time>2018-04-21T08:58:51Z</time>
      </trkpt>
      <trkpt lat="47.56194" lon="-2.91128">
        <ele>51</ele>
        <time>2018-04-21T08:58:53Z</time>
      </trkpt>
      <trkpt lat="47.56198" lon="-2.91124">
        <ele>51</ele>
        <time>2018-04-21T08:58:56Z</time>
      </trkpt>
      <trkpt lat="47.56201" lon="-2.91122">
        <ele>51</ele>
        <time>2018-04-21T08:58:58Z</time>
      </trkpt>
      <trkpt lat="47.56207" lon="-2.91118">
        <ele>51</ele>
        <time>2018-04-21T08:59:01Z</time>
      </trkpt>
      <trkpt lat="47.56211" lon="-2.91114">
        <ele>51</ele>
        <time>2018-04-21T08:59:04Z</time>
      </trkpt>
      <trkpt lat="47.56215" lon="-2.9111">
        <ele>51</ele>
        <time>2018-04-21T08:59:07Z</time>
      </trkpt>
      <trkpt lat="47.56217" lon="-2.91109">
        <ele>50</ele>
        <time>2018-04-21T08:59:08Z</time>
      </trkpt>
      <trkpt lat="47.56221" lon="-2.91106">
        <ele>50</ele>
        <time>2018-04-21T08:59:10Z</time>
      </trkpt>
      <trkpt lat="47.56225" lon="-2.91102">
        <ele>50</ele>
        <time>2018-04-21T08:59:13Z</time>
      </trkpt>
      <trkpt lat="47.56229" lon="-2.91097">
        <ele>49</ele>
        <time>2018-04-21T08:59:16Z</time>
      </trkpt>
      <trkpt lat="47.56232" lon="-2.91094">
        <ele>49</ele>
        <time>2018-04-21T08:59:18Z</time>
      </trkpt>
      <trkpt lat="47.56236" lon="-2.91089">
        <ele>49</ele>
        <time>2018-04-21T08:59:21Z</time>
      </trkpt>
      <trkpt lat="47.5624" lon="-2.91083">
        <ele>49</ele>
        <time>2018-04-21T08:59:24Z</time>
      </trkpt>
      <trkpt lat="47.56245" lon="-2.91078">
        <ele>49</ele>
        <time>2018-04-21T08:59:27Z</time>
      </trkpt>
      <trkpt lat="47.56249" lon="-2.91072">
        <ele>48</ele>
        <time>2018-04-21T08:59:30Z</time>
      </trkpt>
      <trkpt lat="47.56253" lon="-2.91065">
        <ele>49</ele>
        <time>2018-04-21T08:59:33Z</time>
      </trkpt>
      <trkpt lat="47.56255" lon="-2.91061">
        <ele>50</ele>
        <time>2018-04-21T08:59:35Z</time>
      </trkpt>
      <trkpt lat="47.56259" lon="-2.91057">
        <ele>51</ele>
        <time>2018-04-21T08:59:38Z</time>
      </trkpt>
      <trkpt lat="47.56264" lon="-2.91054">
        <ele>50</ele>
        <time>2018-04-21T08:59:41Z</time>
      </trkpt>
      <trkpt lat="47.56267" lon="-2.91049">
        <ele>51</ele>
        <time>2018-04-21T08:59:44Z</time>
      </trkpt>
      <trkpt lat="47.5627" lon="-2.91044">
        <ele>50</ele>
        <time>2018-04-21T08:59:47Z</time>
      </trkpt>
      <trkpt lat="47.56274" lon="-2.91039">
        <ele>50</ele>
        <time>2018-04-21T08:59:50Z</time>
      </trkpt>
      <trkpt lat="47.56277" lon="-2.91035">
        <ele>50</ele>
        <time>2018-04-21T08:59:53Z</time>
      </trkpt>
      <trkpt lat="47.56281" lon="-2.91028">
        <ele>51</ele>
        <time>2018-04-21T08:59:57Z</time>
      </trkpt>
      <trkpt lat="47.56283" lon="-2.91024">
        <ele>51</ele>
        <time>2018-04-21T08:59:59Z</time>
      </trkpt>
      <trkpt lat="47.56286" lon="-2.91019">
        <ele>51</ele>
        <time>2018-04-21T09:00:02Z</time>
      </trkpt>
      <trkpt lat="47.56291" lon="-2.91013">
        <ele>51</ele>
        <time>2018-04-21T09:00:05Z</time>
      </trkpt>
      <trkpt lat="47.56294" lon="-2.91007">
        <ele>51</ele>
        <time>2018-04-21T09:00:08Z</time>
      </trkpt>
      <trkpt lat="47.56296" lon="-2.91001">
        <ele>51</ele>
        <time>2018-04-21T09:00:11Z</time>
      </trkpt>
      <trkpt lat="47.56301" lon="-2.90996">
        <ele>51</ele>
        <time>2018-04-21T09:00:14Z</time>
      </trkpt>
      <trkpt lat="47.56303" lon="-2.90992">
        <ele>51</ele>
        <time>2018-04-21T09:00:16Z</time>
      </trkpt>
      <trkpt lat="47.56306" lon="-2.90989">
        <ele>51</ele>
        <time>2018-04-21T09:00:18Z</time>
      </trkpt>
      <trkpt lat="47.56309" lon="-2.90983">
        <ele>52</ele>
        <time>2018-04-21T09:00:21Z</time>
      </trkpt>
      <trkpt lat="47.56313" lon="-2.90978">
        <ele>52</ele>
        <time>2018-04-21T09:00:24Z</time>
      </trkpt>
      <trkpt lat="47.56315" lon="-2.90975">
        <ele>52</ele>
        <time>2018-04-21T09:00:26Z</time>
      </trkpt>
      <trkpt lat="47.56318" lon="-2.9097">
        <ele>53</ele>
        <time>2018-04-21T09:00:28Z</time>
      </trkpt>
      <trkpt lat="47.56321" lon="-2.90966">
        <ele>53</ele>
        <time>2018-04-21T09:00:30Z</time>
      </trkpt>
      <trkpt lat="47.56324" lon="-2.90963">
        <ele>54</ele>
        <time>2018-04-21T09:00:32Z</time>
      </trkpt>
      <trkpt lat="47.56327" lon="-2.90957">
        <ele>53</ele>
        <time>2018-04-21T09:00:35Z</time>
      </trkpt>
      <trkpt lat="47.56329" lon="-2.90954">
        <ele>53</ele>
        <time>2018-04-21T09:00:37Z</time>
      </trkpt>
      <trkpt lat="47.56332" lon="-2.90949">
        <ele>53</ele>
        <time>2018-04-21T09:00:40Z</time>
      </trkpt>
      <trkpt lat="47.56335" lon="-2.90946">
        <ele>53</ele>
        <time>2018-04-21T09:00:42Z</time>
      </trkpt>
      <trkpt lat="47.56338" lon="-2.9094">
        <ele>53</ele>
        <time>2018-04-21T09:00:45Z</time>
      </trkpt>
      <trkpt lat="47.5634" lon="-2.90937">
        <ele>53</ele>
        <time>2018-04-21T09:00:47Z</time>
      </trkpt>
      <trkpt lat="47.56344" lon="-2.90931">
        <ele>53</ele>
        <time>2018-04-21T09:00:50Z</time>
      </trkpt>
      <trkpt lat="47.56347" lon="-2.90928">
        <ele>54</ele>
        <time>2018-04-21T09:00:52Z</time>
      </trkpt>
      <trkpt lat="47.56349" lon="-2.90922">
        <ele>53</ele>
        <time>2018-04-21T09:00:55Z</time>
      </trkpt>
      <trkpt lat="47.56351" lon="-2.90917">
        <ele>53</ele>
        <time>2018-04-21T09:00:57Z</time>
      </trkpt>
      <trkpt lat="47.56354" lon="-2.90913">
        <ele>53</ele>
        <time>2018-04-21T09:00:59Z</time>
      </trkpt>
      <trkpt lat="47.56356" lon="-2.90907">
        <ele>53</ele>
        <time>2018-04-21T09:01:02Z</time>
      </trkpt>
      <trkpt lat="47.56358" lon="-2.90902">
        <ele>53</ele>
        <time>2018-04-21T09:01:04Z</time>
      </trkpt>
      <trkpt lat="47.56363" lon="-2.90896">
        <ele>53</ele>
        <time>2018-04-21T09:01:07Z</time>
      </trkpt>
      <trkpt lat="47.56366" lon="-2.9089">
        <ele>53</ele>
        <time>2018-04-21T09:01:10Z</time>
      </trkpt>
      <trkpt lat="47.56368" lon="-2.90886">
        <ele>52</ele>
        <time>2018-04-21T09:01:12Z</time>
      </trkpt>
      <trkpt lat="47.56371" lon="-2.90882">
        <ele>52</ele>
        <time>2018-04-21T09:01:14Z</time>
      </trkpt>
      <trkpt lat="47.56373" lon="-2.90877">
        <ele>52</ele>
        <time>2018-04-21T09:01:16Z</time>
      </trkpt>
      <trkpt lat="47.56376" lon="-2.9087">
        <ele>52</ele>
        <time>2018-04-21T09:01:19Z</time>
      </trkpt>
      <trkpt lat="47.56378" lon="-2.90865">
        <ele>52</ele>
        <time>2018-04-21T09:01:21Z</time>
      </trkpt>
      <trkpt lat="47.5638" lon="-2.90859">
        <ele>53</ele>
        <time>2018-04-21T09:01:24Z</time>
      </trkpt>
      <trkpt lat="47.56382" lon="-2.90854">
        <ele>53</ele>
        <time>2018-04-21T09:01:26Z</time>
      </trkpt>
      <trkpt lat="47.56385" lon="-2.90846">
        <ele>53</ele>
        <time>2018-04-21T09:01:29Z</time>
      </trkpt>
      <trkpt lat="47.56388" lon="-2.9084">
        <ele>53</ele>
        <time>2018-04-21T09:01:32Z</time>
      </trkpt>
      <trkpt lat="47.5639" lon="-2.90836">
        <ele>53</ele>
        <time>2018-04-21T09:01:34Z</time>
      </trkpt>
      <trkpt lat="47.56392" lon="-2.90831">
        <ele>53</ele>
        <time>2018-04-21T09:01:36Z</time>
      </trkpt>
      <trkpt lat="47.56395" lon="-2.90827">
        <ele>52</ele>
        <time>2018-04-21T09:01:38Z</time>
      </trkpt>
      <trkpt lat="47.56396" lon="-2.90823">
        <ele>52</ele>
        <time>2018-04-21T09:01:40Z</time>
      </trkpt>
      <trkpt lat="47.56399" lon="-2.90817">
        <ele>52</ele>
        <time>2018-04-21T09:01:43Z</time>
      </trkpt>
      <trkpt lat="47.564" lon="-2.90812">
        <ele>52</ele>
        <time>2018-04-21T09:01:45Z</time>
      </trkpt>
      <trkpt lat="47.56402" lon="-2.90807">
        <ele>52</ele>
        <time>2018-04-21T09:01:47Z</time>
      </trkpt>
      <trkpt lat="47.56403" lon="-2.90802">
        <ele>51</ele>
        <time>2018-04-21T09:01:49Z</time>
      </trkpt>
      <trkpt lat="47.56406" lon="-2.90795">
        <ele>51</ele>
        <time>2018-04-21T09:01:52Z</time>
      </trkpt>
      <trkpt lat="47.56409" lon="-2.90791">
        <ele>51</ele>
        <time>2018-04-21T09:01:54Z</time>
      </trkpt>
      <trkpt lat="47.56413" lon="-2.90784">
        <ele>51</ele>
        <time>2018-04-21T09:01:57Z</time>
      </trkpt>
      <trkpt lat="47.56416" lon="-2.90777">
        <ele>51</ele>
        <time>2018-04-21T09:02:00Z</time>
      </trkpt>
      <trkpt lat="47.56418" lon="-2.90772">
        <ele>52</ele>
        <time>2018-04-21T09:02:02Z</time>
      </trkpt>
      <trkpt lat="47.5642" lon="-2.90765">
        <ele>51</ele>
        <time>2018-04-21T09:02:05Z</time>
      </trkpt>
      <trkpt lat="47.56423" lon="-2.90758">
        <ele>51</ele>
        <time>2018-04-21T09:02:08Z</time>
      </trkpt>
      <trkpt lat="47.56425" lon="-2.90755">
        <ele>50</ele>
        <time>2018-04-21T09:02:10Z</time>
      </trkpt>
      <trkpt lat="47.56427" lon="-2.9075">
        <ele>50</ele>
        <time>2018-04-21T09:02:12Z</time>
      </trkpt>
      <trkpt lat="47.56429" lon="-2.90744">
        <ele>50</ele>
        <time>2018-04-21T09:02:15Z</time>
      </trkpt>
      <trkpt lat="47.56431" lon="-2.90739">
        <ele>51</ele>
        <time>2018-04-21T09:02:17Z</time>
      </trkpt>
      <trkpt lat="47.56433" lon="-2.90735">
        <ele>51</ele>
        <time>2018-04-21T09:02:19Z</time>
      </trkpt>
      <trkpt lat="47.56434" lon="-2.90731">
        <ele>51</ele>
        <time>2018-04-21T09:02:21Z</time>
      </trkpt>
      <trkpt lat="47.56436" lon="-2.90727">
        <ele>52</ele>
        <time>2018-04-21T09:02:23Z</time>
      </trkpt>
      <trkpt lat="47.56438" lon="-2.9072">
        <ele>52</ele>
        <time>2018-04-21T09:02:26Z</time>
      </trkpt>
      <trkpt lat="47.5644" lon="-2.90714">
        <ele>52</ele>
        <time>2018-04-21T09:02:29Z</time>
      </trkpt>
      <trkpt lat="47.56442" lon="-2.90707">
        <ele>52</ele>
        <time>2018-04-21T09:02:33Z</time>
      </trkpt>
      <trkpt lat="47.56444" lon="-2.90703">
        <ele>52</ele>
        <time>2018-04-21T09:02:35Z</time>
      </trkpt>
      <trkpt lat="47.56446" lon="-2.90697">
        <ele>52</ele>
        <time>2018-04-21T09:02:38Z</time>
      </trkpt>
      <trkpt lat="47.56448" lon="-2.90693">
        <ele>51</ele>
        <time>2018-04-21T09:02:40Z</time>
      </trkpt>
      <trkpt lat="47.56449" lon="-2.90689">
        <ele>51</ele>
        <time>2018-04-21T09:02:42Z</time>
      </trkpt>
      <trkpt lat="47.56451" lon="-2.90682">
        <ele>51</ele>
        <time>2018-04-21T09:02:45Z</time>
      </trkpt>
      <trkpt lat="47.56453" lon="-2.90678">
        <ele>51</ele>
        <time>2018-04-21T09:02:47Z</time>
      </trkpt>
      <trkpt lat="47.56455" lon="-2.90673">
        <ele>51</ele>
        <time>2018-04-21T09:02:49Z</time>
      </trkpt>
      <trkpt lat="47.56458" lon="-2.90666">
        <ele>52</ele>
        <time>2018-04-21T09:02:52Z</time>
      </trkpt>
      <trkpt lat="47.56459" lon="-2.90661">
        <ele>52</ele>
        <time>2018-04-21T09:02:54Z</time>
      </trkpt>
      <trkpt lat="47.56462" lon="-2.90654">
        <ele>51</ele>
        <time>2018-04-21T09:02:57Z</time>
      </trkpt>
      <trkpt lat="47.56465" lon="-2.90649">
        <ele>51</ele>
        <time>2018-04-21T09:03:00Z</time>
      </trkpt>
      <trkpt lat="47.56466" lon="-2.90644">
        <ele>51</ele>
        <time>2018-04-21T09:03:02Z</time>
      </trkpt>
      <trkpt lat="47.56468" lon="-2.90639">
        <ele>51</ele>
        <time>2018-04-21T09:03:04Z</time>
      </trkpt>
      <trkpt lat="47.56471" lon="-2.90634">
        <ele>50</ele>
        <time>2018-04-21T09:03:06Z</time>
      </trkpt>
      <trkpt lat="47.56472" lon="-2.90631">
        <ele>50</ele>
        <time>2018-04-21T09:03:07Z</time>
      </trkpt>
      <trkpt lat="47.56475" lon="-2.90622">
        <ele>50</ele>
        <time>2018-04-21T09:03:10Z</time>
      </trkpt>
      <trkpt lat="47.56477" lon="-2.90616">
        <ele>50</ele>
        <time>2018-04-21T09:03:12Z</time>
      </trkpt>
      <trkpt lat="47.5648" lon="-2.90608">
        <ele>50</ele>
        <time>2018-04-21T09:03:15Z</time>
      </trkpt>
      <trkpt lat="47.56482" lon="-2.90603">
        <ele>51</ele>
        <time>2018-04-21T09:03:17Z</time>
      </trkpt>
      <trkpt lat="47.56484" lon="-2.90598">
        <ele>51</ele>
        <time>2018-04-21T09:03:19Z</time>
      </trkpt>
      <trkpt lat="47.56486" lon="-2.90592">
        <ele>51</ele>
        <time>2018-04-21T09:03:21Z</time>
      </trkpt>
      <trkpt lat="47.56488" lon="-2.90587">
        <ele>51</ele>
        <time>2018-04-21T09:03:23Z</time>
      </trkpt>
      <trkpt lat="47.5649" lon="-2.90582">
        <ele>52</ele>
        <time>2018-04-21T09:03:25Z</time>
      </trkpt>
      <trkpt lat="47.56492" lon="-2.90574">
        <ele>52</ele>
        <time>2018-04-21T09:03:28Z</time>
      </trkpt>
      <trkpt lat="47.56494" lon="-2.90569">
        <ele>52</ele>
        <time>2018-04-21T09:03:30Z</time>
      </trkpt>
      <trkpt lat="47.56495" lon="-2.90563">
        <ele>51</ele>
        <time>2018-04-21T09:03:32Z</time>
      </trkpt>
      <trkpt lat="47.56498" lon="-2.90556">
        <ele>51</ele>
        <time>2018-04-21T09:03:35Z</time>
      </trkpt>
      <trkpt lat="47.56501" lon="-2.90548">
        <ele>51</ele>
        <time>2018-04-21T09:03:38Z</time>
      </trkpt>
      <trkpt lat="47.56504" lon="-2.90541">
        <ele>51</ele>
        <time>2018-04-21T09:03:42Z</time>
      </trkpt>
      <trkpt lat="47.56506" lon="-2.90536">
        <ele>51</ele>
        <time>2018-04-21T09:03:43Z</time>
      </trkpt>
      <trkpt lat="47.56508" lon="-2.90527">
        <ele>51</ele>
        <time>2018-04-21T09:03:46Z</time>
      </trkpt>
      <trkpt lat="47.56511" lon="-2.9052">
        <ele>52</ele>
        <time>2018-04-21T09:03:49Z</time>
      </trkpt>
      <trkpt lat="47.56513" lon="-2.90512">
        <ele>53</ele>
        <time>2018-04-21T09:03:52Z</time>
      </trkpt>
      <trkpt lat="47.56514" lon="-2.90507">
        <ele>53</ele>
        <time>2018-04-21T09:03:54Z</time>
      </trkpt>
      <trkpt lat="47.56517" lon="-2.905">
        <ele>53</ele>
        <time>2018-04-21T09:03:57Z</time>
      </trkpt>
      <trkpt lat="47.56519" lon="-2.90495">
        <ele>53</ele>
        <time>2018-04-21T09:03:59Z</time>
      </trkpt>
      <trkpt lat="47.56521" lon="-2.90489">
        <ele>54</ele>
        <time>2018-04-21T09:04:02Z</time>
      </trkpt>
      <trkpt lat="47.56523" lon="-2.90484">
        <ele>54</ele>
        <time>2018-04-21T09:04:04Z</time>
      </trkpt>
      <trkpt lat="47.56524" lon="-2.9048">
        <ele>54</ele>
        <time>2018-04-21T09:04:06Z</time>
      </trkpt>
      <trkpt lat="47.56526" lon="-2.90473">
        <ele>53</ele>
        <time>2018-04-21T09:04:09Z</time>
      </trkpt>
      <trkpt lat="47.56528" lon="-2.90467">
        <ele>53</ele>
        <time>2018-04-21T09:04:12Z</time>
      </trkpt>
      <trkpt lat="47.5653" lon="-2.90463">
        <ele>53</ele>
        <time>2018-04-21T09:04:14Z</time>
      </trkpt>
      <trkpt lat="47.56532" lon="-2.90455">
        <ele>53</ele>
        <time>2018-04-21T09:04:17Z</time>
      </trkpt>
      <trkpt lat="47.56534" lon="-2.90447">
        <ele>52</ele>
        <time>2018-04-21T09:04:20Z</time>
      </trkpt>
      <trkpt lat="47.56535" lon="-2.90442">
        <ele>52</ele>
        <time>2018-04-21T09:04:22Z</time>
      </trkpt>
      <trkpt lat="47.56536" lon="-2.90437">
        <ele>52</ele>
        <time>2018-04-21T09:04:24Z</time>
      </trkpt>
      <trkpt lat="47.56538" lon="-2.9043">
        <ele>53</ele>
        <time>2018-04-21T09:04:28Z</time>
      </trkpt>
      <trkpt lat="47.56539" lon="-2.90424">
        <ele>53</ele>
        <time>2018-04-21T09:04:31Z</time>
      </trkpt>
      <trkpt lat="47.5654" lon="-2.9042">
        <ele>53</ele>
        <time>2018-04-21T09:04:33Z</time>
      </trkpt>
      <trkpt lat="47.56542" lon="-2.90413">
        <ele>53</ele>
        <time>2018-04-21T09:04:36Z</time>
      </trkpt>
      <trkpt lat="47.56544" lon="-2.90405">
        <ele>53</ele>
        <time>2018-04-21T09:04:39Z</time>
      </trkpt>
      <trkpt lat="47.56545" lon="-2.90401">
        <ele>53</ele>
        <time>2018-04-21T09:04:41Z</time>
      </trkpt>
      <trkpt lat="47.56547" lon="-2.90393">
        <ele>53</ele>
        <time>2018-04-21T09:04:44Z</time>
      </trkpt>
      <trkpt lat="47.56549" lon="-2.90386">
        <ele>54</ele>
        <time>2018-04-21T09:04:47Z</time>
      </trkpt>
      <trkpt lat="47.56551" lon="-2.90381">
        <ele>54</ele>
        <time>2018-04-21T09:04:49Z</time>
      </trkpt>
      <trkpt lat="47.56552" lon="-2.90374">
        <ele>54</ele>
        <time>2018-04-21T09:04:52Z</time>
      </trkpt>
      <trkpt lat="47.56554" lon="-2.90365">
        <ele>55</ele>
        <time>2018-04-21T09:04:56Z</time>
      </trkpt>
      <trkpt lat="47.56555" lon="-2.9036">
        <ele>55</ele>
        <time>2018-04-21T09:04:58Z</time>
      </trkpt>
      <trkpt lat="47.56556" lon="-2.90355">
        <ele>55</ele>
        <time>2018-04-21T09:05:00Z</time>
      </trkpt>
      <trkpt lat="47.56558" lon="-2.9035">
        <ele>55</ele>
        <time>2018-04-21T09:05:02Z</time>
      </trkpt>
      <trkpt lat="47.56559" lon="-2.90344">
        <ele>56</ele>
        <time>2018-04-21T09:05:04Z</time>
      </trkpt>
      <trkpt lat="47.5656" lon="-2.90339">
        <ele>56</ele>
        <time>2018-04-21T09:05:06Z</time>
      </trkpt>
      <trkpt lat="47.56561" lon="-2.90334">
        <ele>56</ele>
        <time>2018-04-21T09:05:08Z</time>
      </trkpt>
      <trkpt lat="47.56562" lon="-2.90326">
        <ele>56</ele>
        <time>2018-04-21T09:05:11Z</time>
      </trkpt>
      <trkpt lat="47.56564" lon="-2.90318">
        <ele>56</ele>
        <time>2018-04-21T09:05:14Z</time>
      </trkpt>
      <trkpt lat="47.56567" lon="-2.9031">
        <ele>56</ele>
        <time>2018-04-21T09:05:17Z</time>
      </trkpt>
      <trkpt lat="47.56568" lon="-2.90306">
        <ele>56</ele>
        <time>2018-04-21T09:05:19Z</time>
      </trkpt>
      <trkpt lat="47.5657" lon="-2.90302">
        <ele>56</ele>
        <time>2018-04-21T09:05:21Z</time>
      </trkpt>
      <trkpt lat="47.56571" lon="-2.90298">
        <ele>56</ele>
        <time>2018-04-21T09:05:24Z</time>
      </trkpt>
      <trkpt lat="47.56573" lon="-2.9029">
        <ele>55</ele>
        <time>2018-04-21T09:05:27Z</time>
      </trkpt>
      <trkpt lat="47.56575" lon="-2.90283">
        <ele>55</ele>
        <time>2018-04-21T09:05:30Z</time>
      </trkpt>
      <trkpt lat="47.56577" lon="-2.90276">
        <ele>55</ele>
        <time>2018-04-21T09:05:33Z</time>
      </trkpt>
      <trkpt lat="47.56578" lon="-2.90271">
        <ele>55</ele>
        <time>2018-04-21T09:05:35Z</time>
      </trkpt>
      <trkpt lat="47.5658" lon="-2.90266">
        <ele>55</ele>
        <time>2018-04-21T09:05:37Z</time>
      </trkpt>
      <trkpt lat="47.56581" lon="-2.90261">
        <ele>55</ele>
        <time>2018-04-21T09:05:39Z</time>
      </trkpt>
      <trkpt lat="47.56582" lon="-2.90256">
        <ele>55</ele>
        <time>2018-04-21T09:05:41Z</time>
      </trkpt>
      <trkpt lat="47.56583" lon="-2.90251">
        <ele>55</ele>
        <time>2018-04-21T09:05:43Z</time>
      </trkpt>
      <trkpt lat="47.56584" lon="-2.90246">
        <ele>55</ele>
        <time>2018-04-21T09:05:45Z</time>
      </trkpt>
      <trkpt lat="47.56585" lon="-2.90241">
        <ele>55</ele>
        <time>2018-04-21T09:05:46Z</time>
      </trkpt>
      <trkpt lat="47.56587" lon="-2.90237">
        <ele>54</ele>
        <time>2018-04-21T09:05:48Z</time>
      </trkpt>
      <trkpt lat="47.56588" lon="-2.90232">
        <ele>54</ele>
        <time>2018-04-21T09:05:50Z</time>
      </trkpt>
      <trkpt lat="47.56592" lon="-2.90224">
        <ele>54</ele>
        <time>2018-04-21T09:05:54Z</time>
      </trkpt>
      <trkpt lat="47.56595" lon="-2.90217">
        <ele>53</ele>
        <time>2018-04-21T09:05:57Z</time>
      </trkpt>
      <trkpt lat="47.56596" lon="-2.90213">
        <ele>53</ele>
        <time>2018-04-21T09:05:59Z</time>
      </trkpt>
      <trkpt lat="47.56597" lon="-2.90209">
        <ele>53</ele>
        <time>2018-04-21T09:06:02Z</time>
      </trkpt>
      <trkpt lat="47.56599" lon="-2.90202">
        <ele>53</ele>
        <time>2018-04-21T09:06:04Z</time>
      </trkpt>
      <trkpt lat="47.56602" lon="-2.90196">
        <ele>53</ele>
        <time>2018-04-21T09:06:07Z</time>
      </trkpt>
      <trkpt lat="47.56603" lon="-2.90192">
        <ele>53</ele>
        <time>2018-04-21T09:06:10Z</time>
      </trkpt>
      <trkpt lat="47.56606" lon="-2.90186">
        <ele>53</ele>
        <time>2018-04-21T09:06:12Z</time>
      </trkpt>
      <trkpt lat="47.56608" lon="-2.90182">
        <ele>53</ele>
        <time>2018-04-21T09:06:14Z</time>
      </trkpt>
      <trkpt lat="47.56609" lon="-2.90179">
        <ele>53</ele>
        <time>2018-04-21T09:06:16Z</time>
      </trkpt>
      <trkpt lat="47.56611" lon="-2.90176">
        <ele>53</ele>
        <time>2018-04-21T09:06:19Z</time>
      </trkpt>
      <trkpt lat="47.56612" lon="-2.90172">
        <ele>54</ele>
        <time>2018-04-21T09:06:20Z</time>
      </trkpt>
      <trkpt lat="47.56614" lon="-2.90164">
        <ele>54</ele>
        <time>2018-04-21T09:06:24Z</time>
      </trkpt>
      <trkpt lat="47.56617" lon="-2.90157">
        <ele>54</ele>
        <time>2018-04-21T09:06:27Z</time>
      </trkpt>
      <trkpt lat="47.56619" lon="-2.90149">
        <ele>55</ele>
        <time>2018-04-21T09:06:30Z</time>
      </trkpt>
      <trkpt lat="47.5662" lon="-2.90145">
        <ele>54</ele>
        <time>2018-04-21T09:06:32Z</time>
      </trkpt>
      <trkpt lat="47.56622" lon="-2.90138">
        <ele>54</ele>
        <time>2018-04-21T09:06:35Z</time>
      </trkpt>
      <trkpt lat="47.56623" lon="-2.90133">
        <ele>54</ele>
        <time>2018-04-21T09:06:37Z</time>
      </trkpt>
      <trkpt lat="47.56624" lon="-2.90128">
        <ele>54</ele>
        <time>2018-04-21T09:06:39Z</time>
      </trkpt>
      <trkpt lat="47.56626" lon="-2.90121">
        <ele>53</ele>
        <time>2018-04-21T09:06:42Z</time>
      </trkpt>
      <trkpt lat="47.56628" lon="-2.90113">
        <ele>54</ele>
        <time>2018-04-21T09:06:45Z</time>
      </trkpt>
      <trkpt lat="47.5663" lon="-2.90105">
        <ele>54</ele>
        <time>2018-04-21T09:06:48Z</time>
      </trkpt>
      <trkpt lat="47.56631" lon="-2.90099">
        <ele>53</ele>
        <time>2018-04-21T09:06:51Z</time>
      </trkpt>
      <trkpt lat="47.56633" lon="-2.90092">
        <ele>53</ele>
        <time>2018-04-21T09:06:54Z</time>
      </trkpt>
      <trkpt lat="47.56634" lon="-2.90085">
        <ele>53</ele>
        <time>2018-04-21T09:06:57Z</time>
      </trkpt>
      <trkpt lat="47.56636" lon="-2.90078">
        <ele>54</ele>
        <time>2018-04-21T09:07:00Z</time>
      </trkpt>
      <trkpt lat="47.56639" lon="-2.90072">
        <ele>54</ele>
        <time>2018-04-21T09:07:03Z</time>
      </trkpt>
      <trkpt lat="47.5664" lon="-2.90068">
        <ele>54</ele>
        <time>2018-04-21T09:07:05Z</time>
      </trkpt>
      <trkpt lat="47.56641" lon="-2.90063">
        <ele>54</ele>
        <time>2018-04-21T09:07:07Z</time>
      </trkpt>
      <trkpt lat="47.56644" lon="-2.90057">
        <ele>53</ele>
        <time>2018-04-21T09:07:10Z</time>
      </trkpt>
      <trkpt lat="47.56645" lon="-2.9005">
        <ele>54</ele>
        <time>2018-04-21T09:07:13Z</time>
      </trkpt>
      <trkpt lat="47.56647" lon="-2.90046">
        <ele>54</ele>
        <time>2018-04-21T09:07:15Z</time>
      </trkpt>
      <trkpt lat="47.56648" lon="-2.90039">
        <ele>54</ele>
        <time>2018-04-21T09:07:18Z</time>
      </trkpt>
      <trkpt lat="47.5665" lon="-2.90033">
        <ele>55</ele>
        <time>2018-04-21T09:07:21Z</time>
      </trkpt>
      <trkpt lat="47.56651" lon="-2.90026">
        <ele>55</ele>
        <time>2018-04-21T09:07:24Z</time>
      </trkpt>
      <trkpt lat="47.56652" lon="-2.90022">
        <ele>55</ele>
        <time>2018-04-21T09:07:26Z</time>
      </trkpt>
      <trkpt lat="47.56653" lon="-2.90016">
        <ele>55</ele>
        <time>2018-04-21T09:07:28Z</time>
      </trkpt>
      <trkpt lat="47.56655" lon="-2.90008">
        <ele>55</ele>
        <time>2018-04-21T09:07:31Z</time>
      </trkpt>
      <trkpt lat="47.56657" lon="-2.90003">
        <ele>55</ele>
        <time>2018-04-21T09:07:33Z</time>
      </trkpt>
      <trkpt lat="47.56659" lon="-2.89994">
        <ele>55</ele>
        <time>2018-04-21T09:07:36Z</time>
      </trkpt>
      <trkpt lat="47.56661" lon="-2.89986">
        <ele>55</ele>
        <time>2018-04-21T09:07:39Z</time>
      </trkpt>
      <trkpt lat="47.56662" lon="-2.8998">
        <ele>55</ele>
        <time>2018-04-21T09:07:41Z</time>
      </trkpt>
      <trkpt lat="47.56664" lon="-2.89974">
        <ele>54</ele>
        <time>2018-04-21T09:07:43Z</time>
      </trkpt>
      <trkpt lat="47.56666" lon="-2.89965">
        <ele>54</ele>
        <time>2018-04-21T09:07:46Z</time>
      </trkpt>
      <trkpt lat="47.56668" lon="-2.89957">
        <ele>55</ele>
        <time>2018-04-21T09:07:49Z</time>
      </trkpt>
      <trkpt lat="47.56671" lon="-2.8995">
        <ele>55</ele>
        <time>2018-04-21T09:07:52Z</time>
      </trkpt>
      <trkpt lat="47.56672" lon="-2.89946">
        <ele>55</ele>
        <time>2018-04-21T09:07:54Z</time>
      </trkpt>
      <trkpt lat="47.56675" lon="-2.89939">
        <ele>54</ele>
        <time>2018-04-21T09:07:57Z</time>
      </trkpt>
      <trkpt lat="47.56676" lon="-2.89931">
        <ele>54</ele>
        <time>2018-04-21T09:08:00Z</time>
      </trkpt>
      <trkpt lat="47.56677" lon="-2.89925">
        <ele>55</ele>
        <time>2018-04-21T09:08:02Z</time>
      </trkpt>
      <trkpt lat="47.56678" lon="-2.89919">
        <ele>55</ele>
        <time>2018-04-21T09:08:04Z</time>
      </trkpt>
      <trkpt lat="47.56679" lon="-2.89913">
        <ele>55</ele>
        <time>2018-04-21T09:08:06Z</time>
      </trkpt>
      <trkpt lat="47.5668" lon="-2.89908">
        <ele>55</ele>
        <time>2018-04-21T09:08:08Z</time>
      </trkpt>
      <trkpt lat="47.56682" lon="-2.89902">
        <ele>54</ele>
        <time>2018-04-21T09:08:10Z</time>
      </trkpt>
      <trkpt lat="47.56684" lon="-2.89895">
        <ele>54</ele>
        <time>2018-04-21T09:08:13Z</time>
      </trkpt>
      <trkpt lat="47.56687" lon="-2.89889">
        <ele>54</ele>
        <time>2018-04-21T09:08:16Z</time>
      </trkpt>
      <trkpt lat="47.56688" lon="-2.89884">
        <ele>53</ele>
        <time>2018-04-21T09:08:18Z</time>
      </trkpt>
      <trkpt lat="47.5669" lon="-2.89879">
        <ele>53</ele>
        <time>2018-04-21T09:08:20Z</time>
      </trkpt>
      <trkpt lat="47.56691" lon="-2.89875">
        <ele>52</ele>
        <time>2018-04-21T09:08:22Z</time>
      </trkpt>
      <trkpt lat="47.56692" lon="-2.8987">
        <ele>52</ele>
        <time>2018-04-21T09:08:24Z</time>
      </trkpt>
      <trkpt lat="47.56693" lon="-2.89866">
        <ele>52</ele>
        <time>2018-04-21T09:08:26Z</time>
      </trkpt>
      <trkpt lat="47.56694" lon="-2.89861">
        <ele>53</ele>
        <time>2018-04-21T09:08:28Z</time>
      </trkpt>
      <trkpt lat="47.56697" lon="-2.89856">
        <ele>52</ele>
        <time>2018-04-21T09:08:31Z</time>
      </trkpt>
      <trkpt lat="47.56698" lon="-2.89849">
        <ele>52</ele>
        <time>2018-04-21T09:08:34Z</time>
      </trkpt>
      <trkpt lat="47.567" lon="-2.89845">
        <ele>53</ele>
        <time>2018-04-21T09:08:36Z</time>
      </trkpt>
      <trkpt lat="47.56701" lon="-2.89841">
        <ele>53</ele>
        <time>2018-04-21T09:08:38Z</time>
      </trkpt>
      <trkpt lat="47.56702" lon="-2.89837">
        <ele>53</ele>
        <time>2018-04-21T09:08:40Z</time>
      </trkpt>
      <trkpt lat="47.56703" lon="-2.89833">
        <ele>53</ele>
        <time>2018-04-21T09:08:42Z</time>
      </trkpt>
      <trkpt lat="47.56705" lon="-2.89825">
        <ele>53</ele>
        <time>2018-04-21T09:08:46Z</time>
      </trkpt>
      <trkpt lat="47.56706" lon="-2.89822">
        <ele>53</ele>
        <time>2018-04-21T09:08:48Z</time>
      </trkpt>
      <trkpt lat="47.56708" lon="-2.89818">
        <ele>53</ele>
        <time>2018-04-21T09:08:51Z</time>
      </trkpt>
      <trkpt lat="47.56709" lon="-2.89814">
        <ele>52</ele>
        <time>2018-04-21T09:08:54Z</time>
      </trkpt>
      <trkpt lat="47.5671" lon="-2.89809">
        <ele>53</ele>
        <time>2018-04-21T09:08:57Z</time>
      </trkpt>
      <trkpt lat="47.56712" lon="-2.89803">
        <ele>52</ele>
        <time>2018-04-21T09:09:01Z</time>
      </trkpt>
      <trkpt lat="47.56713" lon="-2.89798">
        <ele>52</ele>
        <time>2018-04-21T09:09:04Z</time>
      </trkpt>
      <trkpt lat="47.56714" lon="-2.89795">
        <ele>53</ele>
        <time>2018-04-21T09:09:06Z</time>
      </trkpt>
      <trkpt lat="47.56715" lon="-2.89792">
        <ele>53</ele>
        <time>2018-04-21T09:09:08Z</time>
      </trkpt>
      <trkpt lat="47.56716" lon="-2.89785">
        <ele>53</ele>
        <time>2018-04-21T09:09:12Z</time>
      </trkpt>
      <trkpt lat="47.56718" lon="-2.89778">
        <ele>52</ele>
        <time>2018-04-21T09:09:17Z</time>
      </trkpt>
      <trkpt lat="47.56719" lon="-2.89775">
        <ele>52</ele>
        <time>2018-04-21T09:09:19Z</time>
      </trkpt>
      <trkpt lat="47.5672" lon="-2.89768">
        <ele>53</ele>
        <time>2018-04-21T09:09:24Z</time>
      </trkpt>
      <trkpt lat="47.56722" lon="-2.8976">
        <ele>53</ele>
        <time>2018-04-21T09:09:30Z</time>
      </trkpt>
      <trkpt lat="47.56723" lon="-2.89756">
        <ele>53</ele>
        <time>2018-04-21T09:09:33Z</time>
      </trkpt>
      <trkpt lat="47.56725" lon="-2.89748">
        <ele>53</ele>
        <time>2018-04-21T09:09:38Z</time>
      </trkpt>
      <trkpt lat="47.56726" lon="-2.89743">
        <ele>53</ele>
        <time>2018-04-21T09:09:40Z</time>
      </trkpt>
      <trkpt lat="47.56726" lon="-2.8974">
        <ele>53</ele>
        <time>2018-04-21T09:09:42Z</time>
      </trkpt>
      <trkpt lat="47.56727" lon="-2.89736">
        <ele>53</ele>
        <time>2018-04-21T09:09:44Z</time>
      </trkpt>
      <trkpt lat="47.56728" lon="-2.89732">
        <ele>53</ele>
        <time>2018-04-21T09:09:46Z</time>
      </trkpt>
      <trkpt lat="47.56729" lon="-2.89729">
        <ele>53</ele>
        <time>2018-04-21T09:09:48Z</time>
      </trkpt>
      <trkpt lat="47.5673" lon="-2.89722">
        <ele>52</ele>
        <time>2018-04-21T09:09:52Z</time>
      </trkpt>
      <trkpt lat="47.56732" lon="-2.89714">
        <ele>52</ele>
        <time>2018-04-21T09:09:57Z</time>
      </trkpt>
      <trkpt lat="47.56734" lon="-2.8971">
        <ele>52</ele>
        <time>2018-04-21T09:10:01Z</time>
      </trkpt>
      <trkpt lat="47.56736" lon="-2.89703">
        <ele>53</ele>
        <time>2018-04-21T09:10:07Z</time>
      </trkpt>
      <trkpt lat="47.56737" lon="-2.897">
        <ele>53</ele>
        <time>2018-04-21T09:10:10Z</time>
      </trkpt>
      <trkpt lat="47.56738" lon="-2.89696">
        <ele>53</ele>
        <time>2018-04-21T09:10:16Z</time>
      </trkpt>
      <trkpt lat="47.56739" lon="-2.89691">
        <ele>53</ele>
        <time>2018-04-21T09:10:22Z</time>
      </trkpt>
      <trkpt lat="47.5674" lon="-2.89687">
        <ele>53</ele>
        <time>2018-04-21T09:10:26Z</time>
      </trkpt>
      <trkpt lat="47.56741" lon="-2.89682">
        <ele>53</ele>
        <time>2018-04-21T09:10:31Z</time>
      </trkpt>
      <trkpt lat="47.56745" lon="-2.89679">
        <ele>52</ele>
        <time>2018-04-21T09:10:47Z</time>
      </trkpt>
      <trkpt lat="47.56749" lon="-2.89674">
        <ele>52</ele>
        <time>2018-04-21T09:10:52Z</time>
      </trkpt>
      <trkpt lat="47.56752" lon="-2.89668">
        <ele>52</ele>
        <time>2018-04-21T09:10:57Z</time>
      </trkpt>
      <trkpt lat="47.56754" lon="-2.89662">
        <ele>54</ele>
        <time>2018-04-21T09:11:04Z</time>
      </trkpt>
      <trkpt lat="47.56755" lon="-2.89659">
        <ele>54</ele>
        <time>2018-04-21T09:11:10Z</time>
      </trkpt>
      <trkpt lat="47.56758" lon="-2.89653">
        <ele>53</ele>
        <time>2018-04-21T09:11:16Z</time>
      </trkpt>
      <trkpt lat="47.56762" lon="-2.8965">
        <ele>52</ele>
        <time>2018-04-21T09:11:25Z</time>
      </trkpt>
      <trkpt lat="47.56765" lon="-2.89644">
        <ele>52</ele>
        <time>2018-04-21T09:11:32Z</time>
      </trkpt>
      <trkpt lat="47.56767" lon="-2.89637">
        <ele>52</ele>
        <time>2018-04-21T09:11:36Z</time>
      </trkpt>
      <trkpt lat="47.5677" lon="-2.89632">
        <ele>52</ele>
        <time>2018-04-21T09:11:42Z</time>
      </trkpt>
      <trkpt lat="47.56773" lon="-2.89627">
        <ele>53</ele>
        <time>2018-04-21T09:12:41Z</time>
      </trkpt>
      <trkpt lat="47.56772" lon="-2.89619">
        <ele>53</ele>
        <time>2018-04-21T09:12:47Z</time>
      </trkpt>
      <trkpt lat="47.56769" lon="-2.89612">
        <ele>53</ele>
        <time>2018-04-21T09:12:51Z</time>
      </trkpt>
      <trkpt lat="47.56768" lon="-2.89607">
        <ele>52</ele>
        <time>2018-04-21T09:12:54Z</time>
      </trkpt>
      <trkpt lat="47.56765" lon="-2.896">
        <ele>53</ele>
        <time>2018-04-21T09:12:57Z</time>
      </trkpt>
      <trkpt lat="47.56763" lon="-2.89595">
        <ele>53</ele>
        <time>2018-04-21T09:12:59Z</time>
      </trkpt>
      <trkpt lat="47.56761" lon="-2.8959">
        <ele>53</ele>
        <time>2018-04-21T09:13:01Z</time>
      </trkpt>
      <trkpt lat="47.56759" lon="-2.89583">
        <ele>53</ele>
        <time>2018-04-21T09:13:04Z</time>
      </trkpt>
      <trkpt lat="47.56756" lon="-2.89577">
        <ele>53</ele>
        <time>2018-04-21T09:13:07Z</time>
      </trkpt>
      <trkpt lat="47.56753" lon="-2.89571">
        <ele>53</ele>
        <time>2018-04-21T09:13:10Z</time>
      </trkpt>
      <trkpt lat="47.56751" lon="-2.89566">
        <ele>52</ele>
        <time>2018-04-21T09:13:12Z</time>
      </trkpt>
      <trkpt lat="47.56749" lon="-2.89562">
        <ele>53</ele>
        <time>2018-04-21T09:13:14Z</time>
      </trkpt>
      <trkpt lat="47.56747" lon="-2.89557">
        <ele>53</ele>
        <time>2018-04-21T09:13:16Z</time>
      </trkpt>
      <trkpt lat="47.56745" lon="-2.89549">
        <ele>53</ele>
        <time>2018-04-21T09:13:19Z</time>
      </trkpt>
      <trkpt lat="47.56742" lon="-2.89543">
        <ele>53</ele>
        <time>2018-04-21T09:13:22Z</time>
      </trkpt>
      <trkpt lat="47.56739" lon="-2.89536">
        <ele>53</ele>
        <time>2018-04-21T09:13:25Z</time>
      </trkpt>
      <trkpt lat="47.56736" lon="-2.89532">
        <ele>53</ele>
        <time>2018-04-21T09:13:27Z</time>
      </trkpt>
      <trkpt lat="47.56734" lon="-2.89527">
        <ele>53</ele>
        <time>2018-04-21T09:13:29Z</time>
      </trkpt>
      <trkpt lat="47.56732" lon="-2.89523">
        <ele>53</ele>
        <time>2018-04-21T09:13:31Z</time>
      </trkpt>
      <trkpt lat="47.56728" lon="-2.89517">
        <ele>54</ele>
        <time>2018-04-21T09:13:34Z</time>
      </trkpt>
      <trkpt lat="47.56726" lon="-2.89511">
        <ele>53</ele>
        <time>2018-04-21T09:13:37Z</time>
      </trkpt>
      <trkpt lat="47.56723" lon="-2.89505">
        <ele>53</ele>
        <time>2018-04-21T09:13:40Z</time>
      </trkpt>
      <trkpt lat="47.5672" lon="-2.89499">
        <ele>53</ele>
        <time>2018-04-21T09:13:43Z</time>
      </trkpt>
      <trkpt lat="47.56717" lon="-2.89493">
        <ele>53</ele>
        <time>2018-04-21T09:13:46Z</time>
      </trkpt>
      <trkpt lat="47.56713" lon="-2.89486">
        <ele>53</ele>
        <time>2018-04-21T09:13:49Z</time>
      </trkpt>
      <trkpt lat="47.56711" lon="-2.89481">
        <ele>53</ele>
        <time>2018-04-21T09:13:51Z</time>
      </trkpt>
      <trkpt lat="47.56708" lon="-2.89475">
        <ele>54</ele>
        <time>2018-04-21T09:13:54Z</time>
      </trkpt>
      <trkpt lat="47.56705" lon="-2.89468">
        <ele>54</ele>
        <time>2018-04-21T09:13:57Z</time>
      </trkpt>
      <trkpt lat="47.56703" lon="-2.89461">
        <ele>54</ele>
        <time>2018-04-21T09:14:00Z</time>
      </trkpt>
      <trkpt lat="47.567" lon="-2.89454">
        <ele>54</ele>
        <time>2018-04-21T09:14:03Z</time>
      </trkpt>
      <trkpt lat="47.56698" lon="-2.89447">
        <ele>55</ele>
        <time>2018-04-21T09:14:06Z</time>
      </trkpt>
      <trkpt lat="47.56695" lon="-2.89441">
        <ele>55</ele>
        <time>2018-04-21T09:14:09Z</time>
      </trkpt>
      <trkpt lat="47.56693" lon="-2.89434">
        <ele>54</ele>
        <time>2018-04-21T09:14:12Z</time>
      </trkpt>
      <trkpt lat="47.56691" lon="-2.8943">
        <ele>55</ele>
        <time>2018-04-21T09:14:14Z</time>
      </trkpt>
      <trkpt lat="47.5669" lon="-2.89423">
        <ele>54</ele>
        <time>2018-04-21T09:14:17Z</time>
      </trkpt>
      <trkpt lat="47.56687" lon="-2.89416">
        <ele>54</ele>
        <time>2018-04-21T09:14:20Z</time>
      </trkpt>
      <trkpt lat="47.56686" lon="-2.89408">
        <ele>54</ele>
        <time>2018-04-21T09:14:23Z</time>
      </trkpt>
      <trkpt lat="47.56683" lon="-2.89402">
        <ele>54</ele>
        <time>2018-04-21T09:14:26Z</time>
      </trkpt>
      <trkpt lat="47.56681" lon="-2.89396">
        <ele>53</ele>
        <time>2018-04-21T09:14:29Z</time>
      </trkpt>
      <trkpt lat="47.56679" lon="-2.89388">
        <ele>53</ele>
        <time>2018-04-21T09:14:33Z</time>
      </trkpt>
      <trkpt lat="47.56678" lon="-2.89383">
        <ele>53</ele>
        <time>2018-04-21T09:14:35Z</time>
      </trkpt>
      <trkpt lat="47.56676" lon="-2.89377">
        <ele>53</ele>
        <time>2018-04-21T09:14:38Z</time>
      </trkpt>
      <trkpt lat="47.56674" lon="-2.8937">
        <ele>53</ele>
        <time>2018-04-21T09:14:41Z</time>
      </trkpt>
      <trkpt lat="47.56671" lon="-2.89363">
        <ele>53</ele>
        <time>2018-04-21T09:14:44Z</time>
      </trkpt>
      <trkpt lat="47.56669" lon="-2.89359">
        <ele>54</ele>
        <time>2018-04-21T09:14:46Z</time>
      </trkpt>
      <trkpt lat="47.56668" lon="-2.89351">
        <ele>53</ele>
        <time>2018-04-21T09:14:48Z</time>
      </trkpt>
      <trkpt lat="47.56666" lon="-2.89345">
        <ele>53</ele>
        <time>2018-04-21T09:14:52Z</time>
      </trkpt>
      <trkpt lat="47.56664" lon="-2.89336">
        <ele>53</ele>
        <time>2018-04-21T09:14:55Z</time>
      </trkpt>
      <trkpt lat="47.56663" lon="-2.89326">
        <ele>52</ele>
        <time>2018-04-21T09:14:58Z</time>
      </trkpt>
      <trkpt lat="47.56661" lon="-2.89318">
        <ele>54</ele>
        <time>2018-04-21T09:15:01Z</time>
      </trkpt>
      <trkpt lat="47.56659" lon="-2.89313">
        <ele>54</ele>
        <time>2018-04-21T09:15:03Z</time>
      </trkpt>
      <trkpt lat="47.56657" lon="-2.89306">
        <ele>53</ele>
        <time>2018-04-21T09:15:06Z</time>
      </trkpt>
      <trkpt lat="47.56655" lon="-2.89298">
        <ele>53</ele>
        <time>2018-04-21T09:15:09Z</time>
      </trkpt>
      <trkpt lat="47.56653" lon="-2.89291">
        <ele>53</ele>
        <time>2018-04-21T09:15:12Z</time>
      </trkpt>
      <trkpt lat="47.56651" lon="-2.89286">
        <ele>54</ele>
        <time>2018-04-21T09:15:14Z</time>
      </trkpt>
      <trkpt lat="47.5665" lon="-2.89281">
        <ele>54</ele>
        <time>2018-04-21T09:15:16Z</time>
      </trkpt>
      <trkpt lat="47.56648" lon="-2.89273">
        <ele>54</ele>
        <time>2018-04-21T09:15:19Z</time>
      </trkpt>
      <trkpt lat="47.56647" lon="-2.89268">
        <ele>55</ele>
        <time>2018-04-21T09:15:21Z</time>
      </trkpt>
      <trkpt lat="47.56646" lon="-2.89262">
        <ele>54</ele>
        <time>2018-04-21T09:15:23Z</time>
      </trkpt>
      <trkpt lat="47.56645" lon="-2.89254">
        <ele>53</ele>
        <time>2018-04-21T09:15:26Z</time>
      </trkpt>
      <trkpt lat="47.56642" lon="-2.89248">
        <ele>53</ele>
        <time>2018-04-21T09:15:28Z</time>
      </trkpt>
      <trkpt lat="47.56641" lon="-2.89236">
        <ele>53</ele>
        <time>2018-04-21T09:15:32Z</time>
      </trkpt>
      <trkpt lat="47.56638" lon="-2.89229">
        <ele>53</ele>
        <time>2018-04-21T09:15:35Z</time>
      </trkpt>
      <trkpt lat="47.56636" lon="-2.89221">
        <ele>53</ele>
        <time>2018-04-21T09:15:38Z</time>
      </trkpt>
      <trkpt lat="47.56634" lon="-2.89217">
        <ele>53</ele>
        <time>2018-04-21T09:15:40Z</time>
      </trkpt>
      <trkpt lat="47.56632" lon="-2.89212">
        <ele>53</ele>
        <time>2018-04-21T09:15:42Z</time>
      </trkpt>
      <trkpt lat="47.5663" lon="-2.89207">
        <ele>52</ele>
        <time>2018-04-21T09:15:44Z</time>
      </trkpt>
      <trkpt lat="47.56627" lon="-2.892">
        <ele>53</ele>
        <time>2018-04-21T09:15:47Z</time>
      </trkpt>
      <trkpt lat="47.56626" lon="-2.89196">
        <ele>52</ele>
        <time>2018-04-21T09:15:49Z</time>
      </trkpt>
      <trkpt lat="47.56624" lon="-2.89189">
        <ele>52</ele>
        <time>2018-04-21T09:15:52Z</time>
      </trkpt>
      <trkpt lat="47.56622" lon="-2.89184">
        <ele>52</ele>
        <time>2018-04-21T09:15:54Z</time>
      </trkpt>
      <trkpt lat="47.56621" lon="-2.89178">
        <ele>53</ele>
        <time>2018-04-21T09:15:56Z</time>
      </trkpt>
      <trkpt lat="47.56619" lon="-2.89173">
        <ele>52</ele>
        <time>2018-04-21T09:15:58Z</time>
      </trkpt>
      <trkpt lat="47.56617" lon="-2.89166">
        <ele>52</ele>
        <time>2018-04-21T09:16:01Z</time>
      </trkpt>
      <trkpt lat="47.56616" lon="-2.89161">
        <ele>51</ele>
        <time>2018-04-21T09:16:03Z</time>
      </trkpt>
      <trkpt lat="47.56612" lon="-2.89154">
        <ele>52</ele>
        <time>2018-04-21T09:16:06Z</time>
      </trkpt>
      <trkpt lat="47.5661" lon="-2.8915">
        <ele>52</ele>
        <time>2018-04-21T09:16:08Z</time>
      </trkpt>
      <trkpt lat="47.56608" lon="-2.89142">
        <ele>52</ele>
        <time>2018-04-21T09:16:11Z</time>
      </trkpt>
      <trkpt lat="47.56605" lon="-2.89136">
        <ele>52</ele>
        <time>2018-04-21T09:16:14Z</time>
      </trkpt>
      <trkpt lat="47.56603" lon="-2.8913">
        <ele>52</ele>
        <time>2018-04-21T09:16:17Z</time>
      </trkpt>
      <trkpt lat="47.56601" lon="-2.89125">
        <ele>52</ele>
        <time>2018-04-21T09:16:19Z</time>
      </trkpt>
      <trkpt lat="47.56598" lon="-2.89118">
        <ele>51</ele>
        <time>2018-04-21T09:16:22Z</time>
      </trkpt>
      <trkpt lat="47.56597" lon="-2.89113">
        <ele>50</ele>
        <time>2018-04-21T09:16:24Z</time>
      </trkpt>
      <trkpt lat="47.56593" lon="-2.89107">
        <ele>51</ele>
        <time>2018-04-21T09:16:27Z</time>
      </trkpt>
      <trkpt lat="47.56591" lon="-2.89103">
        <ele>51</ele>
        <time>2018-04-21T09:16:29Z</time>
      </trkpt>
      <trkpt lat="47.56587" lon="-2.89097">
        <ele>51</ele>
        <time>2018-04-21T09:16:32Z</time>
      </trkpt>
      <trkpt lat="47.56585" lon="-2.89091">
        <ele>51</ele>
        <time>2018-04-21T09:16:35Z</time>
      </trkpt>
      <trkpt lat="47.56582" lon="-2.89084">
        <ele>51</ele>
        <time>2018-04-21T09:16:38Z</time>
      </trkpt>
      <trkpt lat="47.5658" lon="-2.89075">
        <ele>50</ele>
        <time>2018-04-21T09:16:42Z</time>
      </trkpt>
      <trkpt lat="47.56577" lon="-2.89068">
        <ele>51</ele>
        <time>2018-04-21T09:16:45Z</time>
      </trkpt>
      <trkpt lat="47.56575" lon="-2.89064">
        <ele>51</ele>
        <time>2018-04-21T09:16:48Z</time>
      </trkpt>
      <trkpt lat="47.56574" lon="-2.89055">
        <ele>50</ele>
        <time>2018-04-21T09:16:51Z</time>
      </trkpt>
      <trkpt lat="47.56573" lon="-2.89048">
        <ele>49</ele>
        <time>2018-04-21T09:16:57Z</time>
      </trkpt>
      <trkpt lat="47.56572" lon="-2.89044">
        <ele>50</ele>
        <time>2018-04-21T09:17:00Z</time>
      </trkpt>
      <trkpt lat="47.56569" lon="-2.89037">
        <ele>49</ele>
        <time>2018-04-21T09:17:05Z</time>
      </trkpt>
      <trkpt lat="47.56567" lon="-2.89032">
        <ele>50</ele>
        <time>2018-04-21T09:17:08Z</time>
      </trkpt>
      <trkpt lat="47.56565" lon="-2.89029">
        <ele>49</ele>
        <time>2018-04-21T09:17:10Z</time>
      </trkpt>
      <trkpt lat="47.56563" lon="-2.89026">
        <ele>50</ele>
        <time>2018-04-21T09:17:12Z</time>
      </trkpt>
      <trkpt lat="47.56561" lon="-2.89023">
        <ele>49</ele>
        <time>2018-04-21T09:17:14Z</time>
      </trkpt>
      <trkpt lat="47.56559" lon="-2.89019">
        <ele>50</ele>
        <time>2018-04-21T09:17:16Z</time>
      </trkpt>
      <trkpt lat="47.56556" lon="-2.89014">
        <ele>50</ele>
        <time>2018-04-21T09:17:19Z</time>
      </trkpt>
      <trkpt lat="47.56554" lon="-2.8901">
        <ele>50</ele>
        <time>2018-04-21T09:17:20Z</time>
      </trkpt>
      <trkpt lat="47.56552" lon="-2.89006">
        <ele>50</ele>
        <time>2018-04-21T09:17:23Z</time>
      </trkpt>
      <trkpt lat="47.5655" lon="-2.89002">
        <ele>51</ele>
        <time>2018-04-21T09:17:25Z</time>
      </trkpt>
      <trkpt lat="47.56548" lon="-2.88996">
        <ele>51</ele>
        <time>2018-04-21T09:17:28Z</time>
      </trkpt>
      <trkpt lat="47.56545" lon="-2.88991">
        <ele>51</ele>
        <time>2018-04-21T09:17:31Z</time>
      </trkpt>
      <trkpt lat="47.56542" lon="-2.88984">
        <ele>50</ele>
        <time>2018-04-21T09:17:34Z</time>
      </trkpt>
      <trkpt lat="47.56539" lon="-2.88978">
        <ele>50</ele>
        <time>2018-04-21T09:17:36Z</time>
      </trkpt>
      <trkpt lat="47.56534" lon="-2.88973">
        <ele>51</ele>
        <time>2018-04-21T09:17:39Z</time>
      </trkpt>
      <trkpt lat="47.5653" lon="-2.88967">
        <ele>51</ele>
        <time>2018-04-21T09:17:43Z</time>
      </trkpt>
      <trkpt lat="47.56528" lon="-2.88961">
        <ele>51</ele>
        <time>2018-04-21T09:17:48Z</time>
      </trkpt>
      <trkpt lat="47.56526" lon="-2.88958">
        <ele>51</ele>
        <time>2018-04-21T09:17:51Z</time>
      </trkpt>
      <trkpt lat="47.56524" lon="-2.88955">
        <ele>51</ele>
        <time>2018-04-21T09:17:55Z</time>
      </trkpt>
      <trkpt lat="47.56521" lon="-2.88951">
        <ele>52</ele>
        <time>2018-04-21T09:18:00Z</time>
      </trkpt>
      <trkpt lat="47.5652" lon="-2.88944">
        <ele>50</ele>
        <time>2018-04-21T09:18:04Z</time>
      </trkpt>
      <trkpt lat="47.56518" lon="-2.88938">
        <ele>51</ele>
        <time>2018-04-21T09:18:08Z</time>
      </trkpt>
      <trkpt lat="47.56518" lon="-2.8893">
        <ele>51</ele>
        <time>2018-04-21T09:18:13Z</time>
      </trkpt>
      <trkpt lat="47.56518" lon="-2.88923">
        <ele>52</ele>
        <time>2018-04-21T09:18:19Z</time>
      </trkpt>
      <trkpt lat="47.56519" lon="-2.88917">
        <ele>53</ele>
        <time>2018-04-21T09:18:29Z</time>
      </trkpt>
      <trkpt lat="47.5652" lon="-2.88913">
        <ele>53</ele>
        <time>2018-04-21T09:18:34Z</time>
      </trkpt>
      <trkpt lat="47.56521" lon="-2.88909">
        <ele>53</ele>
        <time>2018-04-21T09:18:37Z</time>
      </trkpt>
      <trkpt lat="47.56521" lon="-2.88901">
        <ele>54</ele>
        <time>2018-04-21T09:18:41Z</time>
      </trkpt>
      <trkpt lat="47.56521" lon="-2.88897">
        <ele>53</ele>
        <time>2018-04-21T09:18:43Z</time>
      </trkpt>
      <trkpt lat="47.56521" lon="-2.8889">
        <ele>53</ele>
        <time>2018-04-21T09:18:47Z</time>
      </trkpt>
      <trkpt lat="47.56522" lon="-2.88882">
        <ele>54</ele>
        <time>2018-04-21T09:18:50Z</time>
      </trkpt>
      <trkpt lat="47.56523" lon="-2.88874">
        <ele>54</ele>
        <time>2018-04-21T09:18:53Z</time>
      </trkpt>
      <trkpt lat="47.56524" lon="-2.88868">
        <ele>54</ele>
        <time>2018-04-21T09:18:56Z</time>
      </trkpt>
      <trkpt lat="47.56525" lon="-2.88865">
        <ele>54</ele>
        <time>2018-04-21T09:18:58Z</time>
      </trkpt>
      <trkpt lat="47.56527" lon="-2.88858">
        <ele>55</ele>
        <time>2018-04-21T09:19:01Z</time>
      </trkpt>
      <trkpt lat="47.56528" lon="-2.88853">
        <ele>54</ele>
        <time>2018-04-21T09:19:04Z</time>
      </trkpt>
      <trkpt lat="47.56531" lon="-2.88847">
        <ele>55</ele>
        <time>2018-04-21T09:19:08Z</time>
      </trkpt>
      <trkpt lat="47.56535" lon="-2.8884">
        <ele>54</ele>
        <time>2018-04-21T09:19:12Z</time>
      </trkpt>
      <trkpt lat="47.56537" lon="-2.88838">
        <ele>54</ele>
        <time>2018-04-21T09:19:14Z</time>
      </trkpt>
      <trkpt lat="47.56538" lon="-2.88834">
        <ele>54</ele>
        <time>2018-04-21T09:19:16Z</time>
      </trkpt>
      <trkpt lat="47.5654" lon="-2.88831">
        <ele>55</ele>
        <time>2018-04-21T09:19:18Z</time>
      </trkpt>
      <trkpt lat="47.56542" lon="-2.88828">
        <ele>55</ele>
        <time>2018-04-21T09:19:20Z</time>
      </trkpt>
      <trkpt lat="47.56545" lon="-2.88823">
        <ele>55</ele>
        <time>2018-04-21T09:19:24Z</time>
      </trkpt>
      <trkpt lat="47.56549" lon="-2.8882">
        <ele>54</ele>
        <time>2018-04-21T09:19:30Z</time>
      </trkpt>
      <trkpt lat="47.56549" lon="-2.8882">
        <ele>1</ele>
        <time>2018-04-21T09:19:38Z</time>
      </trkpt>
      <trkpt lat="47.56549" lon="-2.8882">
        <ele>1</ele>
        <time>2018-04-21T09:20:05Z</time>
      </trkpt>
      <trkpt lat="47.56567" lon="-2.88807">
        <ele>52</ele>
        <time>2018-04-21T09:20:05Z</time>
      </trkpt>
      <trkpt lat="47.5657" lon="-2.88803">
        <ele>52</ele>
        <time>2018-04-21T09:20:08Z</time>
      </trkpt>
      <trkpt lat="47.56573" lon="-2.88799">
        <ele>52</ele>
        <time>2018-04-21T09:20:10Z</time>
      </trkpt>
      <trkpt lat="47.56576" lon="-2.88795">
        <ele>52</ele>
        <time>2018-04-21T09:20:12Z</time>
      </trkpt>
      <trkpt lat="47.56578" lon="-2.88792">
        <ele>52</ele>
        <time>2018-04-21T09:20:14Z</time>
      </trkpt>
      <trkpt lat="47.56583" lon="-2.88785">
        <ele>53</ele>
        <time>2018-04-21T09:20:18Z</time>
      </trkpt>
      <trkpt lat="47.56586" lon="-2.8878">
        <ele>53</ele>
        <time>2018-04-21T09:20:20Z</time>
      </trkpt>
      <trkpt lat="47.56589" lon="-2.88776">
        <ele>53</ele>
        <time>2018-04-21T09:20:22Z</time>
      </trkpt>
      <trkpt lat="47.56591" lon="-2.88772">
        <ele>53</ele>
        <time>2018-04-21T09:20:24Z</time>
      </trkpt>
      <trkpt lat="47.56596" lon="-2.88766">
        <ele>54</ele>
        <time>2018-04-21T09:20:27Z</time>
      </trkpt>
      <trkpt lat="47.566" lon="-2.88761">
        <ele>54</ele>
        <time>2018-04-21T09:20:30Z</time>
      </trkpt>
      <trkpt lat="47.56603" lon="-2.88758">
        <ele>53</ele>
        <time>2018-04-21T09:20:32Z</time>
      </trkpt>
      <trkpt lat="47.56605" lon="-2.88754">
        <ele>54</ele>
        <time>2018-04-21T09:20:34Z</time>
      </trkpt>
      <trkpt lat="47.56608" lon="-2.88751">
        <ele>54</ele>
        <time>2018-04-21T09:20:36Z</time>
      </trkpt>
      <trkpt lat="47.56611" lon="-2.88747">
        <ele>54</ele>
        <time>2018-04-21T09:20:38Z</time>
      </trkpt>
      <trkpt lat="47.56613" lon="-2.88743">
        <ele>53</ele>
        <time>2018-04-21T09:20:40Z</time>
      </trkpt>
      <trkpt lat="47.56617" lon="-2.88737">
        <ele>53</ele>
        <time>2018-04-21T09:20:43Z</time>
      </trkpt>
      <trkpt lat="47.5662" lon="-2.88731">
        <ele>53</ele>
        <time>2018-04-21T09:20:46Z</time>
      </trkpt>
      <trkpt lat="47.56623" lon="-2.88725">
        <ele>53</ele>
        <time>2018-04-21T09:20:49Z</time>
      </trkpt>
      <trkpt lat="47.56628" lon="-2.88719">
        <ele>54</ele>
        <time>2018-04-21T09:20:52Z</time>
      </trkpt>
      <trkpt lat="47.56631" lon="-2.88713">
        <ele>54</ele>
        <time>2018-04-21T09:20:55Z</time>
      </trkpt>
      <trkpt lat="47.56633" lon="-2.8871">
        <ele>55</ele>
        <time>2018-04-21T09:20:57Z</time>
      </trkpt>
      <trkpt lat="47.56636" lon="-2.88706">
        <ele>55</ele>
        <time>2018-04-21T09:20:59Z</time>
      </trkpt>
      <trkpt lat="47.56638" lon="-2.88703">
        <ele>55</ele>
        <time>2018-04-21T09:21:02Z</time>
      </trkpt>
      <trkpt lat="47.56639" lon="-2.887">
        <ele>54</ele>
        <time>2018-04-21T09:21:03Z</time>
      </trkpt>
      <trkpt lat="47.56642" lon="-2.88697">
        <ele>53</ele>
        <time>2018-04-21T09:21:05Z</time>
      </trkpt>
      <trkpt lat="47.56645" lon="-2.88689">
        <ele>55</ele>
        <time>2018-04-21T09:21:08Z</time>
      </trkpt>
      <trkpt lat="47.56649" lon="-2.88682">
        <ele>54</ele>
        <time>2018-04-21T09:21:11Z</time>
      </trkpt>
      <trkpt lat="47.56653" lon="-2.88677">
        <ele>55</ele>
        <time>2018-04-21T09:21:14Z</time>
      </trkpt>
      <trkpt lat="47.56657" lon="-2.88671">
        <ele>55</ele>
        <time>2018-04-21T09:21:17Z</time>
      </trkpt>
      <trkpt lat="47.5666" lon="-2.88665">
        <ele>55</ele>
        <time>2018-04-21T09:21:20Z</time>
      </trkpt>
      <trkpt lat="47.56665" lon="-2.88659">
        <ele>56</ele>
        <time>2018-04-21T09:21:23Z</time>
      </trkpt>
      <trkpt lat="47.56667" lon="-2.88656">
        <ele>56</ele>
        <time>2018-04-21T09:21:25Z</time>
      </trkpt>
      <trkpt lat="47.56669" lon="-2.88652">
        <ele>56</ele>
        <time>2018-04-21T09:21:27Z</time>
      </trkpt>
      <trkpt lat="47.56672" lon="-2.88649">
        <ele>56</ele>
        <time>2018-04-21T09:21:29Z</time>
      </trkpt>
      <trkpt lat="47.56677" lon="-2.88645">
        <ele>54</ele>
        <time>2018-04-21T09:21:33Z</time>
      </trkpt>
      <trkpt lat="47.56679" lon="-2.88643">
        <ele>54</ele>
        <time>2018-04-21T09:21:34Z</time>
      </trkpt>
      <trkpt lat="47.56683" lon="-2.88638">
        <ele>55</ele>
        <time>2018-04-21T09:21:37Z</time>
      </trkpt>
      <trkpt lat="47.56686" lon="-2.88634">
        <ele>55</ele>
        <time>2018-04-21T09:21:39Z</time>
      </trkpt>
      <trkpt lat="47.56689" lon="-2.88628">
        <ele>56</ele>
        <time>2018-04-21T09:21:42Z</time>
      </trkpt>
      <trkpt lat="47.56691" lon="-2.88625">
        <ele>56</ele>
        <time>2018-04-21T09:21:44Z</time>
      </trkpt>
      <trkpt lat="47.56696" lon="-2.8862">
        <ele>54</ele>
        <time>2018-04-21T09:21:48Z</time>
      </trkpt>
      <trkpt lat="47.567" lon="-2.88617">
        <ele>54</ele>
        <time>2018-04-21T09:21:50Z</time>
      </trkpt>
      <trkpt lat="47.56705" lon="-2.88614">
        <ele>53</ele>
        <time>2018-04-21T09:21:53Z</time>
      </trkpt>
      <trkpt lat="47.56707" lon="-2.88613">
        <ele>53</ele>
        <time>2018-04-21T09:21:55Z</time>
      </trkpt>
      <trkpt lat="47.5671" lon="-2.88611">
        <ele>52</ele>
        <time>2018-04-21T09:21:57Z</time>
      </trkpt>
      <trkpt lat="47.56714" lon="-2.88608">
        <ele>52</ele>
        <time>2018-04-21T09:22:00Z</time>
      </trkpt>
      <trkpt lat="47.56718" lon="-2.88606">
        <ele>53</ele>
        <time>2018-04-21T09:22:03Z</time>
      </trkpt>
      <trkpt lat="47.56724" lon="-2.88605">
        <ele>52</ele>
        <time>2018-04-21T09:22:07Z</time>
      </trkpt>
      <trkpt lat="47.56729" lon="-2.88604">
        <ele>53</ele>
        <time>2018-04-21T09:22:11Z</time>
      </trkpt>
      <trkpt lat="47.56733" lon="-2.88604">
        <ele>53</ele>
        <time>2018-04-21T09:22:14Z</time>
      </trkpt>
      <trkpt lat="47.56738" lon="-2.88604">
        <ele>52</ele>
        <time>2018-04-21T09:22:17Z</time>
      </trkpt>
      <trkpt lat="47.56743" lon="-2.88603">
        <ele>53</ele>
        <time>2018-04-21T09:22:20Z</time>
      </trkpt>
      <trkpt lat="47.56745" lon="-2.88602">
        <ele>52</ele>
        <time>2018-04-21T09:22:22Z</time>
      </trkpt>
      <trkpt lat="47.56749" lon="-2.88598">
        <ele>53</ele>
        <time>2018-04-21T09:22:27Z</time>
      </trkpt>
      <trkpt lat="47.56754" lon="-2.88597">
        <ele>53</ele>
        <time>2018-04-21T09:22:30Z</time>
      </trkpt>
      <trkpt lat="47.56759" lon="-2.88596">
        <ele>52</ele>
        <time>2018-04-21T09:22:33Z</time>
      </trkpt>
      <trkpt lat="47.56764" lon="-2.88598">
        <ele>49</ele>
        <time>2018-04-21T09:22:36Z</time>
      </trkpt>
      <trkpt lat="47.56769" lon="-2.88598">
        <ele>50</ele>
        <time>2018-04-21T09:22:40Z</time>
      </trkpt>
      <trkpt lat="47.56772" lon="-2.88597">
        <ele>49</ele>
        <time>2018-04-21T09:22:42Z</time>
      </trkpt>
      <trkpt lat="47.56775" lon="-2.88598">
        <ele>49</ele>
        <time>2018-04-21T09:22:44Z</time>
      </trkpt>
      <trkpt lat="47.5678" lon="-2.88597">
        <ele>49</ele>
        <time>2018-04-21T09:22:47Z</time>
      </trkpt>
      <trkpt lat="47.56783" lon="-2.88595">
        <ele>49</ele>
        <time>2018-04-21T09:22:49Z</time>
      </trkpt>
      <trkpt lat="47.56787" lon="-2.88594">
        <ele>49</ele>
        <time>2018-04-21T09:22:51Z</time>
      </trkpt>
      <trkpt lat="47.5679" lon="-2.88594">
        <ele>49</ele>
        <time>2018-04-21T09:22:53Z</time>
      </trkpt>
      <trkpt lat="47.56795" lon="-2.88592">
        <ele>49</ele>
        <time>2018-04-21T09:22:57Z</time>
      </trkpt>
      <trkpt lat="47.56799" lon="-2.88591">
        <ele>48</ele>
        <time>2018-04-21T09:23:01Z</time>
      </trkpt>
      <trkpt lat="47.56802" lon="-2.8859">
        <ele>47</ele>
        <time>2018-04-21T09:23:04Z</time>
      </trkpt>
      <trkpt lat="47.56806" lon="-2.8859">
        <ele>46</ele>
        <time>2018-04-21T09:23:07Z</time>
      </trkpt>
      <trkpt lat="47.56812" lon="-2.88588">
        <ele>47</ele>
        <time>2018-04-21T09:23:11Z</time>
      </trkpt>
      <trkpt lat="47.56815" lon="-2.88586">
        <ele>49</ele>
        <time>2018-04-21T09:23:13Z</time>
      </trkpt>
      <trkpt lat="47.56819" lon="-2.88585">
        <ele>50</ele>
        <time>2018-04-21T09:23:15Z</time>
      </trkpt>
      <trkpt lat="47.56824" lon="-2.88585">
        <ele>48</ele>
        <time>2018-04-21T09:23:18Z</time>
      </trkpt>
      <trkpt lat="47.56829" lon="-2.88583">
        <ele>48</ele>
        <time>2018-04-21T09:23:20Z</time>
      </trkpt>
      <trkpt lat="47.56835" lon="-2.88581">
        <ele>49</ele>
        <time>2018-04-21T09:23:24Z</time>
      </trkpt>
      <trkpt lat="47.56838" lon="-2.8858">
        <ele>48</ele>
        <time>2018-04-21T09:23:26Z</time>
      </trkpt>
      <trkpt lat="47.56841" lon="-2.8858">
        <ele>48</ele>
        <time>2018-04-21T09:23:28Z</time>
      </trkpt>
      <trkpt lat="47.56845" lon="-2.88577">
        <ele>49</ele>
        <time>2018-04-21T09:23:31Z</time>
      </trkpt>
      <trkpt lat="47.56851" lon="-2.88576">
        <ele>48</ele>
        <time>2018-04-21T09:23:34Z</time>
      </trkpt>
      <trkpt lat="47.56854" lon="-2.88575">
        <ele>47</ele>
        <time>2018-04-21T09:23:36Z</time>
      </trkpt>
      <trkpt lat="47.56857" lon="-2.88574">
        <ele>48</ele>
        <time>2018-04-21T09:23:38Z</time>
      </trkpt>
      <trkpt lat="47.5686" lon="-2.88574">
        <ele>48</ele>
        <time>2018-04-21T09:23:40Z</time>
      </trkpt>
      <trkpt lat="47.56864" lon="-2.88573">
        <ele>48</ele>
        <time>2018-04-21T09:23:42Z</time>
      </trkpt>
      <trkpt lat="47.56868" lon="-2.8857">
        <ele>49</ele>
        <time>2018-04-21T09:23:45Z</time>
      </trkpt>
      <trkpt lat="47.56871" lon="-2.88568">
        <ele>50</ele>
        <time>2018-04-21T09:23:47Z</time>
      </trkpt>
      <trkpt lat="47.56876" lon="-2.88567">
        <ele>49</ele>
        <time>2018-04-21T09:23:50Z</time>
      </trkpt>
      <trkpt lat="47.56879" lon="-2.88566">
        <ele>48</ele>
        <time>2018-04-21T09:23:52Z</time>
      </trkpt>
      <trkpt lat="47.56884" lon="-2.88564">
        <ele>49</ele>
        <time>2018-04-21T09:23:55Z</time>
      </trkpt>
      <trkpt lat="47.5689" lon="-2.88564">
        <ele>49</ele>
        <time>2018-04-21T09:23:58Z</time>
      </trkpt>
      <trkpt lat="47.56896" lon="-2.88561">
        <ele>51</ele>
        <time>2018-04-21T09:24:02Z</time>
      </trkpt>
      <trkpt lat="47.569" lon="-2.88562">
        <ele>50</ele>
        <time>2018-04-21T09:24:06Z</time>
      </trkpt>
      <trkpt lat="47.56905" lon="-2.88561">
        <ele>50</ele>
        <time>2018-04-21T09:24:09Z</time>
      </trkpt>
      <trkpt lat="47.56908" lon="-2.8856">
        <ele>51</ele>
        <time>2018-04-21T09:24:11Z</time>
      </trkpt>
      <trkpt lat="47.56913" lon="-2.88561">
        <ele>51</ele>
        <time>2018-04-21T09:24:14Z</time>
      </trkpt>
      <trkpt lat="47.56918" lon="-2.8856">
        <ele>51</ele>
        <time>2018-04-21T09:24:17Z</time>
      </trkpt>
      <trkpt lat="47.56923" lon="-2.88559">
        <ele>51</ele>
        <time>2018-04-21T09:24:20Z</time>
      </trkpt>
      <trkpt lat="47.56926" lon="-2.88559">
        <ele>51</ele>
        <time>2018-04-21T09:24:22Z</time>
      </trkpt>
      <trkpt lat="47.56929" lon="-2.88559">
        <ele>52</ele>
        <time>2018-04-21T09:24:24Z</time>
      </trkpt>
      <trkpt lat="47.56934" lon="-2.88559">
        <ele>53</ele>
        <time>2018-04-21T09:24:27Z</time>
      </trkpt>
      <trkpt lat="47.56939" lon="-2.8856">
        <ele>53</ele>
        <time>2018-04-21T09:24:31Z</time>
      </trkpt>
      <trkpt lat="47.56944" lon="-2.88561">
        <ele>52</ele>
        <time>2018-04-21T09:24:34Z</time>
      </trkpt>
      <trkpt lat="47.56947" lon="-2.88562">
        <ele>51</ele>
        <time>2018-04-21T09:24:36Z</time>
      </trkpt>
      <trkpt lat="47.56952" lon="-2.88563">
        <ele>52</ele>
        <time>2018-04-21T09:24:39Z</time>
      </trkpt>
      <trkpt lat="47.56957" lon="-2.88565">
        <ele>52</ele>
        <time>2018-04-21T09:24:42Z</time>
      </trkpt>
      <trkpt lat="47.56961" lon="-2.88567">
        <ele>51</ele>
        <time>2018-04-21T09:24:45Z</time>
      </trkpt>
      <trkpt lat="47.56966" lon="-2.88568">
        <ele>51</ele>
        <time>2018-04-21T09:24:48Z</time>
      </trkpt>
      <trkpt lat="47.56969" lon="-2.88569">
        <ele>51</ele>
        <time>2018-04-21T09:24:50Z</time>
      </trkpt>
      <trkpt lat="47.56973" lon="-2.8857">
        <ele>51</ele>
        <time>2018-04-21T09:24:53Z</time>
      </trkpt>
      <trkpt lat="47.56976" lon="-2.8857">
        <ele>50</ele>
        <time>2018-04-21T09:24:55Z</time>
      </trkpt>
      <trkpt lat="47.56979" lon="-2.8857">
        <ele>50</ele>
        <time>2018-04-21T09:24:57Z</time>
      </trkpt>
      <trkpt lat="47.56984" lon="-2.8857">
        <ele>50</ele>
        <time>2018-04-21T09:25:00Z</time>
      </trkpt>
      <trkpt lat="47.5699" lon="-2.88569">
        <ele>50</ele>
        <time>2018-04-21T09:25:04Z</time>
      </trkpt>
      <trkpt lat="47.56995" lon="-2.88569">
        <ele>51</ele>
        <time>2018-04-21T09:25:07Z</time>
      </trkpt>
      <trkpt lat="47.57" lon="-2.88571">
        <ele>52</ele>
        <time>2018-04-21T09:25:11Z</time>
      </trkpt>
      <trkpt lat="47.57003" lon="-2.88572">
        <ele>52</ele>
        <time>2018-04-21T09:25:13Z</time>
      </trkpt>
      <trkpt lat="47.57009" lon="-2.88574">
        <ele>53</ele>
        <time>2018-04-21T09:25:17Z</time>
      </trkpt>
      <trkpt lat="47.57012" lon="-2.88575">
        <ele>53</ele>
        <time>2018-04-21T09:25:19Z</time>
      </trkpt>
      <trkpt lat="47.57017" lon="-2.88576">
        <ele>53</ele>
        <time>2018-04-21T09:25:22Z</time>
      </trkpt>
      <trkpt lat="47.57022" lon="-2.88577">
        <ele>52</ele>
        <time>2018-04-21T09:25:26Z</time>
      </trkpt>
      <trkpt lat="47.57026" lon="-2.88579">
        <ele>51</ele>
        <time>2018-04-21T09:25:29Z</time>
      </trkpt>
      <trkpt lat="47.57031" lon="-2.88581">
        <ele>50</ele>
        <time>2018-04-21T09:25:32Z</time>
      </trkpt>
      <trkpt lat="47.57036" lon="-2.88582">
        <ele>50</ele>
        <time>2018-04-21T09:25:36Z</time>
      </trkpt>
      <trkpt lat="47.57042" lon="-2.88582">
        <ele>50</ele>
        <time>2018-04-21T09:25:41Z</time>
      </trkpt>
      <trkpt lat="47.57048" lon="-2.88583">
        <ele>50</ele>
        <time>2018-04-21T09:25:45Z</time>
      </trkpt>
      <trkpt lat="47.57051" lon="-2.88583">
        <ele>50</ele>
        <time>2018-04-21T09:25:47Z</time>
      </trkpt>
      <trkpt lat="47.57057" lon="-2.88585">
        <ele>49</ele>
        <time>2018-04-21T09:25:51Z</time>
      </trkpt>
      <trkpt lat="47.57063" lon="-2.88585">
        <ele>48</ele>
        <time>2018-04-21T09:25:54Z</time>
      </trkpt>
      <trkpt lat="47.57066" lon="-2.88585">
        <ele>48</ele>
        <time>2018-04-21T09:25:56Z</time>
      </trkpt>
      <trkpt lat="47.57072" lon="-2.88588">
        <ele>49</ele>
        <time>2018-04-21T09:26:00Z</time>
      </trkpt>
      <trkpt lat="47.57075" lon="-2.88589">
        <ele>49</ele>
        <time>2018-04-21T09:26:03Z</time>
      </trkpt>
      <trkpt lat="47.5708" lon="-2.88589">
        <ele>50</ele>
        <time>2018-04-21T09:26:06Z</time>
      </trkpt>
      <trkpt lat="47.57084" lon="-2.88592">
        <ele>50</ele>
        <time>2018-04-21T09:26:08Z</time>
      </trkpt>
      <trkpt lat="47.5709" lon="-2.88593">
        <ele>51</ele>
        <time>2018-04-21T09:26:12Z</time>
      </trkpt>
      <trkpt lat="47.57094" lon="-2.88596">
        <ele>50</ele>
        <time>2018-04-21T09:26:15Z</time>
      </trkpt>
      <trkpt lat="47.57099" lon="-2.88597">
        <ele>50</ele>
        <time>2018-04-21T09:26:19Z</time>
      </trkpt>
      <trkpt lat="47.57102" lon="-2.88598">
        <ele>50</ele>
        <time>2018-04-21T09:26:21Z</time>
      </trkpt>
      <trkpt lat="47.57107" lon="-2.88599">
        <ele>51</ele>
        <time>2018-04-21T09:26:24Z</time>
      </trkpt>
      <trkpt lat="47.5711" lon="-2.88599">
        <ele>51</ele>
        <time>2018-04-21T09:26:26Z</time>
      </trkpt>
      <trkpt lat="47.57115" lon="-2.88601">
        <ele>52</ele>
        <time>2018-04-21T09:26:29Z</time>
      </trkpt>
      <trkpt lat="47.57118" lon="-2.88602">
        <ele>52</ele>
        <time>2018-04-21T09:26:31Z</time>
      </trkpt>
      <trkpt lat="47.57123" lon="-2.88603">
        <ele>54</ele>
        <time>2018-04-21T09:26:35Z</time>
      </trkpt>
      <trkpt lat="47.57128" lon="-2.88607">
        <ele>54</ele>
        <time>2018-04-21T09:26:39Z</time>
      </trkpt>
      <trkpt lat="47.5713" lon="-2.88609">
        <ele>54</ele>
        <time>2018-04-21T09:26:42Z</time>
      </trkpt>
      <trkpt lat="47.57133" lon="-2.88611">
        <ele>55</ele>
        <time>2018-04-21T09:26:48Z</time>
      </trkpt>
      <trkpt lat="47.57138" lon="-2.88615">
        <ele>54</ele>
        <time>2018-04-21T09:26:55Z</time>
      </trkpt>
      <trkpt lat="47.5714" lon="-2.88617">
        <ele>54</ele>
        <time>2018-04-21T09:26:57Z</time>
      </trkpt>
      <trkpt lat="47.57145" lon="-2.88619">
        <ele>55</ele>
        <time>2018-04-21T09:27:01Z</time>
      </trkpt>
      <trkpt lat="47.5715" lon="-2.88622">
        <ele>54</ele>
        <time>2018-04-21T09:27:04Z</time>
      </trkpt>
      <trkpt lat="47.57154" lon="-2.88625">
        <ele>53</ele>
        <time>2018-04-21T09:27:07Z</time>
      </trkpt>
      <trkpt lat="47.57158" lon="-2.88628">
        <ele>53</ele>
        <time>2018-04-21T09:27:09Z</time>
      </trkpt>
      <trkpt lat="47.57164" lon="-2.88632">
        <ele>53</ele>
        <time>2018-04-21T09:27:13Z</time>
      </trkpt>
      <trkpt lat="47.57167" lon="-2.88635">
        <ele>53</ele>
        <time>2018-04-21T09:27:15Z</time>
      </trkpt>
      <trkpt lat="47.57171" lon="-2.88638">
        <ele>51</ele>
        <time>2018-04-21T09:27:18Z</time>
      </trkpt>
      <trkpt lat="47.57175" lon="-2.88643">
        <ele>52</ele>
        <time>2018-04-21T09:27:22Z</time>
      </trkpt>
      <trkpt lat="47.57179" lon="-2.88649">
        <ele>53</ele>
        <time>2018-04-21T09:27:26Z</time>
      </trkpt>
      <trkpt lat="47.57181" lon="-2.88654">
        <ele>52</ele>
        <time>2018-04-21T09:27:30Z</time>
      </trkpt>
      <trkpt lat="47.57186" lon="-2.88657">
        <ele>54</ele>
        <time>2018-04-21T09:27:33Z</time>
      </trkpt>
      <trkpt lat="47.5719" lon="-2.88661">
        <ele>53</ele>
        <time>2018-04-21T09:27:36Z</time>
      </trkpt>
      <trkpt lat="47.57194" lon="-2.88665">
        <ele>54</ele>
        <time>2018-04-21T09:27:39Z</time>
      </trkpt>
      <trkpt lat="47.57198" lon="-2.88669">
        <ele>53</ele>
        <time>2018-04-21T09:27:42Z</time>
      </trkpt>
      <trkpt lat="47.57203" lon="-2.88673">
        <ele>54</ele>
        <time>2018-04-21T09:27:45Z</time>
      </trkpt>
      <trkpt lat="47.57207" lon="-2.88677">
        <ele>53</ele>
        <time>2018-04-21T09:27:48Z</time>
      </trkpt>
      <trkpt lat="47.57212" lon="-2.88683">
        <ele>54</ele>
        <time>2018-04-21T09:27:51Z</time>
      </trkpt>
      <trkpt lat="47.57215" lon="-2.88687">
        <ele>54</ele>
        <time>2018-04-21T09:27:54Z</time>
      </trkpt>
      <trkpt lat="47.5722" lon="-2.88693">
        <ele>55</ele>
        <time>2018-04-21T09:27:57Z</time>
      </trkpt>
      <trkpt lat="47.57225" lon="-2.88698">
        <ele>54</ele>
        <time>2018-04-21T09:28:00Z</time>
      </trkpt>
      <trkpt lat="47.57228" lon="-2.887">
        <ele>54</ele>
        <time>2018-04-21T09:28:02Z</time>
      </trkpt>
      <trkpt lat="47.57232" lon="-2.88705">
        <ele>52</ele>
        <time>2018-04-21T09:28:06Z</time>
      </trkpt>
      <trkpt lat="47.57237" lon="-2.88708">
        <ele>51</ele>
        <time>2018-04-21T09:28:11Z</time>
      </trkpt>
      <trkpt lat="47.57239" lon="-2.88709">
        <ele>51</ele>
        <time>2018-04-21T09:28:14Z</time>
      </trkpt>
      <trkpt lat="47.57243" lon="-2.88712">
        <ele>53</ele>
        <time>2018-04-21T09:28:20Z</time>
      </trkpt>
      <trkpt lat="47.57247" lon="-2.88715">
        <ele>53</ele>
        <time>2018-04-21T09:28:24Z</time>
      </trkpt>
      <trkpt lat="47.57249" lon="-2.88718">
        <ele>53</ele>
        <time>2018-04-21T09:28:26Z</time>
      </trkpt>
      <trkpt lat="47.57253" lon="-2.88724">
        <ele>53</ele>
        <time>2018-04-21T09:28:30Z</time>
      </trkpt>
      <trkpt lat="47.57255" lon="-2.88727">
        <ele>53</ele>
        <time>2018-04-21T09:28:32Z</time>
      </trkpt>
      <trkpt lat="47.57257" lon="-2.88731">
        <ele>52</ele>
        <time>2018-04-21T09:28:34Z</time>
      </trkpt>
      <trkpt lat="47.57259" lon="-2.88738">
        <ele>53</ele>
        <time>2018-04-21T09:28:37Z</time>
      </trkpt>
      <trkpt lat="47.57261" lon="-2.88744">
        <ele>53</ele>
        <time>2018-04-21T09:28:40Z</time>
      </trkpt>
      <trkpt lat="47.57264" lon="-2.88752">
        <ele>52</ele>
        <time>2018-04-21T09:28:43Z</time>
      </trkpt>
      <trkpt lat="47.57267" lon="-2.88758">
        <ele>52</ele>
        <time>2018-04-21T09:28:46Z</time>
      </trkpt>
      <trkpt lat="47.57272" lon="-2.88765">
        <ele>53</ele>
        <time>2018-04-21T09:28:49Z</time>
      </trkpt>
      <trkpt lat="47.57276" lon="-2.88771">
        <ele>52</ele>
        <time>2018-04-21T09:28:52Z</time>
      </trkpt>
      <trkpt lat="47.57279" lon="-2.88776">
        <ele>51</ele>
        <time>2018-04-21T09:28:54Z</time>
      </trkpt>
      <trkpt lat="47.57282" lon="-2.88784">
        <ele>53</ele>
        <time>2018-04-21T09:28:57Z</time>
      </trkpt>
      <trkpt lat="47.57283" lon="-2.88793">
        <ele>52</ele>
        <time>2018-04-21T09:29:00Z</time>
      </trkpt>
      <trkpt lat="47.57283" lon="-2.88804">
        <ele>52</ele>
        <time>2018-04-21T09:29:03Z</time>
      </trkpt>
      <trkpt lat="47.57282" lon="-2.88809">
        <ele>50</ele>
        <time>2018-04-21T09:29:05Z</time>
      </trkpt>
      <trkpt lat="47.57283" lon="-2.88818">
        <ele>51</ele>
        <time>2018-04-21T09:29:08Z</time>
      </trkpt>
      <trkpt lat="47.57282" lon="-2.88828">
        <ele>48</ele>
        <time>2018-04-21T09:29:11Z</time>
      </trkpt>
      <trkpt lat="47.57283" lon="-2.88836">
        <ele>48</ele>
        <time>2018-04-21T09:29:14Z</time>
      </trkpt>
      <trkpt lat="47.57284" lon="-2.88844">
        <ele>49</ele>
        <time>2018-04-21T09:29:17Z</time>
      </trkpt>
      <trkpt lat="47.57285" lon="-2.88848">
        <ele>49</ele>
        <time>2018-04-21T09:29:19Z</time>
      </trkpt>
      <trkpt lat="47.57288" lon="-2.88855">
        <ele>50</ele>
        <time>2018-04-21T09:29:22Z</time>
      </trkpt>
      <trkpt lat="47.57291" lon="-2.88859">
        <ele>50</ele>
        <time>2018-04-21T09:29:24Z</time>
      </trkpt>
      <trkpt lat="47.57294" lon="-2.88864">
        <ele>52</ele>
        <time>2018-04-21T09:29:27Z</time>
      </trkpt>
      <trkpt lat="47.57298" lon="-2.88871">
        <ele>52</ele>
        <time>2018-04-21T09:29:30Z</time>
      </trkpt>
      <trkpt lat="47.57301" lon="-2.88877">
        <ele>52</ele>
        <time>2018-04-21T09:29:33Z</time>
      </trkpt>
      <trkpt lat="47.57303" lon="-2.88885">
        <ele>52</ele>
        <time>2018-04-21T09:29:36Z</time>
      </trkpt>
      <trkpt lat="47.57306" lon="-2.88893">
        <ele>54</ele>
        <time>2018-04-21T09:29:39Z</time>
      </trkpt>
      <trkpt lat="47.57307" lon="-2.889">
        <ele>54</ele>
        <time>2018-04-21T09:29:42Z</time>
      </trkpt>
      <trkpt lat="47.57309" lon="-2.88905">
        <ele>54</ele>
        <time>2018-04-21T09:29:44Z</time>
      </trkpt>
      <trkpt lat="47.57311" lon="-2.88912">
        <ele>54</ele>
        <time>2018-04-21T09:29:47Z</time>
      </trkpt>
      <trkpt lat="47.57312" lon="-2.8892">
        <ele>54</ele>
        <time>2018-04-21T09:29:50Z</time>
      </trkpt>
      <trkpt lat="47.57313" lon="-2.88925">
        <ele>54</ele>
        <time>2018-04-21T09:29:52Z</time>
      </trkpt>
      <trkpt lat="47.57316" lon="-2.88933">
        <ele>54</ele>
        <time>2018-04-21T09:29:55Z</time>
      </trkpt>
      <trkpt lat="47.57317" lon="-2.88941">
        <ele>55</ele>
        <time>2018-04-21T09:29:58Z</time>
      </trkpt>
      <trkpt lat="47.57318" lon="-2.88946">
        <ele>55</ele>
        <time>2018-04-21T09:30:00Z</time>
      </trkpt>
      <trkpt lat="47.57318" lon="-2.88955">
        <ele>54</ele>
        <time>2018-04-21T09:30:03Z</time>
      </trkpt>
      <trkpt lat="47.57318" lon="-2.8896">
        <ele>54</ele>
        <time>2018-04-21T09:30:05Z</time>
      </trkpt>
      <trkpt lat="47.57318" lon="-2.88967">
        <ele>55</ele>
        <time>2018-04-21T09:30:08Z</time>
      </trkpt>
      <trkpt lat="47.57318" lon="-2.88971">
        <ele>54</ele>
        <time>2018-04-21T09:30:10Z</time>
      </trkpt>
      <trkpt lat="47.57316" lon="-2.88977">
        <ele>54</ele>
        <time>2018-04-21T09:30:14Z</time>
      </trkpt>
      <trkpt lat="47.57313" lon="-2.88984">
        <ele>53</ele>
        <time>2018-04-21T09:30:18Z</time>
      </trkpt>
      <trkpt lat="47.5731" lon="-2.88992">
        <ele>54</ele>
        <time>2018-04-21T09:30:22Z</time>
      </trkpt>
      <trkpt lat="47.5731" lon="-2.89001">
        <ele>54</ele>
        <time>2018-04-21T09:30:26Z</time>
      </trkpt>
      <trkpt lat="47.5731" lon="-2.8901">
        <ele>54</ele>
        <time>2018-04-21T09:30:30Z</time>
      </trkpt>
      <trkpt lat="47.5731" lon="-2.89017">
        <ele>54</ele>
        <time>2018-04-21T09:30:33Z</time>
      </trkpt>
      <trkpt lat="47.57309" lon="-2.89023">
        <ele>54</ele>
        <time>2018-04-21T09:30:35Z</time>
      </trkpt>
      <trkpt lat="47.57309" lon="-2.89029">
        <ele>54</ele>
        <time>2018-04-21T09:30:37Z</time>
      </trkpt>
      <trkpt lat="47.57307" lon="-2.89036">
        <ele>54</ele>
        <time>2018-04-21T09:30:40Z</time>
      </trkpt>
      <trkpt lat="47.57306" lon="-2.89045">
        <ele>54</ele>
        <time>2018-04-21T09:30:43Z</time>
      </trkpt>
      <trkpt lat="47.57305" lon="-2.89054">
        <ele>54</ele>
        <time>2018-04-21T09:30:46Z</time>
      </trkpt>
      <trkpt lat="47.57305" lon="-2.89061">
        <ele>53</ele>
        <time>2018-04-21T09:30:49Z</time>
      </trkpt>
      <trkpt lat="47.57305" lon="-2.89066">
        <ele>53</ele>
        <time>2018-04-21T09:30:51Z</time>
      </trkpt>
      <trkpt lat="47.57305" lon="-2.89071">
        <ele>53</ele>
        <time>2018-04-21T09:30:53Z</time>
      </trkpt>
      <trkpt lat="47.57305" lon="-2.8908">
        <ele>53</ele>
        <time>2018-04-21T09:30:57Z</time>
      </trkpt>
      <trkpt lat="47.57305" lon="-2.89085">
        <ele>53</ele>
        <time>2018-04-21T09:30:59Z</time>
      </trkpt>
      <trkpt lat="47.57304" lon="-2.89089">
        <ele>53</ele>
        <time>2018-04-21T09:31:01Z</time>
      </trkpt>
      <trkpt lat="47.57305" lon="-2.89097">
        <ele>55</ele>
        <time>2018-04-21T09:31:04Z</time>
      </trkpt>
      <trkpt lat="47.57306" lon="-2.89103">
        <ele>54</ele>
        <time>2018-04-21T09:31:06Z</time>
      </trkpt>
      <trkpt lat="47.57306" lon="-2.89108">
        <ele>55</ele>
        <time>2018-04-21T09:31:08Z</time>
      </trkpt>
      <trkpt lat="47.57307" lon="-2.89113">
        <ele>54</ele>
        <time>2018-04-21T09:31:10Z</time>
      </trkpt>
      <trkpt lat="47.57308" lon="-2.89118">
        <ele>54</ele>
        <time>2018-04-21T09:31:12Z</time>
      </trkpt>
      <trkpt lat="47.57309" lon="-2.89126">
        <ele>54</ele>
        <time>2018-04-21T09:31:15Z</time>
      </trkpt>
      <trkpt lat="47.57311" lon="-2.89133">
        <ele>53</ele>
        <time>2018-04-21T09:31:18Z</time>
      </trkpt>
      <trkpt lat="47.57312" lon="-2.89136">
        <ele>53</ele>
        <time>2018-04-21T09:31:19Z</time>
      </trkpt>
      <trkpt lat="47.57314" lon="-2.89144">
        <ele>55</ele>
        <time>2018-04-21T09:31:22Z</time>
      </trkpt>
      <trkpt lat="47.57316" lon="-2.89152">
        <ele>55</ele>
        <time>2018-04-21T09:31:25Z</time>
      </trkpt>
      <trkpt lat="47.57318" lon="-2.89157">
        <ele>55</ele>
        <time>2018-04-21T09:31:27Z</time>
      </trkpt>
      <trkpt lat="47.57319" lon="-2.89164">
        <ele>55</ele>
        <time>2018-04-21T09:31:30Z</time>
      </trkpt>
      <trkpt lat="47.5732" lon="-2.89171">
        <ele>55</ele>
        <time>2018-04-21T09:31:33Z</time>
      </trkpt>
      <trkpt lat="47.57321" lon="-2.89176">
        <ele>56</ele>
        <time>2018-04-21T09:31:36Z</time>
      </trkpt>
      <trkpt lat="47.57321" lon="-2.8918">
        <ele>56</ele>
        <time>2018-04-21T09:31:38Z</time>
      </trkpt>
      <trkpt lat="47.57322" lon="-2.89184">
        <ele>56</ele>
        <time>2018-04-21T09:31:40Z</time>
      </trkpt>
      <trkpt lat="47.57324" lon="-2.89191">
        <ele>56</ele>
        <time>2018-04-21T09:31:43Z</time>
      </trkpt>
      <trkpt lat="47.57325" lon="-2.89196">
        <ele>56</ele>
        <time>2018-04-21T09:31:45Z</time>
      </trkpt>
      <trkpt lat="47.57327" lon="-2.89202">
        <ele>55</ele>
        <time>2018-04-21T09:31:48Z</time>
      </trkpt>
      <trkpt lat="47.5733" lon="-2.8921">
        <ele>55</ele>
        <time>2018-04-21T09:31:51Z</time>
      </trkpt>
      <trkpt lat="47.57332" lon="-2.89218">
        <ele>55</ele>
        <time>2018-04-21T09:31:54Z</time>
      </trkpt>
      <trkpt lat="47.57335" lon="-2.89226">
        <ele>55</ele>
        <time>2018-04-21T09:31:57Z</time>
      </trkpt>
      <trkpt lat="47.57335" lon="-2.89235">
        <ele>55</ele>
        <time>2018-04-21T09:32:00Z</time>
      </trkpt>
      <trkpt lat="47.57335" lon="-2.89243">
        <ele>53</ele>
        <time>2018-04-21T09:32:03Z</time>
      </trkpt>
      <trkpt lat="47.57336" lon="-2.89251">
        <ele>53</ele>
        <time>2018-04-21T09:32:06Z</time>
      </trkpt>
      <trkpt lat="47.57338" lon="-2.89258">
        <ele>53</ele>
        <time>2018-04-21T09:32:09Z</time>
      </trkpt>
      <trkpt lat="47.5734" lon="-2.89263">
        <ele>54</ele>
        <time>2018-04-21T09:32:11Z</time>
      </trkpt>
      <trkpt lat="47.57343" lon="-2.89271">
        <ele>54</ele>
        <time>2018-04-21T09:32:14Z</time>
      </trkpt>
      <trkpt lat="47.57347" lon="-2.89278">
        <ele>55</ele>
        <time>2018-04-21T09:32:17Z</time>
      </trkpt>
      <trkpt lat="47.57347" lon="-2.89285">
        <ele>56</ele>
        <time>2018-04-21T09:32:20Z</time>
      </trkpt>
      <trkpt lat="47.57348" lon="-2.89291">
        <ele>54</ele>
        <time>2018-04-21T09:32:22Z</time>
      </trkpt>
      <trkpt lat="47.57352" lon="-2.89298">
        <ele>55</ele>
        <time>2018-04-21T09:32:25Z</time>
      </trkpt>
      <trkpt lat="47.57354" lon="-2.89306">
        <ele>54</ele>
        <time>2018-04-21T09:32:28Z</time>
      </trkpt>
      <trkpt lat="47.57356" lon="-2.89311">
        <ele>53</ele>
        <time>2018-04-21T09:32:30Z</time>
      </trkpt>
      <trkpt lat="47.57358" lon="-2.89314">
        <ele>52</ele>
        <time>2018-04-21T09:32:32Z</time>
      </trkpt>
      <trkpt lat="47.57362" lon="-2.8932">
        <ele>53</ele>
        <time>2018-04-21T09:32:35Z</time>
      </trkpt>
      <trkpt lat="47.57366" lon="-2.89326">
        <ele>54</ele>
        <time>2018-04-21T09:32:38Z</time>
      </trkpt>
      <trkpt lat="47.5737" lon="-2.89331">
        <ele>54</ele>
        <time>2018-04-21T09:32:41Z</time>
      </trkpt>
      <trkpt lat="47.57374" lon="-2.89337">
        <ele>54</ele>
        <time>2018-04-21T09:32:44Z</time>
      </trkpt>
      <trkpt lat="47.57376" lon="-2.89342">
        <ele>54</ele>
        <time>2018-04-21T09:32:46Z</time>
      </trkpt>
      <trkpt lat="47.57379" lon="-2.89348">
        <ele>52</ele>
        <time>2018-04-21T09:32:49Z</time>
      </trkpt>
      <trkpt lat="47.57383" lon="-2.89354">
        <ele>53</ele>
        <time>2018-04-21T09:32:53Z</time>
      </trkpt>
      <trkpt lat="47.57386" lon="-2.89357">
        <ele>53</ele>
        <time>2018-04-21T09:32:56Z</time>
      </trkpt>
      <trkpt lat="47.5739" lon="-2.89363">
        <ele>52</ele>
        <time>2018-04-21T09:33:00Z</time>
      </trkpt>
      <trkpt lat="47.57392" lon="-2.89366">
        <ele>53</ele>
        <time>2018-04-21T09:33:03Z</time>
      </trkpt>
      <trkpt lat="47.57394" lon="-2.8937">
        <ele>53</ele>
        <time>2018-04-21T09:33:06Z</time>
      </trkpt>
      <trkpt lat="47.57396" lon="-2.89373">
        <ele>54</ele>
        <time>2018-04-21T09:33:09Z</time>
      </trkpt>
      <trkpt lat="47.57398" lon="-2.89376">
        <ele>53</ele>
        <time>2018-04-21T09:33:12Z</time>
      </trkpt>
      <trkpt lat="47.57403" lon="-2.8938">
        <ele>53</ele>
        <time>2018-04-21T09:33:17Z</time>
      </trkpt>
      <trkpt lat="47.57406" lon="-2.89382">
        <ele>54</ele>
        <time>2018-04-21T09:33:19Z</time>
      </trkpt>
      <trkpt lat="47.57411" lon="-2.89385">
        <ele>54</ele>
        <time>2018-04-21T09:33:23Z</time>
      </trkpt>
      <trkpt lat="47.57415" lon="-2.89387">
        <ele>53</ele>
        <time>2018-04-21T09:33:27Z</time>
      </trkpt>
      <trkpt lat="47.57421" lon="-2.89389">
        <ele>53</ele>
        <time>2018-04-21T09:33:31Z</time>
      </trkpt>
      <trkpt lat="47.57424" lon="-2.8939">
        <ele>52</ele>
        <time>2018-04-21T09:33:33Z</time>
      </trkpt>
      <trkpt lat="47.57432" lon="-2.89391">
        <ele>53</ele>
        <time>2018-04-21T09:33:36Z</time>
      </trkpt>
      <trkpt lat="47.57437" lon="-2.89393">
        <ele>53</ele>
        <time>2018-04-21T09:33:40Z</time>
      </trkpt>
      <trkpt lat="47.57439" lon="-2.89394">
        <ele>52</ele>
        <time>2018-04-21T09:33:41Z</time>
      </trkpt>
      <trkpt lat="47.57445" lon="-2.89395">
        <ele>51</ele>
        <time>2018-04-21T09:33:44Z</time>
      </trkpt>
      <trkpt lat="47.57448" lon="-2.89396">
        <ele>52</ele>
        <time>2018-04-21T09:33:46Z</time>
      </trkpt>
      <trkpt lat="47.57451" lon="-2.89397">
        <ele>52</ele>
        <time>2018-04-21T09:33:48Z</time>
      </trkpt>
      <trkpt lat="47.57456" lon="-2.89399">
        <ele>53</ele>
        <time>2018-04-21T09:33:51Z</time>
      </trkpt>
      <trkpt lat="47.5746" lon="-2.89401">
        <ele>53</ele>
        <time>2018-04-21T09:33:54Z</time>
      </trkpt>
      <trkpt lat="47.57463" lon="-2.89403">
        <ele>53</ele>
        <time>2018-04-21T09:33:56Z</time>
      </trkpt>
      <trkpt lat="47.57466" lon="-2.89404">
        <ele>53</ele>
        <time>2018-04-21T09:33:58Z</time>
      </trkpt>
      <trkpt lat="47.57469" lon="-2.89406">
        <ele>54</ele>
        <time>2018-04-21T09:34:00Z</time>
      </trkpt>
      <trkpt lat="47.57473" lon="-2.89408">
        <ele>54</ele>
        <time>2018-04-21T09:34:02Z</time>
      </trkpt>
      <trkpt lat="47.57477" lon="-2.89411">
        <ele>53</ele>
        <time>2018-04-21T09:34:04Z</time>
      </trkpt>
      <trkpt lat="47.57481" lon="-2.89414">
        <ele>53</ele>
        <time>2018-04-21T09:34:08Z</time>
      </trkpt>
      <trkpt lat="47.57486" lon="-2.89417">
        <ele>53</ele>
        <time>2018-04-21T09:34:10Z</time>
      </trkpt>
      <trkpt lat="47.57489" lon="-2.89419">
        <ele>53</ele>
        <time>2018-04-21T09:34:13Z</time>
      </trkpt>
      <trkpt lat="47.57493" lon="-2.89422">
        <ele>54</ele>
        <time>2018-04-21T09:34:16Z</time>
      </trkpt>
      <trkpt lat="47.57498" lon="-2.89426">
        <ele>54</ele>
        <time>2018-04-21T09:34:19Z</time>
      </trkpt>
      <trkpt lat="47.57504" lon="-2.8943">
        <ele>54</ele>
        <time>2018-04-21T09:34:22Z</time>
      </trkpt>
      <trkpt lat="47.5751" lon="-2.89432">
        <ele>55</ele>
        <time>2018-04-21T09:34:27Z</time>
      </trkpt>
      <trkpt lat="47.57513" lon="-2.89433">
        <ele>54</ele>
        <time>2018-04-21T09:34:29Z</time>
      </trkpt>
      <trkpt lat="47.57518" lon="-2.89436">
        <ele>54</ele>
        <time>2018-04-21T09:34:32Z</time>
      </trkpt>
      <trkpt lat="47.57521" lon="-2.89437">
        <ele>54</ele>
        <time>2018-04-21T09:34:34Z</time>
      </trkpt>
      <trkpt lat="47.57525" lon="-2.8944">
        <ele>55</ele>
        <time>2018-04-21T09:34:37Z</time>
      </trkpt>
      <trkpt lat="47.57529" lon="-2.89441">
        <ele>55</ele>
        <time>2018-04-21T09:34:40Z</time>
      </trkpt>
      <trkpt lat="47.57533" lon="-2.89443">
        <ele>55</ele>
        <time>2018-04-21T09:34:42Z</time>
      </trkpt>
      <trkpt lat="47.57537" lon="-2.89447">
        <ele>55</ele>
        <time>2018-04-21T09:34:45Z</time>
      </trkpt>
      <trkpt lat="47.57541" lon="-2.8945">
        <ele>55</ele>
        <time>2018-04-21T09:34:48Z</time>
      </trkpt>
      <trkpt lat="47.57545" lon="-2.89453">
        <ele>56</ele>
        <time>2018-04-21T09:34:52Z</time>
      </trkpt>
      <trkpt lat="47.57548" lon="-2.89459">
        <ele>55</ele>
        <time>2018-04-21T09:34:57Z</time>
      </trkpt>
      <trkpt lat="47.5755" lon="-2.89462">
        <ele>55</ele>
        <time>2018-04-21T09:35:01Z</time>
      </trkpt>
      <trkpt lat="47.57551" lon="-2.89464">
        <ele>54</ele>
        <time>2018-04-21T09:35:05Z</time>
      </trkpt>
      <trkpt lat="47.57553" lon="-2.89467">
        <ele>54</ele>
        <time>2018-04-21T09:35:07Z</time>
      </trkpt>
      <trkpt lat="47.57558" lon="-2.89471">
        <ele>55</ele>
        <time>2018-04-21T09:35:11Z</time>
      </trkpt>
      <trkpt lat="47.57562" lon="-2.89475">
        <ele>54</ele>
        <time>2018-04-21T09:35:14Z</time>
      </trkpt>
      <trkpt lat="47.57565" lon="-2.89478">
        <ele>55</ele>
        <time>2018-04-21T09:35:16Z</time>
      </trkpt>
      <trkpt lat="47.5757" lon="-2.89481">
        <ele>55</ele>
        <time>2018-04-21T09:35:19Z</time>
      </trkpt>
      <trkpt lat="47.57574" lon="-2.89486">
        <ele>55</ele>
        <time>2018-04-21T09:35:22Z</time>
      </trkpt>
      <trkpt lat="47.57578" lon="-2.89489">
        <ele>55</ele>
        <time>2018-04-21T09:35:24Z</time>
      </trkpt>
      <trkpt lat="47.57583" lon="-2.89493">
        <ele>55</ele>
        <time>2018-04-21T09:35:27Z</time>
      </trkpt>
      <trkpt lat="47.57587" lon="-2.89498">
        <ele>56</ele>
        <time>2018-04-21T09:35:30Z</time>
      </trkpt>
      <trkpt lat="47.57591" lon="-2.89503">
        <ele>56</ele>
        <time>2018-04-21T09:35:34Z</time>
      </trkpt>
      <trkpt lat="47.57596" lon="-2.89507">
        <ele>55</ele>
        <time>2018-04-21T09:35:37Z</time>
      </trkpt>
      <trkpt lat="47.57599" lon="-2.8951">
        <ele>55</ele>
        <time>2018-04-21T09:35:39Z</time>
      </trkpt>
      <trkpt lat="47.57605" lon="-2.89512">
        <ele>56</ele>
        <time>2018-04-21T09:35:42Z</time>
      </trkpt>
      <trkpt lat="47.5761" lon="-2.89516">
        <ele>55</ele>
        <time>2018-04-21T09:35:45Z</time>
      </trkpt>
      <trkpt lat="47.57614" lon="-2.89518">
        <ele>56</ele>
        <time>2018-04-21T09:35:47Z</time>
      </trkpt>
      <trkpt lat="47.57618" lon="-2.8952">
        <ele>56</ele>
        <time>2018-04-21T09:35:49Z</time>
      </trkpt>
      <trkpt lat="47.57622" lon="-2.89525">
        <ele>57</ele>
        <time>2018-04-21T09:35:52Z</time>
      </trkpt>
      <trkpt lat="47.57627" lon="-2.89527">
        <ele>57</ele>
        <time>2018-04-21T09:35:54Z</time>
      </trkpt>
      <trkpt lat="47.57632" lon="-2.89532">
        <ele>58</ele>
        <time>2018-04-21T09:35:57Z</time>
      </trkpt>
      <trkpt lat="47.57637" lon="-2.89537">
        <ele>57</ele>
        <time>2018-04-21T09:36:00Z</time>
      </trkpt>
      <trkpt lat="47.5764" lon="-2.8954">
        <ele>58</ele>
        <time>2018-04-21T09:36:02Z</time>
      </trkpt>
      <trkpt lat="47.57643" lon="-2.89542">
        <ele>58</ele>
        <time>2018-04-21T09:36:05Z</time>
      </trkpt>
      <trkpt lat="47.57647" lon="-2.89544">
        <ele>58</ele>
        <time>2018-04-21T09:36:07Z</time>
      </trkpt>
      <trkpt lat="47.57651" lon="-2.89547">
        <ele>57</ele>
        <time>2018-04-21T09:36:10Z</time>
      </trkpt>
      <trkpt lat="47.57655" lon="-2.89551">
        <ele>56</ele>
        <time>2018-04-21T09:36:12Z</time>
      </trkpt>
      <trkpt lat="47.57659" lon="-2.89554">
        <ele>56</ele>
        <time>2018-04-21T09:36:14Z</time>
      </trkpt>
      <trkpt lat="47.57662" lon="-2.89557">
        <ele>56</ele>
        <time>2018-04-21T09:36:16Z</time>
      </trkpt>
      <trkpt lat="47.5767" lon="-2.89562">
        <ele>56</ele>
        <time>2018-04-21T09:36:20Z</time>
      </trkpt>
      <trkpt lat="47.57673" lon="-2.89564">
        <ele>55</ele>
        <time>2018-04-21T09:36:22Z</time>
      </trkpt>
      <trkpt lat="47.57677" lon="-2.89566">
        <ele>55</ele>
        <time>2018-04-21T09:36:25Z</time>
      </trkpt>
      <trkpt lat="47.57684" lon="-2.89573">
        <ele>56</ele>
        <time>2018-04-21T09:36:28Z</time>
      </trkpt>
      <trkpt lat="47.57688" lon="-2.89576">
        <ele>56</ele>
        <time>2018-04-21T09:36:31Z</time>
      </trkpt>
      <trkpt lat="47.57692" lon="-2.89581">
        <ele>55</ele>
        <time>2018-04-21T09:36:34Z</time>
      </trkpt>
      <trkpt lat="47.57696" lon="-2.89586">
        <ele>55</ele>
        <time>2018-04-21T09:36:37Z</time>
      </trkpt>
      <trkpt lat="47.577" lon="-2.89591">
        <ele>55</ele>
        <time>2018-04-21T09:36:40Z</time>
      </trkpt>
      <trkpt lat="47.57703" lon="-2.89594">
        <ele>56</ele>
        <time>2018-04-21T09:36:42Z</time>
      </trkpt>
      <trkpt lat="47.57706" lon="-2.896">
        <ele>55</ele>
        <time>2018-04-21T09:36:45Z</time>
      </trkpt>
      <trkpt lat="47.57708" lon="-2.89603">
        <ele>56</ele>
        <time>2018-04-21T09:36:47Z</time>
      </trkpt>
      <trkpt lat="47.57712" lon="-2.89608">
        <ele>55</ele>
        <time>2018-04-21T09:36:51Z</time>
      </trkpt>
      <trkpt lat="47.57715" lon="-2.89614">
        <ele>54</ele>
        <time>2018-04-21T09:36:54Z</time>
      </trkpt>
      <trkpt lat="47.57719" lon="-2.8962">
        <ele>54</ele>
        <time>2018-04-21T09:36:57Z</time>
      </trkpt>
      <trkpt lat="47.57722" lon="-2.89624">
        <ele>54</ele>
        <time>2018-04-21T09:36:59Z</time>
      </trkpt>
      <trkpt lat="47.57725" lon="-2.89628">
        <ele>55</ele>
        <time>2018-04-21T09:37:01Z</time>
      </trkpt>
      <trkpt lat="47.57729" lon="-2.89631">
        <ele>56</ele>
        <time>2018-04-21T09:37:03Z</time>
      </trkpt>
      <trkpt lat="47.57733" lon="-2.89637">
        <ele>56</ele>
        <time>2018-04-21T09:37:06Z</time>
      </trkpt>
      <trkpt lat="47.57736" lon="-2.89642">
        <ele>56</ele>
        <time>2018-04-21T09:37:08Z</time>
      </trkpt>
      <trkpt lat="47.5774" lon="-2.89648">
        <ele>55</ele>
        <time>2018-04-21T09:37:11Z</time>
      </trkpt>
      <trkpt lat="47.57744" lon="-2.89655">
        <ele>55</ele>
        <time>2018-04-21T09:37:14Z</time>
      </trkpt>
      <trkpt lat="47.57748" lon="-2.89662">
        <ele>55</ele>
        <time>2018-04-21T09:37:17Z</time>
      </trkpt>
      <trkpt lat="47.57753" lon="-2.89668">
        <ele>57</ele>
        <time>2018-04-21T09:37:20Z</time>
      </trkpt>
      <trkpt lat="47.57754" lon="-2.8967">
        <ele>57</ele>
        <time>2018-04-21T09:37:21Z</time>
      </trkpt>
      <trkpt lat="47.57758" lon="-2.89677">
        <ele>57</ele>
        <time>2018-04-21T09:37:24Z</time>
      </trkpt>
      <trkpt lat="47.57762" lon="-2.89684">
        <ele>57</ele>
        <time>2018-04-21T09:37:27Z</time>
      </trkpt>
      <trkpt lat="47.57767" lon="-2.89691">
        <ele>59</ele>
        <time>2018-04-21T09:37:30Z</time>
      </trkpt>
      <trkpt lat="47.57769" lon="-2.89694">
        <ele>59</ele>
        <time>2018-04-21T09:37:31Z</time>
      </trkpt>
      <trkpt lat="47.57774" lon="-2.89703">
        <ele>59</ele>
        <time>2018-04-21T09:37:35Z</time>
      </trkpt>
      <trkpt lat="47.57777" lon="-2.89707">
        <ele>59</ele>
        <time>2018-04-21T09:37:37Z</time>
      </trkpt>
      <trkpt lat="47.5778" lon="-2.89712">
        <ele>58</ele>
        <time>2018-04-21T09:37:40Z</time>
      </trkpt>
      <trkpt lat="47.57785" lon="-2.89717">
        <ele>57</ele>
        <time>2018-04-21T09:37:43Z</time>
      </trkpt>
      <trkpt lat="47.57787" lon="-2.8972">
        <ele>58</ele>
        <time>2018-04-21T09:37:45Z</time>
      </trkpt>
      <trkpt lat="47.5779" lon="-2.89727">
        <ele>58</ele>
        <time>2018-04-21T09:37:48Z</time>
      </trkpt>
      <trkpt lat="47.57793" lon="-2.89734">
        <ele>57</ele>
        <time>2018-04-21T09:37:51Z</time>
      </trkpt>
      <trkpt lat="47.57794" lon="-2.89737">
        <ele>57</ele>
        <time>2018-04-21T09:37:53Z</time>
      </trkpt>
      <trkpt lat="47.57796" lon="-2.89741">
        <ele>57</ele>
        <time>2018-04-21T09:37:56Z</time>
      </trkpt>
      <trkpt lat="47.57798" lon="-2.89748">
        <ele>56</ele>
        <time>2018-04-21T09:38:00Z</time>
      </trkpt>
      <trkpt lat="47.578" lon="-2.89755">
        <ele>56</ele>
        <time>2018-04-21T09:38:05Z</time>
      </trkpt>
      <trkpt lat="47.57801" lon="-2.89759">
        <ele>55</ele>
        <time>2018-04-21T09:38:07Z</time>
      </trkpt>
      <trkpt lat="47.57802" lon="-2.89766">
        <ele>55</ele>
        <time>2018-04-21T09:38:10Z</time>
      </trkpt>
      <trkpt lat="47.57806" lon="-2.89773">
        <ele>57</ele>
        <time>2018-04-21T09:38:13Z</time>
      </trkpt>
      <trkpt lat="47.57808" lon="-2.89777">
        <ele>57</ele>
        <time>2018-04-21T09:38:15Z</time>
      </trkpt>
      <trkpt lat="47.57811" lon="-2.89784">
        <ele>58</ele>
        <time>2018-04-21T09:38:18Z</time>
      </trkpt>
      <trkpt lat="47.57813" lon="-2.89791">
        <ele>56</ele>
        <time>2018-04-21T09:38:21Z</time>
      </trkpt>
      <trkpt lat="47.57817" lon="-2.89797">
        <ele>57</ele>
        <time>2018-04-21T09:38:24Z</time>
      </trkpt>
      <trkpt lat="47.57819" lon="-2.89805">
        <ele>56</ele>
        <time>2018-04-21T09:38:27Z</time>
      </trkpt>
      <trkpt lat="47.57823" lon="-2.89813">
        <ele>55</ele>
        <time>2018-04-21T09:38:30Z</time>
      </trkpt>
      <trkpt lat="47.57827" lon="-2.8982">
        <ele>55</ele>
        <time>2018-04-21T09:38:33Z</time>
      </trkpt>
      <trkpt lat="47.57831" lon="-2.89827">
        <ele>56</ele>
        <time>2018-04-21T09:38:36Z</time>
      </trkpt>
      <trkpt lat="47.57834" lon="-2.89834">
        <ele>56</ele>
        <time>2018-04-21T09:38:39Z</time>
      </trkpt>
      <trkpt lat="47.57837" lon="-2.8984">
        <ele>56</ele>
        <time>2018-04-21T09:38:42Z</time>
      </trkpt>
      <trkpt lat="47.57839" lon="-2.89843">
        <ele>57</ele>
        <time>2018-04-21T09:38:43Z</time>
      </trkpt>
      <trkpt lat="47.57842" lon="-2.8985">
        <ele>57</ele>
        <time>2018-04-21T09:38:46Z</time>
      </trkpt>
      <trkpt lat="47.57845" lon="-2.89854">
        <ele>57</ele>
        <time>2018-04-21T09:38:48Z</time>
      </trkpt>
      <trkpt lat="47.57847" lon="-2.89858">
        <ele>57</ele>
        <time>2018-04-21T09:38:50Z</time>
      </trkpt>
      <trkpt lat="47.5785" lon="-2.89863">
        <ele>57</ele>
        <time>2018-04-21T09:38:52Z</time>
      </trkpt>
      <trkpt lat="47.57853" lon="-2.89871">
        <ele>58</ele>
        <time>2018-04-21T09:38:55Z</time>
      </trkpt>
      <trkpt lat="47.57854" lon="-2.89874">
        <ele>58</ele>
        <time>2018-04-21T09:38:56Z</time>
      </trkpt>
      <trkpt lat="47.57857" lon="-2.89882">
        <ele>58</ele>
        <time>2018-04-21T09:38:59Z</time>
      </trkpt>
      <trkpt lat="47.57859" lon="-2.89887">
        <ele>57</ele>
        <time>2018-04-21T09:39:01Z</time>
      </trkpt>
      <trkpt lat="47.57862" lon="-2.89895">
        <ele>57</ele>
        <time>2018-04-21T09:39:04Z</time>
      </trkpt>
      <trkpt lat="47.57863" lon="-2.89898">
        <ele>57</ele>
        <time>2018-04-21T09:39:05Z</time>
      </trkpt>
      <trkpt lat="47.57865" lon="-2.89903">
        <ele>57</ele>
        <time>2018-04-21T09:39:07Z</time>
      </trkpt>
      <trkpt lat="47.57867" lon="-2.89908">
        <ele>57</ele>
        <time>2018-04-21T09:39:09Z</time>
      </trkpt>
      <trkpt lat="47.57869" lon="-2.89913">
        <ele>57</ele>
        <time>2018-04-21T09:39:11Z</time>
      </trkpt>
      <trkpt lat="47.57871" lon="-2.89917">
        <ele>56</ele>
        <time>2018-04-21T09:39:13Z</time>
      </trkpt>
      <trkpt lat="47.57873" lon="-2.89922">
        <ele>55</ele>
        <time>2018-04-21T09:39:15Z</time>
      </trkpt>
      <trkpt lat="47.57877" lon="-2.89929">
        <ele>56</ele>
        <time>2018-04-21T09:39:18Z</time>
      </trkpt>
      <trkpt lat="47.57881" lon="-2.89935">
        <ele>56</ele>
        <time>2018-04-21T09:39:21Z</time>
      </trkpt>
      <trkpt lat="47.57884" lon="-2.8994">
        <ele>56</ele>
        <time>2018-04-21T09:39:23Z</time>
      </trkpt>
      <trkpt lat="47.57887" lon="-2.89945">
        <ele>55</ele>
        <time>2018-04-21T09:39:26Z</time>
      </trkpt>
      <trkpt lat="47.57889" lon="-2.89948">
        <ele>55</ele>
        <time>2018-04-21T09:39:28Z</time>
      </trkpt>
      <trkpt lat="47.57892" lon="-2.89954">
        <ele>56</ele>
        <time>2018-04-21T09:39:31Z</time>
      </trkpt>
      <trkpt lat="47.57894" lon="-2.89959">
        <ele>55</ele>
        <time>2018-04-21T09:39:33Z</time>
      </trkpt>
      <trkpt lat="47.57896" lon="-2.89966">
        <ele>55</ele>
        <time>2018-04-21T09:39:37Z</time>
      </trkpt>
      <trkpt lat="47.57897" lon="-2.89972">
        <ele>54</ele>
        <time>2018-04-21T09:39:42Z</time>
      </trkpt>
      <trkpt lat="47.57897" lon="-2.89976">
        <ele>52</ele>
        <time>2018-04-21T09:39:44Z</time>
      </trkpt>
      <trkpt lat="47.57899" lon="-2.89983">
        <ele>54</ele>
        <time>2018-04-21T09:39:51Z</time>
      </trkpt>
      <trkpt lat="47.57901" lon="-2.89988">
        <ele>55</ele>
        <time>2018-04-21T09:39:54Z</time>
      </trkpt>
      <trkpt lat="47.57903" lon="-2.89996">
        <ele>54</ele>
        <time>2018-04-21T09:39:57Z</time>
      </trkpt>
      <trkpt lat="47.57904" lon="-2.90001">
        <ele>55</ele>
        <time>2018-04-21T09:39:59Z</time>
      </trkpt>
      <trkpt lat="47.57907" lon="-2.90007">
        <ele>55</ele>
        <time>2018-04-21T09:40:03Z</time>
      </trkpt>
      <trkpt lat="47.57909" lon="-2.90011">
        <ele>54</ele>
        <time>2018-04-21T09:40:07Z</time>
      </trkpt>
      <trkpt lat="47.5791" lon="-2.90014">
        <ele>54</ele>
        <time>2018-04-21T09:40:10Z</time>
      </trkpt>
      <trkpt lat="47.57914" lon="-2.90019">
        <ele>55</ele>
        <time>2018-04-21T09:40:15Z</time>
      </trkpt>
      <trkpt lat="47.57918" lon="-2.90024">
        <ele>55</ele>
        <time>2018-04-21T09:40:20Z</time>
      </trkpt>
      <trkpt lat="47.57921" lon="-2.90029">
        <ele>54</ele>
        <time>2018-04-21T09:40:22Z</time>
      </trkpt>
      <trkpt lat="47.57924" lon="-2.90036">
        <ele>53</ele>
        <time>2018-04-21T09:40:26Z</time>
      </trkpt>
      <trkpt lat="47.57927" lon="-2.90041">
        <ele>53</ele>
        <time>2018-04-21T09:40:28Z</time>
      </trkpt>
      <trkpt lat="47.57928" lon="-2.90044">
        <ele>53</ele>
        <time>2018-04-21T09:40:29Z</time>
      </trkpt>
      <trkpt lat="47.5793" lon="-2.90049">
        <ele>54</ele>
        <time>2018-04-21T09:40:31Z</time>
      </trkpt>
      <trkpt lat="47.57932" lon="-2.90057">
        <ele>52</ele>
        <time>2018-04-21T09:40:36Z</time>
      </trkpt>
      <trkpt lat="47.57934" lon="-2.90064">
        <ele>52</ele>
        <time>2018-04-21T09:40:38Z</time>
      </trkpt>
      <trkpt lat="47.57938" lon="-2.9007">
        <ele>52</ele>
        <time>2018-04-21T09:40:41Z</time>
      </trkpt>
      <trkpt lat="47.57942" lon="-2.90076">
        <ele>52</ele>
        <time>2018-04-21T09:40:44Z</time>
      </trkpt>
      <trkpt lat="47.57946" lon="-2.90083">
        <ele>53</ele>
        <time>2018-04-21T09:40:47Z</time>
      </trkpt>
      <trkpt lat="47.57948" lon="-2.90087">
        <ele>53</ele>
        <time>2018-04-21T09:40:49Z</time>
      </trkpt>
      <trkpt lat="47.5795" lon="-2.90091">
        <ele>54</ele>
        <time>2018-04-21T09:40:51Z</time>
      </trkpt>
      <trkpt lat="47.57952" lon="-2.90095">
        <ele>54</ele>
        <time>2018-04-21T09:40:53Z</time>
      </trkpt>
      <trkpt lat="47.57954" lon="-2.901">
        <ele>54</ele>
        <time>2018-04-21T09:40:55Z</time>
      </trkpt>
      <trkpt lat="47.57958" lon="-2.90106">
        <ele>55</ele>
        <time>2018-04-21T09:40:58Z</time>
      </trkpt>
      <trkpt lat="47.57962" lon="-2.90111">
        <ele>55</ele>
        <time>2018-04-21T09:41:01Z</time>
      </trkpt>
      <trkpt lat="47.57964" lon="-2.90114">
        <ele>55</ele>
        <time>2018-04-21T09:41:03Z</time>
      </trkpt>
      <trkpt lat="47.57966" lon="-2.90117">
        <ele>55</ele>
        <time>2018-04-21T09:41:05Z</time>
      </trkpt>
      <trkpt lat="47.57968" lon="-2.9012">
        <ele>54</ele>
        <time>2018-04-21T09:41:07Z</time>
      </trkpt>
      <trkpt lat="47.57972" lon="-2.90127">
        <ele>53</ele>
        <time>2018-04-21T09:41:10Z</time>
      </trkpt>
      <trkpt lat="47.57975" lon="-2.90133">
        <ele>54</ele>
        <time>2018-04-21T09:41:13Z</time>
      </trkpt>
      <trkpt lat="47.57976" lon="-2.90139">
        <ele>53</ele>
        <time>2018-04-21T09:41:15Z</time>
      </trkpt>
      <trkpt lat="47.5798" lon="-2.90146">
        <ele>53</ele>
        <time>2018-04-21T09:41:18Z</time>
      </trkpt>
      <trkpt lat="47.57982" lon="-2.90153">
        <ele>53</ele>
        <time>2018-04-21T09:41:21Z</time>
      </trkpt>
      <trkpt lat="47.57985" lon="-2.90158">
        <ele>53</ele>
        <time>2018-04-21T09:41:23Z</time>
      </trkpt>
      <trkpt lat="47.57987" lon="-2.90166">
        <ele>53</ele>
        <time>2018-04-21T09:41:26Z</time>
      </trkpt>
      <trkpt lat="47.57989" lon="-2.9017">
        <ele>54</ele>
        <time>2018-04-21T09:41:28Z</time>
      </trkpt>
      <trkpt lat="47.57992" lon="-2.90176">
        <ele>54</ele>
        <time>2018-04-21T09:41:31Z</time>
      </trkpt>
      <trkpt lat="47.57995" lon="-2.90184">
        <ele>54</ele>
        <time>2018-04-21T09:41:34Z</time>
      </trkpt>
      <trkpt lat="47.57997" lon="-2.90188">
        <ele>54</ele>
        <time>2018-04-21T09:41:36Z</time>
      </trkpt>
      <trkpt lat="47.58" lon="-2.90195">
        <ele>54</ele>
        <time>2018-04-21T09:41:39Z</time>
      </trkpt>
      <trkpt lat="47.58003" lon="-2.90203">
        <ele>54</ele>
        <time>2018-04-21T09:41:42Z</time>
      </trkpt>
      <trkpt lat="47.58007" lon="-2.9021">
        <ele>54</ele>
        <time>2018-04-21T09:41:45Z</time>
      </trkpt>
      <trkpt lat="47.58009" lon="-2.90214">
        <ele>54</ele>
        <time>2018-04-21T09:41:47Z</time>
      </trkpt>
      <trkpt lat="47.58011" lon="-2.90222">
        <ele>53</ele>
        <time>2018-04-21T09:41:50Z</time>
      </trkpt>
      <trkpt lat="47.58015" lon="-2.90227">
        <ele>55</ele>
        <time>2018-04-21T09:41:53Z</time>
      </trkpt>
      <trkpt lat="47.58018" lon="-2.90234">
        <ele>54</ele>
        <time>2018-04-21T09:41:56Z</time>
      </trkpt>
      <trkpt lat="47.5802" lon="-2.90239">
        <ele>55</ele>
        <time>2018-04-21T09:41:58Z</time>
      </trkpt>
      <trkpt lat="47.58022" lon="-2.90244">
        <ele>55</ele>
        <time>2018-04-21T09:42:00Z</time>
      </trkpt>
      <trkpt lat="47.58026" lon="-2.9025">
        <ele>55</ele>
        <time>2018-04-21T09:42:03Z</time>
      </trkpt>
      <trkpt lat="47.58028" lon="-2.90257">
        <ele>56</ele>
        <time>2018-04-21T09:42:06Z</time>
      </trkpt>
      <trkpt lat="47.58031" lon="-2.90262">
        <ele>57</ele>
        <time>2018-04-21T09:42:08Z</time>
      </trkpt>
      <trkpt lat="47.58033" lon="-2.9027">
        <ele>57</ele>
        <time>2018-04-21T09:42:11Z</time>
      </trkpt>
      <trkpt lat="47.58035" lon="-2.90275">
        <ele>57</ele>
        <time>2018-04-21T09:42:13Z</time>
      </trkpt>
      <trkpt lat="47.58036" lon="-2.90284">
        <ele>57</ele>
        <time>2018-04-21T09:42:17Z</time>
      </trkpt>
      <trkpt lat="47.58037" lon="-2.90288">
        <ele>56</ele>
        <time>2018-04-21T09:42:20Z</time>
      </trkpt>
      <trkpt lat="47.58038" lon="-2.90292">
        <ele>55</ele>
        <time>2018-04-21T09:42:23Z</time>
      </trkpt>
      <trkpt lat="47.5804" lon="-2.90299">
        <ele>55</ele>
        <time>2018-04-21T09:42:27Z</time>
      </trkpt>
      <trkpt lat="47.58043" lon="-2.90306">
        <ele>55</ele>
        <time>2018-04-21T09:42:30Z</time>
      </trkpt>
      <trkpt lat="47.58045" lon="-2.90313">
        <ele>55</ele>
        <time>2018-04-21T09:42:33Z</time>
      </trkpt>
      <trkpt lat="47.58048" lon="-2.9032">
        <ele>54</ele>
        <time>2018-04-21T09:42:36Z</time>
      </trkpt>
      <trkpt lat="47.5805" lon="-2.90324">
        <ele>55</ele>
        <time>2018-04-21T09:42:38Z</time>
      </trkpt>
      <trkpt lat="47.58052" lon="-2.90328">
        <ele>55</ele>
        <time>2018-04-21T09:42:40Z</time>
      </trkpt>
      <trkpt lat="47.58054" lon="-2.90335">
        <ele>55</ele>
        <time>2018-04-21T09:42:43Z</time>
      </trkpt>
      <trkpt lat="47.58055" lon="-2.9034">
        <ele>55</ele>
        <time>2018-04-21T09:42:45Z</time>
      </trkpt>
      <trkpt lat="47.58059" lon="-2.90347">
        <ele>56</ele>
        <time>2018-04-21T09:42:48Z</time>
      </trkpt>
      <trkpt lat="47.58061" lon="-2.90351">
        <ele>57</ele>
        <time>2018-04-21T09:42:50Z</time>
      </trkpt>
      <trkpt lat="47.58063" lon="-2.90356">
        <ele>58</ele>
        <time>2018-04-21T09:42:52Z</time>
      </trkpt>
      <trkpt lat="47.58066" lon="-2.90363">
        <ele>57</ele>
        <time>2018-04-21T09:42:55Z</time>
      </trkpt>
      <trkpt lat="47.58068" lon="-2.90369">
        <ele>58</ele>
        <time>2018-04-21T09:42:58Z</time>
      </trkpt>
      <trkpt lat="47.5807" lon="-2.90373">
        <ele>57</ele>
        <time>2018-04-21T09:43:00Z</time>
      </trkpt>
      <trkpt lat="47.58072" lon="-2.90379">
        <ele>57</ele>
        <time>2018-04-21T09:43:03Z</time>
      </trkpt>
      <trkpt lat="47.58076" lon="-2.90386">
        <ele>57</ele>
        <time>2018-04-21T09:43:06Z</time>
      </trkpt>
      <trkpt lat="47.5808" lon="-2.90393">
        <ele>58</ele>
        <time>2018-04-21T09:43:09Z</time>
      </trkpt>
      <trkpt lat="47.58082" lon="-2.90401">
        <ele>57</ele>
        <time>2018-04-21T09:43:12Z</time>
      </trkpt>
      <trkpt lat="47.58084" lon="-2.90406">
        <ele>57</ele>
        <time>2018-04-21T09:43:14Z</time>
      </trkpt>
      <trkpt lat="47.58085" lon="-2.90411">
        <ele>57</ele>
        <time>2018-04-21T09:43:16Z</time>
      </trkpt>
      <trkpt lat="47.58087" lon="-2.90417">
        <ele>57</ele>
        <time>2018-04-21T09:43:18Z</time>
      </trkpt>
      <trkpt lat="47.58089" lon="-2.90423">
        <ele>57</ele>
        <time>2018-04-21T09:43:20Z</time>
      </trkpt>
      <trkpt lat="47.58092" lon="-2.90431">
        <ele>57</ele>
        <time>2018-04-21T09:43:23Z</time>
      </trkpt>
      <trkpt lat="47.58096" lon="-2.90438">
        <ele>58</ele>
        <time>2018-04-21T09:43:26Z</time>
      </trkpt>
      <trkpt lat="47.58099" lon="-2.90446">
        <ele>57</ele>
        <time>2018-04-21T09:43:29Z</time>
      </trkpt>
      <trkpt lat="47.58103" lon="-2.90454">
        <ele>57</ele>
        <time>2018-04-21T09:43:32Z</time>
      </trkpt>
      <trkpt lat="47.58106" lon="-2.90462">
        <ele>57</ele>
        <time>2018-04-21T09:43:35Z</time>
      </trkpt>
      <trkpt lat="47.58109" lon="-2.90469">
        <ele>57</ele>
        <time>2018-04-21T09:43:38Z</time>
      </trkpt>
      <trkpt lat="47.58113" lon="-2.90476">
        <ele>58</ele>
        <time>2018-04-21T09:43:41Z</time>
      </trkpt>
      <trkpt lat="47.58117" lon="-2.90483">
        <ele>57</ele>
        <time>2018-04-21T09:43:44Z</time>
      </trkpt>
      <trkpt lat="47.5812" lon="-2.9049">
        <ele>58</ele>
        <time>2018-04-21T09:43:47Z</time>
      </trkpt>
      <trkpt lat="47.58122" lon="-2.90494">
        <ele>58</ele>
        <time>2018-04-21T09:43:49Z</time>
      </trkpt>
      <trkpt lat="47.58123" lon="-2.90498">
        <ele>57</ele>
        <time>2018-04-21T09:43:51Z</time>
      </trkpt>
      <trkpt lat="47.58126" lon="-2.90505">
        <ele>57</ele>
        <time>2018-04-21T09:43:55Z</time>
      </trkpt>
      <trkpt lat="47.58127" lon="-2.90512">
        <ele>56</ele>
        <time>2018-04-21T09:44:00Z</time>
      </trkpt>
      <trkpt lat="47.5813" lon="-2.90518">
        <ele>56</ele>
        <time>2018-04-21T09:44:05Z</time>
      </trkpt>
      <trkpt lat="47.58132" lon="-2.90521">
        <ele>56</ele>
        <time>2018-04-21T09:44:07Z</time>
      </trkpt>
      <trkpt lat="47.58135" lon="-2.90526">
        <ele>57</ele>
        <time>2018-04-21T09:44:10Z</time>
      </trkpt>
      <trkpt lat="47.58137" lon="-2.90529">
        <ele>57</ele>
        <time>2018-04-21T09:44:12Z</time>
      </trkpt>
      <trkpt lat="47.58139" lon="-2.90537">
        <ele>55</ele>
        <time>2018-04-21T09:44:15Z</time>
      </trkpt>
      <trkpt lat="47.58143" lon="-2.90542">
        <ele>56</ele>
        <time>2018-04-21T09:44:18Z</time>
      </trkpt>
      <trkpt lat="47.58146" lon="-2.90548">
        <ele>57</ele>
        <time>2018-04-21T09:44:21Z</time>
      </trkpt>
      <trkpt lat="47.5815" lon="-2.90554">
        <ele>56</ele>
        <time>2018-04-21T09:44:24Z</time>
      </trkpt>
      <trkpt lat="47.58153" lon="-2.90557">
        <ele>56</ele>
        <time>2018-04-21T09:44:26Z</time>
      </trkpt>
      <trkpt lat="47.58156" lon="-2.90565">
        <ele>55</ele>
        <time>2018-04-21T09:44:29Z</time>
      </trkpt>
      <trkpt lat="47.58157" lon="-2.90569">
        <ele>54</ele>
        <time>2018-04-21T09:44:31Z</time>
      </trkpt>
      <trkpt lat="47.58161" lon="-2.90574">
        <ele>55</ele>
        <time>2018-04-21T09:44:34Z</time>
      </trkpt>
      <trkpt lat="47.58165" lon="-2.9058">
        <ele>57</ele>
        <time>2018-04-21T09:44:37Z</time>
      </trkpt>
      <trkpt lat="47.58167" lon="-2.90586">
        <ele>56</ele>
        <time>2018-04-21T09:44:40Z</time>
      </trkpt>
      <trkpt lat="47.58169" lon="-2.9059">
        <ele>56</ele>
        <time>2018-04-21T09:44:42Z</time>
      </trkpt>
      <trkpt lat="47.58173" lon="-2.90594">
        <ele>56</ele>
        <time>2018-04-21T09:44:46Z</time>
      </trkpt>
      <trkpt lat="47.58177" lon="-2.90597">
        <ele>55</ele>
        <time>2018-04-21T09:44:51Z</time>
      </trkpt>
      <trkpt lat="47.58182" lon="-2.90601">
        <ele>55</ele>
        <time>2018-04-21T09:44:55Z</time>
      </trkpt>
      <trkpt lat="47.58187" lon="-2.90603">
        <ele>55</ele>
        <time>2018-04-21T09:44:59Z</time>
      </trkpt>
      <trkpt lat="47.5819" lon="-2.90604">
        <ele>55</ele>
        <time>2018-04-21T09:45:01Z</time>
      </trkpt>
      <trkpt lat="47.58194" lon="-2.90606">
        <ele>55</ele>
        <time>2018-04-21T09:45:05Z</time>
      </trkpt>
      <trkpt lat="47.58196" lon="-2.90608">
        <ele>54</ele>
        <time>2018-04-21T09:45:07Z</time>
      </trkpt>
      <trkpt lat="47.58199" lon="-2.90609">
        <ele>54</ele>
        <time>2018-04-21T09:45:11Z</time>
      </trkpt>
      <trkpt lat="47.58203" lon="-2.90607">
        <ele>54</ele>
        <time>2018-04-21T09:45:18Z</time>
      </trkpt>
      <trkpt lat="47.58208" lon="-2.90607">
        <ele>53</ele>
        <time>2018-04-21T09:45:24Z</time>
      </trkpt>
      <trkpt lat="47.58211" lon="-2.90607">
        <ele>54</ele>
        <time>2018-04-21T09:45:26Z</time>
      </trkpt>
      <trkpt lat="47.58214" lon="-2.90607">
        <ele>55</ele>
        <time>2018-04-21T09:45:29Z</time>
      </trkpt>
      <trkpt lat="47.58217" lon="-2.90606">
        <ele>55</ele>
        <time>2018-04-21T09:45:32Z</time>
      </trkpt>
      <trkpt lat="47.58221" lon="-2.90605">
        <ele>55</ele>
        <time>2018-04-21T09:45:34Z</time>
      </trkpt>
      <trkpt lat="47.58226" lon="-2.90605">
        <ele>53</ele>
        <time>2018-04-21T09:45:36Z</time>
      </trkpt>
      <trkpt lat="47.5823" lon="-2.90603">
        <ele>53</ele>
        <time>2018-04-21T09:45:39Z</time>
      </trkpt>
      <trkpt lat="47.58235" lon="-2.90602">
        <ele>53</ele>
        <time>2018-04-21T09:45:45Z</time>
      </trkpt>
      <trkpt lat="47.5824" lon="-2.90602">
        <ele>51</ele>
        <time>2018-04-21T09:45:49Z</time>
      </trkpt>
      <trkpt lat="47.5824" lon="-2.90602">
        <ele>51</ele>
        <time>2018-04-21T09:45:56Z</time>
      </trkpt>
      <trkpt lat="47.5824" lon="-2.90602">
        <ele>1</ele>
        <time>2018-04-21T09:45:56Z</time>
      </trkpt>
      <trkpt lat="47.5824" lon="-2.90602">
        <ele>1</ele>
        <time>2018-04-21T09:46:50Z</time>
      </trkpt>
      <trkpt lat="47.58244" lon="-2.90587">
        <ele>54</ele>
        <time>2018-04-21T09:46:50Z</time>
      </trkpt>
      <trkpt lat="47.58244" lon="-2.90587">
        <ele>54</ele>
        <time>2018-04-21T09:50:11Z</time>
      </trkpt>
      <trkpt lat="47.58246" lon="-2.90579">
        <ele>54</ele>
        <time>2018-04-21T09:53:24Z</time>
      </trkpt>
      <trkpt lat="47.58246" lon="-2.90572">
        <ele>54</ele>
        <time>2018-04-21T09:53:37Z</time>
      </trkpt>
      <trkpt lat="47.58248" lon="-2.90564">
        <ele>56</ele>
        <time>2018-04-21T09:53:49Z</time>
      </trkpt>
      <trkpt lat="47.58252" lon="-2.90559">
        <ele>56</ele>
        <time>2018-04-21T09:53:55Z</time>
      </trkpt>
      <trkpt lat="47.58254" lon="-2.90556">
        <ele>57</ele>
        <time>2018-04-21T09:53:58Z</time>
      </trkpt>
      <trkpt lat="47.58258" lon="-2.90552">
        <ele>56</ele>
        <time>2018-04-21T09:54:02Z</time>
      </trkpt>
      <trkpt lat="47.58263" lon="-2.90549">
        <ele>55</ele>
        <time>2018-04-21T09:54:07Z</time>
      </trkpt>
      <trkpt lat="47.58268" lon="-2.90545">
        <ele>60</ele>
        <time>2018-04-21T09:54:12Z</time>
      </trkpt>
      <trkpt lat="47.58271" lon="-2.90541">
        <ele>61</ele>
        <time>2018-04-21T09:54:17Z</time>
      </trkpt>
      <trkpt lat="47.58273" lon="-2.90538">
        <ele>62</ele>
        <time>2018-04-21T09:54:20Z</time>
      </trkpt>
      <trkpt lat="47.58276" lon="-2.90534">
        <ele>62</ele>
        <time>2018-04-21T09:54:24Z</time>
      </trkpt>
      <trkpt lat="47.58281" lon="-2.90531">
        <ele>65</ele>
        <time>2018-04-21T09:54:31Z</time>
      </trkpt>
      <trkpt lat="47.58284" lon="-2.90529">
        <ele>64</ele>
        <time>2018-04-21T09:54:34Z</time>
      </trkpt>
      <trkpt lat="47.58286" lon="-2.90528">
        <ele>64</ele>
        <time>2018-04-21T09:54:36Z</time>
      </trkpt>
      <trkpt lat="47.58288" lon="-2.90526">
        <ele>65</ele>
        <time>2018-04-21T09:54:39Z</time>
      </trkpt>
      <trkpt lat="47.58288" lon="-2.90526">
        <ele>8.8</ele>
        <time>2018-04-21T09:54:46Z</time>
      </trkpt>
      <trkpt lat="47.58288" lon="-2.90526">
        <ele>8.8</ele>
        <time>2018-04-21T09:54:52Z</time>
      </trkpt>
      <trkpt lat="47.58294" lon="-2.90523">
        <ele>61</ele>
        <time>2018-04-21T09:54:52Z</time>
      </trkpt>
      <trkpt lat="47.58298" lon="-2.90521">
        <ele>61</ele>
        <time>2018-04-21T09:54:56Z</time>
      </trkpt>
      <trkpt lat="47.58301" lon="-2.9052">
        <ele>61</ele>
        <time>2018-04-21T09:54:59Z</time>
      </trkpt>
      <trkpt lat="47.58304" lon="-2.90518">
        <ele>62</ele>
        <time>2018-04-21T09:55:03Z</time>
      </trkpt>
      <trkpt lat="47.58309" lon="-2.90517">
        <ele>62</ele>
        <time>2018-04-21T09:55:07Z</time>
      </trkpt>
      <trkpt lat="47.58312" lon="-2.90517">
        <ele>63</ele>
        <time>2018-04-21T09:55:09Z</time>
      </trkpt>
      <trkpt lat="47.58317" lon="-2.90517">
        <ele>62</ele>
        <time>2018-04-21T09:55:13Z</time>
      </trkpt>
      <trkpt lat="47.58317" lon="-2.90517">
        <ele>10.6</ele>
        <time>2018-04-21T09:55:21Z</time>
      </trkpt>
      <trkpt lat="47.58317" lon="-2.90517">
        <ele>10.6</ele>
        <time>2018-04-21T09:56:10Z</time>
      </trkpt>
    </trkseg>
  </trk>
</gpx>